<?xml version="1.0" encoding="UTF-8" standalone="no" ?>
<gpx xmlns="http://www.topografix.com/GPX/1/1" xmlns:xsi="http://www.w3.org/2001/XMLSchema-instance" xsi:schemaLocation="http://www.topografix.com/GPX/1/1 http://www.topografix.com/GPX/1/1/gpx.xsd" version="1.1" creator="VisuGPX - https://www.visugpx.com">
  <metadata>
    <name>Vinon-28km</name>
    <desc><![CDATA[Ballade au départ de Ginasservis vers le village de Vinon sur Verdon.]]></desc>
  </metadata>
  <trk>
    <name><![CDATA[12/3/2016 08:59]]></name>
    <desc><![CDATA[]]></desc>
    <trkseg>
      <trkpt lat="43.67089" lon="5.8483">
        <ele>489</ele>
        <time>2016-03-12T07:59:22.503Z</time>
      </trkpt>
      <trkpt lat="43.67093" lon="5.84837">
        <ele>479</ele>
        <time>2016-03-12T07:59:50.152Z</time>
      </trkpt>
      <trkpt lat="43.67098" lon="5.84834">
        <ele>473</ele>
        <time>2016-03-12T07:59:50.908Z</time>
      </trkpt>
      <trkpt lat="43.67102" lon="5.84831">
        <ele>468</ele>
        <time>2016-03-12T07:59:57.941Z</time>
      </trkpt>
      <trkpt lat="43.67108" lon="5.84834">
        <ele>470</ele>
        <time>2016-03-12T07:59:58.301Z</time>
      </trkpt>
      <trkpt lat="43.67107" lon="5.84845">
        <ele>486</ele>
        <time>2016-03-12T08:01:38.332Z</time>
      </trkpt>
      <trkpt lat="43.67107" lon="5.84849">
        <ele>486</ele>
        <time>2016-03-12T08:01:39.318Z</time>
      </trkpt>
      <trkpt lat="43.67107" lon="5.8486">
        <ele>487</ele>
        <time>2016-03-12T08:01:42.334Z</time>
      </trkpt>
      <trkpt lat="43.67107" lon="5.84864">
        <ele>488</ele>
        <time>2016-03-12T08:01:43.307Z</time>
      </trkpt>
      <trkpt lat="43.67113" lon="5.84873">
        <ele>486</ele>
        <time>2016-03-12T08:01:49.332Z</time>
      </trkpt>
      <trkpt lat="43.67114" lon="5.84874">
        <ele>485</ele>
        <time>2016-03-12T08:01:50.308Z</time>
      </trkpt>
      <trkpt lat="43.6712" lon="5.84883">
        <ele>491</ele>
        <time>2016-03-12T08:01:54.340Z</time>
      </trkpt>
      <trkpt lat="43.67122" lon="5.84885">
        <ele>492</ele>
        <time>2016-03-12T08:01:55.306Z</time>
      </trkpt>
      <trkpt lat="43.67128" lon="5.8489">
        <ele>496</ele>
        <time>2016-03-12T08:01:58.323Z</time>
      </trkpt>
      <trkpt lat="43.6713" lon="5.84891">
        <ele>497</ele>
        <time>2016-03-12T08:01:59.308Z</time>
      </trkpt>
      <trkpt lat="43.67134" lon="5.84896">
        <ele>497</ele>
        <time>2016-03-12T08:02:01.337Z</time>
      </trkpt>
      <trkpt lat="43.67138" lon="5.84898">
        <ele>496</ele>
        <time>2016-03-12T08:02:02.309Z</time>
      </trkpt>
      <trkpt lat="43.67145" lon="5.84904">
        <ele>488</ele>
        <time>2016-03-12T08:02:04.333Z</time>
      </trkpt>
      <trkpt lat="43.67148" lon="5.84907">
        <ele>488</ele>
        <time>2016-03-12T08:02:05.306Z</time>
      </trkpt>
      <trkpt lat="43.67154" lon="5.84912">
        <ele>488</ele>
        <time>2016-03-12T08:02:07.656Z</time>
      </trkpt>
      <trkpt lat="43.67157" lon="5.84915">
        <ele>487</ele>
        <time>2016-03-12T08:02:08.309Z</time>
      </trkpt>
      <trkpt lat="43.6716" lon="5.84926">
        <ele>486</ele>
        <time>2016-03-12T08:02:11.333Z</time>
      </trkpt>
      <trkpt lat="43.67159" lon="5.8493">
        <ele>487</ele>
        <time>2016-03-12T08:02:12.306Z</time>
      </trkpt>
      <trkpt lat="43.67158" lon="5.84942">
        <ele>482</ele>
        <time>2016-03-12T08:02:15.334Z</time>
      </trkpt>
      <trkpt lat="43.67158" lon="5.84947">
        <ele>480</ele>
        <time>2016-03-12T08:02:16.316Z</time>
      </trkpt>
      <trkpt lat="43.67156" lon="5.84955">
        <ele>475</ele>
        <time>2016-03-12T08:02:18.332Z</time>
      </trkpt>
      <trkpt lat="43.67155" lon="5.8496">
        <ele>474</ele>
        <time>2016-03-12T08:02:19.317Z</time>
      </trkpt>
      <trkpt lat="43.67152" lon="5.8497">
        <ele>473</ele>
        <time>2016-03-12T08:02:21.333Z</time>
      </trkpt>
      <trkpt lat="43.6715" lon="5.84974">
        <ele>472</ele>
        <time>2016-03-12T08:02:22.309Z</time>
      </trkpt>
      <trkpt lat="43.67147" lon="5.84983">
        <ele>471</ele>
        <time>2016-03-12T08:02:24.330Z</time>
      </trkpt>
      <trkpt lat="43.67145" lon="5.84986">
        <ele>471</ele>
        <time>2016-03-12T08:02:25.306Z</time>
      </trkpt>
      <trkpt lat="43.67142" lon="5.84994">
        <ele>471</ele>
        <time>2016-03-12T08:02:27.332Z</time>
      </trkpt>
      <trkpt lat="43.6714" lon="5.84998">
        <ele>472</ele>
        <time>2016-03-12T08:02:28.306Z</time>
      </trkpt>
      <trkpt lat="43.67137" lon="5.85005">
        <ele>472</ele>
        <time>2016-03-12T08:02:30.329Z</time>
      </trkpt>
      <trkpt lat="43.67135" lon="5.85009">
        <ele>472</ele>
        <time>2016-03-12T08:02:31.308Z</time>
      </trkpt>
      <trkpt lat="43.67129" lon="5.85018">
        <ele>472</ele>
        <time>2016-03-12T08:02:34.334Z</time>
      </trkpt>
      <trkpt lat="43.67127" lon="5.85021">
        <ele>472</ele>
        <time>2016-03-12T08:02:35.307Z</time>
      </trkpt>
      <trkpt lat="43.67121" lon="5.8503">
        <ele>473</ele>
        <time>2016-03-12T08:02:38.331Z</time>
      </trkpt>
      <trkpt lat="43.67119" lon="5.85033">
        <ele>472</ele>
        <time>2016-03-12T08:02:39.318Z</time>
      </trkpt>
      <trkpt lat="43.67114" lon="5.85042">
        <ele>473</ele>
        <time>2016-03-12T08:02:42.341Z</time>
      </trkpt>
      <trkpt lat="43.67112" lon="5.85044">
        <ele>471</ele>
        <time>2016-03-12T08:02:43.307Z</time>
      </trkpt>
      <trkpt lat="43.67106" lon="5.85048">
        <ele>471</ele>
        <time>2016-03-12T08:02:46.333Z</time>
      </trkpt>
      <trkpt lat="43.67104" lon="5.85051">
        <ele>470</ele>
        <time>2016-03-12T08:02:47.307Z</time>
      </trkpt>
      <trkpt lat="43.67098" lon="5.8506">
        <ele>471</ele>
        <time>2016-03-12T08:02:50.355Z</time>
      </trkpt>
      <trkpt lat="43.67096" lon="5.85064">
        <ele>471</ele>
        <time>2016-03-12T08:02:51.306Z</time>
      </trkpt>
      <trkpt lat="43.67097" lon="5.85074">
        <ele>472</ele>
        <time>2016-03-12T08:02:54.332Z</time>
      </trkpt>
      <trkpt lat="43.67101" lon="5.85076">
        <ele>471</ele>
        <time>2016-03-12T08:02:55.306Z</time>
      </trkpt>
      <trkpt lat="43.67105" lon="5.85078">
        <ele>471</ele>
        <time>2016-03-12T08:02:56.409Z</time>
      </trkpt>
      <trkpt lat="43.6711" lon="5.85079">
        <ele>472</ele>
        <time>2016-03-12T08:02:57.306Z</time>
      </trkpt>
      <trkpt lat="43.67115" lon="5.85081">
        <ele>472</ele>
        <time>2016-03-12T08:02:58.331Z</time>
      </trkpt>
      <trkpt lat="43.6712" lon="5.85082">
        <ele>473</ele>
        <time>2016-03-12T08:02:59.307Z</time>
      </trkpt>
      <trkpt lat="43.67125" lon="5.85083">
        <ele>472</ele>
        <time>2016-03-12T08:03:00.339Z</time>
      </trkpt>
      <trkpt lat="43.67129" lon="5.85086">
        <ele>472</ele>
        <time>2016-03-12T08:03:01.331Z</time>
      </trkpt>
      <trkpt lat="43.67133" lon="5.85089">
        <ele>472</ele>
        <time>2016-03-12T08:03:02.333Z</time>
      </trkpt>
      <trkpt lat="43.67137" lon="5.85093">
        <ele>473</ele>
        <time>2016-03-12T08:03:03.308Z</time>
      </trkpt>
      <trkpt lat="43.67144" lon="5.85099">
        <ele>474</ele>
        <time>2016-03-12T08:03:05.323Z</time>
      </trkpt>
      <trkpt lat="43.67148" lon="5.85103">
        <ele>474</ele>
        <time>2016-03-12T08:03:06.298Z</time>
      </trkpt>
      <trkpt lat="43.67155" lon="5.85109">
        <ele>474</ele>
        <time>2016-03-12T08:03:08.320Z</time>
      </trkpt>
      <trkpt lat="43.67159" lon="5.85112">
        <ele>474</ele>
        <time>2016-03-12T08:03:09.306Z</time>
      </trkpt>
      <trkpt lat="43.67166" lon="5.85118">
        <ele>474</ele>
        <time>2016-03-12T08:03:11.332Z</time>
      </trkpt>
      <trkpt lat="43.6717" lon="5.85122">
        <ele>473</ele>
        <time>2016-03-12T08:03:12.304Z</time>
      </trkpt>
      <trkpt lat="43.67176" lon="5.85127">
        <ele>474</ele>
        <time>2016-03-12T08:03:14.327Z</time>
      </trkpt>
      <trkpt lat="43.67179" lon="5.8513">
        <ele>473</ele>
        <time>2016-03-12T08:03:15.305Z</time>
      </trkpt>
      <trkpt lat="43.67186" lon="5.85136">
        <ele>473</ele>
        <time>2016-03-12T08:03:17.355Z</time>
      </trkpt>
      <trkpt lat="43.6719" lon="5.85139">
        <ele>473</ele>
        <time>2016-03-12T08:03:18.300Z</time>
      </trkpt>
      <trkpt lat="43.67196" lon="5.85144">
        <ele>472</ele>
        <time>2016-03-12T08:03:20.327Z</time>
      </trkpt>
      <trkpt lat="43.67199" lon="5.85146">
        <ele>472</ele>
        <time>2016-03-12T08:03:21.305Z</time>
      </trkpt>
      <trkpt lat="43.67205" lon="5.85151">
        <ele>472</ele>
        <time>2016-03-12T08:03:23.330Z</time>
      </trkpt>
      <trkpt lat="43.67207" lon="5.85154">
        <ele>472</ele>
        <time>2016-03-12T08:03:24.305Z</time>
      </trkpt>
      <trkpt lat="43.67212" lon="5.8516">
        <ele>472</ele>
        <time>2016-03-12T08:03:26.327Z</time>
      </trkpt>
      <trkpt lat="43.67215" lon="5.85163">
        <ele>472</ele>
        <time>2016-03-12T08:03:27.305Z</time>
      </trkpt>
      <trkpt lat="43.6722" lon="5.85169">
        <ele>472</ele>
        <time>2016-03-12T08:03:29.334Z</time>
      </trkpt>
      <trkpt lat="43.67222" lon="5.85172">
        <ele>471</ele>
        <time>2016-03-12T08:03:30.337Z</time>
      </trkpt>
      <trkpt lat="43.67227" lon="5.85178">
        <ele>472</ele>
        <time>2016-03-12T08:03:32.331Z</time>
      </trkpt>
      <trkpt lat="43.6723" lon="5.85181">
        <ele>471</ele>
        <time>2016-03-12T08:03:33.305Z</time>
      </trkpt>
      <trkpt lat="43.67235" lon="5.85187">
        <ele>471</ele>
        <time>2016-03-12T08:03:35.333Z</time>
      </trkpt>
      <trkpt lat="43.67238" lon="5.8519">
        <ele>471</ele>
        <time>2016-03-12T08:03:36.307Z</time>
      </trkpt>
      <trkpt lat="43.67243" lon="5.85197">
        <ele>472</ele>
        <time>2016-03-12T08:03:38.333Z</time>
      </trkpt>
      <trkpt lat="43.67245" lon="5.85201">
        <ele>472</ele>
        <time>2016-03-12T08:03:39.300Z</time>
      </trkpt>
      <trkpt lat="43.67247" lon="5.8521">
        <ele>472</ele>
        <time>2016-03-12T08:03:41.332Z</time>
      </trkpt>
      <trkpt lat="43.67248" lon="5.85214">
        <ele>472</ele>
        <time>2016-03-12T08:03:42.308Z</time>
      </trkpt>
      <trkpt lat="43.6725" lon="5.85225">
        <ele>471</ele>
        <time>2016-03-12T08:03:45.336Z</time>
      </trkpt>
      <trkpt lat="43.67252" lon="5.85228">
        <ele>471</ele>
        <time>2016-03-12T08:03:46.305Z</time>
      </trkpt>
      <trkpt lat="43.67259" lon="5.85234">
        <ele>470</ele>
        <time>2016-03-12T08:03:49.364Z</time>
      </trkpt>
      <trkpt lat="43.67262" lon="5.85236">
        <ele>470</ele>
        <time>2016-03-12T08:03:50.307Z</time>
      </trkpt>
      <trkpt lat="43.6727" lon="5.85241">
        <ele>469</ele>
        <time>2016-03-12T08:03:52.333Z</time>
      </trkpt>
      <trkpt lat="43.67274" lon="5.85244">
        <ele>470</ele>
        <time>2016-03-12T08:03:53.305Z</time>
      </trkpt>
      <trkpt lat="43.67279" lon="5.85246">
        <ele>470</ele>
        <time>2016-03-12T08:03:54.334Z</time>
      </trkpt>
      <trkpt lat="43.67284" lon="5.85249">
        <ele>470</ele>
        <time>2016-03-12T08:03:55.307Z</time>
      </trkpt>
      <trkpt lat="43.67288" lon="5.85252">
        <ele>470</ele>
        <time>2016-03-12T08:03:56.336Z</time>
      </trkpt>
      <trkpt lat="43.67293" lon="5.85255">
        <ele>470</ele>
        <time>2016-03-12T08:03:57.309Z</time>
      </trkpt>
      <trkpt lat="43.67297" lon="5.85257">
        <ele>470</ele>
        <time>2016-03-12T08:03:58.332Z</time>
      </trkpt>
      <trkpt lat="43.67301" lon="5.8526">
        <ele>471</ele>
        <time>2016-03-12T08:03:59.306Z</time>
      </trkpt>
      <trkpt lat="43.67306" lon="5.85263">
        <ele>471</ele>
        <time>2016-03-12T08:04:00.333Z</time>
      </trkpt>
      <trkpt lat="43.6731" lon="5.85266">
        <ele>471</ele>
        <time>2016-03-12T08:04:01.308Z</time>
      </trkpt>
      <trkpt lat="43.67317" lon="5.8527">
        <ele>470</ele>
        <time>2016-03-12T08:04:03.367Z</time>
      </trkpt>
      <trkpt lat="43.6732" lon="5.85273">
        <ele>471</ele>
        <time>2016-03-12T08:04:04.307Z</time>
      </trkpt>
      <trkpt lat="43.67327" lon="5.85277">
        <ele>471</ele>
        <time>2016-03-12T08:04:06.331Z</time>
      </trkpt>
      <trkpt lat="43.6733" lon="5.85279">
        <ele>470</ele>
        <time>2016-03-12T08:04:07.308Z</time>
      </trkpt>
      <trkpt lat="43.67337" lon="5.85283">
        <ele>470</ele>
        <time>2016-03-12T08:04:09.333Z</time>
      </trkpt>
      <trkpt lat="43.67341" lon="5.85285">
        <ele>470</ele>
        <time>2016-03-12T08:04:10.335Z</time>
      </trkpt>
      <trkpt lat="43.67347" lon="5.8529">
        <ele>470</ele>
        <time>2016-03-12T08:04:12.330Z</time>
      </trkpt>
      <trkpt lat="43.67351" lon="5.85292">
        <ele>471</ele>
        <time>2016-03-12T08:04:13.305Z</time>
      </trkpt>
      <trkpt lat="43.67358" lon="5.85296">
        <ele>471</ele>
        <time>2016-03-12T08:04:15.595Z</time>
      </trkpt>
      <trkpt lat="43.67361" lon="5.85298">
        <ele>471</ele>
        <time>2016-03-12T08:04:16.309Z</time>
      </trkpt>
      <trkpt lat="43.67367" lon="5.85302">
        <ele>471</ele>
        <time>2016-03-12T08:04:18.332Z</time>
      </trkpt>
      <trkpt lat="43.67369" lon="5.85304">
        <ele>471</ele>
        <time>2016-03-12T08:04:19.316Z</time>
      </trkpt>
      <trkpt lat="43.67377" lon="5.85309">
        <ele>472</ele>
        <time>2016-03-12T08:04:22.333Z</time>
      </trkpt>
      <trkpt lat="43.6738" lon="5.85311">
        <ele>472</ele>
        <time>2016-03-12T08:04:23.306Z</time>
      </trkpt>
      <trkpt lat="43.67385" lon="5.85319">
        <ele>474</ele>
        <time>2016-03-12T08:04:27.395Z</time>
      </trkpt>
      <trkpt lat="43.67386" lon="5.85321">
        <ele>474</ele>
        <time>2016-03-12T08:04:28.307Z</time>
      </trkpt>
      <trkpt lat="43.6739" lon="5.85332">
        <ele>475</ele>
        <time>2016-03-12T08:04:32.334Z</time>
      </trkpt>
      <trkpt lat="43.67392" lon="5.85334">
        <ele>476</ele>
        <time>2016-03-12T08:04:33.308Z</time>
      </trkpt>
      <trkpt lat="43.67397" lon="5.85344">
        <ele>477</ele>
        <time>2016-03-12T08:04:37.363Z</time>
      </trkpt>
      <trkpt lat="43.67398" lon="5.85346">
        <ele>478</ele>
        <time>2016-03-12T08:04:38.307Z</time>
      </trkpt>
      <trkpt lat="43.67403" lon="5.85356">
        <ele>480</ele>
        <time>2016-03-12T08:04:42.333Z</time>
      </trkpt>
      <trkpt lat="43.67404" lon="5.85358">
        <ele>480</ele>
        <time>2016-03-12T08:04:43.307Z</time>
      </trkpt>
      <trkpt lat="43.6741" lon="5.85367">
        <ele>480</ele>
        <time>2016-03-12T08:04:47.328Z</time>
      </trkpt>
      <trkpt lat="43.67412" lon="5.8537">
        <ele>480</ele>
        <time>2016-03-12T08:04:48.302Z</time>
      </trkpt>
      <trkpt lat="43.67417" lon="5.85379">
        <ele>481</ele>
        <time>2016-03-12T08:04:51.328Z</time>
      </trkpt>
      <trkpt lat="43.67419" lon="5.85383">
        <ele>481</ele>
        <time>2016-03-12T08:04:52.304Z</time>
      </trkpt>
      <trkpt lat="43.67424" lon="5.85392">
        <ele>481</ele>
        <time>2016-03-12T08:04:54.328Z</time>
      </trkpt>
      <trkpt lat="43.67428" lon="5.85395">
        <ele>481</ele>
        <time>2016-03-12T08:04:55.306Z</time>
      </trkpt>
      <trkpt lat="43.67437" lon="5.85396">
        <ele>480</ele>
        <time>2016-03-12T08:04:56.331Z</time>
      </trkpt>
      <trkpt lat="43.67441" lon="5.85397">
        <ele>480</ele>
        <time>2016-03-12T08:04:57.308Z</time>
      </trkpt>
      <trkpt lat="43.67449" lon="5.854">
        <ele>479</ele>
        <time>2016-03-12T08:04:59.332Z</time>
      </trkpt>
      <trkpt lat="43.67454" lon="5.85401">
        <ele>480</ele>
        <time>2016-03-12T08:05:00.305Z</time>
      </trkpt>
      <trkpt lat="43.67461" lon="5.85405">
        <ele>479</ele>
        <time>2016-03-12T08:05:02.332Z</time>
      </trkpt>
      <trkpt lat="43.67463" lon="5.85407">
        <ele>480</ele>
        <time>2016-03-12T08:05:03.301Z</time>
      </trkpt>
      <trkpt lat="43.6747" lon="5.85413">
        <ele>481</ele>
        <time>2016-03-12T08:05:06.344Z</time>
      </trkpt>
      <trkpt lat="43.67472" lon="5.85415">
        <ele>481</ele>
        <time>2016-03-12T08:05:07.304Z</time>
      </trkpt>
      <trkpt lat="43.67479" lon="5.8542">
        <ele>481</ele>
        <time>2016-03-12T08:05:11.344Z</time>
      </trkpt>
      <trkpt lat="43.67481" lon="5.8542">
        <ele>481</ele>
        <time>2016-03-12T08:05:12.303Z</time>
      </trkpt>
      <trkpt lat="43.67489" lon="5.85422">
        <ele>481</ele>
        <time>2016-03-12T08:05:17.333Z</time>
      </trkpt>
      <trkpt lat="43.6749" lon="5.85422">
        <ele>481</ele>
        <time>2016-03-12T08:05:18.308Z</time>
      </trkpt>
      <trkpt lat="43.67498" lon="5.8542">
        <ele>480</ele>
        <time>2016-03-12T08:05:24.345Z</time>
      </trkpt>
      <trkpt lat="43.67499" lon="5.8542">
        <ele>480</ele>
        <time>2016-03-12T08:05:25.308Z</time>
      </trkpt>
      <trkpt lat="43.67508" lon="5.85418">
        <ele>481</ele>
        <time>2016-03-12T08:05:31.332Z</time>
      </trkpt>
      <trkpt lat="43.67509" lon="5.85418">
        <ele>481</ele>
        <time>2016-03-12T08:05:32.306Z</time>
      </trkpt>
      <trkpt lat="43.67518" lon="5.85416">
        <ele>483</ele>
        <time>2016-03-12T08:05:38.331Z</time>
      </trkpt>
      <trkpt lat="43.67519" lon="5.85416">
        <ele>483</ele>
        <time>2016-03-12T08:05:39.307Z</time>
      </trkpt>
      <trkpt lat="43.67527" lon="5.85414">
        <ele>486</ele>
        <time>2016-03-12T08:05:45.335Z</time>
      </trkpt>
      <trkpt lat="43.67529" lon="5.85414">
        <ele>486</ele>
        <time>2016-03-12T08:05:46.307Z</time>
      </trkpt>
      <trkpt lat="43.67537" lon="5.85412">
        <ele>487</ele>
        <time>2016-03-12T08:05:52.361Z</time>
      </trkpt>
      <trkpt lat="43.67538" lon="5.85411">
        <ele>487</ele>
        <time>2016-03-12T08:05:53.307Z</time>
      </trkpt>
      <trkpt lat="43.67546" lon="5.8541">
        <ele>487</ele>
        <time>2016-03-12T08:05:59.332Z</time>
      </trkpt>
      <trkpt lat="43.67548" lon="5.85409">
        <ele>488</ele>
        <time>2016-03-12T08:06:00.308Z</time>
      </trkpt>
      <trkpt lat="43.67557" lon="5.85409">
        <ele>488</ele>
        <time>2016-03-12T08:06:06.566Z</time>
      </trkpt>
      <trkpt lat="43.67558" lon="5.85408">
        <ele>488</ele>
        <time>2016-03-12T08:06:07.307Z</time>
      </trkpt>
      <trkpt lat="43.67566" lon="5.85406">
        <ele>489</ele>
        <time>2016-03-12T08:06:13.336Z</time>
      </trkpt>
      <trkpt lat="43.67567" lon="5.85407">
        <ele>489</ele>
        <time>2016-03-12T08:06:14.344Z</time>
      </trkpt>
      <trkpt lat="43.67575" lon="5.85405">
        <ele>489</ele>
        <time>2016-03-12T08:06:20.332Z</time>
      </trkpt>
      <trkpt lat="43.67576" lon="5.85405">
        <ele>489</ele>
        <time>2016-03-12T08:06:21.304Z</time>
      </trkpt>
      <trkpt lat="43.67584" lon="5.85404">
        <ele>491</ele>
        <time>2016-03-12T08:06:27.335Z</time>
      </trkpt>
      <trkpt lat="43.67586" lon="5.85404">
        <ele>491</ele>
        <time>2016-03-12T08:06:28.308Z</time>
      </trkpt>
      <trkpt lat="43.67594" lon="5.85403">
        <ele>492</ele>
        <time>2016-03-12T08:06:34.334Z</time>
      </trkpt>
      <trkpt lat="43.67596" lon="5.85403">
        <ele>492</ele>
        <time>2016-03-12T08:06:35.307Z</time>
      </trkpt>
      <trkpt lat="43.67604" lon="5.854">
        <ele>493</ele>
        <time>2016-03-12T08:06:41.363Z</time>
      </trkpt>
      <trkpt lat="43.67605" lon="5.854">
        <ele>493</ele>
        <time>2016-03-12T08:06:42.310Z</time>
      </trkpt>
      <trkpt lat="43.67614" lon="5.85398">
        <ele>492</ele>
        <time>2016-03-12T08:06:48.334Z</time>
      </trkpt>
      <trkpt lat="43.67615" lon="5.85398">
        <ele>493</ele>
        <time>2016-03-12T08:06:49.308Z</time>
      </trkpt>
      <trkpt lat="43.67623" lon="5.85396">
        <ele>494</ele>
        <time>2016-03-12T08:06:55.332Z</time>
      </trkpt>
      <trkpt lat="43.67625" lon="5.85396">
        <ele>494</ele>
        <time>2016-03-12T08:06:56.307Z</time>
      </trkpt>
      <trkpt lat="43.67633" lon="5.85395">
        <ele>495</ele>
        <time>2016-03-12T08:07:02.338Z</time>
      </trkpt>
      <trkpt lat="43.67635" lon="5.85394">
        <ele>495</ele>
        <time>2016-03-12T08:07:03.307Z</time>
      </trkpt>
      <trkpt lat="43.67642" lon="5.85393">
        <ele>496</ele>
        <time>2016-03-12T08:07:08.373Z</time>
      </trkpt>
      <trkpt lat="43.67644" lon="5.85393">
        <ele>496</ele>
        <time>2016-03-12T08:07:09.308Z</time>
      </trkpt>
      <trkpt lat="43.67651" lon="5.85391">
        <ele>496</ele>
        <time>2016-03-12T08:07:14.334Z</time>
      </trkpt>
      <trkpt lat="43.67653" lon="5.85391">
        <ele>496</ele>
        <time>2016-03-12T08:07:15.307Z</time>
      </trkpt>
      <trkpt lat="43.6766" lon="5.85388">
        <ele>496</ele>
        <time>2016-03-12T08:07:20.333Z</time>
      </trkpt>
      <trkpt lat="43.67662" lon="5.85387">
        <ele>496</ele>
        <time>2016-03-12T08:07:21.319Z</time>
      </trkpt>
      <trkpt lat="43.67669" lon="5.85383">
        <ele>496</ele>
        <time>2016-03-12T08:07:26.334Z</time>
      </trkpt>
      <trkpt lat="43.6767" lon="5.85382">
        <ele>495</ele>
        <time>2016-03-12T08:07:27.306Z</time>
      </trkpt>
      <trkpt lat="43.67677" lon="5.85377">
        <ele>495</ele>
        <time>2016-03-12T08:07:32.334Z</time>
      </trkpt>
      <trkpt lat="43.67679" lon="5.85376">
        <ele>495</ele>
        <time>2016-03-12T08:07:33.307Z</time>
      </trkpt>
      <trkpt lat="43.67686" lon="5.85372">
        <ele>495</ele>
        <time>2016-03-12T08:07:38.333Z</time>
      </trkpt>
      <trkpt lat="43.67687" lon="5.85371">
        <ele>496</ele>
        <time>2016-03-12T08:07:39.307Z</time>
      </trkpt>
      <trkpt lat="43.67694" lon="5.85364">
        <ele>497</ele>
        <time>2016-03-12T08:07:45.402Z</time>
      </trkpt>
      <trkpt lat="43.67695" lon="5.85363">
        <ele>497</ele>
        <time>2016-03-12T08:07:46.298Z</time>
      </trkpt>
      <trkpt lat="43.67702" lon="5.85355">
        <ele>499</ele>
        <time>2016-03-12T08:07:52.332Z</time>
      </trkpt>
      <trkpt lat="43.67703" lon="5.85354">
        <ele>499</ele>
        <time>2016-03-12T08:07:53.308Z</time>
      </trkpt>
      <trkpt lat="43.67709" lon="5.85346">
        <ele>498</ele>
        <time>2016-03-12T08:07:58.335Z</time>
      </trkpt>
      <trkpt lat="43.6771" lon="5.85344">
        <ele>499</ele>
        <time>2016-03-12T08:07:59.308Z</time>
      </trkpt>
      <trkpt lat="43.67715" lon="5.85336">
        <ele>500</ele>
        <time>2016-03-12T08:08:04.333Z</time>
      </trkpt>
      <trkpt lat="43.67716" lon="5.85334">
        <ele>500</ele>
        <time>2016-03-12T08:08:05.301Z</time>
      </trkpt>
      <trkpt lat="43.67721" lon="5.85325">
        <ele>500</ele>
        <time>2016-03-12T08:08:10.340Z</time>
      </trkpt>
      <trkpt lat="43.67722" lon="5.85323">
        <ele>500</ele>
        <time>2016-03-12T08:08:11.308Z</time>
      </trkpt>
      <trkpt lat="43.67727" lon="5.85315">
        <ele>499</ele>
        <time>2016-03-12T08:08:15.344Z</time>
      </trkpt>
      <trkpt lat="43.67728" lon="5.85313">
        <ele>499</ele>
        <time>2016-03-12T08:08:16.308Z</time>
      </trkpt>
      <trkpt lat="43.67734" lon="5.85305">
        <ele>499</ele>
        <time>2016-03-12T08:08:20.333Z</time>
      </trkpt>
      <trkpt lat="43.67735" lon="5.85303">
        <ele>498</ele>
        <time>2016-03-12T08:08:21.308Z</time>
      </trkpt>
      <trkpt lat="43.6774" lon="5.85292">
        <ele>499</ele>
        <time>2016-03-12T08:08:25.333Z</time>
      </trkpt>
      <trkpt lat="43.6774" lon="5.8529">
        <ele>499</ele>
        <time>2016-03-12T08:08:26.308Z</time>
      </trkpt>
      <trkpt lat="43.67742" lon="5.85278">
        <ele>499</ele>
        <time>2016-03-12T08:08:30.333Z</time>
      </trkpt>
      <trkpt lat="43.67743" lon="5.85275">
        <ele>500</ele>
        <time>2016-03-12T08:08:31.305Z</time>
      </trkpt>
      <trkpt lat="43.67744" lon="5.85264">
        <ele>501</ele>
        <time>2016-03-12T08:08:35.329Z</time>
      </trkpt>
      <trkpt lat="43.67744" lon="5.85262">
        <ele>501</ele>
        <time>2016-03-12T08:08:36.306Z</time>
      </trkpt>
      <trkpt lat="43.67744" lon="5.85251">
        <ele>503</ele>
        <time>2016-03-12T08:08:40.327Z</time>
      </trkpt>
      <trkpt lat="43.67744" lon="5.85249">
        <ele>504</ele>
        <time>2016-03-12T08:08:41.304Z</time>
      </trkpt>
      <trkpt lat="43.67745" lon="5.85237">
        <ele>505</ele>
        <time>2016-03-12T08:08:46.327Z</time>
      </trkpt>
      <trkpt lat="43.67745" lon="5.85235">
        <ele>506</ele>
        <time>2016-03-12T08:08:47.307Z</time>
      </trkpt>
      <trkpt lat="43.67742" lon="5.85225">
        <ele>508</ele>
        <time>2016-03-12T08:08:52.333Z</time>
      </trkpt>
      <trkpt lat="43.67742" lon="5.85223">
        <ele>509</ele>
        <time>2016-03-12T08:08:53.306Z</time>
      </trkpt>
      <trkpt lat="43.67737" lon="5.85213">
        <ele>509</ele>
        <time>2016-03-12T08:08:58.330Z</time>
      </trkpt>
      <trkpt lat="43.67737" lon="5.8521">
        <ele>509</ele>
        <time>2016-03-12T08:08:59.306Z</time>
      </trkpt>
      <trkpt lat="43.67733" lon="5.852">
        <ele>510</ele>
        <time>2016-03-12T08:09:04.334Z</time>
      </trkpt>
      <trkpt lat="43.67733" lon="5.85198">
        <ele>510</ele>
        <time>2016-03-12T08:09:05.308Z</time>
      </trkpt>
      <trkpt lat="43.67735" lon="5.85189">
        <ele>511</ele>
        <time>2016-03-12T08:09:10.336Z</time>
      </trkpt>
      <trkpt lat="43.67736" lon="5.85186">
        <ele>510</ele>
        <time>2016-03-12T08:09:11.309Z</time>
      </trkpt>
      <trkpt lat="43.67736" lon="5.85176">
        <ele>510</ele>
        <time>2016-03-12T08:09:14.341Z</time>
      </trkpt>
      <trkpt lat="43.67737" lon="5.85172">
        <ele>510</ele>
        <time>2016-03-12T08:09:15.309Z</time>
      </trkpt>
      <trkpt lat="43.67739" lon="5.85163">
        <ele>511</ele>
        <time>2016-03-12T08:09:18.333Z</time>
      </trkpt>
      <trkpt lat="43.6774" lon="5.8516">
        <ele>511</ele>
        <time>2016-03-12T08:09:19.307Z</time>
      </trkpt>
      <trkpt lat="43.67742" lon="5.85151">
        <ele>511</ele>
        <time>2016-03-12T08:09:22.361Z</time>
      </trkpt>
      <trkpt lat="43.67743" lon="5.85148">
        <ele>511</ele>
        <time>2016-03-12T08:09:23.308Z</time>
      </trkpt>
      <trkpt lat="43.67743" lon="5.85137">
        <ele>511</ele>
        <time>2016-03-12T08:09:27.335Z</time>
      </trkpt>
      <trkpt lat="43.67742" lon="5.85134">
        <ele>511</ele>
        <time>2016-03-12T08:09:28.310Z</time>
      </trkpt>
      <trkpt lat="43.67739" lon="5.85123">
        <ele>511</ele>
        <time>2016-03-12T08:09:31.346Z</time>
      </trkpt>
      <trkpt lat="43.67737" lon="5.85119">
        <ele>511</ele>
        <time>2016-03-12T08:09:32.309Z</time>
      </trkpt>
      <trkpt lat="43.67736" lon="5.85111">
        <ele>510</ele>
        <time>2016-03-12T08:09:34.337Z</time>
      </trkpt>
      <trkpt lat="43.67735" lon="5.85107">
        <ele>511</ele>
        <time>2016-03-12T08:09:35.309Z</time>
      </trkpt>
      <trkpt lat="43.67733" lon="5.85095">
        <ele>510</ele>
        <time>2016-03-12T08:09:38.362Z</time>
      </trkpt>
      <trkpt lat="43.67733" lon="5.85092">
        <ele>510</ele>
        <time>2016-03-12T08:09:39.308Z</time>
      </trkpt>
      <trkpt lat="43.67731" lon="5.85082">
        <ele>510</ele>
        <time>2016-03-12T08:09:42.341Z</time>
      </trkpt>
      <trkpt lat="43.6773" lon="5.85078">
        <ele>510</ele>
        <time>2016-03-12T08:09:43.309Z</time>
      </trkpt>
      <trkpt lat="43.67729" lon="5.85069">
        <ele>510</ele>
        <time>2016-03-12T08:09:45.385Z</time>
      </trkpt>
      <trkpt lat="43.67729" lon="5.85064">
        <ele>510</ele>
        <time>2016-03-12T08:09:46.309Z</time>
      </trkpt>
      <trkpt lat="43.67729" lon="5.85052">
        <ele>511</ele>
        <time>2016-03-12T08:09:49.333Z</time>
      </trkpt>
      <trkpt lat="43.67729" lon="5.85048">
        <ele>511</ele>
        <time>2016-03-12T08:09:50.308Z</time>
      </trkpt>
      <trkpt lat="43.67731" lon="5.85037">
        <ele>511</ele>
        <time>2016-03-12T08:09:53.335Z</time>
      </trkpt>
      <trkpt lat="43.67731" lon="5.85033">
        <ele>511</ele>
        <time>2016-03-12T08:09:54.334Z</time>
      </trkpt>
      <trkpt lat="43.67735" lon="5.85024">
        <ele>511</ele>
        <time>2016-03-12T08:09:57.569Z</time>
      </trkpt>
      <trkpt lat="43.67737" lon="5.85021">
        <ele>511</ele>
        <time>2016-03-12T08:09:58.306Z</time>
      </trkpt>
      <trkpt lat="43.67743" lon="5.85013">
        <ele>512</ele>
        <time>2016-03-12T08:10:01.319Z</time>
      </trkpt>
      <trkpt lat="43.67744" lon="5.8501">
        <ele>512</ele>
        <time>2016-03-12T08:10:02.308Z</time>
      </trkpt>
      <trkpt lat="43.67749" lon="5.85001">
        <ele>512</ele>
        <time>2016-03-12T08:10:05.338Z</time>
      </trkpt>
      <trkpt lat="43.6775" lon="5.84998">
        <ele>512</ele>
        <time>2016-03-12T08:10:06.309Z</time>
      </trkpt>
      <trkpt lat="43.67753" lon="5.84988">
        <ele>512</ele>
        <time>2016-03-12T08:10:09.333Z</time>
      </trkpt>
      <trkpt lat="43.67754" lon="5.84985">
        <ele>512</ele>
        <time>2016-03-12T08:10:10.335Z</time>
      </trkpt>
      <trkpt lat="43.67759" lon="5.84975">
        <ele>513</ele>
        <time>2016-03-12T08:10:13.332Z</time>
      </trkpt>
      <trkpt lat="43.67761" lon="5.84972">
        <ele>513</ele>
        <time>2016-03-12T08:10:14.310Z</time>
      </trkpt>
      <trkpt lat="43.67765" lon="5.84963">
        <ele>513</ele>
        <time>2016-03-12T08:10:17.336Z</time>
      </trkpt>
      <trkpt lat="43.67767" lon="5.84961">
        <ele>513</ele>
        <time>2016-03-12T08:10:18.308Z</time>
      </trkpt>
      <trkpt lat="43.67772" lon="5.84952">
        <ele>512</ele>
        <time>2016-03-12T08:10:21.413Z</time>
      </trkpt>
      <trkpt lat="43.67774" lon="5.8495">
        <ele>512</ele>
        <time>2016-03-12T08:10:22.309Z</time>
      </trkpt>
      <trkpt lat="43.67779" lon="5.84943">
        <ele>512</ele>
        <time>2016-03-12T08:10:25.335Z</time>
      </trkpt>
      <trkpt lat="43.67781" lon="5.8494">
        <ele>513</ele>
        <time>2016-03-12T08:10:26.335Z</time>
      </trkpt>
      <trkpt lat="43.67786" lon="5.84931">
        <ele>512</ele>
        <time>2016-03-12T08:10:29.334Z</time>
      </trkpt>
      <trkpt lat="43.67787" lon="5.84928">
        <ele>512</ele>
        <time>2016-03-12T08:10:30.309Z</time>
      </trkpt>
      <trkpt lat="43.67792" lon="5.84918">
        <ele>512</ele>
        <time>2016-03-12T08:10:33.566Z</time>
      </trkpt>
      <trkpt lat="43.67794" lon="5.84915">
        <ele>512</ele>
        <time>2016-03-12T08:10:34.307Z</time>
      </trkpt>
      <trkpt lat="43.67801" lon="5.84907">
        <ele>512</ele>
        <time>2016-03-12T08:10:37.338Z</time>
      </trkpt>
      <trkpt lat="43.67802" lon="5.84905">
        <ele>512</ele>
        <time>2016-03-12T08:10:38.308Z</time>
      </trkpt>
      <trkpt lat="43.67807" lon="5.84895">
        <ele>513</ele>
        <time>2016-03-12T08:10:41.337Z</time>
      </trkpt>
      <trkpt lat="43.67808" lon="5.84892">
        <ele>513</ele>
        <time>2016-03-12T08:10:42.338Z</time>
      </trkpt>
      <trkpt lat="43.67811" lon="5.84881">
        <ele>512</ele>
        <time>2016-03-12T08:10:45.335Z</time>
      </trkpt>
      <trkpt lat="43.67812" lon="5.84878">
        <ele>512</ele>
        <time>2016-03-12T08:10:46.306Z</time>
      </trkpt>
      <trkpt lat="43.67819" lon="5.84873">
        <ele>512</ele>
        <time>2016-03-12T08:10:49.337Z</time>
      </trkpt>
      <trkpt lat="43.67822" lon="5.84872">
        <ele>512</ele>
        <time>2016-03-12T08:10:50.313Z</time>
      </trkpt>
      <trkpt lat="43.6783" lon="5.84869">
        <ele>511</ele>
        <time>2016-03-12T08:10:53.337Z</time>
      </trkpt>
      <trkpt lat="43.67832" lon="5.84868">
        <ele>511</ele>
        <time>2016-03-12T08:10:54.309Z</time>
      </trkpt>
      <trkpt lat="43.67839" lon="5.84864">
        <ele>510</ele>
        <time>2016-03-12T08:10:57.557Z</time>
      </trkpt>
      <trkpt lat="43.67843" lon="5.84861">
        <ele>510</ele>
        <time>2016-03-12T08:10:58.314Z</time>
      </trkpt>
      <trkpt lat="43.67847" lon="5.84858">
        <ele>509</ele>
        <time>2016-03-12T08:10:59.335Z</time>
      </trkpt>
      <trkpt lat="43.67851" lon="5.84856">
        <ele>509</ele>
        <time>2016-03-12T08:11:00.309Z</time>
      </trkpt>
      <trkpt lat="43.67859" lon="5.84851">
        <ele>507</ele>
        <time>2016-03-12T08:11:02.335Z</time>
      </trkpt>
      <trkpt lat="43.67863" lon="5.84846">
        <ele>506</ele>
        <time>2016-03-12T08:11:03.310Z</time>
      </trkpt>
      <trkpt lat="43.67866" lon="5.8484">
        <ele>505</ele>
        <time>2016-03-12T08:11:04.334Z</time>
      </trkpt>
      <trkpt lat="43.6787" lon="5.84835">
        <ele>504</ele>
        <time>2016-03-12T08:11:05.312Z</time>
      </trkpt>
      <trkpt lat="43.67876" lon="5.8483">
        <ele>504</ele>
        <time>2016-03-12T08:11:06.334Z</time>
      </trkpt>
      <trkpt lat="43.67882" lon="5.84828">
        <ele>504</ele>
        <time>2016-03-12T08:11:07.309Z</time>
      </trkpt>
      <trkpt lat="43.67888" lon="5.84826">
        <ele>504</ele>
        <time>2016-03-12T08:11:08.334Z</time>
      </trkpt>
      <trkpt lat="43.67895" lon="5.84825">
        <ele>504</ele>
        <time>2016-03-12T08:11:09.337Z</time>
      </trkpt>
      <trkpt lat="43.679" lon="5.84823">
        <ele>504</ele>
        <time>2016-03-12T08:11:10.334Z</time>
      </trkpt>
      <trkpt lat="43.67905" lon="5.84822">
        <ele>504</ele>
        <time>2016-03-12T08:11:11.320Z</time>
      </trkpt>
      <trkpt lat="43.6791" lon="5.84821">
        <ele>504</ele>
        <time>2016-03-12T08:11:12.335Z</time>
      </trkpt>
      <trkpt lat="43.67914" lon="5.84821">
        <ele>505</ele>
        <time>2016-03-12T08:11:13.310Z</time>
      </trkpt>
      <trkpt lat="43.67923" lon="5.84818">
        <ele>504</ele>
        <time>2016-03-12T08:11:15.336Z</time>
      </trkpt>
      <trkpt lat="43.67927" lon="5.84815">
        <ele>504</ele>
        <time>2016-03-12T08:11:16.308Z</time>
      </trkpt>
      <trkpt lat="43.67931" lon="5.84812">
        <ele>504</ele>
        <time>2016-03-12T08:11:17.334Z</time>
      </trkpt>
      <trkpt lat="43.67935" lon="5.84809">
        <ele>504</ele>
        <time>2016-03-12T08:11:18.309Z</time>
      </trkpt>
      <trkpt lat="43.67943" lon="5.84804">
        <ele>504</ele>
        <time>2016-03-12T08:11:20.395Z</time>
      </trkpt>
      <trkpt lat="43.67946" lon="5.84802">
        <ele>504</ele>
        <time>2016-03-12T08:11:21.312Z</time>
      </trkpt>
      <trkpt lat="43.67954" lon="5.84796">
        <ele>504</ele>
        <time>2016-03-12T08:11:23.336Z</time>
      </trkpt>
      <trkpt lat="43.67958" lon="5.84793">
        <ele>503</ele>
        <time>2016-03-12T08:11:24.311Z</time>
      </trkpt>
      <trkpt lat="43.67964" lon="5.84788">
        <ele>503</ele>
        <time>2016-03-12T08:11:26.335Z</time>
      </trkpt>
      <trkpt lat="43.67968" lon="5.84785">
        <ele>503</ele>
        <time>2016-03-12T08:11:27.310Z</time>
      </trkpt>
      <trkpt lat="43.67974" lon="5.84779">
        <ele>503</ele>
        <time>2016-03-12T08:11:29.403Z</time>
      </trkpt>
      <trkpt lat="43.67978" lon="5.84776">
        <ele>502</ele>
        <time>2016-03-12T08:11:30.307Z</time>
      </trkpt>
      <trkpt lat="43.67984" lon="5.84771">
        <ele>502</ele>
        <time>2016-03-12T08:11:32.336Z</time>
      </trkpt>
      <trkpt lat="43.67987" lon="5.84768">
        <ele>502</ele>
        <time>2016-03-12T08:11:33.302Z</time>
      </trkpt>
      <trkpt lat="43.67994" lon="5.84764">
        <ele>501</ele>
        <time>2016-03-12T08:11:35.336Z</time>
      </trkpt>
      <trkpt lat="43.67998" lon="5.84761">
        <ele>500</ele>
        <time>2016-03-12T08:11:36.335Z</time>
      </trkpt>
      <trkpt lat="43.68002" lon="5.84758">
        <ele>500</ele>
        <time>2016-03-12T08:11:37.336Z</time>
      </trkpt>
      <trkpt lat="43.68006" lon="5.84753">
        <ele>500</ele>
        <time>2016-03-12T08:11:38.309Z</time>
      </trkpt>
      <trkpt lat="43.68011" lon="5.84747">
        <ele>500</ele>
        <time>2016-03-12T08:11:39.336Z</time>
      </trkpt>
      <trkpt lat="43.68015" lon="5.84743">
        <ele>499</ele>
        <time>2016-03-12T08:11:40.309Z</time>
      </trkpt>
      <trkpt lat="43.68021" lon="5.84737">
        <ele>498</ele>
        <time>2016-03-12T08:11:41.335Z</time>
      </trkpt>
      <trkpt lat="43.68026" lon="5.84732">
        <ele>498</ele>
        <time>2016-03-12T08:11:42.307Z</time>
      </trkpt>
      <trkpt lat="43.68032" lon="5.84727">
        <ele>498</ele>
        <time>2016-03-12T08:11:43.335Z</time>
      </trkpt>
      <trkpt lat="43.68036" lon="5.84721">
        <ele>497</ele>
        <time>2016-03-12T08:11:44.306Z</time>
      </trkpt>
      <trkpt lat="43.68041" lon="5.84711">
        <ele>497</ele>
        <time>2016-03-12T08:11:46.344Z</time>
      </trkpt>
      <trkpt lat="43.68043" lon="5.84709">
        <ele>496</ele>
        <time>2016-03-12T08:11:47.308Z</time>
      </trkpt>
      <trkpt lat="43.68051" lon="5.84704">
        <ele>495</ele>
        <time>2016-03-12T08:11:49.335Z</time>
      </trkpt>
      <trkpt lat="43.68055" lon="5.847">
        <ele>495</ele>
        <time>2016-03-12T08:11:50.309Z</time>
      </trkpt>
      <trkpt lat="43.68061" lon="5.84694">
        <ele>494</ele>
        <time>2016-03-12T08:11:52.363Z</time>
      </trkpt>
      <trkpt lat="43.68065" lon="5.84689">
        <ele>493</ele>
        <time>2016-03-12T08:11:53.309Z</time>
      </trkpt>
      <trkpt lat="43.68068" lon="5.84687">
        <ele>492</ele>
        <time>2016-03-12T08:11:54.336Z</time>
      </trkpt>
      <trkpt lat="43.68073" lon="5.84683">
        <ele>490</ele>
        <time>2016-03-12T08:11:55.319Z</time>
      </trkpt>
      <trkpt lat="43.68078" lon="5.84677">
        <ele>489</ele>
        <time>2016-03-12T08:11:56.333Z</time>
      </trkpt>
      <trkpt lat="43.68083" lon="5.84672">
        <ele>488</ele>
        <time>2016-03-12T08:11:57.308Z</time>
      </trkpt>
      <trkpt lat="43.68089" lon="5.84667">
        <ele>488</ele>
        <time>2016-03-12T08:11:58.333Z</time>
      </trkpt>
      <trkpt lat="43.68094" lon="5.84663">
        <ele>486</ele>
        <time>2016-03-12T08:11:59.309Z</time>
      </trkpt>
      <trkpt lat="43.681" lon="5.8466">
        <ele>486</ele>
        <time>2016-03-12T08:12:00.319Z</time>
      </trkpt>
      <trkpt lat="43.68104" lon="5.84659">
        <ele>485</ele>
        <time>2016-03-12T08:12:01.308Z</time>
      </trkpt>
      <trkpt lat="43.68109" lon="5.84656">
        <ele>484</ele>
        <time>2016-03-12T08:12:02.334Z</time>
      </trkpt>
      <trkpt lat="43.68113" lon="5.84655">
        <ele>483</ele>
        <time>2016-03-12T08:12:03.347Z</time>
      </trkpt>
      <trkpt lat="43.68119" lon="5.84656">
        <ele>483</ele>
        <time>2016-03-12T08:12:04.332Z</time>
      </trkpt>
      <trkpt lat="43.68125" lon="5.84658">
        <ele>482</ele>
        <time>2016-03-12T08:12:05.308Z</time>
      </trkpt>
      <trkpt lat="43.68132" lon="5.84661">
        <ele>481</ele>
        <time>2016-03-12T08:12:06.347Z</time>
      </trkpt>
      <trkpt lat="43.68138" lon="5.84665">
        <ele>480</ele>
        <time>2016-03-12T08:12:07.310Z</time>
      </trkpt>
      <trkpt lat="43.68144" lon="5.84669">
        <ele>480</ele>
        <time>2016-03-12T08:12:08.334Z</time>
      </trkpt>
      <trkpt lat="43.68148" lon="5.84671">
        <ele>479</ele>
        <time>2016-03-12T08:12:09.309Z</time>
      </trkpt>
      <trkpt lat="43.68153" lon="5.84675">
        <ele>479</ele>
        <time>2016-03-12T08:12:10.335Z</time>
      </trkpt>
      <trkpt lat="43.68159" lon="5.84677">
        <ele>478</ele>
        <time>2016-03-12T08:12:11.309Z</time>
      </trkpt>
      <trkpt lat="43.68167" lon="5.8468">
        <ele>476</ele>
        <time>2016-03-12T08:12:13.333Z</time>
      </trkpt>
      <trkpt lat="43.6817" lon="5.8468">
        <ele>476</ele>
        <time>2016-03-12T08:12:14.335Z</time>
      </trkpt>
      <trkpt lat="43.68174" lon="5.84678">
        <ele>476</ele>
        <time>2016-03-12T08:12:15.335Z</time>
      </trkpt>
      <trkpt lat="43.68179" lon="5.84675">
        <ele>475</ele>
        <time>2016-03-12T08:12:16.322Z</time>
      </trkpt>
      <trkpt lat="43.68184" lon="5.84673">
        <ele>474</ele>
        <time>2016-03-12T08:12:17.323Z</time>
      </trkpt>
      <trkpt lat="43.68189" lon="5.84672">
        <ele>472</ele>
        <time>2016-03-12T08:12:18.311Z</time>
      </trkpt>
      <trkpt lat="43.68195" lon="5.84669">
        <ele>470</ele>
        <time>2016-03-12T08:12:19.337Z</time>
      </trkpt>
      <trkpt lat="43.682" lon="5.84667">
        <ele>470</ele>
        <time>2016-03-12T08:12:20.324Z</time>
      </trkpt>
      <trkpt lat="43.68206" lon="5.84666">
        <ele>468</ele>
        <time>2016-03-12T08:12:21.336Z</time>
      </trkpt>
      <trkpt lat="43.68212" lon="5.84666">
        <ele>467</ele>
        <time>2016-03-12T08:12:22.309Z</time>
      </trkpt>
      <trkpt lat="43.68217" lon="5.84665">
        <ele>466</ele>
        <time>2016-03-12T08:12:23.333Z</time>
      </trkpt>
      <trkpt lat="43.68222" lon="5.84666">
        <ele>464</ele>
        <time>2016-03-12T08:12:24.308Z</time>
      </trkpt>
      <trkpt lat="43.68229" lon="5.84668">
        <ele>463</ele>
        <time>2016-03-12T08:12:26.334Z</time>
      </trkpt>
      <trkpt lat="43.68234" lon="5.8467">
        <ele>462</ele>
        <time>2016-03-12T08:12:27.309Z</time>
      </trkpt>
      <trkpt lat="43.68243" lon="5.84673">
        <ele>460</ele>
        <time>2016-03-12T08:12:29.334Z</time>
      </trkpt>
      <trkpt lat="43.68245" lon="5.84675">
        <ele>459</ele>
        <time>2016-03-12T08:12:30.309Z</time>
      </trkpt>
      <trkpt lat="43.68253" lon="5.84676">
        <ele>459</ele>
        <time>2016-03-12T08:12:34.335Z</time>
      </trkpt>
      <trkpt lat="43.68256" lon="5.84675">
        <ele>458</ele>
        <time>2016-03-12T08:12:35.309Z</time>
      </trkpt>
      <trkpt lat="43.68262" lon="5.8468">
        <ele>457</ele>
        <time>2016-03-12T08:12:37.334Z</time>
      </trkpt>
      <trkpt lat="43.68266" lon="5.84681">
        <ele>457</ele>
        <time>2016-03-12T08:12:38.307Z</time>
      </trkpt>
      <trkpt lat="43.68272" lon="5.84686">
        <ele>455</ele>
        <time>2016-03-12T08:12:40.347Z</time>
      </trkpt>
      <trkpt lat="43.68276" lon="5.84689">
        <ele>454</ele>
        <time>2016-03-12T08:12:41.334Z</time>
      </trkpt>
      <trkpt lat="43.68281" lon="5.84694">
        <ele>453</ele>
        <time>2016-03-12T08:12:42.338Z</time>
      </trkpt>
      <trkpt lat="43.68285" lon="5.84698">
        <ele>452</ele>
        <time>2016-03-12T08:12:43.309Z</time>
      </trkpt>
      <trkpt lat="43.68292" lon="5.84702">
        <ele>451</ele>
        <time>2016-03-12T08:12:46.403Z</time>
      </trkpt>
      <trkpt lat="43.68294" lon="5.84704">
        <ele>450</ele>
        <time>2016-03-12T08:12:47.301Z</time>
      </trkpt>
      <trkpt lat="43.68298" lon="5.84711">
        <ele>450</ele>
        <time>2016-03-12T08:12:49.318Z</time>
      </trkpt>
      <trkpt lat="43.683" lon="5.84716">
        <ele>450</ele>
        <time>2016-03-12T08:12:50.299Z</time>
      </trkpt>
      <trkpt lat="43.68306" lon="5.84724">
        <ele>450</ele>
        <time>2016-03-12T08:12:52.331Z</time>
      </trkpt>
      <trkpt lat="43.68309" lon="5.84725">
        <ele>451</ele>
        <time>2016-03-12T08:12:53.308Z</time>
      </trkpt>
      <trkpt lat="43.68314" lon="5.84735">
        <ele>451</ele>
        <time>2016-03-12T08:12:56.333Z</time>
      </trkpt>
      <trkpt lat="43.68315" lon="5.84738">
        <ele>451</ele>
        <time>2016-03-12T08:12:57.310Z</time>
      </trkpt>
      <trkpt lat="43.6832" lon="5.84748">
        <ele>449</ele>
        <time>2016-03-12T08:13:01.345Z</time>
      </trkpt>
      <trkpt lat="43.68321" lon="5.84749">
        <ele>449</ele>
        <time>2016-03-12T08:13:02.340Z</time>
      </trkpt>
      <trkpt lat="43.68321" lon="5.84759">
        <ele>445</ele>
        <time>2016-03-12T08:13:06.335Z</time>
      </trkpt>
      <trkpt lat="43.6832" lon="5.84764">
        <ele>444</ele>
        <time>2016-03-12T08:13:07.310Z</time>
      </trkpt>
      <trkpt lat="43.68321" lon="5.84773">
        <ele>444</ele>
        <time>2016-03-12T08:13:10.337Z</time>
      </trkpt>
      <trkpt lat="43.68323" lon="5.84775">
        <ele>443</ele>
        <time>2016-03-12T08:13:11.309Z</time>
      </trkpt>
      <trkpt lat="43.68327" lon="5.84778">
        <ele>442</ele>
        <time>2016-03-12T08:13:12.335Z</time>
      </trkpt>
      <trkpt lat="43.68334" lon="5.84783">
        <ele>441</ele>
        <time>2016-03-12T08:13:13.341Z</time>
      </trkpt>
      <trkpt lat="43.68337" lon="5.84788">
        <ele>441</ele>
        <time>2016-03-12T08:13:14.336Z</time>
      </trkpt>
      <trkpt lat="43.68339" lon="5.84795">
        <ele>441</ele>
        <time>2016-03-12T08:13:15.309Z</time>
      </trkpt>
      <trkpt lat="43.6834" lon="5.84801">
        <ele>441</ele>
        <time>2016-03-12T08:13:16.330Z</time>
      </trkpt>
      <trkpt lat="43.68344" lon="5.84805">
        <ele>441</ele>
        <time>2016-03-12T08:13:17.309Z</time>
      </trkpt>
      <trkpt lat="43.68351" lon="5.8481">
        <ele>441</ele>
        <time>2016-03-12T08:13:19.336Z</time>
      </trkpt>
      <trkpt lat="43.68355" lon="5.84812">
        <ele>442</ele>
        <time>2016-03-12T08:13:20.307Z</time>
      </trkpt>
      <trkpt lat="43.68359" lon="5.84818">
        <ele>442</ele>
        <time>2016-03-12T08:13:22.334Z</time>
      </trkpt>
      <trkpt lat="43.68362" lon="5.84821">
        <ele>442</ele>
        <time>2016-03-12T08:13:23.307Z</time>
      </trkpt>
      <trkpt lat="43.68365" lon="5.84824">
        <ele>441</ele>
        <time>2016-03-12T08:13:24.334Z</time>
      </trkpt>
      <trkpt lat="43.6837" lon="5.84828">
        <ele>440</ele>
        <time>2016-03-12T08:13:25.310Z</time>
      </trkpt>
      <trkpt lat="43.68374" lon="5.84832">
        <ele>439</ele>
        <time>2016-03-12T08:13:26.339Z</time>
      </trkpt>
      <trkpt lat="43.68379" lon="5.84837">
        <ele>438</ele>
        <time>2016-03-12T08:13:27.309Z</time>
      </trkpt>
      <trkpt lat="43.68385" lon="5.84842">
        <ele>438</ele>
        <time>2016-03-12T08:13:28.335Z</time>
      </trkpt>
      <trkpt lat="43.68391" lon="5.84846">
        <ele>437</ele>
        <time>2016-03-12T08:13:29.334Z</time>
      </trkpt>
      <trkpt lat="43.68397" lon="5.84851">
        <ele>436</ele>
        <time>2016-03-12T08:13:30.335Z</time>
      </trkpt>
      <trkpt lat="43.68405" lon="5.84855">
        <ele>435</ele>
        <time>2016-03-12T08:13:31.308Z</time>
      </trkpt>
      <trkpt lat="43.68412" lon="5.84858">
        <ele>435</ele>
        <time>2016-03-12T08:13:32.562Z</time>
      </trkpt>
      <trkpt lat="43.6842" lon="5.84863">
        <ele>434</ele>
        <time>2016-03-12T08:13:33.309Z</time>
      </trkpt>
      <trkpt lat="43.68425" lon="5.84867">
        <ele>434</ele>
        <time>2016-03-12T08:13:34.335Z</time>
      </trkpt>
      <trkpt lat="43.68432" lon="5.84872">
        <ele>433</ele>
        <time>2016-03-12T08:13:35.309Z</time>
      </trkpt>
      <trkpt lat="43.68438" lon="5.84879">
        <ele>432</ele>
        <time>2016-03-12T08:13:36.335Z</time>
      </trkpt>
      <trkpt lat="43.68444" lon="5.84883">
        <ele>432</ele>
        <time>2016-03-12T08:13:37.311Z</time>
      </trkpt>
      <trkpt lat="43.68451" lon="5.84888">
        <ele>433</ele>
        <time>2016-03-12T08:13:38.334Z</time>
      </trkpt>
      <trkpt lat="43.68455" lon="5.84895">
        <ele>433</ele>
        <time>2016-03-12T08:13:39.310Z</time>
      </trkpt>
      <trkpt lat="43.6846" lon="5.849">
        <ele>433</ele>
        <time>2016-03-12T08:13:40.334Z</time>
      </trkpt>
      <trkpt lat="43.68465" lon="5.84904">
        <ele>433</ele>
        <time>2016-03-12T08:13:41.308Z</time>
      </trkpt>
      <trkpt lat="43.68471" lon="5.84906">
        <ele>432</ele>
        <time>2016-03-12T08:13:42.565Z</time>
      </trkpt>
      <trkpt lat="43.68477" lon="5.84904">
        <ele>431</ele>
        <time>2016-03-12T08:13:43.309Z</time>
      </trkpt>
      <trkpt lat="43.68483" lon="5.84901">
        <ele>431</ele>
        <time>2016-03-12T08:13:44.337Z</time>
      </trkpt>
      <trkpt lat="43.68488" lon="5.84899">
        <ele>430</ele>
        <time>2016-03-12T08:13:45.336Z</time>
      </trkpt>
      <trkpt lat="43.68493" lon="5.84899">
        <ele>430</ele>
        <time>2016-03-12T08:13:46.347Z</time>
      </trkpt>
      <trkpt lat="43.68499" lon="5.84899">
        <ele>430</ele>
        <time>2016-03-12T08:13:47.309Z</time>
      </trkpt>
      <trkpt lat="43.68504" lon="5.84899">
        <ele>429</ele>
        <time>2016-03-12T08:13:48.336Z</time>
      </trkpt>
      <trkpt lat="43.6851" lon="5.84901">
        <ele>429</ele>
        <time>2016-03-12T08:13:49.308Z</time>
      </trkpt>
      <trkpt lat="43.68515" lon="5.84901">
        <ele>429</ele>
        <time>2016-03-12T08:13:50.335Z</time>
      </trkpt>
      <trkpt lat="43.68522" lon="5.84901">
        <ele>428</ele>
        <time>2016-03-12T08:13:51.309Z</time>
      </trkpt>
      <trkpt lat="43.68528" lon="5.849">
        <ele>428</ele>
        <time>2016-03-12T08:13:52.337Z</time>
      </trkpt>
      <trkpt lat="43.68532" lon="5.84899">
        <ele>427</ele>
        <time>2016-03-12T08:13:53.309Z</time>
      </trkpt>
      <trkpt lat="43.68539" lon="5.84897">
        <ele>426</ele>
        <time>2016-03-12T08:13:55.335Z</time>
      </trkpt>
      <trkpt lat="43.68542" lon="5.84898">
        <ele>426</ele>
        <time>2016-03-12T08:13:56.309Z</time>
      </trkpt>
      <trkpt lat="43.68549" lon="5.84906">
        <ele>425</ele>
        <time>2016-03-12T08:13:59.333Z</time>
      </trkpt>
      <trkpt lat="43.68548" lon="5.84911">
        <ele>425</ele>
        <time>2016-03-12T08:14:00.309Z</time>
      </trkpt>
      <trkpt lat="43.68542" lon="5.84919">
        <ele>428</ele>
        <time>2016-03-12T08:14:03.329Z</time>
      </trkpt>
      <trkpt lat="43.6854" lon="5.84922">
        <ele>428</ele>
        <time>2016-03-12T08:14:04.309Z</time>
      </trkpt>
      <trkpt lat="43.68536" lon="5.8493">
        <ele>428</ele>
        <time>2016-03-12T08:14:06.404Z</time>
      </trkpt>
      <trkpt lat="43.68535" lon="5.84934">
        <ele>428</ele>
        <time>2016-03-12T08:14:07.310Z</time>
      </trkpt>
      <trkpt lat="43.6853" lon="5.84943">
        <ele>427</ele>
        <time>2016-03-12T08:14:10.334Z</time>
      </trkpt>
      <trkpt lat="43.68529" lon="5.84946">
        <ele>428</ele>
        <time>2016-03-12T08:14:11.308Z</time>
      </trkpt>
      <trkpt lat="43.68526" lon="5.84954">
        <ele>427</ele>
        <time>2016-03-12T08:14:14.334Z</time>
      </trkpt>
      <trkpt lat="43.68525" lon="5.84957">
        <ele>427</ele>
        <time>2016-03-12T08:14:15.309Z</time>
      </trkpt>
      <trkpt lat="43.68521" lon="5.84966">
        <ele>426</ele>
        <time>2016-03-12T08:14:18.335Z</time>
      </trkpt>
      <trkpt lat="43.68521" lon="5.84969">
        <ele>426</ele>
        <time>2016-03-12T08:14:19.308Z</time>
      </trkpt>
      <trkpt lat="43.68518" lon="5.84979">
        <ele>425</ele>
        <time>2016-03-12T08:14:22.336Z</time>
      </trkpt>
      <trkpt lat="43.68517" lon="5.84982">
        <ele>425</ele>
        <time>2016-03-12T08:14:23.310Z</time>
      </trkpt>
      <trkpt lat="43.68514" lon="5.84991">
        <ele>424</ele>
        <time>2016-03-12T08:14:26.332Z</time>
      </trkpt>
      <trkpt lat="43.68512" lon="5.84994">
        <ele>424</ele>
        <time>2016-03-12T08:14:27.307Z</time>
      </trkpt>
      <trkpt lat="43.68509" lon="5.85003">
        <ele>424</ele>
        <time>2016-03-12T08:14:30.335Z</time>
      </trkpt>
      <trkpt lat="43.68507" lon="5.85006">
        <ele>424</ele>
        <time>2016-03-12T08:14:31.309Z</time>
      </trkpt>
      <trkpt lat="43.68504" lon="5.85015">
        <ele>424</ele>
        <time>2016-03-12T08:14:34.337Z</time>
      </trkpt>
      <trkpt lat="43.68502" lon="5.85019">
        <ele>424</ele>
        <time>2016-03-12T08:14:35.309Z</time>
      </trkpt>
      <trkpt lat="43.68499" lon="5.85028">
        <ele>423</ele>
        <time>2016-03-12T08:14:38.337Z</time>
      </trkpt>
      <trkpt lat="43.68497" lon="5.85031">
        <ele>424</ele>
        <time>2016-03-12T08:14:39.308Z</time>
      </trkpt>
      <trkpt lat="43.68493" lon="5.8504">
        <ele>424</ele>
        <time>2016-03-12T08:14:42.332Z</time>
      </trkpt>
      <trkpt lat="43.68492" lon="5.85044">
        <ele>424</ele>
        <time>2016-03-12T08:14:43.309Z</time>
      </trkpt>
      <trkpt lat="43.68488" lon="5.85053">
        <ele>425</ele>
        <time>2016-03-12T08:14:46.335Z</time>
      </trkpt>
      <trkpt lat="43.68486" lon="5.85056">
        <ele>425</ele>
        <time>2016-03-12T08:14:47.321Z</time>
      </trkpt>
      <trkpt lat="43.68483" lon="5.85066">
        <ele>426</ele>
        <time>2016-03-12T08:14:50.335Z</time>
      </trkpt>
      <trkpt lat="43.68483" lon="5.85069">
        <ele>425</ele>
        <time>2016-03-12T08:14:51.321Z</time>
      </trkpt>
      <trkpt lat="43.68485" lon="5.8508">
        <ele>425</ele>
        <time>2016-03-12T08:14:54.336Z</time>
      </trkpt>
      <trkpt lat="43.68486" lon="5.85083">
        <ele>425</ele>
        <time>2016-03-12T08:14:55.311Z</time>
      </trkpt>
      <trkpt lat="43.68489" lon="5.85091">
        <ele>425</ele>
        <time>2016-03-12T08:14:57.336Z</time>
      </trkpt>
      <trkpt lat="43.6849" lon="5.85096">
        <ele>425</ele>
        <time>2016-03-12T08:14:58.320Z</time>
      </trkpt>
      <trkpt lat="43.68491" lon="5.85105">
        <ele>425</ele>
        <time>2016-03-12T08:15:00.329Z</time>
      </trkpt>
      <trkpt lat="43.68492" lon="5.85109">
        <ele>425</ele>
        <time>2016-03-12T08:15:01.320Z</time>
      </trkpt>
      <trkpt lat="43.68495" lon="5.85117">
        <ele>426</ele>
        <time>2016-03-12T08:15:03.334Z</time>
      </trkpt>
      <trkpt lat="43.68496" lon="5.8512">
        <ele>426</ele>
        <time>2016-03-12T08:15:04.301Z</time>
      </trkpt>
      <trkpt lat="43.685" lon="5.85129">
        <ele>427</ele>
        <time>2016-03-12T08:15:07.315Z</time>
      </trkpt>
      <trkpt lat="43.68502" lon="5.85131">
        <ele>427</ele>
        <time>2016-03-12T08:15:08.310Z</time>
      </trkpt>
      <trkpt lat="43.68508" lon="5.85138">
        <ele>429</ele>
        <time>2016-03-12T08:15:11.364Z</time>
      </trkpt>
      <trkpt lat="43.6851" lon="5.8514">
        <ele>430</ele>
        <time>2016-03-12T08:15:12.309Z</time>
      </trkpt>
      <trkpt lat="43.68517" lon="5.85147">
        <ele>431</ele>
        <time>2016-03-12T08:15:16.325Z</time>
      </trkpt>
      <trkpt lat="43.68519" lon="5.85148">
        <ele>432</ele>
        <time>2016-03-12T08:15:17.310Z</time>
      </trkpt>
      <trkpt lat="43.68527" lon="5.8515">
        <ele>432</ele>
        <time>2016-03-12T08:15:21.335Z</time>
      </trkpt>
      <trkpt lat="43.68529" lon="5.85151">
        <ele>432</ele>
        <time>2016-03-12T08:15:22.336Z</time>
      </trkpt>
      <trkpt lat="43.68536" lon="5.85157">
        <ele>433</ele>
        <time>2016-03-12T08:15:26.332Z</time>
      </trkpt>
      <trkpt lat="43.68538" lon="5.85159">
        <ele>433</ele>
        <time>2016-03-12T08:15:27.310Z</time>
      </trkpt>
      <trkpt lat="43.68546" lon="5.85163">
        <ele>433</ele>
        <time>2016-03-12T08:15:31.336Z</time>
      </trkpt>
      <trkpt lat="43.68548" lon="5.85162">
        <ele>434</ele>
        <time>2016-03-12T08:15:32.310Z</time>
      </trkpt>
      <trkpt lat="43.68556" lon="5.85158">
        <ele>434</ele>
        <time>2016-03-12T08:15:36.337Z</time>
      </trkpt>
      <trkpt lat="43.68558" lon="5.85158">
        <ele>434</ele>
        <time>2016-03-12T08:15:37.301Z</time>
      </trkpt>
      <trkpt lat="43.68566" lon="5.85157">
        <ele>435</ele>
        <time>2016-03-12T08:15:41.336Z</time>
      </trkpt>
      <trkpt lat="43.68568" lon="5.85157">
        <ele>435</ele>
        <time>2016-03-12T08:15:42.310Z</time>
      </trkpt>
      <trkpt lat="43.68575" lon="5.85162">
        <ele>434</ele>
        <time>2016-03-12T08:15:46.344Z</time>
      </trkpt>
      <trkpt lat="43.68576" lon="5.85163">
        <ele>435</ele>
        <time>2016-03-12T08:15:47.309Z</time>
      </trkpt>
      <trkpt lat="43.68581" lon="5.85172">
        <ele>437</ele>
        <time>2016-03-12T08:15:51.335Z</time>
      </trkpt>
      <trkpt lat="43.68582" lon="5.85174">
        <ele>437</ele>
        <time>2016-03-12T08:15:52.310Z</time>
      </trkpt>
      <trkpt lat="43.68586" lon="5.85182">
        <ele>439</ele>
        <time>2016-03-12T08:15:56.335Z</time>
      </trkpt>
      <trkpt lat="43.68588" lon="5.85184">
        <ele>440</ele>
        <time>2016-03-12T08:15:57.309Z</time>
      </trkpt>
      <trkpt lat="43.68592" lon="5.85192">
        <ele>440</ele>
        <time>2016-03-12T08:16:01.336Z</time>
      </trkpt>
      <trkpt lat="43.68594" lon="5.85194">
        <ele>440</ele>
        <time>2016-03-12T08:16:02.309Z</time>
      </trkpt>
      <trkpt lat="43.68599" lon="5.852">
        <ele>440</ele>
        <time>2016-03-12T08:16:05.336Z</time>
      </trkpt>
      <trkpt lat="43.68601" lon="5.85201">
        <ele>440</ele>
        <time>2016-03-12T08:16:06.310Z</time>
      </trkpt>
      <trkpt lat="43.68609" lon="5.85205">
        <ele>440</ele>
        <time>2016-03-12T08:16:09.333Z</time>
      </trkpt>
      <trkpt lat="43.68611" lon="5.85207">
        <ele>441</ele>
        <time>2016-03-12T08:16:10.337Z</time>
      </trkpt>
      <trkpt lat="43.68618" lon="5.8521">
        <ele>441</ele>
        <time>2016-03-12T08:16:13.333Z</time>
      </trkpt>
      <trkpt lat="43.68619" lon="5.85212">
        <ele>441</ele>
        <time>2016-03-12T08:16:14.312Z</time>
      </trkpt>
      <trkpt lat="43.68627" lon="5.85217">
        <ele>441</ele>
        <time>2016-03-12T08:16:18.334Z</time>
      </trkpt>
      <trkpt lat="43.68629" lon="5.85218">
        <ele>442</ele>
        <time>2016-03-12T08:16:19.309Z</time>
      </trkpt>
      <trkpt lat="43.68636" lon="5.85223">
        <ele>442</ele>
        <time>2016-03-12T08:16:23.336Z</time>
      </trkpt>
      <trkpt lat="43.68638" lon="5.85224">
        <ele>442</ele>
        <time>2016-03-12T08:16:24.308Z</time>
      </trkpt>
      <trkpt lat="43.68645" lon="5.85227">
        <ele>442</ele>
        <time>2016-03-12T08:16:28.335Z</time>
      </trkpt>
      <trkpt lat="43.68647" lon="5.85227">
        <ele>441</ele>
        <time>2016-03-12T08:16:29.313Z</time>
      </trkpt>
      <trkpt lat="43.68655" lon="5.85224">
        <ele>441</ele>
        <time>2016-03-12T08:16:33.335Z</time>
      </trkpt>
      <trkpt lat="43.68657" lon="5.85223">
        <ele>441</ele>
        <time>2016-03-12T08:16:34.317Z</time>
      </trkpt>
      <trkpt lat="43.68665" lon="5.8522">
        <ele>441</ele>
        <time>2016-03-12T08:16:38.336Z</time>
      </trkpt>
      <trkpt lat="43.68668" lon="5.8522">
        <ele>440</ele>
        <time>2016-03-12T08:16:39.310Z</time>
      </trkpt>
      <trkpt lat="43.68675" lon="5.85219">
        <ele>440</ele>
        <time>2016-03-12T08:16:41.335Z</time>
      </trkpt>
      <trkpt lat="43.68679" lon="5.85219">
        <ele>439</ele>
        <time>2016-03-12T08:16:42.310Z</time>
      </trkpt>
      <trkpt lat="43.68685" lon="5.85219">
        <ele>439</ele>
        <time>2016-03-12T08:16:43.337Z</time>
      </trkpt>
      <trkpt lat="43.6869" lon="5.8522">
        <ele>438</ele>
        <time>2016-03-12T08:16:44.311Z</time>
      </trkpt>
      <trkpt lat="43.68698" lon="5.85223">
        <ele>438</ele>
        <time>2016-03-12T08:16:52.336Z</time>
      </trkpt>
      <trkpt lat="43.68699" lon="5.85224">
        <ele>438</ele>
        <time>2016-03-12T08:16:53.311Z</time>
      </trkpt>
      <trkpt lat="43.68706" lon="5.8523">
        <ele>438</ele>
        <time>2016-03-12T08:17:00.336Z</time>
      </trkpt>
      <trkpt lat="43.68707" lon="5.85231">
        <ele>439</ele>
        <time>2016-03-12T08:17:01.309Z</time>
      </trkpt>
      <trkpt lat="43.68715" lon="5.85237">
        <ele>442</ele>
        <time>2016-03-12T08:17:12.339Z</time>
      </trkpt>
      <trkpt lat="43.68715" lon="5.85238">
        <ele>442</ele>
        <time>2016-03-12T08:17:13.311Z</time>
      </trkpt>
      <trkpt lat="43.68722" lon="5.85245">
        <ele>443</ele>
        <time>2016-03-12T08:17:17.345Z</time>
      </trkpt>
      <trkpt lat="43.68723" lon="5.85247">
        <ele>443</ele>
        <time>2016-03-12T08:17:18.311Z</time>
      </trkpt>
      <trkpt lat="43.68727" lon="5.85255">
        <ele>443</ele>
        <time>2016-03-12T08:17:22.335Z</time>
      </trkpt>
      <trkpt lat="43.68728" lon="5.85257">
        <ele>444</ele>
        <time>2016-03-12T08:17:23.509Z</time>
      </trkpt>
      <trkpt lat="43.68735" lon="5.85264">
        <ele>444</ele>
        <time>2016-03-12T08:17:28.331Z</time>
      </trkpt>
      <trkpt lat="43.68736" lon="5.85265">
        <ele>444</ele>
        <time>2016-03-12T08:17:29.308Z</time>
      </trkpt>
      <trkpt lat="43.68744" lon="5.8527">
        <ele>443</ele>
        <time>2016-03-12T08:17:35.331Z</time>
      </trkpt>
      <trkpt lat="43.68745" lon="5.85271">
        <ele>443</ele>
        <time>2016-03-12T08:17:36.316Z</time>
      </trkpt>
      <trkpt lat="43.68753" lon="5.85275">
        <ele>442</ele>
        <time>2016-03-12T08:17:41.332Z</time>
      </trkpt>
      <trkpt lat="43.68754" lon="5.85276">
        <ele>442</ele>
        <time>2016-03-12T08:17:42.309Z</time>
      </trkpt>
      <trkpt lat="43.6876" lon="5.8528">
        <ele>441</ele>
        <time>2016-03-12T08:17:45.332Z</time>
      </trkpt>
      <trkpt lat="43.68762" lon="5.85281">
        <ele>441</ele>
        <time>2016-03-12T08:17:46.308Z</time>
      </trkpt>
      <trkpt lat="43.6877" lon="5.85285">
        <ele>441</ele>
        <time>2016-03-12T08:17:50.331Z</time>
      </trkpt>
      <trkpt lat="43.68772" lon="5.85286">
        <ele>441</ele>
        <time>2016-03-12T08:17:51.309Z</time>
      </trkpt>
      <trkpt lat="43.6878" lon="5.85289">
        <ele>441</ele>
        <time>2016-03-12T08:17:55.337Z</time>
      </trkpt>
      <trkpt lat="43.68782" lon="5.85289">
        <ele>441</ele>
        <time>2016-03-12T08:17:56.310Z</time>
      </trkpt>
      <trkpt lat="43.6879" lon="5.85292">
        <ele>442</ele>
        <time>2016-03-12T08:18:00.567Z</time>
      </trkpt>
      <trkpt lat="43.68792" lon="5.85293">
        <ele>442</ele>
        <time>2016-03-12T08:18:01.311Z</time>
      </trkpt>
      <trkpt lat="43.68799" lon="5.85297">
        <ele>443</ele>
        <time>2016-03-12T08:18:05.325Z</time>
      </trkpt>
      <trkpt lat="43.688" lon="5.85298">
        <ele>444</ele>
        <time>2016-03-12T08:18:06.311Z</time>
      </trkpt>
      <trkpt lat="43.68808" lon="5.85302">
        <ele>445</ele>
        <time>2016-03-12T08:18:11.336Z</time>
      </trkpt>
      <trkpt lat="43.68809" lon="5.85303">
        <ele>445</ele>
        <time>2016-03-12T08:18:12.310Z</time>
      </trkpt>
      <trkpt lat="43.68818" lon="5.85305">
        <ele>446</ele>
        <time>2016-03-12T08:18:17.335Z</time>
      </trkpt>
      <trkpt lat="43.6882" lon="5.85306">
        <ele>446</ele>
        <time>2016-03-12T08:18:18.310Z</time>
      </trkpt>
      <trkpt lat="43.68828" lon="5.85308">
        <ele>446</ele>
        <time>2016-03-12T08:18:22.346Z</time>
      </trkpt>
      <trkpt lat="43.6883" lon="5.85309">
        <ele>446</ele>
        <time>2016-03-12T08:18:23.310Z</time>
      </trkpt>
      <trkpt lat="43.68838" lon="5.85311">
        <ele>447</ele>
        <time>2016-03-12T08:18:26.363Z</time>
      </trkpt>
      <trkpt lat="43.6884" lon="5.85312">
        <ele>448</ele>
        <time>2016-03-12T08:18:27.310Z</time>
      </trkpt>
      <trkpt lat="43.68848" lon="5.85315">
        <ele>448</ele>
        <time>2016-03-12T08:18:31.337Z</time>
      </trkpt>
      <trkpt lat="43.68851" lon="5.85316">
        <ele>447</ele>
        <time>2016-03-12T08:18:32.312Z</time>
      </trkpt>
      <trkpt lat="43.68859" lon="5.85318">
        <ele>447</ele>
        <time>2016-03-12T08:18:36.558Z</time>
      </trkpt>
      <trkpt lat="43.68861" lon="5.85319">
        <ele>447</ele>
        <time>2016-03-12T08:18:37.336Z</time>
      </trkpt>
      <trkpt lat="43.68869" lon="5.85321">
        <ele>447</ele>
        <time>2016-03-12T08:18:41.337Z</time>
      </trkpt>
      <trkpt lat="43.68871" lon="5.85322">
        <ele>447</ele>
        <time>2016-03-12T08:18:42.311Z</time>
      </trkpt>
      <trkpt lat="43.68879" lon="5.85324">
        <ele>447</ele>
        <time>2016-03-12T08:18:46.339Z</time>
      </trkpt>
      <trkpt lat="43.68881" lon="5.85324">
        <ele>447</ele>
        <time>2016-03-12T08:18:47.311Z</time>
      </trkpt>
      <trkpt lat="43.68888" lon="5.85327">
        <ele>448</ele>
        <time>2016-03-12T08:18:51.337Z</time>
      </trkpt>
      <trkpt lat="43.68889" lon="5.85327">
        <ele>448</ele>
        <time>2016-03-12T08:18:52.310Z</time>
      </trkpt>
      <trkpt lat="43.68897" lon="5.85328">
        <ele>448</ele>
        <time>2016-03-12T08:18:57.347Z</time>
      </trkpt>
      <trkpt lat="43.68899" lon="5.85329">
        <ele>448</ele>
        <time>2016-03-12T08:18:58.308Z</time>
      </trkpt>
      <trkpt lat="43.68906" lon="5.85332">
        <ele>449</ele>
        <time>2016-03-12T08:19:04.365Z</time>
      </trkpt>
      <trkpt lat="43.68907" lon="5.85333">
        <ele>450</ele>
        <time>2016-03-12T08:19:05.311Z</time>
      </trkpt>
      <trkpt lat="43.68915" lon="5.85335">
        <ele>450</ele>
        <time>2016-03-12T08:19:10.328Z</time>
      </trkpt>
      <trkpt lat="43.68917" lon="5.85335">
        <ele>450</ele>
        <time>2016-03-12T08:19:11.311Z</time>
      </trkpt>
      <trkpt lat="43.68925" lon="5.85339">
        <ele>451</ele>
        <time>2016-03-12T08:19:15.355Z</time>
      </trkpt>
      <trkpt lat="43.68927" lon="5.8534">
        <ele>451</ele>
        <time>2016-03-12T08:19:16.313Z</time>
      </trkpt>
      <trkpt lat="43.68936" lon="5.85342">
        <ele>451</ele>
        <time>2016-03-12T08:19:20.365Z</time>
      </trkpt>
      <trkpt lat="43.68937" lon="5.85342">
        <ele>451</ele>
        <time>2016-03-12T08:19:21.311Z</time>
      </trkpt>
      <trkpt lat="43.68945" lon="5.85344">
        <ele>450</ele>
        <time>2016-03-12T08:19:25.338Z</time>
      </trkpt>
      <trkpt lat="43.68947" lon="5.85345">
        <ele>450</ele>
        <time>2016-03-12T08:19:26.311Z</time>
      </trkpt>
      <trkpt lat="43.68952" lon="5.8535">
        <ele>450</ele>
        <time>2016-03-12T08:19:31.367Z</time>
      </trkpt>
      <trkpt lat="43.68955" lon="5.85351">
        <ele>450</ele>
        <time>2016-03-12T08:19:32.309Z</time>
      </trkpt>
      <trkpt lat="43.68962" lon="5.85351">
        <ele>450</ele>
        <time>2016-03-12T08:19:35.337Z</time>
      </trkpt>
      <trkpt lat="43.68964" lon="5.85351">
        <ele>450</ele>
        <time>2016-03-12T08:19:36.311Z</time>
      </trkpt>
      <trkpt lat="43.68973" lon="5.85352">
        <ele>451</ele>
        <time>2016-03-12T08:19:40.556Z</time>
      </trkpt>
      <trkpt lat="43.68975" lon="5.85352">
        <ele>451</ele>
        <time>2016-03-12T08:19:41.310Z</time>
      </trkpt>
      <trkpt lat="43.68983" lon="5.85355">
        <ele>451</ele>
        <time>2016-03-12T08:19:45.338Z</time>
      </trkpt>
      <trkpt lat="43.68984" lon="5.85356">
        <ele>451</ele>
        <time>2016-03-12T08:19:46.308Z</time>
      </trkpt>
      <trkpt lat="43.68991" lon="5.85362">
        <ele>451</ele>
        <time>2016-03-12T08:19:50.345Z</time>
      </trkpt>
      <trkpt lat="43.68992" lon="5.85363">
        <ele>451</ele>
        <time>2016-03-12T08:19:51.307Z</time>
      </trkpt>
      <trkpt lat="43.68998" lon="5.8537">
        <ele>452</ele>
        <time>2016-03-12T08:19:55.337Z</time>
      </trkpt>
      <trkpt lat="43.69" lon="5.85372">
        <ele>452</ele>
        <time>2016-03-12T08:19:56.314Z</time>
      </trkpt>
      <trkpt lat="43.69006" lon="5.85378">
        <ele>452</ele>
        <time>2016-03-12T08:20:00.337Z</time>
      </trkpt>
      <trkpt lat="43.69008" lon="5.85379">
        <ele>452</ele>
        <time>2016-03-12T08:20:01.311Z</time>
      </trkpt>
      <trkpt lat="43.69016" lon="5.85379">
        <ele>451</ele>
        <time>2016-03-12T08:20:04.338Z</time>
      </trkpt>
      <trkpt lat="43.69018" lon="5.85378">
        <ele>452</ele>
        <time>2016-03-12T08:20:05.312Z</time>
      </trkpt>
      <trkpt lat="43.69025" lon="5.85375">
        <ele>452</ele>
        <time>2016-03-12T08:20:08.336Z</time>
      </trkpt>
      <trkpt lat="43.69027" lon="5.85373">
        <ele>452</ele>
        <time>2016-03-12T08:20:09.311Z</time>
      </trkpt>
      <trkpt lat="43.69034" lon="5.85369">
        <ele>452</ele>
        <time>2016-03-12T08:20:12.338Z</time>
      </trkpt>
      <trkpt lat="43.69036" lon="5.85368">
        <ele>452</ele>
        <time>2016-03-12T08:20:13.323Z</time>
      </trkpt>
      <trkpt lat="43.69043" lon="5.85361">
        <ele>452</ele>
        <time>2016-03-12T08:20:17.338Z</time>
      </trkpt>
      <trkpt lat="43.69044" lon="5.8536">
        <ele>453</ele>
        <time>2016-03-12T08:20:18.525Z</time>
      </trkpt>
      <trkpt lat="43.69052" lon="5.85356">
        <ele>452</ele>
        <time>2016-03-12T08:20:22.337Z</time>
      </trkpt>
      <trkpt lat="43.69054" lon="5.85355">
        <ele>452</ele>
        <time>2016-03-12T08:20:23.311Z</time>
      </trkpt>
      <trkpt lat="43.69058" lon="5.85346">
        <ele>452</ele>
        <time>2016-03-12T08:20:28.336Z</time>
      </trkpt>
      <trkpt lat="43.69059" lon="5.85344">
        <ele>452</ele>
        <time>2016-03-12T08:20:29.311Z</time>
      </trkpt>
      <trkpt lat="43.69062" lon="5.85333">
        <ele>449</ele>
        <time>2016-03-12T08:23:54.368Z</time>
      </trkpt>
      <trkpt lat="43.69062" lon="5.85331">
        <ele>449</ele>
        <time>2016-03-12T08:23:55.312Z</time>
      </trkpt>
      <trkpt lat="43.69065" lon="5.85322">
        <ele>451</ele>
        <time>2016-03-12T08:23:59.337Z</time>
      </trkpt>
      <trkpt lat="43.69066" lon="5.8532">
        <ele>450</ele>
        <time>2016-03-12T08:24:00.312Z</time>
      </trkpt>
      <trkpt lat="43.6907" lon="5.85311">
        <ele>451</ele>
        <time>2016-03-12T08:24:04.337Z</time>
      </trkpt>
      <trkpt lat="43.69071" lon="5.85308">
        <ele>451</ele>
        <time>2016-03-12T08:24:05.308Z</time>
      </trkpt>
      <trkpt lat="43.69075" lon="5.85299">
        <ele>452</ele>
        <time>2016-03-12T08:24:10.370Z</time>
      </trkpt>
      <trkpt lat="43.69076" lon="5.85297">
        <ele>452</ele>
        <time>2016-03-12T08:24:11.311Z</time>
      </trkpt>
      <trkpt lat="43.69084" lon="5.8529">
        <ele>453</ele>
        <time>2016-03-12T08:24:16.349Z</time>
      </trkpt>
      <trkpt lat="43.69085" lon="5.8529">
        <ele>454</ele>
        <time>2016-03-12T08:24:17.314Z</time>
      </trkpt>
      <trkpt lat="43.69094" lon="5.85287">
        <ele>455</ele>
        <time>2016-03-12T08:24:22.349Z</time>
      </trkpt>
      <trkpt lat="43.69096" lon="5.85287">
        <ele>455</ele>
        <time>2016-03-12T08:24:23.309Z</time>
      </trkpt>
      <trkpt lat="43.69103" lon="5.8529">
        <ele>456</ele>
        <time>2016-03-12T08:24:27.333Z</time>
      </trkpt>
      <trkpt lat="43.69105" lon="5.8529">
        <ele>456</ele>
        <time>2016-03-12T08:24:28.311Z</time>
      </trkpt>
      <trkpt lat="43.69113" lon="5.85289">
        <ele>457</ele>
        <time>2016-03-12T08:24:33.337Z</time>
      </trkpt>
      <trkpt lat="43.69115" lon="5.85289">
        <ele>457</ele>
        <time>2016-03-12T08:24:34.311Z</time>
      </trkpt>
      <trkpt lat="43.69123" lon="5.85286">
        <ele>457</ele>
        <time>2016-03-12T08:24:38.338Z</time>
      </trkpt>
      <trkpt lat="43.69125" lon="5.85285">
        <ele>457</ele>
        <time>2016-03-12T08:24:39.312Z</time>
      </trkpt>
      <trkpt lat="43.69133" lon="5.85283">
        <ele>458</ele>
        <time>2016-03-12T08:24:44.335Z</time>
      </trkpt>
      <trkpt lat="43.69135" lon="5.85282">
        <ele>459</ele>
        <time>2016-03-12T08:24:45.312Z</time>
      </trkpt>
      <trkpt lat="43.69141" lon="5.85274">
        <ele>460</ele>
        <time>2016-03-12T08:24:51.337Z</time>
      </trkpt>
      <trkpt lat="43.69142" lon="5.85272">
        <ele>460</ele>
        <time>2016-03-12T08:24:52.312Z</time>
      </trkpt>
      <trkpt lat="43.69148" lon="5.85263">
        <ele>461</ele>
        <time>2016-03-12T08:24:57.339Z</time>
      </trkpt>
      <trkpt lat="43.69149" lon="5.85262">
        <ele>461</ele>
        <time>2016-03-12T08:24:58.312Z</time>
      </trkpt>
      <trkpt lat="43.69155" lon="5.85256">
        <ele>462</ele>
        <time>2016-03-12T08:25:03.336Z</time>
      </trkpt>
      <trkpt lat="43.69156" lon="5.85254">
        <ele>462</ele>
        <time>2016-03-12T08:25:04.312Z</time>
      </trkpt>
      <trkpt lat="43.69162" lon="5.85245">
        <ele>463</ele>
        <time>2016-03-12T08:25:10.337Z</time>
      </trkpt>
      <trkpt lat="43.69163" lon="5.85244">
        <ele>463</ele>
        <time>2016-03-12T08:25:11.312Z</time>
      </trkpt>
      <trkpt lat="43.69167" lon="5.85235">
        <ele>464</ele>
        <time>2016-03-12T08:25:17.353Z</time>
      </trkpt>
      <trkpt lat="43.69167" lon="5.85233">
        <ele>464</ele>
        <time>2016-03-12T08:25:18.314Z</time>
      </trkpt>
      <trkpt lat="43.6917" lon="5.85221">
        <ele>463</ele>
        <time>2016-03-12T08:25:23.338Z</time>
      </trkpt>
      <trkpt lat="43.69171" lon="5.85219">
        <ele>463</ele>
        <time>2016-03-12T08:25:24.313Z</time>
      </trkpt>
      <trkpt lat="43.69176" lon="5.8521">
        <ele>464</ele>
        <time>2016-03-12T08:25:28.337Z</time>
      </trkpt>
      <trkpt lat="43.69177" lon="5.85209">
        <ele>464</ele>
        <time>2016-03-12T08:25:29.311Z</time>
      </trkpt>
      <trkpt lat="43.69184" lon="5.85201">
        <ele>467</ele>
        <time>2016-03-12T08:25:34.335Z</time>
      </trkpt>
      <trkpt lat="43.69185" lon="5.852">
        <ele>468</ele>
        <time>2016-03-12T08:25:35.312Z</time>
      </trkpt>
      <trkpt lat="43.69187" lon="5.85189">
        <ele>469</ele>
        <time>2016-03-12T08:25:40.338Z</time>
      </trkpt>
      <trkpt lat="43.69187" lon="5.85187">
        <ele>469</ele>
        <time>2016-03-12T08:25:41.312Z</time>
      </trkpt>
      <trkpt lat="43.69186" lon="5.85175">
        <ele>470</ele>
        <time>2016-03-12T08:25:46.572Z</time>
      </trkpt>
      <trkpt lat="43.69186" lon="5.85173">
        <ele>470</ele>
        <time>2016-03-12T08:25:47.341Z</time>
      </trkpt>
      <trkpt lat="43.69187" lon="5.85162">
        <ele>470</ele>
        <time>2016-03-12T08:25:52.338Z</time>
      </trkpt>
      <trkpt lat="43.69187" lon="5.8516">
        <ele>470</ele>
        <time>2016-03-12T08:25:53.313Z</time>
      </trkpt>
      <trkpt lat="43.69188" lon="5.85148">
        <ele>471</ele>
        <time>2016-03-12T08:25:59.320Z</time>
      </trkpt>
      <trkpt lat="43.69188" lon="5.85146">
        <ele>471</ele>
        <time>2016-03-12T08:26:00.310Z</time>
      </trkpt>
      <trkpt lat="43.69192" lon="5.85137">
        <ele>472</ele>
        <time>2016-03-12T08:26:05.341Z</time>
      </trkpt>
      <trkpt lat="43.69193" lon="5.85135">
        <ele>472</ele>
        <time>2016-03-12T08:26:06.313Z</time>
      </trkpt>
      <trkpt lat="43.692" lon="5.85129">
        <ele>473</ele>
        <time>2016-03-12T08:26:11.338Z</time>
      </trkpt>
      <trkpt lat="43.69202" lon="5.85128">
        <ele>473</ele>
        <time>2016-03-12T08:26:12.313Z</time>
      </trkpt>
      <trkpt lat="43.6921" lon="5.85124">
        <ele>475</ele>
        <time>2016-03-12T08:26:17.340Z</time>
      </trkpt>
      <trkpt lat="43.69211" lon="5.85123">
        <ele>475</ele>
        <time>2016-03-12T08:26:18.315Z</time>
      </trkpt>
      <trkpt lat="43.69218" lon="5.8512">
        <ele>476</ele>
        <time>2016-03-12T08:26:23.572Z</time>
      </trkpt>
      <trkpt lat="43.6922" lon="5.8512">
        <ele>476</ele>
        <time>2016-03-12T08:26:24.311Z</time>
      </trkpt>
      <trkpt lat="43.69224" lon="5.8511">
        <ele>477</ele>
        <time>2016-03-12T08:26:31.338Z</time>
      </trkpt>
      <trkpt lat="43.69224" lon="5.85109">
        <ele>478</ele>
        <time>2016-03-12T08:26:32.312Z</time>
      </trkpt>
      <trkpt lat="43.69231" lon="5.85102">
        <ele>478</ele>
        <time>2016-03-12T08:26:41.338Z</time>
      </trkpt>
      <trkpt lat="43.69232" lon="5.85102">
        <ele>478</ele>
        <time>2016-03-12T08:26:42.312Z</time>
      </trkpt>
      <trkpt lat="43.69241" lon="5.85103">
        <ele>477</ele>
        <time>2016-03-12T08:26:48.337Z</time>
      </trkpt>
      <trkpt lat="43.69242" lon="5.85103">
        <ele>478</ele>
        <time>2016-03-12T08:26:49.312Z</time>
      </trkpt>
      <trkpt lat="43.69249" lon="5.85102">
        <ele>477</ele>
        <time>2016-03-12T08:26:54.338Z</time>
      </trkpt>
      <trkpt lat="43.69251" lon="5.85101">
        <ele>478</ele>
        <time>2016-03-12T08:26:55.312Z</time>
      </trkpt>
      <trkpt lat="43.6926" lon="5.85102">
        <ele>477</ele>
        <time>2016-03-12T08:27:01.338Z</time>
      </trkpt>
      <trkpt lat="43.69261" lon="5.85101">
        <ele>477</ele>
        <time>2016-03-12T08:27:02.340Z</time>
      </trkpt>
      <trkpt lat="43.69269" lon="5.85099">
        <ele>478</ele>
        <time>2016-03-12T08:27:08.338Z</time>
      </trkpt>
      <trkpt lat="43.69271" lon="5.85098">
        <ele>478</ele>
        <time>2016-03-12T08:27:09.313Z</time>
      </trkpt>
      <trkpt lat="43.69279" lon="5.85101">
        <ele>478</ele>
        <time>2016-03-12T08:27:16.338Z</time>
      </trkpt>
      <trkpt lat="43.6928" lon="5.85102">
        <ele>478</ele>
        <time>2016-03-12T08:27:17.311Z</time>
      </trkpt>
      <trkpt lat="43.69288" lon="5.85101">
        <ele>479</ele>
        <time>2016-03-12T08:27:25.338Z</time>
      </trkpt>
      <trkpt lat="43.69289" lon="5.851">
        <ele>479</ele>
        <time>2016-03-12T08:27:26.311Z</time>
      </trkpt>
      <trkpt lat="43.69298" lon="5.85104">
        <ele>479</ele>
        <time>2016-03-12T08:27:34.339Z</time>
      </trkpt>
      <trkpt lat="43.69299" lon="5.85104">
        <ele>480</ele>
        <time>2016-03-12T08:27:35.313Z</time>
      </trkpt>
      <trkpt lat="43.69307" lon="5.8511">
        <ele>480</ele>
        <time>2016-03-12T08:27:42.338Z</time>
      </trkpt>
      <trkpt lat="43.69308" lon="5.8511">
        <ele>480</ele>
        <time>2016-03-12T08:27:43.314Z</time>
      </trkpt>
      <trkpt lat="43.69316" lon="5.85114">
        <ele>481</ele>
        <time>2016-03-12T08:27:50.338Z</time>
      </trkpt>
      <trkpt lat="43.69317" lon="5.85115">
        <ele>482</ele>
        <time>2016-03-12T08:27:51.340Z</time>
      </trkpt>
      <trkpt lat="43.69325" lon="5.8512">
        <ele>484</ele>
        <time>2016-03-12T08:27:58.339Z</time>
      </trkpt>
      <trkpt lat="43.69326" lon="5.85121">
        <ele>483</ele>
        <time>2016-03-12T08:27:59.308Z</time>
      </trkpt>
      <trkpt lat="43.69334" lon="5.85121">
        <ele>485</ele>
        <time>2016-03-12T08:28:05.337Z</time>
      </trkpt>
      <trkpt lat="43.69335" lon="5.85121">
        <ele>485</ele>
        <time>2016-03-12T08:28:06.313Z</time>
      </trkpt>
      <trkpt lat="43.69343" lon="5.85118">
        <ele>486</ele>
        <time>2016-03-12T08:28:12.339Z</time>
      </trkpt>
      <trkpt lat="43.69344" lon="5.85119">
        <ele>486</ele>
        <time>2016-03-12T08:28:13.313Z</time>
      </trkpt>
      <trkpt lat="43.69352" lon="5.8512">
        <ele>488</ele>
        <time>2016-03-12T08:28:19.337Z</time>
      </trkpt>
      <trkpt lat="43.69353" lon="5.8512">
        <ele>488</ele>
        <time>2016-03-12T08:28:20.313Z</time>
      </trkpt>
      <trkpt lat="43.69362" lon="5.85122">
        <ele>489</ele>
        <time>2016-03-12T08:28:26.338Z</time>
      </trkpt>
      <trkpt lat="43.69363" lon="5.85121">
        <ele>488</ele>
        <time>2016-03-12T08:28:27.314Z</time>
      </trkpt>
      <trkpt lat="43.69372" lon="5.85122">
        <ele>491</ele>
        <time>2016-03-12T08:28:33.339Z</time>
      </trkpt>
      <trkpt lat="43.69373" lon="5.85122">
        <ele>490</ele>
        <time>2016-03-12T08:28:34.340Z</time>
      </trkpt>
      <trkpt lat="43.69381" lon="5.85127">
        <ele>492</ele>
        <time>2016-03-12T08:28:40.338Z</time>
      </trkpt>
      <trkpt lat="43.69382" lon="5.85127">
        <ele>492</ele>
        <time>2016-03-12T08:28:41.312Z</time>
      </trkpt>
      <trkpt lat="43.6939" lon="5.85126">
        <ele>491</ele>
        <time>2016-03-12T08:28:46.337Z</time>
      </trkpt>
      <trkpt lat="43.69393" lon="5.85126">
        <ele>491</ele>
        <time>2016-03-12T08:28:47.311Z</time>
      </trkpt>
      <trkpt lat="43.69399" lon="5.8513">
        <ele>491</ele>
        <time>2016-03-12T08:28:49.339Z</time>
      </trkpt>
      <trkpt lat="43.69401" lon="5.85132">
        <ele>491</ele>
        <time>2016-03-12T08:28:50.341Z</time>
      </trkpt>
      <trkpt lat="43.69407" lon="5.85139">
        <ele>491</ele>
        <time>2016-03-12T08:28:54.341Z</time>
      </trkpt>
      <trkpt lat="43.69409" lon="5.85139">
        <ele>491</ele>
        <time>2016-03-12T08:28:55.313Z</time>
      </trkpt>
      <trkpt lat="43.69417" lon="5.85136">
        <ele>494</ele>
        <time>2016-03-12T08:29:00.340Z</time>
      </trkpt>
      <trkpt lat="43.69419" lon="5.85136">
        <ele>494</ele>
        <time>2016-03-12T08:29:01.341Z</time>
      </trkpt>
      <trkpt lat="43.69426" lon="5.85131">
        <ele>494</ele>
        <time>2016-03-12T08:29:07.339Z</time>
      </trkpt>
      <trkpt lat="43.69427" lon="5.85129">
        <ele>493</ele>
        <time>2016-03-12T08:29:08.315Z</time>
      </trkpt>
      <trkpt lat="43.69433" lon="5.8512">
        <ele>494</ele>
        <time>2016-03-12T08:29:14.341Z</time>
      </trkpt>
      <trkpt lat="43.69434" lon="5.85119">
        <ele>494</ele>
        <time>2016-03-12T08:29:15.318Z</time>
      </trkpt>
      <trkpt lat="43.69437" lon="5.8511">
        <ele>496</ele>
        <time>2016-03-12T08:29:20.382Z</time>
      </trkpt>
      <trkpt lat="43.69438" lon="5.85107">
        <ele>496</ele>
        <time>2016-03-12T08:29:21.314Z</time>
      </trkpt>
      <trkpt lat="43.69444" lon="5.85099">
        <ele>496</ele>
        <time>2016-03-12T08:29:25.340Z</time>
      </trkpt>
      <trkpt lat="43.69446" lon="5.85097">
        <ele>496</ele>
        <time>2016-03-12T08:29:26.314Z</time>
      </trkpt>
      <trkpt lat="43.69453" lon="5.85091">
        <ele>496</ele>
        <time>2016-03-12T08:29:30.341Z</time>
      </trkpt>
      <trkpt lat="43.69456" lon="5.85089">
        <ele>495</ele>
        <time>2016-03-12T08:29:31.313Z</time>
      </trkpt>
      <trkpt lat="43.69462" lon="5.85084">
        <ele>496</ele>
        <time>2016-03-12T08:29:34.338Z</time>
      </trkpt>
      <trkpt lat="43.69465" lon="5.85081">
        <ele>496</ele>
        <time>2016-03-12T08:29:35.314Z</time>
      </trkpt>
      <trkpt lat="43.6947" lon="5.85076">
        <ele>496</ele>
        <time>2016-03-12T08:29:37.353Z</time>
      </trkpt>
      <trkpt lat="43.69473" lon="5.85073">
        <ele>496</ele>
        <time>2016-03-12T08:29:38.315Z</time>
      </trkpt>
      <trkpt lat="43.69479" lon="5.85067">
        <ele>496</ele>
        <time>2016-03-12T08:29:40.341Z</time>
      </trkpt>
      <trkpt lat="43.69481" lon="5.85064">
        <ele>496</ele>
        <time>2016-03-12T08:29:41.313Z</time>
      </trkpt>
      <trkpt lat="43.69488" lon="5.85056">
        <ele>497</ele>
        <time>2016-03-12T08:29:44.369Z</time>
      </trkpt>
      <trkpt lat="43.69489" lon="5.85052">
        <ele>496</ele>
        <time>2016-03-12T08:29:45.308Z</time>
      </trkpt>
      <trkpt lat="43.69493" lon="5.85044">
        <ele>496</ele>
        <time>2016-03-12T08:29:47.340Z</time>
      </trkpt>
      <trkpt lat="43.69495" lon="5.8504">
        <ele>496</ele>
        <time>2016-03-12T08:29:48.315Z</time>
      </trkpt>
      <trkpt lat="43.695" lon="5.85034">
        <ele>495</ele>
        <time>2016-03-12T08:29:50.341Z</time>
      </trkpt>
      <trkpt lat="43.69502" lon="5.85032">
        <ele>495</ele>
        <time>2016-03-12T08:29:51.314Z</time>
      </trkpt>
      <trkpt lat="43.6951" lon="5.85026">
        <ele>495</ele>
        <time>2016-03-12T08:29:54.341Z</time>
      </trkpt>
      <trkpt lat="43.69512" lon="5.85023">
        <ele>495</ele>
        <time>2016-03-12T08:29:55.313Z</time>
      </trkpt>
      <trkpt lat="43.69517" lon="5.85017">
        <ele>496</ele>
        <time>2016-03-12T08:29:57.340Z</time>
      </trkpt>
      <trkpt lat="43.69519" lon="5.85015">
        <ele>495</ele>
        <time>2016-03-12T08:29:58.314Z</time>
      </trkpt>
      <trkpt lat="43.69523" lon="5.85009">
        <ele>494</ele>
        <time>2016-03-12T08:30:00.369Z</time>
      </trkpt>
      <trkpt lat="43.69525" lon="5.85006">
        <ele>494</ele>
        <time>2016-03-12T08:30:01.314Z</time>
      </trkpt>
      <trkpt lat="43.6953" lon="5.85">
        <ele>494</ele>
        <time>2016-03-12T08:30:03.340Z</time>
      </trkpt>
      <trkpt lat="43.69534" lon="5.84997">
        <ele>495</ele>
        <time>2016-03-12T08:30:04.313Z</time>
      </trkpt>
      <trkpt lat="43.69541" lon="5.84991">
        <ele>494</ele>
        <time>2016-03-12T08:30:06.340Z</time>
      </trkpt>
      <trkpt lat="43.69544" lon="5.84988">
        <ele>495</ele>
        <time>2016-03-12T08:30:07.314Z</time>
      </trkpt>
      <trkpt lat="43.69551" lon="5.84985">
        <ele>494</ele>
        <time>2016-03-12T08:30:09.339Z</time>
      </trkpt>
      <trkpt lat="43.69554" lon="5.84984">
        <ele>494</ele>
        <time>2016-03-12T08:30:10.313Z</time>
      </trkpt>
      <trkpt lat="43.69559" lon="5.84979">
        <ele>495</ele>
        <time>2016-03-12T08:30:12.339Z</time>
      </trkpt>
      <trkpt lat="43.69562" lon="5.84976">
        <ele>495</ele>
        <time>2016-03-12T08:30:13.313Z</time>
      </trkpt>
      <trkpt lat="43.69568" lon="5.84972">
        <ele>495</ele>
        <time>2016-03-12T08:30:15.340Z</time>
      </trkpt>
      <trkpt lat="43.69571" lon="5.84969">
        <ele>495</ele>
        <time>2016-03-12T08:30:16.314Z</time>
      </trkpt>
      <trkpt lat="43.69577" lon="5.84964">
        <ele>493</ele>
        <time>2016-03-12T08:30:18.345Z</time>
      </trkpt>
      <trkpt lat="43.6958" lon="5.8496">
        <ele>493</ele>
        <time>2016-03-12T08:30:19.311Z</time>
      </trkpt>
      <trkpt lat="43.69585" lon="5.84954">
        <ele>491</ele>
        <time>2016-03-12T08:30:21.597Z</time>
      </trkpt>
      <trkpt lat="43.69588" lon="5.84952">
        <ele>490</ele>
        <time>2016-03-12T08:30:22.314Z</time>
      </trkpt>
      <trkpt lat="43.69595" lon="5.84947">
        <ele>489</ele>
        <time>2016-03-12T08:30:24.340Z</time>
      </trkpt>
      <trkpt lat="43.69599" lon="5.84944">
        <ele>489</ele>
        <time>2016-03-12T08:30:25.314Z</time>
      </trkpt>
      <trkpt lat="43.69603" lon="5.84941">
        <ele>489</ele>
        <time>2016-03-12T08:30:26.338Z</time>
      </trkpt>
      <trkpt lat="43.69608" lon="5.8494">
        <ele>490</ele>
        <time>2016-03-12T08:30:27.316Z</time>
      </trkpt>
      <trkpt lat="43.69612" lon="5.84939">
        <ele>490</ele>
        <time>2016-03-12T08:30:28.339Z</time>
      </trkpt>
      <trkpt lat="43.69617" lon="5.8494">
        <ele>492</ele>
        <time>2016-03-12T08:30:29.313Z</time>
      </trkpt>
      <trkpt lat="43.69623" lon="5.84944">
        <ele>490</ele>
        <time>2016-03-12T08:30:31.339Z</time>
      </trkpt>
      <trkpt lat="43.69626" lon="5.84949">
        <ele>491</ele>
        <time>2016-03-12T08:30:32.313Z</time>
      </trkpt>
      <trkpt lat="43.6963" lon="5.84958">
        <ele>491</ele>
        <time>2016-03-12T08:30:34.338Z</time>
      </trkpt>
      <trkpt lat="43.69632" lon="5.84963">
        <ele>491</ele>
        <time>2016-03-12T08:30:35.312Z</time>
      </trkpt>
      <trkpt lat="43.69639" lon="5.84969">
        <ele>490</ele>
        <time>2016-03-12T08:30:38.340Z</time>
      </trkpt>
      <trkpt lat="43.69641" lon="5.84968">
        <ele>490</ele>
        <time>2016-03-12T08:30:39.313Z</time>
      </trkpt>
      <trkpt lat="43.69648" lon="5.84963">
        <ele>491</ele>
        <time>2016-03-12T08:30:42.355Z</time>
      </trkpt>
      <trkpt lat="43.6965" lon="5.84959">
        <ele>491</ele>
        <time>2016-03-12T08:30:43.313Z</time>
      </trkpt>
      <trkpt lat="43.69653" lon="5.84951">
        <ele>490</ele>
        <time>2016-03-12T08:30:45.338Z</time>
      </trkpt>
      <trkpt lat="43.69655" lon="5.84947">
        <ele>489</ele>
        <time>2016-03-12T08:30:46.314Z</time>
      </trkpt>
      <trkpt lat="43.69661" lon="5.84939">
        <ele>489</ele>
        <time>2016-03-12T08:30:49.338Z</time>
      </trkpt>
      <trkpt lat="43.69664" lon="5.84937">
        <ele>489</ele>
        <time>2016-03-12T08:30:50.313Z</time>
      </trkpt>
      <trkpt lat="43.69671" lon="5.8493">
        <ele>488</ele>
        <time>2016-03-12T08:30:53.341Z</time>
      </trkpt>
      <trkpt lat="43.69673" lon="5.84928">
        <ele>488</ele>
        <time>2016-03-12T08:30:54.325Z</time>
      </trkpt>
      <trkpt lat="43.69679" lon="5.8492">
        <ele>488</ele>
        <time>2016-03-12T08:30:57.339Z</time>
      </trkpt>
      <trkpt lat="43.6968" lon="5.84917">
        <ele>488</ele>
        <time>2016-03-12T08:30:58.343Z</time>
      </trkpt>
      <trkpt lat="43.69685" lon="5.84908">
        <ele>488</ele>
        <time>2016-03-12T08:31:02.338Z</time>
      </trkpt>
      <trkpt lat="43.69685" lon="5.84905">
        <ele>488</ele>
        <time>2016-03-12T08:31:03.314Z</time>
      </trkpt>
      <trkpt lat="43.69687" lon="5.84896">
        <ele>488</ele>
        <time>2016-03-12T08:31:05.339Z</time>
      </trkpt>
      <trkpt lat="43.69689" lon="5.84892">
        <ele>487</ele>
        <time>2016-03-12T08:31:06.314Z</time>
      </trkpt>
      <trkpt lat="43.69689" lon="5.84882">
        <ele>487</ele>
        <time>2016-03-12T08:31:08.338Z</time>
      </trkpt>
      <trkpt lat="43.6969" lon="5.84877">
        <ele>487</ele>
        <time>2016-03-12T08:31:09.313Z</time>
      </trkpt>
      <trkpt lat="43.69693" lon="5.84868">
        <ele>486</ele>
        <time>2016-03-12T08:31:11.339Z</time>
      </trkpt>
      <trkpt lat="43.69695" lon="5.84864">
        <ele>486</ele>
        <time>2016-03-12T08:31:12.314Z</time>
      </trkpt>
      <trkpt lat="43.69702" lon="5.84862">
        <ele>486</ele>
        <time>2016-03-12T08:31:14.369Z</time>
      </trkpt>
      <trkpt lat="43.69706" lon="5.84861">
        <ele>486</ele>
        <time>2016-03-12T08:31:15.312Z</time>
      </trkpt>
      <trkpt lat="43.69712" lon="5.84855">
        <ele>486</ele>
        <time>2016-03-12T08:31:17.345Z</time>
      </trkpt>
      <trkpt lat="43.69714" lon="5.84851">
        <ele>486</ele>
        <time>2016-03-12T08:31:18.309Z</time>
      </trkpt>
      <trkpt lat="43.69717" lon="5.84842">
        <ele>485</ele>
        <time>2016-03-12T08:31:20.340Z</time>
      </trkpt>
      <trkpt lat="43.69718" lon="5.84837">
        <ele>485</ele>
        <time>2016-03-12T08:31:21.313Z</time>
      </trkpt>
      <trkpt lat="43.69721" lon="5.84828">
        <ele>483</ele>
        <time>2016-03-12T08:31:23.339Z</time>
      </trkpt>
      <trkpt lat="43.69722" lon="5.84825">
        <ele>482</ele>
        <time>2016-03-12T08:31:24.314Z</time>
      </trkpt>
      <trkpt lat="43.69724" lon="5.84813">
        <ele>483</ele>
        <time>2016-03-12T08:31:27.352Z</time>
      </trkpt>
      <trkpt lat="43.69725" lon="5.84809">
        <ele>482</ele>
        <time>2016-03-12T08:31:28.313Z</time>
      </trkpt>
      <trkpt lat="43.69727" lon="5.84799">
        <ele>482</ele>
        <time>2016-03-12T08:31:30.347Z</time>
      </trkpt>
      <trkpt lat="43.69728" lon="5.84793">
        <ele>482</ele>
        <time>2016-03-12T08:31:31.313Z</time>
      </trkpt>
      <trkpt lat="43.69733" lon="5.84785">
        <ele>482</ele>
        <time>2016-03-12T08:31:33.339Z</time>
      </trkpt>
      <trkpt lat="43.69736" lon="5.84781">
        <ele>483</ele>
        <time>2016-03-12T08:31:34.313Z</time>
      </trkpt>
      <trkpt lat="43.6974" lon="5.84774">
        <ele>483</ele>
        <time>2016-03-12T08:31:36.340Z</time>
      </trkpt>
      <trkpt lat="43.69741" lon="5.84771">
        <ele>483</ele>
        <time>2016-03-12T08:31:37.315Z</time>
      </trkpt>
      <trkpt lat="43.69745" lon="5.84763">
        <ele>482</ele>
        <time>2016-03-12T08:31:39.340Z</time>
      </trkpt>
      <trkpt lat="43.69747" lon="5.84759">
        <ele>482</ele>
        <time>2016-03-12T08:31:40.314Z</time>
      </trkpt>
      <trkpt lat="43.6975" lon="5.84751">
        <ele>483</ele>
        <time>2016-03-12T08:31:42.340Z</time>
      </trkpt>
      <trkpt lat="43.69752" lon="5.84747">
        <ele>483</ele>
        <time>2016-03-12T08:31:43.313Z</time>
      </trkpt>
      <trkpt lat="43.69756" lon="5.8474">
        <ele>483</ele>
        <time>2016-03-12T08:31:45.381Z</time>
      </trkpt>
      <trkpt lat="43.69758" lon="5.84736">
        <ele>483</ele>
        <time>2016-03-12T08:31:46.313Z</time>
      </trkpt>
      <trkpt lat="43.69764" lon="5.84726">
        <ele>483</ele>
        <time>2016-03-12T08:31:49.340Z</time>
      </trkpt>
      <trkpt lat="43.69766" lon="5.84725">
        <ele>483</ele>
        <time>2016-03-12T08:31:50.314Z</time>
      </trkpt>
      <trkpt lat="43.69772" lon="5.84723">
        <ele>482</ele>
        <time>2016-03-12T08:31:52.338Z</time>
      </trkpt>
      <trkpt lat="43.69775" lon="5.84722">
        <ele>484</ele>
        <time>2016-03-12T08:31:53.318Z</time>
      </trkpt>
      <trkpt lat="43.69782" lon="5.84714">
        <ele>483</ele>
        <time>2016-03-12T08:31:56.339Z</time>
      </trkpt>
      <trkpt lat="43.69784" lon="5.84711">
        <ele>483</ele>
        <time>2016-03-12T08:31:57.340Z</time>
      </trkpt>
      <trkpt lat="43.69792" lon="5.8471">
        <ele>482</ele>
        <time>2016-03-12T08:32:00.339Z</time>
      </trkpt>
      <trkpt lat="43.69794" lon="5.8471">
        <ele>483</ele>
        <time>2016-03-12T08:32:01.313Z</time>
      </trkpt>
      <trkpt lat="43.69803" lon="5.84709">
        <ele>485</ele>
        <time>2016-03-12T08:32:05.339Z</time>
      </trkpt>
      <trkpt lat="43.69803" lon="5.84706">
        <ele>485</ele>
        <time>2016-03-12T08:32:06.313Z</time>
      </trkpt>
      <trkpt lat="43.69808" lon="5.847">
        <ele>485</ele>
        <time>2016-03-12T08:32:09.339Z</time>
      </trkpt>
      <trkpt lat="43.69811" lon="5.84699">
        <ele>486</ele>
        <time>2016-03-12T08:32:10.313Z</time>
      </trkpt>
      <trkpt lat="43.69817" lon="5.84696">
        <ele>487</ele>
        <time>2016-03-12T08:32:12.415Z</time>
      </trkpt>
      <trkpt lat="43.6982" lon="5.84693">
        <ele>486</ele>
        <time>2016-03-12T08:32:13.314Z</time>
      </trkpt>
      <trkpt lat="43.69824" lon="5.84682">
        <ele>483</ele>
        <time>2016-03-12T08:32:16.339Z</time>
      </trkpt>
      <trkpt lat="43.69825" lon="5.84679">
        <ele>485</ele>
        <time>2016-03-12T08:32:17.312Z</time>
      </trkpt>
      <trkpt lat="43.69829" lon="5.84672">
        <ele>485</ele>
        <time>2016-03-12T08:32:20.340Z</time>
      </trkpt>
      <trkpt lat="43.69831" lon="5.84669">
        <ele>484</ele>
        <time>2016-03-12T08:32:21.313Z</time>
      </trkpt>
      <trkpt lat="43.69834" lon="5.8466">
        <ele>484</ele>
        <time>2016-03-12T08:32:24.340Z</time>
      </trkpt>
      <trkpt lat="43.69835" lon="5.84657">
        <ele>484</ele>
        <time>2016-03-12T08:32:25.326Z</time>
      </trkpt>
      <trkpt lat="43.69841" lon="5.8465">
        <ele>484</ele>
        <time>2016-03-12T08:32:28.339Z</time>
      </trkpt>
      <trkpt lat="43.69842" lon="5.84647">
        <ele>484</ele>
        <time>2016-03-12T08:32:29.314Z</time>
      </trkpt>
      <trkpt lat="43.69837" lon="5.84638">
        <ele>486</ele>
        <time>2016-03-12T08:32:36.340Z</time>
      </trkpt>
      <trkpt lat="43.69837" lon="5.84636">
        <ele>486</ele>
        <time>2016-03-12T08:32:37.314Z</time>
      </trkpt>
      <trkpt lat="43.69832" lon="5.84627">
        <ele>485</ele>
        <time>2016-03-12T08:32:44.464Z</time>
      </trkpt>
      <trkpt lat="43.6983" lon="5.84624">
        <ele>486</ele>
        <time>2016-03-12T08:32:45.310Z</time>
      </trkpt>
      <trkpt lat="43.6983" lon="5.84613">
        <ele>485</ele>
        <time>2016-03-12T08:32:48.340Z</time>
      </trkpt>
      <trkpt lat="43.69829" lon="5.8461">
        <ele>485</ele>
        <time>2016-03-12T08:32:49.314Z</time>
      </trkpt>
      <trkpt lat="43.69827" lon="5.84601">
        <ele>486</ele>
        <time>2016-03-12T08:32:52.342Z</time>
      </trkpt>
      <trkpt lat="43.69827" lon="5.84598">
        <ele>486</ele>
        <time>2016-03-12T08:32:53.316Z</time>
      </trkpt>
      <trkpt lat="43.69825" lon="5.84586">
        <ele>486</ele>
        <time>2016-03-12T08:32:57.369Z</time>
      </trkpt>
      <trkpt lat="43.69822" lon="5.84585">
        <ele>485</ele>
        <time>2016-03-12T08:32:58.315Z</time>
      </trkpt>
      <trkpt lat="43.69822" lon="5.84576">
        <ele>485</ele>
        <time>2016-03-12T08:33:01.339Z</time>
      </trkpt>
      <trkpt lat="43.69823" lon="5.84572">
        <ele>485</ele>
        <time>2016-03-12T08:33:02.315Z</time>
      </trkpt>
      <trkpt lat="43.69826" lon="5.84563">
        <ele>485</ele>
        <time>2016-03-12T08:33:04.393Z</time>
      </trkpt>
      <trkpt lat="43.69827" lon="5.8456">
        <ele>485</ele>
        <time>2016-03-12T08:33:05.315Z</time>
      </trkpt>
      <trkpt lat="43.69827" lon="5.84548">
        <ele>487</ele>
        <time>2016-03-12T08:33:08.368Z</time>
      </trkpt>
      <trkpt lat="43.69826" lon="5.84544">
        <ele>487</ele>
        <time>2016-03-12T08:33:09.314Z</time>
      </trkpt>
      <trkpt lat="43.69822" lon="5.84535">
        <ele>488</ele>
        <time>2016-03-12T08:33:12.337Z</time>
      </trkpt>
      <trkpt lat="43.69822" lon="5.84532">
        <ele>489</ele>
        <time>2016-03-12T08:33:13.315Z</time>
      </trkpt>
      <trkpt lat="43.69817" lon="5.84525">
        <ele>488</ele>
        <time>2016-03-12T08:33:16.339Z</time>
      </trkpt>
      <trkpt lat="43.69815" lon="5.84523">
        <ele>489</ele>
        <time>2016-03-12T08:33:17.314Z</time>
      </trkpt>
      <trkpt lat="43.69816" lon="5.84512">
        <ele>489</ele>
        <time>2016-03-12T08:33:21.383Z</time>
      </trkpt>
      <trkpt lat="43.69818" lon="5.84509">
        <ele>489</ele>
        <time>2016-03-12T08:33:22.312Z</time>
      </trkpt>
      <trkpt lat="43.69821" lon="5.84499">
        <ele>488</ele>
        <time>2016-03-12T08:33:25.340Z</time>
      </trkpt>
      <trkpt lat="43.69822" lon="5.84496">
        <ele>488</ele>
        <time>2016-03-12T08:33:26.314Z</time>
      </trkpt>
      <trkpt lat="43.69826" lon="5.84488">
        <ele>488</ele>
        <time>2016-03-12T08:33:29.340Z</time>
      </trkpt>
      <trkpt lat="43.69827" lon="5.84485">
        <ele>489</ele>
        <time>2016-03-12T08:33:30.313Z</time>
      </trkpt>
      <trkpt lat="43.69827" lon="5.84474">
        <ele>490</ele>
        <time>2016-03-12T08:33:35.340Z</time>
      </trkpt>
      <trkpt lat="43.69826" lon="5.84472">
        <ele>490</ele>
        <time>2016-03-12T08:33:36.314Z</time>
      </trkpt>
      <trkpt lat="43.69822" lon="5.84461">
        <ele>490</ele>
        <time>2016-03-12T08:33:42.341Z</time>
      </trkpt>
      <trkpt lat="43.69823" lon="5.84459">
        <ele>491</ele>
        <time>2016-03-12T08:33:43.314Z</time>
      </trkpt>
      <trkpt lat="43.69823" lon="5.84447">
        <ele>492</ele>
        <time>2016-03-12T08:33:48.340Z</time>
      </trkpt>
      <trkpt lat="43.69823" lon="5.84444">
        <ele>492</ele>
        <time>2016-03-12T08:33:49.314Z</time>
      </trkpt>
      <trkpt lat="43.69829" lon="5.84438">
        <ele>492</ele>
        <time>2016-03-12T08:33:53.330Z</time>
      </trkpt>
      <trkpt lat="43.69831" lon="5.84438">
        <ele>492</ele>
        <time>2016-03-12T08:33:54.314Z</time>
      </trkpt>
      <trkpt lat="43.6983" lon="5.84426">
        <ele>493</ele>
        <time>2016-03-12T08:34:00.327Z</time>
      </trkpt>
      <trkpt lat="43.69829" lon="5.84425">
        <ele>493</ele>
        <time>2016-03-12T08:34:01.323Z</time>
      </trkpt>
      <trkpt lat="43.69828" lon="5.84414">
        <ele>493</ele>
        <time>2016-03-12T08:34:05.341Z</time>
      </trkpt>
      <trkpt lat="43.69828" lon="5.84412">
        <ele>493</ele>
        <time>2016-03-12T08:34:06.315Z</time>
      </trkpt>
      <trkpt lat="43.69829" lon="5.84401">
        <ele>494</ele>
        <time>2016-03-12T08:34:10.353Z</time>
      </trkpt>
      <trkpt lat="43.69829" lon="5.84398">
        <ele>494</ele>
        <time>2016-03-12T08:34:11.312Z</time>
      </trkpt>
      <trkpt lat="43.69827" lon="5.84389">
        <ele>494</ele>
        <time>2016-03-12T08:34:15.341Z</time>
      </trkpt>
      <trkpt lat="43.69825" lon="5.84386">
        <ele>494</ele>
        <time>2016-03-12T08:34:16.315Z</time>
      </trkpt>
      <trkpt lat="43.69823" lon="5.84376">
        <ele>494</ele>
        <time>2016-03-12T08:34:20.353Z</time>
      </trkpt>
      <trkpt lat="43.69822" lon="5.84374">
        <ele>495</ele>
        <time>2016-03-12T08:34:21.316Z</time>
      </trkpt>
      <trkpt lat="43.69821" lon="5.84362">
        <ele>496</ele>
        <time>2016-03-12T08:34:26.340Z</time>
      </trkpt>
      <trkpt lat="43.69821" lon="5.8436">
        <ele>496</ele>
        <time>2016-03-12T08:34:27.315Z</time>
      </trkpt>
      <trkpt lat="43.69815" lon="5.84351">
        <ele>496</ele>
        <time>2016-03-12T08:34:32.340Z</time>
      </trkpt>
      <trkpt lat="43.69814" lon="5.8435">
        <ele>496</ele>
        <time>2016-03-12T08:34:33.342Z</time>
      </trkpt>
      <trkpt lat="43.6981" lon="5.8434">
        <ele>497</ele>
        <time>2016-03-12T08:34:38.341Z</time>
      </trkpt>
      <trkpt lat="43.6981" lon="5.84338">
        <ele>497</ele>
        <time>2016-03-12T08:34:39.316Z</time>
      </trkpt>
      <trkpt lat="43.69806" lon="5.84327">
        <ele>497</ele>
        <time>2016-03-12T08:34:44.342Z</time>
      </trkpt>
      <trkpt lat="43.69805" lon="5.84325">
        <ele>498</ele>
        <time>2016-03-12T08:34:45.315Z</time>
      </trkpt>
      <trkpt lat="43.69805" lon="5.84314">
        <ele>496</ele>
        <time>2016-03-12T08:34:49.585Z</time>
      </trkpt>
      <trkpt lat="43.69806" lon="5.84311">
        <ele>496</ele>
        <time>2016-03-12T08:34:50.315Z</time>
      </trkpt>
      <trkpt lat="43.69808" lon="5.84302">
        <ele>496</ele>
        <time>2016-03-12T08:34:52.351Z</time>
      </trkpt>
      <trkpt lat="43.69809" lon="5.84297">
        <ele>496</ele>
        <time>2016-03-12T08:34:53.314Z</time>
      </trkpt>
      <trkpt lat="43.69811" lon="5.84287">
        <ele>496</ele>
        <time>2016-03-12T08:34:55.340Z</time>
      </trkpt>
      <trkpt lat="43.69811" lon="5.84282">
        <ele>496</ele>
        <time>2016-03-12T08:34:56.344Z</time>
      </trkpt>
      <trkpt lat="43.69809" lon="5.84272">
        <ele>497</ele>
        <time>2016-03-12T08:34:58.413Z</time>
      </trkpt>
      <trkpt lat="43.69808" lon="5.84267">
        <ele>496</ele>
        <time>2016-03-12T08:34:59.315Z</time>
      </trkpt>
      <trkpt lat="43.69807" lon="5.84257">
        <ele>496</ele>
        <time>2016-03-12T08:35:01.584Z</time>
      </trkpt>
      <trkpt lat="43.69807" lon="5.84252">
        <ele>495</ele>
        <time>2016-03-12T08:35:02.315Z</time>
      </trkpt>
      <trkpt lat="43.69809" lon="5.8424">
        <ele>495</ele>
        <time>2016-03-12T08:35:04.339Z</time>
      </trkpt>
      <trkpt lat="43.69809" lon="5.84234">
        <ele>495</ele>
        <time>2016-03-12T08:35:05.315Z</time>
      </trkpt>
      <trkpt lat="43.69809" lon="5.84224">
        <ele>495</ele>
        <time>2016-03-12T08:35:07.340Z</time>
      </trkpt>
      <trkpt lat="43.69809" lon="5.84221">
        <ele>494</ele>
        <time>2016-03-12T08:35:08.314Z</time>
      </trkpt>
      <trkpt lat="43.6981" lon="5.84209">
        <ele>495</ele>
        <time>2016-03-12T08:35:11.340Z</time>
      </trkpt>
      <trkpt lat="43.69809" lon="5.84205">
        <ele>495</ele>
        <time>2016-03-12T08:35:12.316Z</time>
      </trkpt>
      <trkpt lat="43.69812" lon="5.84194">
        <ele>496</ele>
        <time>2016-03-12T08:35:15.339Z</time>
      </trkpt>
      <trkpt lat="43.69813" lon="5.84191">
        <ele>496</ele>
        <time>2016-03-12T08:35:16.314Z</time>
      </trkpt>
      <trkpt lat="43.69814" lon="5.84179">
        <ele>494</ele>
        <time>2016-03-12T08:35:19.341Z</time>
      </trkpt>
      <trkpt lat="43.69816" lon="5.84175">
        <ele>495</ele>
        <time>2016-03-12T08:35:20.317Z</time>
      </trkpt>
      <trkpt lat="43.69812" lon="5.84165">
        <ele>493</ele>
        <time>2016-03-12T08:35:24.375Z</time>
      </trkpt>
      <trkpt lat="43.69809" lon="5.84164">
        <ele>493</ele>
        <time>2016-03-12T08:35:25.316Z</time>
      </trkpt>
      <trkpt lat="43.69803" lon="5.84157">
        <ele>492</ele>
        <time>2016-03-12T08:35:30.340Z</time>
      </trkpt>
      <trkpt lat="43.69803" lon="5.84155">
        <ele>491</ele>
        <time>2016-03-12T08:35:31.342Z</time>
      </trkpt>
      <trkpt lat="43.69798" lon="5.84145">
        <ele>490</ele>
        <time>2016-03-12T08:35:36.340Z</time>
      </trkpt>
      <trkpt lat="43.69796" lon="5.84144">
        <ele>488</ele>
        <time>2016-03-12T08:35:37.314Z</time>
      </trkpt>
      <trkpt lat="43.69797" lon="5.84133">
        <ele>488</ele>
        <time>2016-03-12T08:35:58.371Z</time>
      </trkpt>
      <trkpt lat="43.69797" lon="5.84131">
        <ele>488</ele>
        <time>2016-03-12T08:35:59.315Z</time>
      </trkpt>
      <trkpt lat="43.69802" lon="5.84121">
        <ele>489</ele>
        <time>2016-03-12T08:36:11.341Z</time>
      </trkpt>
      <trkpt lat="43.69802" lon="5.84117">
        <ele>488</ele>
        <time>2016-03-12T08:36:12.315Z</time>
      </trkpt>
      <trkpt lat="43.698" lon="5.84108">
        <ele>487</ele>
        <time>2016-03-12T08:36:14.341Z</time>
      </trkpt>
      <trkpt lat="43.69799" lon="5.84104">
        <ele>486</ele>
        <time>2016-03-12T08:36:15.316Z</time>
      </trkpt>
      <trkpt lat="43.69801" lon="5.84094">
        <ele>486</ele>
        <time>2016-03-12T08:36:17.348Z</time>
      </trkpt>
      <trkpt lat="43.69802" lon="5.84088">
        <ele>485</ele>
        <time>2016-03-12T08:36:18.316Z</time>
      </trkpt>
      <trkpt lat="43.698" lon="5.84076">
        <ele>483</ele>
        <time>2016-03-12T08:36:20.338Z</time>
      </trkpt>
      <trkpt lat="43.69798" lon="5.84071">
        <ele>483</ele>
        <time>2016-03-12T08:36:21.320Z</time>
      </trkpt>
      <trkpt lat="43.69793" lon="5.84061">
        <ele>480</ele>
        <time>2016-03-12T08:36:24.339Z</time>
      </trkpt>
      <trkpt lat="43.6979" lon="5.84059">
        <ele>480</ele>
        <time>2016-03-12T08:36:25.313Z</time>
      </trkpt>
      <trkpt lat="43.69783" lon="5.84054">
        <ele>477</ele>
        <time>2016-03-12T08:36:27.341Z</time>
      </trkpt>
      <trkpt lat="43.69782" lon="5.8405">
        <ele>477</ele>
        <time>2016-03-12T08:36:28.314Z</time>
      </trkpt>
      <trkpt lat="43.69783" lon="5.84042">
        <ele>477</ele>
        <time>2016-03-12T08:36:30.339Z</time>
      </trkpt>
      <trkpt lat="43.69785" lon="5.84038">
        <ele>476</ele>
        <time>2016-03-12T08:36:31.316Z</time>
      </trkpt>
      <trkpt lat="43.6979" lon="5.8403">
        <ele>476</ele>
        <time>2016-03-12T08:36:33.340Z</time>
      </trkpt>
      <trkpt lat="43.69791" lon="5.84025">
        <ele>475</ele>
        <time>2016-03-12T08:36:34.316Z</time>
      </trkpt>
      <trkpt lat="43.69787" lon="5.84014">
        <ele>474</ele>
        <time>2016-03-12T08:36:38.339Z</time>
      </trkpt>
      <trkpt lat="43.69785" lon="5.84014">
        <ele>474</ele>
        <time>2016-03-12T08:36:39.320Z</time>
      </trkpt>
      <trkpt lat="43.69779" lon="5.84009">
        <ele>473</ele>
        <time>2016-03-12T08:36:42.346Z</time>
      </trkpt>
      <trkpt lat="43.69776" lon="5.84005">
        <ele>470</ele>
        <time>2016-03-12T08:36:43.315Z</time>
      </trkpt>
      <trkpt lat="43.69768" lon="5.84003">
        <ele>470</ele>
        <time>2016-03-12T08:36:45.341Z</time>
      </trkpt>
      <trkpt lat="43.69764" lon="5.84002">
        <ele>469</ele>
        <time>2016-03-12T08:36:46.315Z</time>
      </trkpt>
      <trkpt lat="43.69758" lon="5.83995">
        <ele>469</ele>
        <time>2016-03-12T08:36:48.337Z</time>
      </trkpt>
      <trkpt lat="43.69755" lon="5.83992">
        <ele>468</ele>
        <time>2016-03-12T08:36:49.326Z</time>
      </trkpt>
      <trkpt lat="43.69753" lon="5.83983">
        <ele>466</ele>
        <time>2016-03-12T08:36:51.340Z</time>
      </trkpt>
      <trkpt lat="43.69753" lon="5.83978">
        <ele>465</ele>
        <time>2016-03-12T08:36:52.315Z</time>
      </trkpt>
      <trkpt lat="43.69757" lon="5.83969">
        <ele>463</ele>
        <time>2016-03-12T08:36:54.339Z</time>
      </trkpt>
      <trkpt lat="43.69757" lon="5.83964">
        <ele>463</ele>
        <time>2016-03-12T08:36:55.315Z</time>
      </trkpt>
      <trkpt lat="43.69752" lon="5.83958">
        <ele>462</ele>
        <time>2016-03-12T08:36:57.366Z</time>
      </trkpt>
      <trkpt lat="43.6975" lon="5.83954">
        <ele>462</ele>
        <time>2016-03-12T08:36:58.316Z</time>
      </trkpt>
      <trkpt lat="43.69745" lon="5.83948">
        <ele>460</ele>
        <time>2016-03-12T08:37:00.340Z</time>
      </trkpt>
      <trkpt lat="43.69742" lon="5.83946">
        <ele>460</ele>
        <time>2016-03-12T08:37:01.314Z</time>
      </trkpt>
      <trkpt lat="43.69733" lon="5.83945">
        <ele>458</ele>
        <time>2016-03-12T08:37:04.339Z</time>
      </trkpt>
      <trkpt lat="43.69732" lon="5.83945">
        <ele>458</ele>
        <time>2016-03-12T08:37:05.316Z</time>
      </trkpt>
      <trkpt lat="43.69726" lon="5.83954">
        <ele>459</ele>
        <time>2016-03-12T08:37:09.340Z</time>
      </trkpt>
      <trkpt lat="43.69724" lon="5.83956">
        <ele>459</ele>
        <time>2016-03-12T08:37:10.317Z</time>
      </trkpt>
      <trkpt lat="43.69717" lon="5.83958">
        <ele>459</ele>
        <time>2016-03-12T08:37:12.339Z</time>
      </trkpt>
      <trkpt lat="43.69714" lon="5.83957">
        <ele>458</ele>
        <time>2016-03-12T08:37:13.339Z</time>
      </trkpt>
      <trkpt lat="43.69706" lon="5.83953">
        <ele>456</ele>
        <time>2016-03-12T08:37:16.327Z</time>
      </trkpt>
      <trkpt lat="43.69704" lon="5.8395">
        <ele>455</ele>
        <time>2016-03-12T08:37:17.314Z</time>
      </trkpt>
      <trkpt lat="43.697" lon="5.83939">
        <ele>452</ele>
        <time>2016-03-12T08:37:20.340Z</time>
      </trkpt>
      <trkpt lat="43.69699" lon="5.83937">
        <ele>451</ele>
        <time>2016-03-12T08:37:21.310Z</time>
      </trkpt>
      <trkpt lat="43.697" lon="5.83928">
        <ele>450</ele>
        <time>2016-03-12T08:37:24.319Z</time>
      </trkpt>
      <trkpt lat="43.69702" lon="5.83925">
        <ele>451</ele>
        <time>2016-03-12T08:37:25.317Z</time>
      </trkpt>
      <trkpt lat="43.69708" lon="5.83917">
        <ele>451</ele>
        <time>2016-03-12T08:37:29.341Z</time>
      </trkpt>
      <trkpt lat="43.69709" lon="5.83914">
        <ele>451</ele>
        <time>2016-03-12T08:37:30.314Z</time>
      </trkpt>
      <trkpt lat="43.69712" lon="5.83907">
        <ele>451</ele>
        <time>2016-03-12T08:37:32.341Z</time>
      </trkpt>
      <trkpt lat="43.69715" lon="5.83902">
        <ele>451</ele>
        <time>2016-03-12T08:37:33.315Z</time>
      </trkpt>
      <trkpt lat="43.69718" lon="5.83897">
        <ele>451</ele>
        <time>2016-03-12T08:37:34.341Z</time>
      </trkpt>
      <trkpt lat="43.69721" lon="5.83892">
        <ele>451</ele>
        <time>2016-03-12T08:37:35.317Z</time>
      </trkpt>
      <trkpt lat="43.69725" lon="5.83888">
        <ele>450</ele>
        <time>2016-03-12T08:37:36.340Z</time>
      </trkpt>
      <trkpt lat="43.6973" lon="5.83884">
        <ele>450</ele>
        <time>2016-03-12T08:37:37.316Z</time>
      </trkpt>
      <trkpt lat="43.69733" lon="5.8388">
        <ele>450</ele>
        <time>2016-03-12T08:37:38.342Z</time>
      </trkpt>
      <trkpt lat="43.69737" lon="5.83875">
        <ele>449</ele>
        <time>2016-03-12T08:37:39.357Z</time>
      </trkpt>
      <trkpt lat="43.6974" lon="5.83869">
        <ele>448</ele>
        <time>2016-03-12T08:37:40.342Z</time>
      </trkpt>
      <trkpt lat="43.69744" lon="5.83864">
        <ele>447</ele>
        <time>2016-03-12T08:37:41.316Z</time>
      </trkpt>
      <trkpt lat="43.69748" lon="5.83859">
        <ele>446</ele>
        <time>2016-03-12T08:37:42.342Z</time>
      </trkpt>
      <trkpt lat="43.69751" lon="5.83854">
        <ele>445</ele>
        <time>2016-03-12T08:37:43.315Z</time>
      </trkpt>
      <trkpt lat="43.69754" lon="5.83847">
        <ele>444</ele>
        <time>2016-03-12T08:37:44.343Z</time>
      </trkpt>
      <trkpt lat="43.69757" lon="5.83842">
        <ele>444</ele>
        <time>2016-03-12T08:37:45.316Z</time>
      </trkpt>
      <trkpt lat="43.69761" lon="5.83837">
        <ele>443</ele>
        <time>2016-03-12T08:37:46.565Z</time>
      </trkpt>
      <trkpt lat="43.69765" lon="5.83833">
        <ele>442</ele>
        <time>2016-03-12T08:37:47.315Z</time>
      </trkpt>
      <trkpt lat="43.69769" lon="5.83826">
        <ele>441</ele>
        <time>2016-03-12T08:37:49.342Z</time>
      </trkpt>
      <trkpt lat="43.6977" lon="5.83822">
        <ele>440</ele>
        <time>2016-03-12T08:37:50.342Z</time>
      </trkpt>
      <trkpt lat="43.69777" lon="5.83819">
        <ele>440</ele>
        <time>2016-03-12T08:37:53.341Z</time>
      </trkpt>
      <trkpt lat="43.6978" lon="5.83817">
        <ele>440</ele>
        <time>2016-03-12T08:37:54.316Z</time>
      </trkpt>
      <trkpt lat="43.69784" lon="5.8381">
        <ele>439</ele>
        <time>2016-03-12T08:37:56.341Z</time>
      </trkpt>
      <trkpt lat="43.69787" lon="5.83805">
        <ele>438</ele>
        <time>2016-03-12T08:37:57.316Z</time>
      </trkpt>
      <trkpt lat="43.69789" lon="5.838">
        <ele>438</ele>
        <time>2016-03-12T08:37:58.571Z</time>
      </trkpt>
      <trkpt lat="43.69792" lon="5.83794">
        <ele>438</ele>
        <time>2016-03-12T08:37:59.319Z</time>
      </trkpt>
      <trkpt lat="43.69795" lon="5.83788">
        <ele>437</ele>
        <time>2016-03-12T08:38:00.341Z</time>
      </trkpt>
      <trkpt lat="43.69797" lon="5.83783">
        <ele>437</ele>
        <time>2016-03-12T08:38:01.343Z</time>
      </trkpt>
      <trkpt lat="43.69801" lon="5.83779">
        <ele>437</ele>
        <time>2016-03-12T08:38:02.342Z</time>
      </trkpt>
      <trkpt lat="43.69805" lon="5.83776">
        <ele>437</ele>
        <time>2016-03-12T08:38:03.316Z</time>
      </trkpt>
      <trkpt lat="43.69808" lon="5.8377">
        <ele>436</ele>
        <time>2016-03-12T08:38:04.342Z</time>
      </trkpt>
      <trkpt lat="43.6981" lon="5.83763">
        <ele>435</ele>
        <time>2016-03-12T08:38:05.315Z</time>
      </trkpt>
      <trkpt lat="43.69812" lon="5.83756">
        <ele>435</ele>
        <time>2016-03-12T08:38:06.341Z</time>
      </trkpt>
      <trkpt lat="43.69815" lon="5.83749">
        <ele>434</ele>
        <time>2016-03-12T08:38:07.316Z</time>
      </trkpt>
      <trkpt lat="43.69818" lon="5.83742">
        <ele>434</ele>
        <time>2016-03-12T08:38:08.341Z</time>
      </trkpt>
      <trkpt lat="43.6982" lon="5.83736">
        <ele>433</ele>
        <time>2016-03-12T08:38:09.316Z</time>
      </trkpt>
      <trkpt lat="43.69821" lon="5.83728">
        <ele>432</ele>
        <time>2016-03-12T08:38:10.338Z</time>
      </trkpt>
      <trkpt lat="43.69822" lon="5.83721">
        <ele>432</ele>
        <time>2016-03-12T08:38:11.316Z</time>
      </trkpt>
      <trkpt lat="43.69823" lon="5.83715">
        <ele>432</ele>
        <time>2016-03-12T08:38:12.370Z</time>
      </trkpt>
      <trkpt lat="43.69824" lon="5.83707">
        <ele>432</ele>
        <time>2016-03-12T08:38:13.316Z</time>
      </trkpt>
      <trkpt lat="43.69826" lon="5.83701">
        <ele>432</ele>
        <time>2016-03-12T08:38:14.341Z</time>
      </trkpt>
      <trkpt lat="43.69829" lon="5.83694">
        <ele>430</ele>
        <time>2016-03-12T08:38:15.327Z</time>
      </trkpt>
      <trkpt lat="43.69833" lon="5.83688">
        <ele>429</ele>
        <time>2016-03-12T08:38:16.341Z</time>
      </trkpt>
      <trkpt lat="43.69837" lon="5.83684">
        <ele>429</ele>
        <time>2016-03-12T08:38:17.316Z</time>
      </trkpt>
      <trkpt lat="43.69841" lon="5.83679">
        <ele>428</ele>
        <time>2016-03-12T08:38:18.366Z</time>
      </trkpt>
      <trkpt lat="43.69846" lon="5.83672">
        <ele>428</ele>
        <time>2016-03-12T08:38:19.316Z</time>
      </trkpt>
      <trkpt lat="43.69849" lon="5.83665">
        <ele>428</ele>
        <time>2016-03-12T08:38:20.340Z</time>
      </trkpt>
      <trkpt lat="43.69852" lon="5.83658">
        <ele>427</ele>
        <time>2016-03-12T08:38:21.313Z</time>
      </trkpt>
      <trkpt lat="43.69856" lon="5.83655">
        <ele>427</ele>
        <time>2016-03-12T08:38:22.342Z</time>
      </trkpt>
      <trkpt lat="43.69861" lon="5.8365">
        <ele>427</ele>
        <time>2016-03-12T08:38:23.316Z</time>
      </trkpt>
      <trkpt lat="43.69864" lon="5.83645">
        <ele>426</ele>
        <time>2016-03-12T08:38:24.341Z</time>
      </trkpt>
      <trkpt lat="43.69865" lon="5.83639">
        <ele>426</ele>
        <time>2016-03-12T08:38:25.314Z</time>
      </trkpt>
      <trkpt lat="43.69866" lon="5.83633">
        <ele>425</ele>
        <time>2016-03-12T08:38:26.340Z</time>
      </trkpt>
      <trkpt lat="43.69866" lon="5.83626">
        <ele>424</ele>
        <time>2016-03-12T08:38:27.328Z</time>
      </trkpt>
      <trkpt lat="43.69867" lon="5.83619">
        <ele>424</ele>
        <time>2016-03-12T08:38:28.341Z</time>
      </trkpt>
      <trkpt lat="43.69869" lon="5.83611">
        <ele>423</ele>
        <time>2016-03-12T08:38:29.316Z</time>
      </trkpt>
      <trkpt lat="43.69874" lon="5.83602">
        <ele>422</ele>
        <time>2016-03-12T08:38:31.341Z</time>
      </trkpt>
      <trkpt lat="43.69878" lon="5.83598">
        <ele>421</ele>
        <time>2016-03-12T08:38:32.320Z</time>
      </trkpt>
      <trkpt lat="43.69882" lon="5.83595">
        <ele>420</ele>
        <time>2016-03-12T08:38:33.366Z</time>
      </trkpt>
      <trkpt lat="43.69886" lon="5.83593">
        <ele>420</ele>
        <time>2016-03-12T08:38:34.316Z</time>
      </trkpt>
      <trkpt lat="43.69891" lon="5.83585">
        <ele>420</ele>
        <time>2016-03-12T08:38:36.341Z</time>
      </trkpt>
      <trkpt lat="43.69891" lon="5.83579">
        <ele>420</ele>
        <time>2016-03-12T08:38:37.327Z</time>
      </trkpt>
      <trkpt lat="43.69894" lon="5.83571">
        <ele>420</ele>
        <time>2016-03-12T08:38:39.342Z</time>
      </trkpt>
      <trkpt lat="43.69896" lon="5.83568">
        <ele>420</ele>
        <time>2016-03-12T08:38:40.317Z</time>
      </trkpt>
      <trkpt lat="43.69904" lon="5.83563">
        <ele>423</ele>
        <time>2016-03-12T08:38:47.342Z</time>
      </trkpt>
      <trkpt lat="43.69904" lon="5.83564">
        <ele>424</ele>
        <time>2016-03-12T08:38:48.316Z</time>
      </trkpt>
      <trkpt lat="43.69909" lon="5.83572">
        <ele>422</ele>
        <time>2016-03-12T08:38:51.342Z</time>
      </trkpt>
      <trkpt lat="43.69912" lon="5.83573">
        <ele>422</ele>
        <time>2016-03-12T08:38:52.317Z</time>
      </trkpt>
      <trkpt lat="43.69918" lon="5.83569">
        <ele>422</ele>
        <time>2016-03-12T08:38:55.341Z</time>
      </trkpt>
      <trkpt lat="43.6992" lon="5.83567">
        <ele>421</ele>
        <time>2016-03-12T08:38:56.316Z</time>
      </trkpt>
      <trkpt lat="43.69925" lon="5.83562">
        <ele>420</ele>
        <time>2016-03-12T08:38:58.341Z</time>
      </trkpt>
      <trkpt lat="43.69927" lon="5.83559">
        <ele>421</ele>
        <time>2016-03-12T08:38:59.317Z</time>
      </trkpt>
      <trkpt lat="43.6993" lon="5.8355">
        <ele>419</ele>
        <time>2016-03-12T08:39:01.352Z</time>
      </trkpt>
      <trkpt lat="43.6993" lon="5.83545">
        <ele>418</ele>
        <time>2016-03-12T08:39:02.315Z</time>
      </trkpt>
      <trkpt lat="43.69935" lon="5.83536">
        <ele>416</ele>
        <time>2016-03-12T08:39:05.341Z</time>
      </trkpt>
      <trkpt lat="43.69937" lon="5.83536">
        <ele>417</ele>
        <time>2016-03-12T08:39:06.317Z</time>
      </trkpt>
      <trkpt lat="43.69944" lon="5.83531">
        <ele>416</ele>
        <time>2016-03-12T08:39:09.341Z</time>
      </trkpt>
      <trkpt lat="43.69947" lon="5.83528">
        <ele>416</ele>
        <time>2016-03-12T08:39:10.316Z</time>
      </trkpt>
      <trkpt lat="43.69953" lon="5.83521">
        <ele>416</ele>
        <time>2016-03-12T08:39:12.342Z</time>
      </trkpt>
      <trkpt lat="43.69957" lon="5.83519">
        <ele>416</ele>
        <time>2016-03-12T08:39:13.327Z</time>
      </trkpt>
      <trkpt lat="43.69961" lon="5.83517">
        <ele>416</ele>
        <time>2016-03-12T08:39:14.341Z</time>
      </trkpt>
      <trkpt lat="43.69965" lon="5.83515">
        <ele>415</ele>
        <time>2016-03-12T08:39:15.316Z</time>
      </trkpt>
      <trkpt lat="43.6997" lon="5.83513">
        <ele>415</ele>
        <time>2016-03-12T08:39:16.382Z</time>
      </trkpt>
      <trkpt lat="43.69977" lon="5.83513">
        <ele>414</ele>
        <time>2016-03-12T08:39:17.316Z</time>
      </trkpt>
      <trkpt lat="43.69981" lon="5.83513">
        <ele>414</ele>
        <time>2016-03-12T08:39:18.348Z</time>
      </trkpt>
      <trkpt lat="43.69987" lon="5.83512">
        <ele>413</ele>
        <time>2016-03-12T08:39:19.305Z</time>
      </trkpt>
      <trkpt lat="43.69994" lon="5.83512">
        <ele>413</ele>
        <time>2016-03-12T08:39:20.342Z</time>
      </trkpt>
      <trkpt lat="43.7" lon="5.83513">
        <ele>412</ele>
        <time>2016-03-12T08:39:21.317Z</time>
      </trkpt>
      <trkpt lat="43.70007" lon="5.83512">
        <ele>411</ele>
        <time>2016-03-12T08:39:22.412Z</time>
      </trkpt>
      <trkpt lat="43.70013" lon="5.83512">
        <ele>411</ele>
        <time>2016-03-12T08:39:23.316Z</time>
      </trkpt>
      <trkpt lat="43.70021" lon="5.83515">
        <ele>411</ele>
        <time>2016-03-12T08:39:27.341Z</time>
      </trkpt>
      <trkpt lat="43.70023" lon="5.83515">
        <ele>411</ele>
        <time>2016-03-12T08:39:28.316Z</time>
      </trkpt>
      <trkpt lat="43.70031" lon="5.83516">
        <ele>412</ele>
        <time>2016-03-12T08:39:33.341Z</time>
      </trkpt>
      <trkpt lat="43.70033" lon="5.83516">
        <ele>412</ele>
        <time>2016-03-12T08:39:34.317Z</time>
      </trkpt>
      <trkpt lat="43.70041" lon="5.83518">
        <ele>414</ele>
        <time>2016-03-12T08:39:41.342Z</time>
      </trkpt>
      <trkpt lat="43.70043" lon="5.83518">
        <ele>415</ele>
        <time>2016-03-12T08:39:42.314Z</time>
      </trkpt>
      <trkpt lat="43.7005" lon="5.8352">
        <ele>417</ele>
        <time>2016-03-12T08:39:48.341Z</time>
      </trkpt>
      <trkpt lat="43.70052" lon="5.8352">
        <ele>417</ele>
        <time>2016-03-12T08:39:49.316Z</time>
      </trkpt>
      <trkpt lat="43.7006" lon="5.8352">
        <ele>417</ele>
        <time>2016-03-12T08:39:56.363Z</time>
      </trkpt>
      <trkpt lat="43.70061" lon="5.8352">
        <ele>417</ele>
        <time>2016-03-12T08:39:57.316Z</time>
      </trkpt>
      <trkpt lat="43.70069" lon="5.83515">
        <ele>419</ele>
        <time>2016-03-12T08:40:04.336Z</time>
      </trkpt>
      <trkpt lat="43.7007" lon="5.83515">
        <ele>419</ele>
        <time>2016-03-12T08:40:05.313Z</time>
      </trkpt>
      <trkpt lat="43.70078" lon="5.83513">
        <ele>421</ele>
        <time>2016-03-12T08:40:32.336Z</time>
      </trkpt>
      <trkpt lat="43.70079" lon="5.83513">
        <ele>420</ele>
        <time>2016-03-12T08:40:33.314Z</time>
      </trkpt>
      <trkpt lat="43.70087" lon="5.8351">
        <ele>425</ele>
        <time>2016-03-12T08:40:51.337Z</time>
      </trkpt>
      <trkpt lat="43.70088" lon="5.8351">
        <ele>426</ele>
        <time>2016-03-12T08:40:52.314Z</time>
      </trkpt>
      <trkpt lat="43.70095" lon="5.83506">
        <ele>427</ele>
        <time>2016-03-12T08:41:12.336Z</time>
      </trkpt>
      <trkpt lat="43.70097" lon="5.83506">
        <ele>427</ele>
        <time>2016-03-12T08:41:13.315Z</time>
      </trkpt>
      <trkpt lat="43.70105" lon="5.83506">
        <ele>429</ele>
        <time>2016-03-12T08:41:19.337Z</time>
      </trkpt>
      <trkpt lat="43.70106" lon="5.83506">
        <ele>428</ele>
        <time>2016-03-12T08:41:20.320Z</time>
      </trkpt>
      <trkpt lat="43.70114" lon="5.83506">
        <ele>429</ele>
        <time>2016-03-12T08:41:26.337Z</time>
      </trkpt>
      <trkpt lat="43.70115" lon="5.83506">
        <ele>429</ele>
        <time>2016-03-12T08:41:27.314Z</time>
      </trkpt>
      <trkpt lat="43.70123" lon="5.83504">
        <ele>428</ele>
        <time>2016-03-12T08:41:32.333Z</time>
      </trkpt>
      <trkpt lat="43.70124" lon="5.83502">
        <ele>428</ele>
        <time>2016-03-12T08:41:33.315Z</time>
      </trkpt>
      <trkpt lat="43.7013" lon="5.83494">
        <ele>428</ele>
        <time>2016-03-12T08:41:36.337Z</time>
      </trkpt>
      <trkpt lat="43.70131" lon="5.83492">
        <ele>428</ele>
        <time>2016-03-12T08:41:37.322Z</time>
      </trkpt>
      <trkpt lat="43.70134" lon="5.83485">
        <ele>427</ele>
        <time>2016-03-12T08:41:40.336Z</time>
      </trkpt>
      <trkpt lat="43.70134" lon="5.83481">
        <ele>426</ele>
        <time>2016-03-12T08:41:41.334Z</time>
      </trkpt>
      <trkpt lat="43.70133" lon="5.83469">
        <ele>426</ele>
        <time>2016-03-12T08:41:43.344Z</time>
      </trkpt>
      <trkpt lat="43.70133" lon="5.83464">
        <ele>426</ele>
        <time>2016-03-12T08:41:44.314Z</time>
      </trkpt>
      <trkpt lat="43.70136" lon="5.83455">
        <ele>426</ele>
        <time>2016-03-12T08:41:46.337Z</time>
      </trkpt>
      <trkpt lat="43.70139" lon="5.8345">
        <ele>425</ele>
        <time>2016-03-12T08:41:47.314Z</time>
      </trkpt>
      <trkpt lat="43.70144" lon="5.83442">
        <ele>425</ele>
        <time>2016-03-12T08:41:49.336Z</time>
      </trkpt>
      <trkpt lat="43.70146" lon="5.83438">
        <ele>424</ele>
        <time>2016-03-12T08:41:50.314Z</time>
      </trkpt>
      <trkpt lat="43.7015" lon="5.83431">
        <ele>424</ele>
        <time>2016-03-12T08:41:52.337Z</time>
      </trkpt>
      <trkpt lat="43.70152" lon="5.83429">
        <ele>424</ele>
        <time>2016-03-12T08:41:53.315Z</time>
      </trkpt>
      <trkpt lat="43.70158" lon="5.83419">
        <ele>423</ele>
        <time>2016-03-12T08:41:57.360Z</time>
      </trkpt>
      <trkpt lat="43.7016" lon="5.83418">
        <ele>423</ele>
        <time>2016-03-12T08:41:58.314Z</time>
      </trkpt>
      <trkpt lat="43.70166" lon="5.83414">
        <ele>423</ele>
        <time>2016-03-12T08:42:00.342Z</time>
      </trkpt>
      <trkpt lat="43.70169" lon="5.83411">
        <ele>423</ele>
        <time>2016-03-12T08:42:01.316Z</time>
      </trkpt>
      <trkpt lat="43.70174" lon="5.83404">
        <ele>421</ele>
        <time>2016-03-12T08:42:03.385Z</time>
      </trkpt>
      <trkpt lat="43.70178" lon="5.834">
        <ele>422</ele>
        <time>2016-03-12T08:42:04.316Z</time>
      </trkpt>
      <trkpt lat="43.70183" lon="5.83394">
        <ele>421</ele>
        <time>2016-03-12T08:42:05.354Z</time>
      </trkpt>
      <trkpt lat="43.70187" lon="5.8339">
        <ele>421</ele>
        <time>2016-03-12T08:42:06.317Z</time>
      </trkpt>
      <trkpt lat="43.70191" lon="5.83384">
        <ele>421</ele>
        <time>2016-03-12T08:42:07.341Z</time>
      </trkpt>
      <trkpt lat="43.70195" lon="5.83378">
        <ele>420</ele>
        <time>2016-03-12T08:42:08.316Z</time>
      </trkpt>
      <trkpt lat="43.70198" lon="5.83372">
        <ele>420</ele>
        <time>2016-03-12T08:42:09.341Z</time>
      </trkpt>
      <trkpt lat="43.70201" lon="5.83366">
        <ele>421</ele>
        <time>2016-03-12T08:42:10.315Z</time>
      </trkpt>
      <trkpt lat="43.70203" lon="5.83359">
        <ele>421</ele>
        <time>2016-03-12T08:42:11.340Z</time>
      </trkpt>
      <trkpt lat="43.70205" lon="5.83354">
        <ele>421</ele>
        <time>2016-03-12T08:42:12.328Z</time>
      </trkpt>
      <trkpt lat="43.7021" lon="5.83347">
        <ele>421</ele>
        <time>2016-03-12T08:42:14.568Z</time>
      </trkpt>
      <trkpt lat="43.70213" lon="5.83344">
        <ele>421</ele>
        <time>2016-03-12T08:42:15.317Z</time>
      </trkpt>
      <trkpt lat="43.7022" lon="5.83338">
        <ele>420</ele>
        <time>2016-03-12T08:42:17.348Z</time>
      </trkpt>
      <trkpt lat="43.70223" lon="5.83334">
        <ele>419</ele>
        <time>2016-03-12T08:42:18.314Z</time>
      </trkpt>
      <trkpt lat="43.70229" lon="5.83325">
        <ele>418</ele>
        <time>2016-03-12T08:42:20.344Z</time>
      </trkpt>
      <trkpt lat="43.70233" lon="5.83322">
        <ele>418</ele>
        <time>2016-03-12T08:42:21.316Z</time>
      </trkpt>
      <trkpt lat="43.7024" lon="5.83315">
        <ele>417</ele>
        <time>2016-03-12T08:42:23.342Z</time>
      </trkpt>
      <trkpt lat="43.70243" lon="5.83311">
        <ele>417</ele>
        <time>2016-03-12T08:42:24.317Z</time>
      </trkpt>
      <trkpt lat="43.70249" lon="5.83305">
        <ele>417</ele>
        <time>2016-03-12T08:42:26.341Z</time>
      </trkpt>
      <trkpt lat="43.7025" lon="5.83303">
        <ele>417</ele>
        <time>2016-03-12T08:42:27.316Z</time>
      </trkpt>
      <trkpt lat="43.70256" lon="5.83295">
        <ele>417</ele>
        <time>2016-03-12T08:42:30.342Z</time>
      </trkpt>
      <trkpt lat="43.70258" lon="5.83293">
        <ele>417</ele>
        <time>2016-03-12T08:42:31.317Z</time>
      </trkpt>
      <trkpt lat="43.70264" lon="5.83287">
        <ele>417</ele>
        <time>2016-03-12T08:42:33.342Z</time>
      </trkpt>
      <trkpt lat="43.70268" lon="5.83286">
        <ele>418</ele>
        <time>2016-03-12T08:42:34.317Z</time>
      </trkpt>
      <trkpt lat="43.70274" lon="5.83284">
        <ele>417</ele>
        <time>2016-03-12T08:42:36.341Z</time>
      </trkpt>
      <trkpt lat="43.70277" lon="5.83283">
        <ele>417</ele>
        <time>2016-03-12T08:42:37.315Z</time>
      </trkpt>
      <trkpt lat="43.70283" lon="5.83278">
        <ele>416</ele>
        <time>2016-03-12T08:42:39.342Z</time>
      </trkpt>
      <trkpt lat="43.70285" lon="5.83274">
        <ele>416</ele>
        <time>2016-03-12T08:42:40.317Z</time>
      </trkpt>
      <trkpt lat="43.70289" lon="5.83267">
        <ele>415</ele>
        <time>2016-03-12T08:42:42.342Z</time>
      </trkpt>
      <trkpt lat="43.70291" lon="5.83263">
        <ele>415</ele>
        <time>2016-03-12T08:42:43.316Z</time>
      </trkpt>
      <trkpt lat="43.70297" lon="5.83259">
        <ele>415</ele>
        <time>2016-03-12T08:42:45.377Z</time>
      </trkpt>
      <trkpt lat="43.703" lon="5.83257">
        <ele>415</ele>
        <time>2016-03-12T08:42:46.316Z</time>
      </trkpt>
      <trkpt lat="43.70305" lon="5.83252">
        <ele>414</ele>
        <time>2016-03-12T08:42:48.342Z</time>
      </trkpt>
      <trkpt lat="43.70308" lon="5.8325">
        <ele>414</ele>
        <time>2016-03-12T08:42:49.316Z</time>
      </trkpt>
      <trkpt lat="43.70314" lon="5.83245">
        <ele>413</ele>
        <time>2016-03-12T08:42:50.353Z</time>
      </trkpt>
      <trkpt lat="43.70319" lon="5.83241">
        <ele>413</ele>
        <time>2016-03-12T08:42:51.316Z</time>
      </trkpt>
      <trkpt lat="43.70323" lon="5.83238">
        <ele>412</ele>
        <time>2016-03-12T08:42:52.342Z</time>
      </trkpt>
      <trkpt lat="43.70327" lon="5.83234">
        <ele>412</ele>
        <time>2016-03-12T08:42:53.316Z</time>
      </trkpt>
      <trkpt lat="43.70335" lon="5.8323">
        <ele>412</ele>
        <time>2016-03-12T08:42:55.342Z</time>
      </trkpt>
      <trkpt lat="43.70339" lon="5.83227">
        <ele>412</ele>
        <time>2016-03-12T08:42:56.343Z</time>
      </trkpt>
      <trkpt lat="43.70346" lon="5.83222">
        <ele>412</ele>
        <time>2016-03-12T08:42:58.342Z</time>
      </trkpt>
      <trkpt lat="43.70349" lon="5.83219">
        <ele>412</ele>
        <time>2016-03-12T08:42:59.316Z</time>
      </trkpt>
      <trkpt lat="43.70355" lon="5.83215">
        <ele>412</ele>
        <time>2016-03-12T08:43:01.597Z</time>
      </trkpt>
      <trkpt lat="43.70358" lon="5.83215">
        <ele>412</ele>
        <time>2016-03-12T08:43:02.325Z</time>
      </trkpt>
      <trkpt lat="43.70366" lon="5.8322">
        <ele>411</ele>
        <time>2016-03-12T08:43:04.342Z</time>
      </trkpt>
      <trkpt lat="43.70369" lon="5.8322">
        <ele>411</ele>
        <time>2016-03-12T08:43:05.317Z</time>
      </trkpt>
      <trkpt lat="43.70377" lon="5.83219">
        <ele>411</ele>
        <time>2016-03-12T08:43:07.342Z</time>
      </trkpt>
      <trkpt lat="43.7038" lon="5.83215">
        <ele>410</ele>
        <time>2016-03-12T08:43:08.316Z</time>
      </trkpt>
      <trkpt lat="43.70387" lon="5.83209">
        <ele>410</ele>
        <time>2016-03-12T08:43:10.343Z</time>
      </trkpt>
      <trkpt lat="43.70392" lon="5.83212">
        <ele>410</ele>
        <time>2016-03-12T08:43:11.317Z</time>
      </trkpt>
      <trkpt lat="43.70397" lon="5.83215">
        <ele>410</ele>
        <time>2016-03-12T08:43:12.371Z</time>
      </trkpt>
      <trkpt lat="43.70401" lon="5.83219">
        <ele>409</ele>
        <time>2016-03-12T08:43:13.318Z</time>
      </trkpt>
      <trkpt lat="43.70406" lon="5.8322">
        <ele>409</ele>
        <time>2016-03-12T08:43:14.342Z</time>
      </trkpt>
      <trkpt lat="43.70411" lon="5.83219">
        <ele>409</ele>
        <time>2016-03-12T08:43:15.316Z</time>
      </trkpt>
      <trkpt lat="43.70416" lon="5.83217">
        <ele>409</ele>
        <time>2016-03-12T08:43:16.343Z</time>
      </trkpt>
      <trkpt lat="43.70419" lon="5.83212">
        <ele>409</ele>
        <time>2016-03-12T08:43:17.317Z</time>
      </trkpt>
      <trkpt lat="43.70424" lon="5.83202">
        <ele>409</ele>
        <time>2016-03-12T08:43:19.355Z</time>
      </trkpt>
      <trkpt lat="43.70427" lon="5.83198">
        <ele>409</ele>
        <time>2016-03-12T08:43:20.316Z</time>
      </trkpt>
      <trkpt lat="43.70432" lon="5.83189">
        <ele>409</ele>
        <time>2016-03-12T08:43:22.357Z</time>
      </trkpt>
      <trkpt lat="43.70434" lon="5.83185">
        <ele>410</ele>
        <time>2016-03-12T08:43:23.345Z</time>
      </trkpt>
      <trkpt lat="43.70438" lon="5.83176">
        <ele>409</ele>
        <time>2016-03-12T08:43:25.342Z</time>
      </trkpt>
      <trkpt lat="43.70439" lon="5.83171">
        <ele>410</ele>
        <time>2016-03-12T08:43:26.314Z</time>
      </trkpt>
      <trkpt lat="43.70442" lon="5.83162">
        <ele>410</ele>
        <time>2016-03-12T08:43:28.343Z</time>
      </trkpt>
      <trkpt lat="43.70443" lon="5.83159">
        <ele>411</ele>
        <time>2016-03-12T08:43:29.317Z</time>
      </trkpt>
      <trkpt lat="43.70446" lon="5.83148">
        <ele>411</ele>
        <time>2016-03-12T08:43:32.342Z</time>
      </trkpt>
      <trkpt lat="43.70447" lon="5.83144">
        <ele>411</ele>
        <time>2016-03-12T08:43:33.317Z</time>
      </trkpt>
      <trkpt lat="43.7045" lon="5.83134">
        <ele>411</ele>
        <time>2016-03-12T08:43:36.342Z</time>
      </trkpt>
      <trkpt lat="43.70451" lon="5.83131">
        <ele>411</ele>
        <time>2016-03-12T08:43:37.317Z</time>
      </trkpt>
      <trkpt lat="43.70456" lon="5.8312">
        <ele>410</ele>
        <time>2016-03-12T08:43:40.342Z</time>
      </trkpt>
      <trkpt lat="43.70458" lon="5.83115">
        <ele>410</ele>
        <time>2016-03-12T08:43:41.317Z</time>
      </trkpt>
      <trkpt lat="43.70464" lon="5.83106">
        <ele>409</ele>
        <time>2016-03-12T08:43:43.344Z</time>
      </trkpt>
      <trkpt lat="43.70469" lon="5.831">
        <ele>409</ele>
        <time>2016-03-12T08:43:44.316Z</time>
      </trkpt>
      <trkpt lat="43.70475" lon="5.83091">
        <ele>408</ele>
        <time>2016-03-12T08:43:46.417Z</time>
      </trkpt>
      <trkpt lat="43.70478" lon="5.83086">
        <ele>408</ele>
        <time>2016-03-12T08:43:47.314Z</time>
      </trkpt>
      <trkpt lat="43.70479" lon="5.83078">
        <ele>407</ele>
        <time>2016-03-12T08:43:48.563Z</time>
      </trkpt>
      <trkpt lat="43.7048" lon="5.8307">
        <ele>407</ele>
        <time>2016-03-12T08:43:49.314Z</time>
      </trkpt>
      <trkpt lat="43.70481" lon="5.83064">
        <ele>406</ele>
        <time>2016-03-12T08:43:50.345Z</time>
      </trkpt>
      <trkpt lat="43.70485" lon="5.83056">
        <ele>406</ele>
        <time>2016-03-12T08:43:51.328Z</time>
      </trkpt>
      <trkpt lat="43.70487" lon="5.83048">
        <ele>405</ele>
        <time>2016-03-12T08:43:52.340Z</time>
      </trkpt>
      <trkpt lat="43.7049" lon="5.8304">
        <ele>405</ele>
        <time>2016-03-12T08:43:53.316Z</time>
      </trkpt>
      <trkpt lat="43.70492" lon="5.83031">
        <ele>404</ele>
        <time>2016-03-12T08:43:54.355Z</time>
      </trkpt>
      <trkpt lat="43.70494" lon="5.8302">
        <ele>404</ele>
        <time>2016-03-12T08:43:55.317Z</time>
      </trkpt>
      <trkpt lat="43.70495" lon="5.83012">
        <ele>404</ele>
        <time>2016-03-12T08:43:56.369Z</time>
      </trkpt>
      <trkpt lat="43.70497" lon="5.83002">
        <ele>404</ele>
        <time>2016-03-12T08:43:57.314Z</time>
      </trkpt>
      <trkpt lat="43.70499" lon="5.82993">
        <ele>404</ele>
        <time>2016-03-12T08:43:58.342Z</time>
      </trkpt>
      <trkpt lat="43.705" lon="5.82984">
        <ele>403</ele>
        <time>2016-03-12T08:43:59.317Z</time>
      </trkpt>
      <trkpt lat="43.70502" lon="5.82975">
        <ele>403</ele>
        <time>2016-03-12T08:44:01.340Z</time>
      </trkpt>
      <trkpt lat="43.70503" lon="5.82971">
        <ele>403</ele>
        <time>2016-03-12T08:44:02.316Z</time>
      </trkpt>
      <trkpt lat="43.70512" lon="5.82971">
        <ele>402</ele>
        <time>2016-03-12T08:44:05.343Z</time>
      </trkpt>
      <trkpt lat="43.70516" lon="5.82974">
        <ele>403</ele>
        <time>2016-03-12T08:44:06.317Z</time>
      </trkpt>
      <trkpt lat="43.7052" lon="5.82978">
        <ele>403</ele>
        <time>2016-03-12T08:44:07.376Z</time>
      </trkpt>
      <trkpt lat="43.70525" lon="5.82982">
        <ele>402</ele>
        <time>2016-03-12T08:44:08.317Z</time>
      </trkpt>
      <trkpt lat="43.7053" lon="5.82986">
        <ele>400</ele>
        <time>2016-03-12T08:44:09.342Z</time>
      </trkpt>
      <trkpt lat="43.70534" lon="5.8299">
        <ele>399</ele>
        <time>2016-03-12T08:44:10.320Z</time>
      </trkpt>
      <trkpt lat="43.70539" lon="5.82993">
        <ele>400</ele>
        <time>2016-03-12T08:44:11.363Z</time>
      </trkpt>
      <trkpt lat="43.70544" lon="5.82997">
        <ele>400</ele>
        <time>2016-03-12T08:44:12.319Z</time>
      </trkpt>
      <trkpt lat="43.7055" lon="5.83001">
        <ele>400</ele>
        <time>2016-03-12T08:44:13.343Z</time>
      </trkpt>
      <trkpt lat="43.70554" lon="5.83005">
        <ele>401</ele>
        <time>2016-03-12T08:44:14.329Z</time>
      </trkpt>
      <trkpt lat="43.70559" lon="5.8301">
        <ele>400</ele>
        <time>2016-03-12T08:44:15.342Z</time>
      </trkpt>
      <trkpt lat="43.70564" lon="5.83016">
        <ele>400</ele>
        <time>2016-03-12T08:44:16.316Z</time>
      </trkpt>
      <trkpt lat="43.70569" lon="5.8302">
        <ele>399</ele>
        <time>2016-03-12T08:44:17.353Z</time>
      </trkpt>
      <trkpt lat="43.70573" lon="5.83025">
        <ele>400</ele>
        <time>2016-03-12T08:44:18.317Z</time>
      </trkpt>
      <trkpt lat="43.70577" lon="5.83029">
        <ele>399</ele>
        <time>2016-03-12T08:44:19.346Z</time>
      </trkpt>
      <trkpt lat="43.70581" lon="5.83034">
        <ele>399</ele>
        <time>2016-03-12T08:44:20.318Z</time>
      </trkpt>
      <trkpt lat="43.70584" lon="5.83038">
        <ele>399</ele>
        <time>2016-03-12T08:44:21.343Z</time>
      </trkpt>
      <trkpt lat="43.70588" lon="5.83042">
        <ele>398</ele>
        <time>2016-03-12T08:44:22.328Z</time>
      </trkpt>
      <trkpt lat="43.70592" lon="5.83047">
        <ele>398</ele>
        <time>2016-03-12T08:44:23.369Z</time>
      </trkpt>
      <trkpt lat="43.70596" lon="5.83051">
        <ele>398</ele>
        <time>2016-03-12T08:44:24.317Z</time>
      </trkpt>
      <trkpt lat="43.706" lon="5.83054">
        <ele>398</ele>
        <time>2016-03-12T08:44:25.341Z</time>
      </trkpt>
      <trkpt lat="43.70604" lon="5.83059">
        <ele>398</ele>
        <time>2016-03-12T08:44:26.317Z</time>
      </trkpt>
      <trkpt lat="43.70608" lon="5.83064">
        <ele>397</ele>
        <time>2016-03-12T08:44:27.342Z</time>
      </trkpt>
      <trkpt lat="43.70611" lon="5.83069">
        <ele>397</ele>
        <time>2016-03-12T08:44:28.317Z</time>
      </trkpt>
      <trkpt lat="43.70615" lon="5.83075">
        <ele>397</ele>
        <time>2016-03-12T08:44:29.345Z</time>
      </trkpt>
      <trkpt lat="43.70618" lon="5.83079">
        <ele>396</ele>
        <time>2016-03-12T08:44:30.317Z</time>
      </trkpt>
      <trkpt lat="43.70622" lon="5.83083">
        <ele>397</ele>
        <time>2016-03-12T08:44:31.342Z</time>
      </trkpt>
      <trkpt lat="43.70627" lon="5.83086">
        <ele>396</ele>
        <time>2016-03-12T08:44:32.317Z</time>
      </trkpt>
      <trkpt lat="43.70632" lon="5.83088">
        <ele>396</ele>
        <time>2016-03-12T08:44:33.341Z</time>
      </trkpt>
      <trkpt lat="43.70638" lon="5.83089">
        <ele>396</ele>
        <time>2016-03-12T08:44:34.315Z</time>
      </trkpt>
      <trkpt lat="43.70644" lon="5.83091">
        <ele>396</ele>
        <time>2016-03-12T08:44:35.345Z</time>
      </trkpt>
      <trkpt lat="43.7065" lon="5.83092">
        <ele>395</ele>
        <time>2016-03-12T08:44:36.328Z</time>
      </trkpt>
      <trkpt lat="43.70657" lon="5.83095">
        <ele>395</ele>
        <time>2016-03-12T08:44:37.342Z</time>
      </trkpt>
      <trkpt lat="43.70663" lon="5.83096">
        <ele>394</ele>
        <time>2016-03-12T08:44:38.317Z</time>
      </trkpt>
      <trkpt lat="43.70669" lon="5.83098">
        <ele>394</ele>
        <time>2016-03-12T08:44:39.382Z</time>
      </trkpt>
      <trkpt lat="43.70676" lon="5.83102">
        <ele>394</ele>
        <time>2016-03-12T08:44:40.317Z</time>
      </trkpt>
      <trkpt lat="43.70681" lon="5.83106">
        <ele>393</ele>
        <time>2016-03-12T08:44:41.343Z</time>
      </trkpt>
      <trkpt lat="43.70687" lon="5.8311">
        <ele>393</ele>
        <time>2016-03-12T08:44:42.315Z</time>
      </trkpt>
      <trkpt lat="43.70693" lon="5.83115">
        <ele>393</ele>
        <time>2016-03-12T08:44:43.344Z</time>
      </trkpt>
      <trkpt lat="43.70698" lon="5.83117">
        <ele>393</ele>
        <time>2016-03-12T08:44:44.317Z</time>
      </trkpt>
      <trkpt lat="43.70705" lon="5.83121">
        <ele>393</ele>
        <time>2016-03-12T08:44:45.340Z</time>
      </trkpt>
      <trkpt lat="43.7071" lon="5.83123">
        <ele>392</ele>
        <time>2016-03-12T08:44:46.317Z</time>
      </trkpt>
      <trkpt lat="43.70716" lon="5.83126">
        <ele>392</ele>
        <time>2016-03-12T08:44:47.342Z</time>
      </trkpt>
      <trkpt lat="43.70722" lon="5.83129">
        <ele>392</ele>
        <time>2016-03-12T08:44:48.317Z</time>
      </trkpt>
      <trkpt lat="43.70727" lon="5.8313">
        <ele>392</ele>
        <time>2016-03-12T08:44:49.337Z</time>
      </trkpt>
      <trkpt lat="43.70733" lon="5.83132">
        <ele>392</ele>
        <time>2016-03-12T08:44:50.314Z</time>
      </trkpt>
      <trkpt lat="43.70739" lon="5.83133">
        <ele>392</ele>
        <time>2016-03-12T08:44:51.333Z</time>
      </trkpt>
      <trkpt lat="43.70745" lon="5.83134">
        <ele>392</ele>
        <time>2016-03-12T08:44:52.317Z</time>
      </trkpt>
      <trkpt lat="43.70751" lon="5.83135">
        <ele>392</ele>
        <time>2016-03-12T08:44:53.341Z</time>
      </trkpt>
      <trkpt lat="43.70756" lon="5.83136">
        <ele>392</ele>
        <time>2016-03-12T08:44:54.316Z</time>
      </trkpt>
      <trkpt lat="43.70761" lon="5.83135">
        <ele>392</ele>
        <time>2016-03-12T08:44:55.573Z</time>
      </trkpt>
      <trkpt lat="43.70767" lon="5.83136">
        <ele>392</ele>
        <time>2016-03-12T08:44:56.317Z</time>
      </trkpt>
      <trkpt lat="43.70772" lon="5.83137">
        <ele>392</ele>
        <time>2016-03-12T08:44:57.341Z</time>
      </trkpt>
      <trkpt lat="43.70777" lon="5.83138">
        <ele>391</ele>
        <time>2016-03-12T08:44:58.317Z</time>
      </trkpt>
      <trkpt lat="43.70783" lon="5.83139">
        <ele>392</ele>
        <time>2016-03-12T08:44:59.343Z</time>
      </trkpt>
      <trkpt lat="43.70787" lon="5.83141">
        <ele>391</ele>
        <time>2016-03-12T08:45:00.343Z</time>
      </trkpt>
      <trkpt lat="43.70792" lon="5.83141">
        <ele>391</ele>
        <time>2016-03-12T08:45:01.341Z</time>
      </trkpt>
      <trkpt lat="43.70796" lon="5.83141">
        <ele>391</ele>
        <time>2016-03-12T08:45:02.316Z</time>
      </trkpt>
      <trkpt lat="43.70801" lon="5.8314">
        <ele>391</ele>
        <time>2016-03-12T08:45:03.417Z</time>
      </trkpt>
      <trkpt lat="43.70805" lon="5.83139">
        <ele>391</ele>
        <time>2016-03-12T08:45:04.316Z</time>
      </trkpt>
      <trkpt lat="43.7081" lon="5.83139">
        <ele>391</ele>
        <time>2016-03-12T08:45:05.350Z</time>
      </trkpt>
      <trkpt lat="43.70815" lon="5.83139">
        <ele>391</ele>
        <time>2016-03-12T08:45:06.318Z</time>
      </trkpt>
      <trkpt lat="43.70819" lon="5.83139">
        <ele>391</ele>
        <time>2016-03-12T08:45:07.343Z</time>
      </trkpt>
      <trkpt lat="43.70825" lon="5.8314">
        <ele>392</ele>
        <time>2016-03-12T08:45:08.312Z</time>
      </trkpt>
      <trkpt lat="43.7083" lon="5.8314">
        <ele>392</ele>
        <time>2016-03-12T08:45:09.341Z</time>
      </trkpt>
      <trkpt lat="43.70834" lon="5.83141">
        <ele>392</ele>
        <time>2016-03-12T08:45:10.317Z</time>
      </trkpt>
      <trkpt lat="43.70839" lon="5.83141">
        <ele>391</ele>
        <time>2016-03-12T08:45:11.373Z</time>
      </trkpt>
      <trkpt lat="43.70844" lon="5.83142">
        <ele>391</ele>
        <time>2016-03-12T08:45:12.317Z</time>
      </trkpt>
      <trkpt lat="43.70852" lon="5.83143">
        <ele>391</ele>
        <time>2016-03-12T08:45:14.345Z</time>
      </trkpt>
      <trkpt lat="43.70856" lon="5.83142">
        <ele>391</ele>
        <time>2016-03-12T08:45:15.314Z</time>
      </trkpt>
      <trkpt lat="43.70864" lon="5.83142">
        <ele>391</ele>
        <time>2016-03-12T08:45:17.342Z</time>
      </trkpt>
      <trkpt lat="43.70867" lon="5.83142">
        <ele>391</ele>
        <time>2016-03-12T08:45:18.317Z</time>
      </trkpt>
      <trkpt lat="43.70871" lon="5.83143">
        <ele>391</ele>
        <time>2016-03-12T08:45:19.357Z</time>
      </trkpt>
      <trkpt lat="43.70876" lon="5.83143">
        <ele>392</ele>
        <time>2016-03-12T08:45:20.319Z</time>
      </trkpt>
      <trkpt lat="43.70881" lon="5.83144">
        <ele>392</ele>
        <time>2016-03-12T08:45:21.343Z</time>
      </trkpt>
      <trkpt lat="43.70886" lon="5.83144">
        <ele>392</ele>
        <time>2016-03-12T08:45:22.314Z</time>
      </trkpt>
      <trkpt lat="43.7089" lon="5.83144">
        <ele>392</ele>
        <time>2016-03-12T08:45:23.342Z</time>
      </trkpt>
      <trkpt lat="43.70895" lon="5.83145">
        <ele>392</ele>
        <time>2016-03-12T08:45:24.317Z</time>
      </trkpt>
      <trkpt lat="43.709" lon="5.83147">
        <ele>392</ele>
        <time>2016-03-12T08:45:25.342Z</time>
      </trkpt>
      <trkpt lat="43.70905" lon="5.83148">
        <ele>392</ele>
        <time>2016-03-12T08:45:26.317Z</time>
      </trkpt>
      <trkpt lat="43.7091" lon="5.83151">
        <ele>392</ele>
        <time>2016-03-12T08:45:27.374Z</time>
      </trkpt>
      <trkpt lat="43.70915" lon="5.83154">
        <ele>392</ele>
        <time>2016-03-12T08:45:28.315Z</time>
      </trkpt>
      <trkpt lat="43.7092" lon="5.83157">
        <ele>392</ele>
        <time>2016-03-12T08:45:29.341Z</time>
      </trkpt>
      <trkpt lat="43.70924" lon="5.8316">
        <ele>392</ele>
        <time>2016-03-12T08:45:30.316Z</time>
      </trkpt>
      <trkpt lat="43.70929" lon="5.83162">
        <ele>392</ele>
        <time>2016-03-12T08:45:31.338Z</time>
      </trkpt>
      <trkpt lat="43.70933" lon="5.83164">
        <ele>392</ele>
        <time>2016-03-12T08:45:32.316Z</time>
      </trkpt>
      <trkpt lat="43.70939" lon="5.83167">
        <ele>393</ele>
        <time>2016-03-12T08:45:34.342Z</time>
      </trkpt>
      <trkpt lat="43.70942" lon="5.83169">
        <ele>393</ele>
        <time>2016-03-12T08:45:35.318Z</time>
      </trkpt>
      <trkpt lat="43.7095" lon="5.83173">
        <ele>394</ele>
        <time>2016-03-12T08:45:38.341Z</time>
      </trkpt>
      <trkpt lat="43.70953" lon="5.83174">
        <ele>394</ele>
        <time>2016-03-12T08:45:39.317Z</time>
      </trkpt>
      <trkpt lat="43.70961" lon="5.83176">
        <ele>394</ele>
        <time>2016-03-12T08:45:43.370Z</time>
      </trkpt>
      <trkpt lat="43.70963" lon="5.83176">
        <ele>395</ele>
        <time>2016-03-12T08:45:44.317Z</time>
      </trkpt>
      <trkpt lat="43.70969" lon="5.83178">
        <ele>395</ele>
        <time>2016-03-12T08:45:48.342Z</time>
      </trkpt>
      <trkpt lat="43.70971" lon="5.83181">
        <ele>396</ele>
        <time>2016-03-12T08:45:49.319Z</time>
      </trkpt>
      <trkpt lat="43.70974" lon="5.83191">
        <ele>396</ele>
        <time>2016-03-12T08:45:52.342Z</time>
      </trkpt>
      <trkpt lat="43.70974" lon="5.83194">
        <ele>396</ele>
        <time>2016-03-12T08:45:53.549Z</time>
      </trkpt>
      <trkpt lat="43.70979" lon="5.83204">
        <ele>396</ele>
        <time>2016-03-12T08:45:57.344Z</time>
      </trkpt>
      <trkpt lat="43.7098" lon="5.83206">
        <ele>396</ele>
        <time>2016-03-12T08:45:58.318Z</time>
      </trkpt>
      <trkpt lat="43.70987" lon="5.8321">
        <ele>396</ele>
        <time>2016-03-12T08:46:02.342Z</time>
      </trkpt>
      <trkpt lat="43.70989" lon="5.8321">
        <ele>397</ele>
        <time>2016-03-12T08:46:03.319Z</time>
      </trkpt>
      <trkpt lat="43.70997" lon="5.83208">
        <ele>398</ele>
        <time>2016-03-12T08:46:08.343Z</time>
      </trkpt>
      <trkpt lat="43.70999" lon="5.83208">
        <ele>398</ele>
        <time>2016-03-12T08:46:09.329Z</time>
      </trkpt>
      <trkpt lat="43.71007" lon="5.83207">
        <ele>398</ele>
        <time>2016-03-12T08:46:15.344Z</time>
      </trkpt>
      <trkpt lat="43.71009" lon="5.83208">
        <ele>398</ele>
        <time>2016-03-12T08:46:16.320Z</time>
      </trkpt>
      <trkpt lat="43.71017" lon="5.83208">
        <ele>399</ele>
        <time>2016-03-12T08:46:22.341Z</time>
      </trkpt>
      <trkpt lat="43.71018" lon="5.83208">
        <ele>399</ele>
        <time>2016-03-12T08:46:23.314Z</time>
      </trkpt>
      <trkpt lat="43.71027" lon="5.83209">
        <ele>401</ele>
        <time>2016-03-12T08:46:29.343Z</time>
      </trkpt>
      <trkpt lat="43.71028" lon="5.83209">
        <ele>401</ele>
        <time>2016-03-12T08:46:30.317Z</time>
      </trkpt>
      <trkpt lat="43.71036" lon="5.83211">
        <ele>401</ele>
        <time>2016-03-12T08:46:36.340Z</time>
      </trkpt>
      <trkpt lat="43.71038" lon="5.83211">
        <ele>402</ele>
        <time>2016-03-12T08:46:37.318Z</time>
      </trkpt>
      <trkpt lat="43.71046" lon="5.83213">
        <ele>402</ele>
        <time>2016-03-12T08:46:43.343Z</time>
      </trkpt>
      <trkpt lat="43.71048" lon="5.83214">
        <ele>402</ele>
        <time>2016-03-12T08:46:44.547Z</time>
      </trkpt>
      <trkpt lat="43.71056" lon="5.83217">
        <ele>403</ele>
        <time>2016-03-12T08:46:50.342Z</time>
      </trkpt>
      <trkpt lat="43.71058" lon="5.83217">
        <ele>403</ele>
        <time>2016-03-12T08:46:51.317Z</time>
      </trkpt>
      <trkpt lat="43.71066" lon="5.8322">
        <ele>405</ele>
        <time>2016-03-12T08:46:57.341Z</time>
      </trkpt>
      <trkpt lat="43.71067" lon="5.8322">
        <ele>405</ele>
        <time>2016-03-12T08:46:58.319Z</time>
      </trkpt>
      <trkpt lat="43.71075" lon="5.83221">
        <ele>407</ele>
        <time>2016-03-12T08:47:04.342Z</time>
      </trkpt>
      <trkpt lat="43.71077" lon="5.83221">
        <ele>407</ele>
        <time>2016-03-12T08:47:05.318Z</time>
      </trkpt>
      <trkpt lat="43.71085" lon="5.83219">
        <ele>409</ele>
        <time>2016-03-12T08:47:11.342Z</time>
      </trkpt>
      <trkpt lat="43.71086" lon="5.83219">
        <ele>409</ele>
        <time>2016-03-12T08:47:12.318Z</time>
      </trkpt>
      <trkpt lat="43.71094" lon="5.83216">
        <ele>410</ele>
        <time>2016-03-12T08:47:18.340Z</time>
      </trkpt>
      <trkpt lat="43.71096" lon="5.83216">
        <ele>411</ele>
        <time>2016-03-12T08:47:19.344Z</time>
      </trkpt>
      <trkpt lat="43.71103" lon="5.83213">
        <ele>412</ele>
        <time>2016-03-12T08:47:25.343Z</time>
      </trkpt>
      <trkpt lat="43.71105" lon="5.83213">
        <ele>412</ele>
        <time>2016-03-12T08:47:26.326Z</time>
      </trkpt>
      <trkpt lat="43.71113" lon="5.83211">
        <ele>414</ele>
        <time>2016-03-12T08:47:32.343Z</time>
      </trkpt>
      <trkpt lat="43.71115" lon="5.83211">
        <ele>414</ele>
        <time>2016-03-12T08:47:33.318Z</time>
      </trkpt>
      <trkpt lat="43.71123" lon="5.83211">
        <ele>416</ele>
        <time>2016-03-12T08:47:39.344Z</time>
      </trkpt>
      <trkpt lat="43.71124" lon="5.83212">
        <ele>416</ele>
        <time>2016-03-12T08:47:40.319Z</time>
      </trkpt>
      <trkpt lat="43.71133" lon="5.83214">
        <ele>418</ele>
        <time>2016-03-12T08:47:46.343Z</time>
      </trkpt>
      <trkpt lat="43.71134" lon="5.83214">
        <ele>418</ele>
        <time>2016-03-12T08:47:47.317Z</time>
      </trkpt>
      <trkpt lat="43.71142" lon="5.83217">
        <ele>420</ele>
        <time>2016-03-12T08:47:53.342Z</time>
      </trkpt>
      <trkpt lat="43.71143" lon="5.83217">
        <ele>420</ele>
        <time>2016-03-12T08:47:54.319Z</time>
      </trkpt>
      <trkpt lat="43.71151" lon="5.83221">
        <ele>421</ele>
        <time>2016-03-12T08:48:00.343Z</time>
      </trkpt>
      <trkpt lat="43.71152" lon="5.83221">
        <ele>421</ele>
        <time>2016-03-12T08:48:01.315Z</time>
      </trkpt>
      <trkpt lat="43.71159" lon="5.83225">
        <ele>422</ele>
        <time>2016-03-12T08:48:07.343Z</time>
      </trkpt>
      <trkpt lat="43.71161" lon="5.83225">
        <ele>422</ele>
        <time>2016-03-12T08:48:08.318Z</time>
      </trkpt>
      <trkpt lat="43.71168" lon="5.83228">
        <ele>422</ele>
        <time>2016-03-12T08:48:13.368Z</time>
      </trkpt>
      <trkpt lat="43.7117" lon="5.83228">
        <ele>422</ele>
        <time>2016-03-12T08:48:14.355Z</time>
      </trkpt>
      <trkpt lat="43.71178" lon="5.8323">
        <ele>424</ele>
        <time>2016-03-12T08:48:20.345Z</time>
      </trkpt>
      <trkpt lat="43.71179" lon="5.8323">
        <ele>424</ele>
        <time>2016-03-12T08:48:21.319Z</time>
      </trkpt>
      <trkpt lat="43.71187" lon="5.83232">
        <ele>425</ele>
        <time>2016-03-12T08:48:27.343Z</time>
      </trkpt>
      <trkpt lat="43.71189" lon="5.83232">
        <ele>425</ele>
        <time>2016-03-12T08:48:28.319Z</time>
      </trkpt>
      <trkpt lat="43.71197" lon="5.83235">
        <ele>426</ele>
        <time>2016-03-12T08:48:35.374Z</time>
      </trkpt>
      <trkpt lat="43.71198" lon="5.83236">
        <ele>426</ele>
        <time>2016-03-12T08:48:36.318Z</time>
      </trkpt>
      <trkpt lat="43.71206" lon="5.83239">
        <ele>429</ele>
        <time>2016-03-12T08:48:43.345Z</time>
      </trkpt>
      <trkpt lat="43.71208" lon="5.8324">
        <ele>429</ele>
        <time>2016-03-12T08:48:44.316Z</time>
      </trkpt>
      <trkpt lat="43.71216" lon="5.83243">
        <ele>435</ele>
        <time>2016-03-12T08:48:52.344Z</time>
      </trkpt>
      <trkpt lat="43.71217" lon="5.83244">
        <ele>435</ele>
        <time>2016-03-12T08:48:53.318Z</time>
      </trkpt>
      <trkpt lat="43.71225" lon="5.83247">
        <ele>436</ele>
        <time>2016-03-12T08:49:00.343Z</time>
      </trkpt>
      <trkpt lat="43.71226" lon="5.83248">
        <ele>437</ele>
        <time>2016-03-12T08:49:01.318Z</time>
      </trkpt>
      <trkpt lat="43.71233" lon="5.83251">
        <ele>439</ele>
        <time>2016-03-12T08:49:08.343Z</time>
      </trkpt>
      <trkpt lat="43.71234" lon="5.83252">
        <ele>438</ele>
        <time>2016-03-12T08:49:09.317Z</time>
      </trkpt>
      <trkpt lat="43.71242" lon="5.83256">
        <ele>439</ele>
        <time>2016-03-12T08:49:16.343Z</time>
      </trkpt>
      <trkpt lat="43.71243" lon="5.83257">
        <ele>439</ele>
        <time>2016-03-12T08:49:17.317Z</time>
      </trkpt>
      <trkpt lat="43.71251" lon="5.8326">
        <ele>443</ele>
        <time>2016-03-12T08:49:24.370Z</time>
      </trkpt>
      <trkpt lat="43.71252" lon="5.83261">
        <ele>444</ele>
        <time>2016-03-12T08:49:25.318Z</time>
      </trkpt>
      <trkpt lat="43.71259" lon="5.83264">
        <ele>444</ele>
        <time>2016-03-12T08:49:31.344Z</time>
      </trkpt>
      <trkpt lat="43.7126" lon="5.83265">
        <ele>443</ele>
        <time>2016-03-12T08:49:32.319Z</time>
      </trkpt>
      <trkpt lat="43.71268" lon="5.83269">
        <ele>441</ele>
        <time>2016-03-12T08:49:38.342Z</time>
      </trkpt>
      <trkpt lat="43.71269" lon="5.83269">
        <ele>441</ele>
        <time>2016-03-12T08:49:39.319Z</time>
      </trkpt>
      <trkpt lat="43.71278" lon="5.8327">
        <ele>441</ele>
        <time>2016-03-12T08:49:46.355Z</time>
      </trkpt>
      <trkpt lat="43.71279" lon="5.8327">
        <ele>441</ele>
        <time>2016-03-12T08:49:47.318Z</time>
      </trkpt>
      <trkpt lat="43.71288" lon="5.83268">
        <ele>442</ele>
        <time>2016-03-12T08:49:54.352Z</time>
      </trkpt>
      <trkpt lat="43.71289" lon="5.83268">
        <ele>442</ele>
        <time>2016-03-12T08:49:55.318Z</time>
      </trkpt>
      <trkpt lat="43.71297" lon="5.83265">
        <ele>442</ele>
        <time>2016-03-12T08:50:01.336Z</time>
      </trkpt>
      <trkpt lat="43.71298" lon="5.83264">
        <ele>442</ele>
        <time>2016-03-12T08:50:02.315Z</time>
      </trkpt>
      <trkpt lat="43.71306" lon="5.83262">
        <ele>443</ele>
        <time>2016-03-12T08:50:08.342Z</time>
      </trkpt>
      <trkpt lat="43.71307" lon="5.83261">
        <ele>443</ele>
        <time>2016-03-12T08:50:09.542Z</time>
      </trkpt>
      <trkpt lat="43.71316" lon="5.83259">
        <ele>444</ele>
        <time>2016-03-12T08:50:15.340Z</time>
      </trkpt>
      <trkpt lat="43.71317" lon="5.83259">
        <ele>443</ele>
        <time>2016-03-12T08:50:16.316Z</time>
      </trkpt>
      <trkpt lat="43.71325" lon="5.83256">
        <ele>445</ele>
        <time>2016-03-12T08:50:22.345Z</time>
      </trkpt>
      <trkpt lat="43.71326" lon="5.83256">
        <ele>444</ele>
        <time>2016-03-12T08:50:23.362Z</time>
      </trkpt>
      <trkpt lat="43.71334" lon="5.83251">
        <ele>445</ele>
        <time>2016-03-12T08:50:31.343Z</time>
      </trkpt>
      <trkpt lat="43.71335" lon="5.83251">
        <ele>445</ele>
        <time>2016-03-12T08:50:32.315Z</time>
      </trkpt>
      <trkpt lat="43.71344" lon="5.83247">
        <ele>447</ele>
        <time>2016-03-12T08:50:42.345Z</time>
      </trkpt>
      <trkpt lat="43.71344" lon="5.83247">
        <ele>447</ele>
        <time>2016-03-12T08:50:43.315Z</time>
      </trkpt>
      <trkpt lat="43.71352" lon="5.83243">
        <ele>449</ele>
        <time>2016-03-12T08:50:52.341Z</time>
      </trkpt>
      <trkpt lat="43.71353" lon="5.83243">
        <ele>449</ele>
        <time>2016-03-12T08:50:53.319Z</time>
      </trkpt>
      <trkpt lat="43.71361" lon="5.8324">
        <ele>450</ele>
        <time>2016-03-12T08:51:01.604Z</time>
      </trkpt>
      <trkpt lat="43.71363" lon="5.83239">
        <ele>450</ele>
        <time>2016-03-12T08:51:02.315Z</time>
      </trkpt>
      <trkpt lat="43.71371" lon="5.83238">
        <ele>450</ele>
        <time>2016-03-12T08:51:07.344Z</time>
      </trkpt>
      <trkpt lat="43.71372" lon="5.83238">
        <ele>450</ele>
        <time>2016-03-12T08:51:08.319Z</time>
      </trkpt>
      <trkpt lat="43.71381" lon="5.83238">
        <ele>450</ele>
        <time>2016-03-12T08:51:13.364Z</time>
      </trkpt>
      <trkpt lat="43.71382" lon="5.83237">
        <ele>451</ele>
        <time>2016-03-12T08:51:14.318Z</time>
      </trkpt>
      <trkpt lat="43.7139" lon="5.83239">
        <ele>449</ele>
        <time>2016-03-12T08:51:19.343Z</time>
      </trkpt>
      <trkpt lat="43.71392" lon="5.83239">
        <ele>449</ele>
        <time>2016-03-12T08:51:20.318Z</time>
      </trkpt>
      <trkpt lat="43.714" lon="5.83239">
        <ele>450</ele>
        <time>2016-03-12T08:51:25.576Z</time>
      </trkpt>
      <trkpt lat="43.71402" lon="5.83239">
        <ele>451</ele>
        <time>2016-03-12T08:51:26.319Z</time>
      </trkpt>
      <trkpt lat="43.7141" lon="5.83242">
        <ele>451</ele>
        <time>2016-03-12T08:51:31.355Z</time>
      </trkpt>
      <trkpt lat="43.71411" lon="5.83243">
        <ele>452</ele>
        <time>2016-03-12T08:51:32.315Z</time>
      </trkpt>
      <trkpt lat="43.71416" lon="5.83253">
        <ele>456</ele>
        <time>2016-03-12T08:51:38.340Z</time>
      </trkpt>
      <trkpt lat="43.71417" lon="5.83255">
        <ele>457</ele>
        <time>2016-03-12T08:51:39.327Z</time>
      </trkpt>
      <trkpt lat="43.71419" lon="5.83265">
        <ele>458</ele>
        <time>2016-03-12T08:51:44.345Z</time>
      </trkpt>
      <trkpt lat="43.71419" lon="5.83267">
        <ele>460</ele>
        <time>2016-03-12T08:51:45.319Z</time>
      </trkpt>
      <trkpt lat="43.71419" lon="5.83278">
        <ele>460</ele>
        <time>2016-03-12T08:51:50.569Z</time>
      </trkpt>
      <trkpt lat="43.7142" lon="5.8328">
        <ele>460</ele>
        <time>2016-03-12T08:51:51.316Z</time>
      </trkpt>
      <trkpt lat="43.7142" lon="5.8329">
        <ele>460</ele>
        <time>2016-03-12T08:51:55.421Z</time>
      </trkpt>
      <trkpt lat="43.71421" lon="5.83292">
        <ele>460</ele>
        <time>2016-03-12T08:51:56.319Z</time>
      </trkpt>
      <trkpt lat="43.71421" lon="5.83303">
        <ele>460</ele>
        <time>2016-03-12T08:52:00.435Z</time>
      </trkpt>
      <trkpt lat="43.71421" lon="5.83306">
        <ele>459</ele>
        <time>2016-03-12T08:52:01.315Z</time>
      </trkpt>
      <trkpt lat="43.71422" lon="5.83316">
        <ele>458</ele>
        <time>2016-03-12T08:52:04.343Z</time>
      </trkpt>
      <trkpt lat="43.71422" lon="5.8332">
        <ele>457</ele>
        <time>2016-03-12T08:52:05.320Z</time>
      </trkpt>
      <trkpt lat="43.71423" lon="5.83331">
        <ele>457</ele>
        <time>2016-03-12T08:52:09.345Z</time>
      </trkpt>
      <trkpt lat="43.71423" lon="5.83334">
        <ele>458</ele>
        <time>2016-03-12T08:52:10.344Z</time>
      </trkpt>
      <trkpt lat="43.71424" lon="5.83345">
        <ele>457</ele>
        <time>2016-03-12T08:52:14.351Z</time>
      </trkpt>
      <trkpt lat="43.71424" lon="5.83348">
        <ele>457</ele>
        <time>2016-03-12T08:52:15.319Z</time>
      </trkpt>
      <trkpt lat="43.71427" lon="5.83359">
        <ele>457</ele>
        <time>2016-03-12T08:52:19.340Z</time>
      </trkpt>
      <trkpt lat="43.71428" lon="5.83361">
        <ele>457</ele>
        <time>2016-03-12T08:52:20.327Z</time>
      </trkpt>
      <trkpt lat="43.71435" lon="5.83366">
        <ele>456</ele>
        <time>2016-03-12T08:52:24.345Z</time>
      </trkpt>
      <trkpt lat="43.71437" lon="5.83365">
        <ele>456</ele>
        <time>2016-03-12T08:52:25.321Z</time>
      </trkpt>
      <trkpt lat="43.71444" lon="5.83358">
        <ele>456</ele>
        <time>2016-03-12T08:52:30.344Z</time>
      </trkpt>
      <trkpt lat="43.71445" lon="5.83357">
        <ele>456</ele>
        <time>2016-03-12T08:52:31.321Z</time>
      </trkpt>
      <trkpt lat="43.71451" lon="5.83349">
        <ele>455</ele>
        <time>2016-03-12T08:52:37.371Z</time>
      </trkpt>
      <trkpt lat="43.71452" lon="5.83347">
        <ele>455</ele>
        <time>2016-03-12T08:52:38.338Z</time>
      </trkpt>
      <trkpt lat="43.71456" lon="5.83336">
        <ele>455</ele>
        <time>2016-03-12T08:52:44.344Z</time>
      </trkpt>
      <trkpt lat="43.71456" lon="5.83334">
        <ele>455</ele>
        <time>2016-03-12T08:52:45.319Z</time>
      </trkpt>
      <trkpt lat="43.71457" lon="5.83323">
        <ele>454</ele>
        <time>2016-03-12T08:52:51.343Z</time>
      </trkpt>
      <trkpt lat="43.71458" lon="5.83321">
        <ele>455</ele>
        <time>2016-03-12T08:52:52.319Z</time>
      </trkpt>
      <trkpt lat="43.7146" lon="5.8331">
        <ele>454</ele>
        <time>2016-03-12T08:52:58.344Z</time>
      </trkpt>
      <trkpt lat="43.7146" lon="5.83308">
        <ele>454</ele>
        <time>2016-03-12T08:52:59.321Z</time>
      </trkpt>
      <trkpt lat="43.71462" lon="5.83297">
        <ele>456</ele>
        <time>2016-03-12T08:53:05.345Z</time>
      </trkpt>
      <trkpt lat="43.71463" lon="5.83295">
        <ele>457</ele>
        <time>2016-03-12T08:53:06.319Z</time>
      </trkpt>
      <trkpt lat="43.71466" lon="5.83284">
        <ele>458</ele>
        <time>2016-03-12T08:53:12.346Z</time>
      </trkpt>
      <trkpt lat="43.71466" lon="5.83282">
        <ele>458</ele>
        <time>2016-03-12T08:53:13.319Z</time>
      </trkpt>
      <trkpt lat="43.71469" lon="5.83271">
        <ele>460</ele>
        <time>2016-03-12T08:53:19.344Z</time>
      </trkpt>
      <trkpt lat="43.7147" lon="5.83269">
        <ele>461</ele>
        <time>2016-03-12T08:53:20.320Z</time>
      </trkpt>
      <trkpt lat="43.71472" lon="5.83257">
        <ele>463</ele>
        <time>2016-03-12T08:53:27.345Z</time>
      </trkpt>
      <trkpt lat="43.71472" lon="5.83255">
        <ele>463</ele>
        <time>2016-03-12T08:53:28.312Z</time>
      </trkpt>
      <trkpt lat="43.71476" lon="5.83246">
        <ele>465</ele>
        <time>2016-03-12T08:53:34.345Z</time>
      </trkpt>
      <trkpt lat="43.71477" lon="5.83244">
        <ele>465</ele>
        <time>2016-03-12T08:53:35.318Z</time>
      </trkpt>
      <trkpt lat="43.71483" lon="5.83236">
        <ele>467</ele>
        <time>2016-03-12T08:53:41.345Z</time>
      </trkpt>
      <trkpt lat="43.71484" lon="5.83235">
        <ele>467</ele>
        <time>2016-03-12T08:53:42.345Z</time>
      </trkpt>
      <trkpt lat="43.71491" lon="5.83228">
        <ele>469</ele>
        <time>2016-03-12T08:53:49.345Z</time>
      </trkpt>
      <trkpt lat="43.71492" lon="5.83227">
        <ele>469</ele>
        <time>2016-03-12T08:53:50.319Z</time>
      </trkpt>
      <trkpt lat="43.71499" lon="5.83223">
        <ele>470</ele>
        <time>2016-03-12T08:53:56.343Z</time>
      </trkpt>
      <trkpt lat="43.71501" lon="5.83223">
        <ele>470</ele>
        <time>2016-03-12T08:53:57.337Z</time>
      </trkpt>
      <trkpt lat="43.71509" lon="5.83218">
        <ele>470</ele>
        <time>2016-03-12T08:54:04.344Z</time>
      </trkpt>
      <trkpt lat="43.7151" lon="5.83218">
        <ele>470</ele>
        <time>2016-03-12T08:54:05.319Z</time>
      </trkpt>
      <trkpt lat="43.71519" lon="5.83215">
        <ele>472</ele>
        <time>2016-03-12T08:54:12.356Z</time>
      </trkpt>
      <trkpt lat="43.7152" lon="5.83215">
        <ele>472</ele>
        <time>2016-03-12T08:54:13.320Z</time>
      </trkpt>
      <trkpt lat="43.71528" lon="5.83211">
        <ele>473</ele>
        <time>2016-03-12T08:54:20.343Z</time>
      </trkpt>
      <trkpt lat="43.71529" lon="5.83211">
        <ele>474</ele>
        <time>2016-03-12T08:54:21.319Z</time>
      </trkpt>
      <trkpt lat="43.71537" lon="5.83209">
        <ele>476</ele>
        <time>2016-03-12T08:54:27.348Z</time>
      </trkpt>
      <trkpt lat="43.71539" lon="5.83209">
        <ele>476</ele>
        <time>2016-03-12T08:54:28.342Z</time>
      </trkpt>
      <trkpt lat="43.71547" lon="5.83213">
        <ele>478</ele>
        <time>2016-03-12T08:54:34.344Z</time>
      </trkpt>
      <trkpt lat="43.71548" lon="5.83214">
        <ele>478</ele>
        <time>2016-03-12T08:54:35.321Z</time>
      </trkpt>
      <trkpt lat="43.71556" lon="5.83218">
        <ele>479</ele>
        <time>2016-03-12T08:54:41.345Z</time>
      </trkpt>
      <trkpt lat="43.71558" lon="5.83219">
        <ele>479</ele>
        <time>2016-03-12T08:54:42.320Z</time>
      </trkpt>
      <trkpt lat="43.71562" lon="5.83208">
        <ele>478</ele>
        <time>2016-03-12T08:55:09.384Z</time>
      </trkpt>
      <trkpt lat="43.71563" lon="5.83207">
        <ele>478</ele>
        <time>2016-03-12T08:55:10.320Z</time>
      </trkpt>
      <trkpt lat="43.71571" lon="5.83202">
        <ele>477</ele>
        <time>2016-03-12T08:55:16.343Z</time>
      </trkpt>
      <trkpt lat="43.71575" lon="5.83203">
        <ele>476</ele>
        <time>2016-03-12T08:55:17.320Z</time>
      </trkpt>
      <trkpt lat="43.71579" lon="5.83205">
        <ele>476</ele>
        <time>2016-03-12T08:55:18.344Z</time>
      </trkpt>
      <trkpt lat="43.71584" lon="5.83209">
        <ele>475</ele>
        <time>2016-03-12T08:55:19.319Z</time>
      </trkpt>
      <trkpt lat="43.7159" lon="5.83215">
        <ele>473</ele>
        <time>2016-03-12T08:55:20.369Z</time>
      </trkpt>
      <trkpt lat="43.71594" lon="5.83222">
        <ele>473</ele>
        <time>2016-03-12T08:55:21.317Z</time>
      </trkpt>
      <trkpt lat="43.71596" lon="5.83231">
        <ele>472</ele>
        <time>2016-03-12T08:55:22.349Z</time>
      </trkpt>
      <trkpt lat="43.71597" lon="5.83242">
        <ele>472</ele>
        <time>2016-03-12T08:55:23.319Z</time>
      </trkpt>
      <trkpt lat="43.71599" lon="5.83252">
        <ele>471</ele>
        <time>2016-03-12T08:55:24.338Z</time>
      </trkpt>
      <trkpt lat="43.71604" lon="5.83262">
        <ele>468</ele>
        <time>2016-03-12T08:55:25.317Z</time>
      </trkpt>
      <trkpt lat="43.71609" lon="5.83271">
        <ele>467</ele>
        <time>2016-03-12T08:55:26.393Z</time>
      </trkpt>
      <trkpt lat="43.71617" lon="5.83279">
        <ele>466</ele>
        <time>2016-03-12T08:55:27.317Z</time>
      </trkpt>
      <trkpt lat="43.71617" lon="5.83279">
        <ele>466</ele>
        <time>2016-03-12T08:55:27.346Z</time>
      </trkpt>
      <trkpt lat="43.71625" lon="5.83286">
        <ele>465</ele>
        <time>2016-03-12T08:55:28.316Z</time>
      </trkpt>
      <trkpt lat="43.71633" lon="5.83291">
        <ele>464</ele>
        <time>2016-03-12T08:55:29.344Z</time>
      </trkpt>
      <trkpt lat="43.71642" lon="5.83295">
        <ele>463</ele>
        <time>2016-03-12T08:55:30.320Z</time>
      </trkpt>
      <trkpt lat="43.71642" lon="5.83295">
        <ele>463</ele>
        <time>2016-03-12T08:55:30.352Z</time>
      </trkpt>
      <trkpt lat="43.7165" lon="5.833">
        <ele>463</ele>
        <time>2016-03-12T08:55:31.319Z</time>
      </trkpt>
      <trkpt lat="43.7165" lon="5.833">
        <ele>463</ele>
        <time>2016-03-12T08:55:31.350Z</time>
      </trkpt>
      <trkpt lat="43.71658" lon="5.83306">
        <ele>462</ele>
        <time>2016-03-12T08:55:32.327Z</time>
      </trkpt>
      <trkpt lat="43.71658" lon="5.83306">
        <ele>462</ele>
        <time>2016-03-12T08:55:32.374Z</time>
      </trkpt>
      <trkpt lat="43.71667" lon="5.83312">
        <ele>462</ele>
        <time>2016-03-12T08:55:33.319Z</time>
      </trkpt>
      <trkpt lat="43.71667" lon="5.83312">
        <ele>462</ele>
        <time>2016-03-12T08:55:33.348Z</time>
      </trkpt>
      <trkpt lat="43.71675" lon="5.83318">
        <ele>461</ele>
        <time>2016-03-12T08:55:34.318Z</time>
      </trkpt>
      <trkpt lat="43.71675" lon="5.83318">
        <ele>461</ele>
        <time>2016-03-12T08:55:34.347Z</time>
      </trkpt>
      <trkpt lat="43.71683" lon="5.83323">
        <ele>461</ele>
        <time>2016-03-12T08:55:35.330Z</time>
      </trkpt>
      <trkpt lat="43.71683" lon="5.83323">
        <ele>461</ele>
        <time>2016-03-12T08:55:35.361Z</time>
      </trkpt>
      <trkpt lat="43.71692" lon="5.83328">
        <ele>459</ele>
        <time>2016-03-12T08:55:36.347Z</time>
      </trkpt>
      <trkpt lat="43.71699" lon="5.83335">
        <ele>460</ele>
        <time>2016-03-12T08:55:37.344Z</time>
      </trkpt>
      <trkpt lat="43.71706" lon="5.83344">
        <ele>459</ele>
        <time>2016-03-12T08:55:38.320Z</time>
      </trkpt>
      <trkpt lat="43.71706" lon="5.83344">
        <ele>459</ele>
        <time>2016-03-12T08:55:38.349Z</time>
      </trkpt>
      <trkpt lat="43.71713" lon="5.83354">
        <ele>458</ele>
        <time>2016-03-12T08:55:39.320Z</time>
      </trkpt>
      <trkpt lat="43.71718" lon="5.83363">
        <ele>457</ele>
        <time>2016-03-12T08:55:40.343Z</time>
      </trkpt>
      <trkpt lat="43.71724" lon="5.83371">
        <ele>456</ele>
        <time>2016-03-12T08:55:41.320Z</time>
      </trkpt>
      <trkpt lat="43.7173" lon="5.83378">
        <ele>454</ele>
        <time>2016-03-12T08:55:42.344Z</time>
      </trkpt>
      <trkpt lat="43.71738" lon="5.83383">
        <ele>451</ele>
        <time>2016-03-12T08:55:43.316Z</time>
      </trkpt>
      <trkpt lat="43.71738" lon="5.83383">
        <ele>451</ele>
        <time>2016-03-12T08:55:43.345Z</time>
      </trkpt>
      <trkpt lat="43.71747" lon="5.83384">
        <ele>450</ele>
        <time>2016-03-12T08:55:44.320Z</time>
      </trkpt>
      <trkpt lat="43.71747" lon="5.83384">
        <ele>450</ele>
        <time>2016-03-12T08:55:44.348Z</time>
      </trkpt>
      <trkpt lat="43.71756" lon="5.83387">
        <ele>449</ele>
        <time>2016-03-12T08:55:45.320Z</time>
      </trkpt>
      <trkpt lat="43.71756" lon="5.83387">
        <ele>449</ele>
        <time>2016-03-12T08:55:45.351Z</time>
      </trkpt>
      <trkpt lat="43.71766" lon="5.8339">
        <ele>449</ele>
        <time>2016-03-12T08:55:46.565Z</time>
      </trkpt>
      <trkpt lat="43.71774" lon="5.83393">
        <ele>449</ele>
        <time>2016-03-12T08:55:47.345Z</time>
      </trkpt>
      <trkpt lat="43.71782" lon="5.83395">
        <ele>450</ele>
        <time>2016-03-12T08:55:48.320Z</time>
      </trkpt>
      <trkpt lat="43.71789" lon="5.83397">
        <ele>452</ele>
        <time>2016-03-12T08:55:49.344Z</time>
      </trkpt>
      <trkpt lat="43.71794" lon="5.83399">
        <ele>453</ele>
        <time>2016-03-12T08:55:50.327Z</time>
      </trkpt>
      <trkpt lat="43.71793" lon="5.83387">
        <ele>452</ele>
        <time>2016-03-12T08:56:24.390Z</time>
      </trkpt>
      <trkpt lat="43.71794" lon="5.83386">
        <ele>452</ele>
        <time>2016-03-12T08:56:25.318Z</time>
      </trkpt>
      <trkpt lat="43.71802" lon="5.83384">
        <ele>453</ele>
        <time>2016-03-12T08:56:30.345Z</time>
      </trkpt>
      <trkpt lat="43.71804" lon="5.83385">
        <ele>454</ele>
        <time>2016-03-12T08:56:31.320Z</time>
      </trkpt>
      <trkpt lat="43.7181" lon="5.83392">
        <ele>456</ele>
        <time>2016-03-12T08:56:35.374Z</time>
      </trkpt>
      <trkpt lat="43.71811" lon="5.83393">
        <ele>456</ele>
        <time>2016-03-12T08:56:36.321Z</time>
      </trkpt>
      <trkpt lat="43.71819" lon="5.83395">
        <ele>456</ele>
        <time>2016-03-12T08:56:42.346Z</time>
      </trkpt>
      <trkpt lat="43.71821" lon="5.83395">
        <ele>456</ele>
        <time>2016-03-12T08:56:43.320Z</time>
      </trkpt>
      <trkpt lat="43.71829" lon="5.83396">
        <ele>456</ele>
        <time>2016-03-12T08:56:48.342Z</time>
      </trkpt>
      <trkpt lat="43.7183" lon="5.83397">
        <ele>457</ele>
        <time>2016-03-12T08:56:49.320Z</time>
      </trkpt>
      <trkpt lat="43.71836" lon="5.83396">
        <ele>455</ele>
        <time>2016-03-12T08:56:52.345Z</time>
      </trkpt>
      <trkpt lat="43.7184" lon="5.83396">
        <ele>455</ele>
        <time>2016-03-12T08:56:53.321Z</time>
      </trkpt>
      <trkpt lat="43.71845" lon="5.83397">
        <ele>454</ele>
        <time>2016-03-12T08:56:54.346Z</time>
      </trkpt>
      <trkpt lat="43.7185" lon="5.834">
        <ele>454</ele>
        <time>2016-03-12T08:56:55.328Z</time>
      </trkpt>
      <trkpt lat="43.71853" lon="5.83408">
        <ele>454</ele>
        <time>2016-03-12T08:56:56.343Z</time>
      </trkpt>
      <trkpt lat="43.71855" lon="5.8341">
        <ele>453</ele>
        <time>2016-03-12T08:56:57.321Z</time>
      </trkpt>
      <trkpt lat="43.7186" lon="5.83415">
        <ele>454</ele>
        <time>2016-03-12T08:56:59.344Z</time>
      </trkpt>
      <trkpt lat="43.71863" lon="5.83418">
        <ele>453</ele>
        <time>2016-03-12T08:57:00.311Z</time>
      </trkpt>
      <trkpt lat="43.71871" lon="5.83422">
        <ele>453</ele>
        <time>2016-03-12T08:57:03.345Z</time>
      </trkpt>
      <trkpt lat="43.71875" lon="5.8342">
        <ele>452</ele>
        <time>2016-03-12T08:57:04.321Z</time>
      </trkpt>
      <trkpt lat="43.71883" lon="5.83416">
        <ele>452</ele>
        <time>2016-03-12T08:57:06.345Z</time>
      </trkpt>
      <trkpt lat="43.71888" lon="5.83414">
        <ele>452</ele>
        <time>2016-03-12T08:57:07.317Z</time>
      </trkpt>
      <trkpt lat="43.71893" lon="5.83413">
        <ele>451</ele>
        <time>2016-03-12T08:57:08.345Z</time>
      </trkpt>
      <trkpt lat="43.71899" lon="5.83413">
        <ele>450</ele>
        <time>2016-03-12T08:57:09.320Z</time>
      </trkpt>
      <trkpt lat="43.71904" lon="5.83413">
        <ele>450</ele>
        <time>2016-03-12T08:57:10.345Z</time>
      </trkpt>
      <trkpt lat="43.71909" lon="5.83413">
        <ele>449</ele>
        <time>2016-03-12T08:57:11.320Z</time>
      </trkpt>
      <trkpt lat="43.71915" lon="5.83414">
        <ele>449</ele>
        <time>2016-03-12T08:57:12.347Z</time>
      </trkpt>
      <trkpt lat="43.7192" lon="5.83415">
        <ele>449</ele>
        <time>2016-03-12T08:57:13.320Z</time>
      </trkpt>
      <trkpt lat="43.71926" lon="5.83415">
        <ele>448</ele>
        <time>2016-03-12T08:57:14.367Z</time>
      </trkpt>
      <trkpt lat="43.71933" lon="5.83415">
        <ele>448</ele>
        <time>2016-03-12T08:57:15.321Z</time>
      </trkpt>
      <trkpt lat="43.71938" lon="5.83414">
        <ele>447</ele>
        <time>2016-03-12T08:57:16.345Z</time>
      </trkpt>
      <trkpt lat="43.71945" lon="5.83413">
        <ele>446</ele>
        <time>2016-03-12T08:57:17.320Z</time>
      </trkpt>
      <trkpt lat="43.7195" lon="5.83412">
        <ele>446</ele>
        <time>2016-03-12T08:57:18.370Z</time>
      </trkpt>
      <trkpt lat="43.71956" lon="5.83412">
        <ele>445</ele>
        <time>2016-03-12T08:57:19.320Z</time>
      </trkpt>
      <trkpt lat="43.71963" lon="5.83412">
        <ele>444</ele>
        <time>2016-03-12T08:57:20.344Z</time>
      </trkpt>
      <trkpt lat="43.71968" lon="5.83412">
        <ele>443</ele>
        <time>2016-03-12T08:57:21.319Z</time>
      </trkpt>
      <trkpt lat="43.71973" lon="5.83412">
        <ele>442</ele>
        <time>2016-03-12T08:57:22.350Z</time>
      </trkpt>
      <trkpt lat="43.71978" lon="5.83411">
        <ele>442</ele>
        <time>2016-03-12T08:57:23.323Z</time>
      </trkpt>
      <trkpt lat="43.71983" lon="5.83412">
        <ele>441</ele>
        <time>2016-03-12T08:57:24.356Z</time>
      </trkpt>
      <trkpt lat="43.71989" lon="5.83411">
        <ele>440</ele>
        <time>2016-03-12T08:57:25.321Z</time>
      </trkpt>
      <trkpt lat="43.71994" lon="5.83411">
        <ele>439</ele>
        <time>2016-03-12T08:57:26.344Z</time>
      </trkpt>
      <trkpt lat="43.72" lon="5.83411">
        <ele>438</ele>
        <time>2016-03-12T08:57:27.320Z</time>
      </trkpt>
      <trkpt lat="43.72005" lon="5.83412">
        <ele>438</ele>
        <time>2016-03-12T08:57:28.356Z</time>
      </trkpt>
      <trkpt lat="43.72009" lon="5.83414">
        <ele>437</ele>
        <time>2016-03-12T08:57:29.320Z</time>
      </trkpt>
      <trkpt lat="43.72014" lon="5.83416">
        <ele>436</ele>
        <time>2016-03-12T08:57:30.343Z</time>
      </trkpt>
      <trkpt lat="43.72018" lon="5.83421">
        <ele>436</ele>
        <time>2016-03-12T08:57:31.317Z</time>
      </trkpt>
      <trkpt lat="43.72022" lon="5.83431">
        <ele>434</ele>
        <time>2016-03-12T08:57:38.345Z</time>
      </trkpt>
      <trkpt lat="43.72022" lon="5.83432">
        <ele>435</ele>
        <time>2016-03-12T08:57:39.323Z</time>
      </trkpt>
      <trkpt lat="43.72022" lon="5.83441">
        <ele>435</ele>
        <time>2016-03-12T08:58:32.574Z</time>
      </trkpt>
      <trkpt lat="43.72021" lon="5.83444">
        <ele>435</ele>
        <time>2016-03-12T08:58:33.343Z</time>
      </trkpt>
      <trkpt lat="43.72021" lon="5.83453">
        <ele>434</ele>
        <time>2016-03-12T08:58:35.349Z</time>
      </trkpt>
      <trkpt lat="43.7202" lon="5.83458">
        <ele>434</ele>
        <time>2016-03-12T08:58:36.320Z</time>
      </trkpt>
      <trkpt lat="43.72016" lon="5.83469">
        <ele>433</ele>
        <time>2016-03-12T08:58:38.345Z</time>
      </trkpt>
      <trkpt lat="43.72013" lon="5.83474">
        <ele>432</ele>
        <time>2016-03-12T08:58:39.320Z</time>
      </trkpt>
      <trkpt lat="43.72008" lon="5.83479">
        <ele>431</ele>
        <time>2016-03-12T08:58:40.346Z</time>
      </trkpt>
      <trkpt lat="43.72006" lon="5.83481">
        <ele>431</ele>
        <time>2016-03-12T08:58:41.311Z</time>
      </trkpt>
      <trkpt lat="43.72004" lon="5.83489">
        <ele>431</ele>
        <time>2016-03-12T08:59:15.345Z</time>
      </trkpt>
      <trkpt lat="43.72003" lon="5.83494">
        <ele>431</ele>
        <time>2016-03-12T08:59:16.320Z</time>
      </trkpt>
      <trkpt lat="43.72001" lon="5.83506">
        <ele>430</ele>
        <time>2016-03-12T08:59:18.346Z</time>
      </trkpt>
      <trkpt lat="43.72" lon="5.83512">
        <ele>429</ele>
        <time>2016-03-12T08:59:19.320Z</time>
      </trkpt>
      <trkpt lat="43.72" lon="5.83519">
        <ele>428</ele>
        <time>2016-03-12T08:59:20.347Z</time>
      </trkpt>
      <trkpt lat="43.72001" lon="5.83525">
        <ele>428</ele>
        <time>2016-03-12T08:59:21.348Z</time>
      </trkpt>
      <trkpt lat="43.72005" lon="5.83531">
        <ele>427</ele>
        <time>2016-03-12T08:59:22.569Z</time>
      </trkpt>
      <trkpt lat="43.72009" lon="5.83536">
        <ele>426</ele>
        <time>2016-03-12T08:59:23.320Z</time>
      </trkpt>
      <trkpt lat="43.72014" lon="5.8354">
        <ele>426</ele>
        <time>2016-03-12T08:59:24.344Z</time>
      </trkpt>
      <trkpt lat="43.7202" lon="5.83546">
        <ele>425</ele>
        <time>2016-03-12T08:59:25.317Z</time>
      </trkpt>
      <trkpt lat="43.72025" lon="5.8355">
        <ele>424</ele>
        <time>2016-03-12T08:59:26.346Z</time>
      </trkpt>
      <trkpt lat="43.7203" lon="5.83554">
        <ele>423</ele>
        <time>2016-03-12T08:59:27.320Z</time>
      </trkpt>
      <trkpt lat="43.72036" lon="5.83559">
        <ele>422</ele>
        <time>2016-03-12T08:59:28.345Z</time>
      </trkpt>
      <trkpt lat="43.72041" lon="5.83564">
        <ele>421</ele>
        <time>2016-03-12T08:59:29.321Z</time>
      </trkpt>
      <trkpt lat="43.72046" lon="5.83569">
        <ele>420</ele>
        <time>2016-03-12T08:59:30.345Z</time>
      </trkpt>
      <trkpt lat="43.72049" lon="5.83577">
        <ele>419</ele>
        <time>2016-03-12T08:59:31.320Z</time>
      </trkpt>
      <trkpt lat="43.72052" lon="5.83584">
        <ele>419</ele>
        <time>2016-03-12T08:59:32.442Z</time>
      </trkpt>
      <trkpt lat="43.72056" lon="5.83592">
        <ele>418</ele>
        <time>2016-03-12T08:59:33.320Z</time>
      </trkpt>
      <trkpt lat="43.72059" lon="5.836">
        <ele>415</ele>
        <time>2016-03-12T08:59:34.344Z</time>
      </trkpt>
      <trkpt lat="43.7206" lon="5.83608">
        <ele>414</ele>
        <time>2016-03-12T08:59:35.321Z</time>
      </trkpt>
      <trkpt lat="43.72059" lon="5.83619">
        <ele>413</ele>
        <time>2016-03-12T08:59:36.345Z</time>
      </trkpt>
      <trkpt lat="43.72059" lon="5.83627">
        <ele>414</ele>
        <time>2016-03-12T08:59:37.320Z</time>
      </trkpt>
      <trkpt lat="43.72058" lon="5.83635">
        <ele>413</ele>
        <time>2016-03-12T08:59:38.349Z</time>
      </trkpt>
      <trkpt lat="43.72057" lon="5.83642">
        <ele>412</ele>
        <time>2016-03-12T08:59:39.324Z</time>
      </trkpt>
      <trkpt lat="43.72055" lon="5.83649">
        <ele>411</ele>
        <time>2016-03-12T08:59:40.345Z</time>
      </trkpt>
      <trkpt lat="43.72053" lon="5.83656">
        <ele>410</ele>
        <time>2016-03-12T08:59:41.318Z</time>
      </trkpt>
      <trkpt lat="43.72049" lon="5.83662">
        <ele>409</ele>
        <time>2016-03-12T08:59:42.345Z</time>
      </trkpt>
      <trkpt lat="43.72046" lon="5.83666">
        <ele>409</ele>
        <time>2016-03-12T08:59:43.320Z</time>
      </trkpt>
      <trkpt lat="43.72042" lon="5.83671">
        <ele>409</ele>
        <time>2016-03-12T08:59:44.345Z</time>
      </trkpt>
      <trkpt lat="43.72037" lon="5.83673">
        <ele>409</ele>
        <time>2016-03-12T08:59:45.320Z</time>
      </trkpt>
      <trkpt lat="43.72033" lon="5.83676">
        <ele>408</ele>
        <time>2016-03-12T08:59:46.356Z</time>
      </trkpt>
      <trkpt lat="43.72029" lon="5.83678">
        <ele>407</ele>
        <time>2016-03-12T08:59:47.321Z</time>
      </trkpt>
      <trkpt lat="43.72021" lon="5.83681">
        <ele>406</ele>
        <time>2016-03-12T08:59:49.347Z</time>
      </trkpt>
      <trkpt lat="43.72017" lon="5.83685">
        <ele>405</ele>
        <time>2016-03-12T08:59:50.320Z</time>
      </trkpt>
      <trkpt lat="43.72015" lon="5.83691">
        <ele>404</ele>
        <time>2016-03-12T08:59:51.347Z</time>
      </trkpt>
      <trkpt lat="43.72013" lon="5.83699">
        <ele>402</ele>
        <time>2016-03-12T08:59:52.321Z</time>
      </trkpt>
      <trkpt lat="43.72012" lon="5.83704">
        <ele>401</ele>
        <time>2016-03-12T08:59:53.346Z</time>
      </trkpt>
      <trkpt lat="43.72011" lon="5.83711">
        <ele>400</ele>
        <time>2016-03-12T08:59:54.322Z</time>
      </trkpt>
      <trkpt lat="43.72017" lon="5.8372">
        <ele>399</ele>
        <time>2016-03-12T08:59:56.345Z</time>
      </trkpt>
      <trkpt lat="43.72023" lon="5.83725">
        <ele>397</ele>
        <time>2016-03-12T08:59:57.320Z</time>
      </trkpt>
      <trkpt lat="43.72027" lon="5.83729">
        <ele>397</ele>
        <time>2016-03-12T08:59:58.346Z</time>
      </trkpt>
      <trkpt lat="43.72032" lon="5.83734">
        <ele>396</ele>
        <time>2016-03-12T08:59:59.320Z</time>
      </trkpt>
      <trkpt lat="43.72036" lon="5.83741">
        <ele>395</ele>
        <time>2016-03-12T09:00:00.337Z</time>
      </trkpt>
      <trkpt lat="43.7204" lon="5.83746">
        <ele>393</ele>
        <time>2016-03-12T09:00:01.320Z</time>
      </trkpt>
      <trkpt lat="43.72047" lon="5.83754">
        <ele>393</ele>
        <time>2016-03-12T09:00:03.346Z</time>
      </trkpt>
      <trkpt lat="43.7205" lon="5.83758">
        <ele>393</ele>
        <time>2016-03-12T09:00:04.352Z</time>
      </trkpt>
      <trkpt lat="43.72055" lon="5.83764">
        <ele>391</ele>
        <time>2016-03-12T09:00:06.346Z</time>
      </trkpt>
      <trkpt lat="43.72057" lon="5.83767">
        <ele>391</ele>
        <time>2016-03-12T09:00:07.321Z</time>
      </trkpt>
      <trkpt lat="43.72063" lon="5.83774">
        <ele>390</ele>
        <time>2016-03-12T09:00:10.342Z</time>
      </trkpt>
      <trkpt lat="43.72064" lon="5.83776">
        <ele>390</ele>
        <time>2016-03-12T09:00:11.320Z</time>
      </trkpt>
      <trkpt lat="43.72071" lon="5.83781">
        <ele>390</ele>
        <time>2016-03-12T09:00:26.342Z</time>
      </trkpt>
      <trkpt lat="43.72073" lon="5.83782">
        <ele>390</ele>
        <time>2016-03-12T09:00:27.320Z</time>
      </trkpt>
      <trkpt lat="43.72081" lon="5.83787">
        <ele>389</ele>
        <time>2016-03-12T09:00:31.338Z</time>
      </trkpt>
      <trkpt lat="43.72083" lon="5.83789">
        <ele>389</ele>
        <time>2016-03-12T09:00:32.319Z</time>
      </trkpt>
      <trkpt lat="43.7209" lon="5.83795">
        <ele>387</ele>
        <time>2016-03-12T09:00:34.340Z</time>
      </trkpt>
      <trkpt lat="43.72093" lon="5.83799">
        <ele>387</ele>
        <time>2016-03-12T09:00:35.316Z</time>
      </trkpt>
      <trkpt lat="43.72098" lon="5.83807">
        <ele>387</ele>
        <time>2016-03-12T09:00:37.345Z</time>
      </trkpt>
      <trkpt lat="43.72099" lon="5.83811">
        <ele>388</ele>
        <time>2016-03-12T09:00:38.319Z</time>
      </trkpt>
      <trkpt lat="43.72102" lon="5.83821">
        <ele>386</ele>
        <time>2016-03-12T09:00:42.349Z</time>
      </trkpt>
      <trkpt lat="43.72103" lon="5.83823">
        <ele>385</ele>
        <time>2016-03-12T09:00:43.316Z</time>
      </trkpt>
      <trkpt lat="43.7211" lon="5.83818">
        <ele>383</ele>
        <time>2016-03-12T09:00:50.338Z</time>
      </trkpt>
      <trkpt lat="43.72112" lon="5.83818">
        <ele>384</ele>
        <time>2016-03-12T09:00:51.318Z</time>
      </trkpt>
      <trkpt lat="43.72121" lon="5.83817">
        <ele>382</ele>
        <time>2016-03-12T09:00:54.341Z</time>
      </trkpt>
      <trkpt lat="43.72125" lon="5.83816">
        <ele>382</ele>
        <time>2016-03-12T09:00:55.319Z</time>
      </trkpt>
      <trkpt lat="43.72131" lon="5.83815">
        <ele>380</ele>
        <time>2016-03-12T09:00:57.366Z</time>
      </trkpt>
      <trkpt lat="43.72135" lon="5.83815">
        <ele>379</ele>
        <time>2016-03-12T09:00:58.319Z</time>
      </trkpt>
      <trkpt lat="43.72141" lon="5.83813">
        <ele>378</ele>
        <time>2016-03-12T09:01:00.342Z</time>
      </trkpt>
      <trkpt lat="43.72145" lon="5.83811">
        <ele>377</ele>
        <time>2016-03-12T09:01:01.318Z</time>
      </trkpt>
      <trkpt lat="43.72152" lon="5.8381">
        <ele>375</ele>
        <time>2016-03-12T09:01:03.340Z</time>
      </trkpt>
      <trkpt lat="43.72155" lon="5.83811">
        <ele>375</ele>
        <time>2016-03-12T09:01:04.318Z</time>
      </trkpt>
      <trkpt lat="43.72162" lon="5.83814">
        <ele>374</ele>
        <time>2016-03-12T09:01:06.342Z</time>
      </trkpt>
      <trkpt lat="43.72165" lon="5.83815">
        <ele>374</ele>
        <time>2016-03-12T09:01:07.325Z</time>
      </trkpt>
      <trkpt lat="43.72172" lon="5.83818">
        <ele>373</ele>
        <time>2016-03-12T09:01:09.342Z</time>
      </trkpt>
      <trkpt lat="43.72175" lon="5.83819">
        <ele>374</ele>
        <time>2016-03-12T09:01:10.318Z</time>
      </trkpt>
      <trkpt lat="43.72182" lon="5.83822">
        <ele>375</ele>
        <time>2016-03-12T09:01:12.340Z</time>
      </trkpt>
      <trkpt lat="43.72185" lon="5.83824">
        <ele>376</ele>
        <time>2016-03-12T09:01:13.343Z</time>
      </trkpt>
      <trkpt lat="43.72192" lon="5.83829">
        <ele>375</ele>
        <time>2016-03-12T09:01:15.517Z</time>
      </trkpt>
      <trkpt lat="43.72197" lon="5.83833">
        <ele>373</ele>
        <time>2016-03-12T09:01:16.317Z</time>
      </trkpt>
      <trkpt lat="43.72197" lon="5.83833">
        <ele>373</ele>
        <time>2016-03-12T09:01:16.342Z</time>
      </trkpt>
      <trkpt lat="43.72203" lon="5.83842">
        <ele>371</ele>
        <time>2016-03-12T09:01:17.324Z</time>
      </trkpt>
      <trkpt lat="43.72209" lon="5.8385">
        <ele>370</ele>
        <time>2016-03-12T09:01:19.341Z</time>
      </trkpt>
      <trkpt lat="43.72213" lon="5.83854">
        <ele>369</ele>
        <time>2016-03-12T09:01:20.319Z</time>
      </trkpt>
      <trkpt lat="43.72219" lon="5.83861">
        <ele>367</ele>
        <time>2016-03-12T09:01:22.341Z</time>
      </trkpt>
      <trkpt lat="43.72221" lon="5.83864">
        <ele>366</ele>
        <time>2016-03-12T09:01:23.319Z</time>
      </trkpt>
      <trkpt lat="43.72226" lon="5.83872">
        <ele>364</ele>
        <time>2016-03-12T09:01:30.344Z</time>
      </trkpt>
      <trkpt lat="43.72228" lon="5.83873">
        <ele>364</ele>
        <time>2016-03-12T09:01:31.322Z</time>
      </trkpt>
      <trkpt lat="43.72233" lon="5.83881">
        <ele>365</ele>
        <time>2016-03-12T09:01:47.354Z</time>
      </trkpt>
      <trkpt lat="43.72235" lon="5.83884">
        <ele>364</ele>
        <time>2016-03-12T09:01:48.321Z</time>
      </trkpt>
      <trkpt lat="43.72239" lon="5.83892">
        <ele>363</ele>
        <time>2016-03-12T09:01:50.346Z</time>
      </trkpt>
      <trkpt lat="43.72241" lon="5.83898">
        <ele>362</ele>
        <time>2016-03-12T09:01:51.322Z</time>
      </trkpt>
      <trkpt lat="43.72244" lon="5.83904">
        <ele>361</ele>
        <time>2016-03-12T09:01:52.357Z</time>
      </trkpt>
      <trkpt lat="43.72246" lon="5.83912">
        <ele>360</ele>
        <time>2016-03-12T09:01:53.320Z</time>
      </trkpt>
      <trkpt lat="43.72247" lon="5.83918">
        <ele>361</ele>
        <time>2016-03-12T09:01:54.347Z</time>
      </trkpt>
      <trkpt lat="43.72248" lon="5.83924">
        <ele>360</ele>
        <time>2016-03-12T09:01:55.321Z</time>
      </trkpt>
      <trkpt lat="43.72253" lon="5.83929">
        <ele>359</ele>
        <time>2016-03-12T09:01:56.346Z</time>
      </trkpt>
      <trkpt lat="43.72258" lon="5.83933">
        <ele>359</ele>
        <time>2016-03-12T09:01:57.333Z</time>
      </trkpt>
      <trkpt lat="43.72263" lon="5.83936">
        <ele>359</ele>
        <time>2016-03-12T09:01:58.348Z</time>
      </trkpt>
      <trkpt lat="43.72269" lon="5.8394">
        <ele>359</ele>
        <time>2016-03-12T09:01:59.320Z</time>
      </trkpt>
      <trkpt lat="43.72275" lon="5.83946">
        <ele>358</ele>
        <time>2016-03-12T09:02:00.331Z</time>
      </trkpt>
      <trkpt lat="43.72279" lon="5.8395">
        <ele>358</ele>
        <time>2016-03-12T09:02:01.349Z</time>
      </trkpt>
      <trkpt lat="43.72285" lon="5.83957">
        <ele>357</ele>
        <time>2016-03-12T09:02:02.345Z</time>
      </trkpt>
      <trkpt lat="43.72289" lon="5.83965">
        <ele>357</ele>
        <time>2016-03-12T09:02:03.328Z</time>
      </trkpt>
      <trkpt lat="43.72293" lon="5.83969">
        <ele>357</ele>
        <time>2016-03-12T09:02:04.344Z</time>
      </trkpt>
      <trkpt lat="43.72299" lon="5.83972">
        <ele>357</ele>
        <time>2016-03-12T09:02:05.319Z</time>
      </trkpt>
      <trkpt lat="43.72303" lon="5.83973">
        <ele>357</ele>
        <time>2016-03-12T09:02:06.347Z</time>
      </trkpt>
      <trkpt lat="43.72308" lon="5.83977">
        <ele>357</ele>
        <time>2016-03-12T09:02:07.322Z</time>
      </trkpt>
      <trkpt lat="43.72313" lon="5.8398">
        <ele>357</ele>
        <time>2016-03-12T09:02:08.344Z</time>
      </trkpt>
      <trkpt lat="43.72317" lon="5.83983">
        <ele>355</ele>
        <time>2016-03-12T09:02:09.321Z</time>
      </trkpt>
      <trkpt lat="43.72323" lon="5.83986">
        <ele>355</ele>
        <time>2016-03-12T09:02:10.345Z</time>
      </trkpt>
      <trkpt lat="43.72328" lon="5.83989">
        <ele>354</ele>
        <time>2016-03-12T09:02:11.333Z</time>
      </trkpt>
      <trkpt lat="43.72334" lon="5.83992">
        <ele>354</ele>
        <time>2016-03-12T09:02:12.348Z</time>
      </trkpt>
      <trkpt lat="43.72341" lon="5.83994">
        <ele>353</ele>
        <time>2016-03-12T09:02:13.321Z</time>
      </trkpt>
      <trkpt lat="43.72346" lon="5.83995">
        <ele>352</ele>
        <time>2016-03-12T09:02:14.347Z</time>
      </trkpt>
      <trkpt lat="43.72352" lon="5.83996">
        <ele>351</ele>
        <time>2016-03-12T09:02:15.321Z</time>
      </trkpt>
      <trkpt lat="43.72358" lon="5.83997">
        <ele>351</ele>
        <time>2016-03-12T09:02:16.340Z</time>
      </trkpt>
      <trkpt lat="43.72365" lon="5.83998">
        <ele>350</ele>
        <time>2016-03-12T09:02:17.359Z</time>
      </trkpt>
      <trkpt lat="43.72372" lon="5.83998">
        <ele>350</ele>
        <time>2016-03-12T09:02:18.347Z</time>
      </trkpt>
      <trkpt lat="43.72379" lon="5.84">
        <ele>349</ele>
        <time>2016-03-12T09:02:19.317Z</time>
      </trkpt>
      <trkpt lat="43.72384" lon="5.84001">
        <ele>348</ele>
        <time>2016-03-12T09:02:20.346Z</time>
      </trkpt>
      <trkpt lat="43.72391" lon="5.84003">
        <ele>349</ele>
        <time>2016-03-12T09:02:21.320Z</time>
      </trkpt>
      <trkpt lat="43.72396" lon="5.84003">
        <ele>348</ele>
        <time>2016-03-12T09:02:22.347Z</time>
      </trkpt>
      <trkpt lat="43.724" lon="5.84001">
        <ele>346</ele>
        <time>2016-03-12T09:02:23.321Z</time>
      </trkpt>
      <trkpt lat="43.72408" lon="5.83999">
        <ele>346</ele>
        <time>2016-03-12T09:02:25.347Z</time>
      </trkpt>
      <trkpt lat="43.72412" lon="5.83999">
        <ele>347</ele>
        <time>2016-03-12T09:02:26.333Z</time>
      </trkpt>
      <trkpt lat="43.72416" lon="5.83999">
        <ele>347</ele>
        <time>2016-03-12T09:02:27.344Z</time>
      </trkpt>
      <trkpt lat="43.72422" lon="5.84">
        <ele>348</ele>
        <time>2016-03-12T09:02:28.319Z</time>
      </trkpt>
      <trkpt lat="43.72428" lon="5.84003">
        <ele>347</ele>
        <time>2016-03-12T09:02:29.342Z</time>
      </trkpt>
      <trkpt lat="43.72432" lon="5.84006">
        <ele>347</ele>
        <time>2016-03-12T09:02:30.320Z</time>
      </trkpt>
      <trkpt lat="43.7244" lon="5.84011">
        <ele>348</ele>
        <time>2016-03-12T09:02:32.340Z</time>
      </trkpt>
      <trkpt lat="43.72441" lon="5.84012">
        <ele>348</ele>
        <time>2016-03-12T09:02:33.344Z</time>
      </trkpt>
      <trkpt lat="43.72445" lon="5.84021">
        <ele>348</ele>
        <time>2016-03-12T09:03:37.347Z</time>
      </trkpt>
      <trkpt lat="43.72446" lon="5.84023">
        <ele>348</ele>
        <time>2016-03-12T09:03:38.325Z</time>
      </trkpt>
      <trkpt lat="43.72451" lon="5.84032">
        <ele>348</ele>
        <time>2016-03-12T09:03:41.345Z</time>
      </trkpt>
      <trkpt lat="43.72452" lon="5.84035">
        <ele>348</ele>
        <time>2016-03-12T09:03:42.323Z</time>
      </trkpt>
      <trkpt lat="43.72458" lon="5.84043">
        <ele>348</ele>
        <time>2016-03-12T09:03:45.347Z</time>
      </trkpt>
      <trkpt lat="43.72461" lon="5.84044">
        <ele>348</ele>
        <time>2016-03-12T09:03:46.322Z</time>
      </trkpt>
      <trkpt lat="43.72465" lon="5.84054">
        <ele>348</ele>
        <time>2016-03-12T09:03:49.347Z</time>
      </trkpt>
      <trkpt lat="43.72465" lon="5.84057">
        <ele>347</ele>
        <time>2016-03-12T09:03:50.319Z</time>
      </trkpt>
      <trkpt lat="43.72463" lon="5.84067">
        <ele>347</ele>
        <time>2016-03-12T09:03:53.345Z</time>
      </trkpt>
      <trkpt lat="43.72463" lon="5.8407">
        <ele>348</ele>
        <time>2016-03-12T09:03:54.323Z</time>
      </trkpt>
      <trkpt lat="43.72466" lon="5.84081">
        <ele>347</ele>
        <time>2016-03-12T09:03:58.348Z</time>
      </trkpt>
      <trkpt lat="43.72467" lon="5.84083">
        <ele>347</ele>
        <time>2016-03-12T09:03:59.344Z</time>
      </trkpt>
      <trkpt lat="43.72471" lon="5.84091">
        <ele>346</ele>
        <time>2016-03-12T09:04:02.350Z</time>
      </trkpt>
      <trkpt lat="43.72472" lon="5.84094">
        <ele>346</ele>
        <time>2016-03-12T09:04:03.323Z</time>
      </trkpt>
      <trkpt lat="43.72477" lon="5.84101">
        <ele>346</ele>
        <time>2016-03-12T09:04:06.349Z</time>
      </trkpt>
      <trkpt lat="43.72478" lon="5.84103">
        <ele>347</ele>
        <time>2016-03-12T09:04:07.322Z</time>
      </trkpt>
      <trkpt lat="43.72483" lon="5.8411">
        <ele>347</ele>
        <time>2016-03-12T09:04:10.349Z</time>
      </trkpt>
      <trkpt lat="43.72485" lon="5.84112">
        <ele>348</ele>
        <time>2016-03-12T09:04:11.322Z</time>
      </trkpt>
      <trkpt lat="43.7249" lon="5.84118">
        <ele>348</ele>
        <time>2016-03-12T09:04:14.347Z</time>
      </trkpt>
      <trkpt lat="43.72492" lon="5.8412">
        <ele>348</ele>
        <time>2016-03-12T09:04:15.321Z</time>
      </trkpt>
      <trkpt lat="43.72498" lon="5.84126">
        <ele>348</ele>
        <time>2016-03-12T09:04:18.348Z</time>
      </trkpt>
      <trkpt lat="43.72501" lon="5.84129">
        <ele>348</ele>
        <time>2016-03-12T09:04:19.322Z</time>
      </trkpt>
      <trkpt lat="43.72507" lon="5.84134">
        <ele>348</ele>
        <time>2016-03-12T09:04:21.348Z</time>
      </trkpt>
      <trkpt lat="43.7251" lon="5.84136">
        <ele>347</ele>
        <time>2016-03-12T09:04:22.319Z</time>
      </trkpt>
      <trkpt lat="43.72516" lon="5.84142">
        <ele>347</ele>
        <time>2016-03-12T09:04:24.350Z</time>
      </trkpt>
      <trkpt lat="43.72518" lon="5.84145">
        <ele>348</ele>
        <time>2016-03-12T09:04:25.321Z</time>
      </trkpt>
      <trkpt lat="43.72522" lon="5.84149">
        <ele>347</ele>
        <time>2016-03-12T09:04:26.358Z</time>
      </trkpt>
      <trkpt lat="43.72525" lon="5.84153">
        <ele>347</ele>
        <time>2016-03-12T09:04:27.323Z</time>
      </trkpt>
      <trkpt lat="43.72529" lon="5.8416">
        <ele>346</ele>
        <time>2016-03-12T09:04:28.348Z</time>
      </trkpt>
      <trkpt lat="43.72533" lon="5.84165">
        <ele>346</ele>
        <time>2016-03-12T09:04:29.322Z</time>
      </trkpt>
      <trkpt lat="43.72536" lon="5.84169">
        <ele>346</ele>
        <time>2016-03-12T09:04:30.349Z</time>
      </trkpt>
      <trkpt lat="43.72539" lon="5.84174">
        <ele>346</ele>
        <time>2016-03-12T09:04:31.348Z</time>
      </trkpt>
      <trkpt lat="43.72542" lon="5.84179">
        <ele>347</ele>
        <time>2016-03-12T09:04:32.359Z</time>
      </trkpt>
      <trkpt lat="43.72546" lon="5.84183">
        <ele>347</ele>
        <time>2016-03-12T09:04:33.551Z</time>
      </trkpt>
      <trkpt lat="43.72552" lon="5.84192">
        <ele>346</ele>
        <time>2016-03-12T09:04:35.360Z</time>
      </trkpt>
      <trkpt lat="43.72555" lon="5.84196">
        <ele>347</ele>
        <time>2016-03-12T09:04:36.318Z</time>
      </trkpt>
      <trkpt lat="43.72558" lon="5.84201">
        <ele>346</ele>
        <time>2016-03-12T09:04:37.347Z</time>
      </trkpt>
      <trkpt lat="43.72561" lon="5.84205">
        <ele>346</ele>
        <time>2016-03-12T09:04:38.322Z</time>
      </trkpt>
      <trkpt lat="43.72564" lon="5.8421">
        <ele>345</ele>
        <time>2016-03-12T09:04:39.348Z</time>
      </trkpt>
      <trkpt lat="43.72566" lon="5.84215">
        <ele>345</ele>
        <time>2016-03-12T09:04:40.333Z</time>
      </trkpt>
      <trkpt lat="43.72571" lon="5.84225">
        <ele>344</ele>
        <time>2016-03-12T09:04:42.377Z</time>
      </trkpt>
      <trkpt lat="43.72574" lon="5.8423">
        <ele>344</ele>
        <time>2016-03-12T09:04:43.326Z</time>
      </trkpt>
      <trkpt lat="43.72578" lon="5.84241">
        <ele>343</ele>
        <time>2016-03-12T09:04:45.343Z</time>
      </trkpt>
      <trkpt lat="43.7258" lon="5.84247">
        <ele>343</ele>
        <time>2016-03-12T09:04:46.321Z</time>
      </trkpt>
      <trkpt lat="43.72583" lon="5.84252">
        <ele>343</ele>
        <time>2016-03-12T09:04:47.336Z</time>
      </trkpt>
      <trkpt lat="43.72586" lon="5.84259">
        <ele>343</ele>
        <time>2016-03-12T09:04:48.320Z</time>
      </trkpt>
      <trkpt lat="43.72589" lon="5.84264">
        <ele>343</ele>
        <time>2016-03-12T09:04:49.342Z</time>
      </trkpt>
      <trkpt lat="43.72592" lon="5.84269">
        <ele>342</ele>
        <time>2016-03-12T09:04:50.321Z</time>
      </trkpt>
      <trkpt lat="43.72595" lon="5.84275">
        <ele>342</ele>
        <time>2016-03-12T09:04:51.348Z</time>
      </trkpt>
      <trkpt lat="43.72598" lon="5.84281">
        <ele>341</ele>
        <time>2016-03-12T09:04:52.322Z</time>
      </trkpt>
      <trkpt lat="43.72601" lon="5.84287">
        <ele>341</ele>
        <time>2016-03-12T09:04:53.382Z</time>
      </trkpt>
      <trkpt lat="43.72604" lon="5.84293">
        <ele>340</ele>
        <time>2016-03-12T09:04:54.321Z</time>
      </trkpt>
      <trkpt lat="43.72607" lon="5.84299">
        <ele>340</ele>
        <time>2016-03-12T09:04:55.426Z</time>
      </trkpt>
      <trkpt lat="43.7261" lon="5.84304">
        <ele>340</ele>
        <time>2016-03-12T09:04:56.321Z</time>
      </trkpt>
      <trkpt lat="43.72613" lon="5.8431">
        <ele>340</ele>
        <time>2016-03-12T09:04:57.346Z</time>
      </trkpt>
      <trkpt lat="43.72616" lon="5.84315">
        <ele>340</ele>
        <time>2016-03-12T09:04:58.325Z</time>
      </trkpt>
      <trkpt lat="43.72619" lon="5.84321">
        <ele>339</ele>
        <time>2016-03-12T09:04:59.352Z</time>
      </trkpt>
      <trkpt lat="43.72622" lon="5.84326">
        <ele>339</ele>
        <time>2016-03-12T09:05:00.323Z</time>
      </trkpt>
      <trkpt lat="43.72624" lon="5.84332">
        <ele>339</ele>
        <time>2016-03-12T09:05:01.334Z</time>
      </trkpt>
      <trkpt lat="43.72627" lon="5.84337">
        <ele>339</ele>
        <time>2016-03-12T09:05:02.325Z</time>
      </trkpt>
      <trkpt lat="43.7263" lon="5.84343">
        <ele>340</ele>
        <time>2016-03-12T09:05:03.348Z</time>
      </trkpt>
      <trkpt lat="43.72633" lon="5.84348">
        <ele>340</ele>
        <time>2016-03-12T09:05:04.321Z</time>
      </trkpt>
      <trkpt lat="43.72635" lon="5.84354">
        <ele>340</ele>
        <time>2016-03-12T09:05:05.345Z</time>
      </trkpt>
      <trkpt lat="43.72638" lon="5.84359">
        <ele>341</ele>
        <time>2016-03-12T09:05:06.330Z</time>
      </trkpt>
      <trkpt lat="43.72643" lon="5.84369">
        <ele>341</ele>
        <time>2016-03-12T09:05:08.349Z</time>
      </trkpt>
      <trkpt lat="43.72645" lon="5.84374">
        <ele>340</ele>
        <time>2016-03-12T09:05:09.350Z</time>
      </trkpt>
      <trkpt lat="43.7265" lon="5.84384">
        <ele>341</ele>
        <time>2016-03-12T09:05:11.348Z</time>
      </trkpt>
      <trkpt lat="43.72653" lon="5.84389">
        <ele>341</ele>
        <time>2016-03-12T09:05:12.323Z</time>
      </trkpt>
      <trkpt lat="43.72658" lon="5.84399">
        <ele>341</ele>
        <time>2016-03-12T09:05:14.344Z</time>
      </trkpt>
      <trkpt lat="43.7266" lon="5.84404">
        <ele>341</ele>
        <time>2016-03-12T09:05:15.321Z</time>
      </trkpt>
      <trkpt lat="43.72665" lon="5.84413">
        <ele>341</ele>
        <time>2016-03-12T09:05:17.365Z</time>
      </trkpt>
      <trkpt lat="43.72667" lon="5.84417">
        <ele>341</ele>
        <time>2016-03-12T09:05:18.322Z</time>
      </trkpt>
      <trkpt lat="43.72672" lon="5.84426">
        <ele>341</ele>
        <time>2016-03-12T09:05:20.366Z</time>
      </trkpt>
      <trkpt lat="43.72674" lon="5.8443">
        <ele>342</ele>
        <time>2016-03-12T09:05:21.321Z</time>
      </trkpt>
      <trkpt lat="43.72677" lon="5.8444">
        <ele>341</ele>
        <time>2016-03-12T09:05:23.362Z</time>
      </trkpt>
      <trkpt lat="43.72679" lon="5.84445">
        <ele>341</ele>
        <time>2016-03-12T09:05:24.333Z</time>
      </trkpt>
      <trkpt lat="43.72681" lon="5.84456">
        <ele>342</ele>
        <time>2016-03-12T09:05:26.365Z</time>
      </trkpt>
      <trkpt lat="43.72681" lon="5.84462">
        <ele>341</ele>
        <time>2016-03-12T09:05:27.322Z</time>
      </trkpt>
      <trkpt lat="43.72683" lon="5.84472">
        <ele>342</ele>
        <time>2016-03-12T09:05:29.369Z</time>
      </trkpt>
      <trkpt lat="43.72685" lon="5.84477">
        <ele>342</ele>
        <time>2016-03-12T09:05:30.326Z</time>
      </trkpt>
      <trkpt lat="43.72692" lon="5.8448">
        <ele>342</ele>
        <time>2016-03-12T09:05:32.352Z</time>
      </trkpt>
      <trkpt lat="43.72696" lon="5.84481">
        <ele>342</ele>
        <time>2016-03-12T09:05:33.324Z</time>
      </trkpt>
      <trkpt lat="43.72701" lon="5.84488">
        <ele>342</ele>
        <time>2016-03-12T09:05:35.377Z</time>
      </trkpt>
      <trkpt lat="43.72702" lon="5.84497">
        <ele>342</ele>
        <time>2016-03-12T09:05:36.355Z</time>
      </trkpt>
      <trkpt lat="43.72704" lon="5.84504">
        <ele>342</ele>
        <time>2016-03-12T09:05:37.347Z</time>
      </trkpt>
      <trkpt lat="43.72706" lon="5.84511">
        <ele>341</ele>
        <time>2016-03-12T09:05:38.333Z</time>
      </trkpt>
      <trkpt lat="43.72709" lon="5.84516">
        <ele>340</ele>
        <time>2016-03-12T09:05:39.350Z</time>
      </trkpt>
      <trkpt lat="43.72713" lon="5.8452">
        <ele>340</ele>
        <time>2016-03-12T09:05:40.324Z</time>
      </trkpt>
      <trkpt lat="43.72718" lon="5.84522">
        <ele>339</ele>
        <time>2016-03-12T09:05:41.348Z</time>
      </trkpt>
      <trkpt lat="43.72724" lon="5.84526">
        <ele>339</ele>
        <time>2016-03-12T09:05:42.323Z</time>
      </trkpt>
      <trkpt lat="43.7273" lon="5.8453">
        <ele>339</ele>
        <time>2016-03-12T09:05:43.346Z</time>
      </trkpt>
      <trkpt lat="43.72737" lon="5.84533">
        <ele>339</ele>
        <time>2016-03-12T09:05:44.323Z</time>
      </trkpt>
      <trkpt lat="43.72743" lon="5.84536">
        <ele>339</ele>
        <time>2016-03-12T09:05:45.349Z</time>
      </trkpt>
      <trkpt lat="43.72749" lon="5.84538">
        <ele>339</ele>
        <time>2016-03-12T09:05:46.323Z</time>
      </trkpt>
      <trkpt lat="43.72756" lon="5.8454">
        <ele>339</ele>
        <time>2016-03-12T09:05:47.353Z</time>
      </trkpt>
      <trkpt lat="43.72762" lon="5.84541">
        <ele>339</ele>
        <time>2016-03-12T09:05:48.322Z</time>
      </trkpt>
      <trkpt lat="43.72769" lon="5.84541">
        <ele>340</ele>
        <time>2016-03-12T09:05:49.348Z</time>
      </trkpt>
      <trkpt lat="43.72774" lon="5.84541">
        <ele>340</ele>
        <time>2016-03-12T09:05:50.323Z</time>
      </trkpt>
      <trkpt lat="43.7278" lon="5.8454">
        <ele>341</ele>
        <time>2016-03-12T09:05:51.346Z</time>
      </trkpt>
      <trkpt lat="43.72786" lon="5.84539">
        <ele>342</ele>
        <time>2016-03-12T09:05:52.357Z</time>
      </trkpt>
      <trkpt lat="43.72791" lon="5.84538">
        <ele>342</ele>
        <time>2016-03-12T09:05:53.348Z</time>
      </trkpt>
      <trkpt lat="43.72796" lon="5.84536">
        <ele>342</ele>
        <time>2016-03-12T09:05:54.322Z</time>
      </trkpt>
      <trkpt lat="43.72801" lon="5.84534">
        <ele>343</ele>
        <time>2016-03-12T09:05:55.345Z</time>
      </trkpt>
      <trkpt lat="43.72807" lon="5.84531">
        <ele>343</ele>
        <time>2016-03-12T09:05:56.323Z</time>
      </trkpt>
      <trkpt lat="43.72812" lon="5.84529">
        <ele>343</ele>
        <time>2016-03-12T09:05:57.348Z</time>
      </trkpt>
      <trkpt lat="43.72816" lon="5.84527">
        <ele>344</ele>
        <time>2016-03-12T09:05:58.323Z</time>
      </trkpt>
      <trkpt lat="43.72821" lon="5.84525">
        <ele>344</ele>
        <time>2016-03-12T09:05:59.350Z</time>
      </trkpt>
      <trkpt lat="43.72827" lon="5.84523">
        <ele>344</ele>
        <time>2016-03-12T09:06:00.317Z</time>
      </trkpt>
      <trkpt lat="43.72832" lon="5.84522">
        <ele>344</ele>
        <time>2016-03-12T09:06:01.362Z</time>
      </trkpt>
      <trkpt lat="43.72837" lon="5.8452">
        <ele>345</ele>
        <time>2016-03-12T09:06:02.324Z</time>
      </trkpt>
      <trkpt lat="43.72842" lon="5.84518">
        <ele>344</ele>
        <time>2016-03-12T09:06:03.414Z</time>
      </trkpt>
      <trkpt lat="43.72846" lon="5.84516">
        <ele>344</ele>
        <time>2016-03-12T09:06:04.322Z</time>
      </trkpt>
      <trkpt lat="43.72851" lon="5.84513">
        <ele>345</ele>
        <time>2016-03-12T09:06:05.348Z</time>
      </trkpt>
      <trkpt lat="43.72856" lon="5.84511">
        <ele>345</ele>
        <time>2016-03-12T09:06:06.321Z</time>
      </trkpt>
      <trkpt lat="43.7286" lon="5.84508">
        <ele>344</ele>
        <time>2016-03-12T09:06:07.356Z</time>
      </trkpt>
      <trkpt lat="43.72865" lon="5.84506">
        <ele>344</ele>
        <time>2016-03-12T09:06:08.323Z</time>
      </trkpt>
      <trkpt lat="43.72874" lon="5.84503">
        <ele>344</ele>
        <time>2016-03-12T09:06:10.346Z</time>
      </trkpt>
      <trkpt lat="43.72879" lon="5.84501">
        <ele>345</ele>
        <time>2016-03-12T09:06:11.322Z</time>
      </trkpt>
      <trkpt lat="43.72884" lon="5.84498">
        <ele>344</ele>
        <time>2016-03-12T09:06:12.343Z</time>
      </trkpt>
      <trkpt lat="43.72888" lon="5.84496">
        <ele>344</ele>
        <time>2016-03-12T09:06:13.324Z</time>
      </trkpt>
      <trkpt lat="43.72892" lon="5.84494">
        <ele>345</ele>
        <time>2016-03-12T09:06:14.348Z</time>
      </trkpt>
      <trkpt lat="43.72897" lon="5.84491">
        <ele>345</ele>
        <time>2016-03-12T09:06:15.322Z</time>
      </trkpt>
      <trkpt lat="43.72903" lon="5.84489">
        <ele>345</ele>
        <time>2016-03-12T09:06:16.352Z</time>
      </trkpt>
      <trkpt lat="43.72907" lon="5.84487">
        <ele>344</ele>
        <time>2016-03-12T09:06:17.320Z</time>
      </trkpt>
      <trkpt lat="43.72912" lon="5.84484">
        <ele>343</ele>
        <time>2016-03-12T09:06:18.349Z</time>
      </trkpt>
      <trkpt lat="43.72917" lon="5.84482">
        <ele>343</ele>
        <time>2016-03-12T09:06:19.350Z</time>
      </trkpt>
      <trkpt lat="43.72922" lon="5.8448">
        <ele>343</ele>
        <time>2016-03-12T09:06:20.345Z</time>
      </trkpt>
      <trkpt lat="43.72928" lon="5.84478">
        <ele>343</ele>
        <time>2016-03-12T09:06:21.319Z</time>
      </trkpt>
      <trkpt lat="43.72932" lon="5.84476">
        <ele>343</ele>
        <time>2016-03-12T09:06:22.364Z</time>
      </trkpt>
      <trkpt lat="43.72937" lon="5.84474">
        <ele>343</ele>
        <time>2016-03-12T09:06:23.322Z</time>
      </trkpt>
      <trkpt lat="43.72943" lon="5.84472">
        <ele>343</ele>
        <time>2016-03-12T09:06:24.348Z</time>
      </trkpt>
      <trkpt lat="43.72947" lon="5.84469">
        <ele>344</ele>
        <time>2016-03-12T09:06:25.546Z</time>
      </trkpt>
      <trkpt lat="43.72952" lon="5.84467">
        <ele>343</ele>
        <time>2016-03-12T09:06:26.361Z</time>
      </trkpt>
      <trkpt lat="43.72957" lon="5.84464">
        <ele>343</ele>
        <time>2016-03-12T09:06:27.322Z</time>
      </trkpt>
      <trkpt lat="43.72963" lon="5.84463">
        <ele>342</ele>
        <time>2016-03-12T09:06:28.350Z</time>
      </trkpt>
      <trkpt lat="43.72968" lon="5.8446">
        <ele>344</ele>
        <time>2016-03-12T09:06:29.323Z</time>
      </trkpt>
      <trkpt lat="43.72972" lon="5.84458">
        <ele>344</ele>
        <time>2016-03-12T09:06:30.344Z</time>
      </trkpt>
      <trkpt lat="43.72978" lon="5.84456">
        <ele>345</ele>
        <time>2016-03-12T09:06:31.322Z</time>
      </trkpt>
      <trkpt lat="43.72986" lon="5.84453">
        <ele>345</ele>
        <time>2016-03-12T09:06:33.348Z</time>
      </trkpt>
      <trkpt lat="43.7299" lon="5.84451">
        <ele>347</ele>
        <time>2016-03-12T09:06:34.322Z</time>
      </trkpt>
      <trkpt lat="43.72997" lon="5.8445">
        <ele>346</ele>
        <time>2016-03-12T09:06:36.348Z</time>
      </trkpt>
      <trkpt lat="43.73002" lon="5.84452">
        <ele>346</ele>
        <time>2016-03-12T09:06:37.322Z</time>
      </trkpt>
      <trkpt lat="43.73009" lon="5.84452">
        <ele>344</ele>
        <time>2016-03-12T09:06:39.348Z</time>
      </trkpt>
      <trkpt lat="43.73012" lon="5.84452">
        <ele>343</ele>
        <time>2016-03-12T09:06:40.318Z</time>
      </trkpt>
      <trkpt lat="43.7302" lon="5.84448">
        <ele>344</ele>
        <time>2016-03-12T09:06:42.348Z</time>
      </trkpt>
      <trkpt lat="43.73023" lon="5.84447">
        <ele>344</ele>
        <time>2016-03-12T09:06:43.327Z</time>
      </trkpt>
      <trkpt lat="43.7303" lon="5.84441">
        <ele>344</ele>
        <time>2016-03-12T09:06:45.347Z</time>
      </trkpt>
      <trkpt lat="43.73032" lon="5.84439">
        <ele>343</ele>
        <time>2016-03-12T09:06:46.347Z</time>
      </trkpt>
      <trkpt lat="43.73039" lon="5.84436">
        <ele>342</ele>
        <time>2016-03-12T09:06:49.362Z</time>
      </trkpt>
      <trkpt lat="43.73041" lon="5.84434">
        <ele>341</ele>
        <time>2016-03-12T09:06:50.326Z</time>
      </trkpt>
      <trkpt lat="43.73047" lon="5.84429">
        <ele>342</ele>
        <time>2016-03-12T09:06:52.362Z</time>
      </trkpt>
      <trkpt lat="43.73049" lon="5.84427">
        <ele>342</ele>
        <time>2016-03-12T09:06:53.322Z</time>
      </trkpt>
      <trkpt lat="43.73055" lon="5.84424">
        <ele>342</ele>
        <time>2016-03-12T09:06:55.344Z</time>
      </trkpt>
      <trkpt lat="43.73058" lon="5.84422">
        <ele>341</ele>
        <time>2016-03-12T09:06:56.319Z</time>
      </trkpt>
      <trkpt lat="43.73066" lon="5.84417">
        <ele>339</ele>
        <time>2016-03-12T09:06:59.348Z</time>
      </trkpt>
      <trkpt lat="43.73069" lon="5.84416">
        <ele>339</ele>
        <time>2016-03-12T09:07:00.356Z</time>
      </trkpt>
      <trkpt lat="43.73076" lon="5.84411">
        <ele>339</ele>
        <time>2016-03-12T09:07:02.381Z</time>
      </trkpt>
      <trkpt lat="43.73079" lon="5.84408">
        <ele>339</ele>
        <time>2016-03-12T09:07:03.323Z</time>
      </trkpt>
      <trkpt lat="43.73086" lon="5.84401">
        <ele>337</ele>
        <time>2016-03-12T09:07:05.355Z</time>
      </trkpt>
      <trkpt lat="43.73089" lon="5.84398">
        <ele>339</ele>
        <time>2016-03-12T09:07:06.311Z</time>
      </trkpt>
      <trkpt lat="43.73096" lon="5.84392">
        <ele>339</ele>
        <time>2016-03-12T09:07:08.339Z</time>
      </trkpt>
      <trkpt lat="43.73099" lon="5.84389">
        <ele>339</ele>
        <time>2016-03-12T09:07:09.320Z</time>
      </trkpt>
      <trkpt lat="43.73105" lon="5.84383">
        <ele>339</ele>
        <time>2016-03-12T09:07:11.329Z</time>
      </trkpt>
      <trkpt lat="43.73108" lon="5.8438">
        <ele>340</ele>
        <time>2016-03-12T09:07:12.320Z</time>
      </trkpt>
      <trkpt lat="43.73115" lon="5.84373">
        <ele>341</ele>
        <time>2016-03-12T09:07:14.341Z</time>
      </trkpt>
      <trkpt lat="43.73118" lon="5.8437">
        <ele>342</ele>
        <time>2016-03-12T09:07:15.321Z</time>
      </trkpt>
      <trkpt lat="43.73126" lon="5.84365">
        <ele>342</ele>
        <time>2016-03-12T09:07:17.344Z</time>
      </trkpt>
      <trkpt lat="43.7313" lon="5.84362">
        <ele>341</ele>
        <time>2016-03-12T09:07:18.327Z</time>
      </trkpt>
      <trkpt lat="43.73137" lon="5.84357">
        <ele>338</ele>
        <time>2016-03-12T09:07:20.339Z</time>
      </trkpt>
      <trkpt lat="43.7314" lon="5.84355">
        <ele>338</ele>
        <time>2016-03-12T09:07:21.320Z</time>
      </trkpt>
      <trkpt lat="43.73146" lon="5.84349">
        <ele>338</ele>
        <time>2016-03-12T09:07:23.347Z</time>
      </trkpt>
      <trkpt lat="43.73148" lon="5.84346">
        <ele>339</ele>
        <time>2016-03-12T09:07:24.323Z</time>
      </trkpt>
      <trkpt lat="43.73153" lon="5.84341">
        <ele>339</ele>
        <time>2016-03-12T09:07:26.350Z</time>
      </trkpt>
      <trkpt lat="43.73155" lon="5.84338">
        <ele>339</ele>
        <time>2016-03-12T09:07:27.323Z</time>
      </trkpt>
      <trkpt lat="43.73159" lon="5.84331">
        <ele>337</ele>
        <time>2016-03-12T09:07:29.378Z</time>
      </trkpt>
      <trkpt lat="43.73162" lon="5.84328">
        <ele>338</ele>
        <time>2016-03-12T09:07:30.322Z</time>
      </trkpt>
      <trkpt lat="43.73168" lon="5.84322">
        <ele>339</ele>
        <time>2016-03-12T09:07:32.349Z</time>
      </trkpt>
      <trkpt lat="43.73172" lon="5.84319">
        <ele>338</ele>
        <time>2016-03-12T09:07:33.323Z</time>
      </trkpt>
      <trkpt lat="43.73179" lon="5.84312">
        <ele>338</ele>
        <time>2016-03-12T09:07:35.349Z</time>
      </trkpt>
      <trkpt lat="43.73185" lon="5.84309">
        <ele>338</ele>
        <time>2016-03-12T09:07:36.323Z</time>
      </trkpt>
      <trkpt lat="43.73193" lon="5.84305">
        <ele>338</ele>
        <time>2016-03-12T09:07:38.394Z</time>
      </trkpt>
      <trkpt lat="43.73197" lon="5.84301">
        <ele>338</ele>
        <time>2016-03-12T09:07:39.322Z</time>
      </trkpt>
      <trkpt lat="43.73204" lon="5.84293">
        <ele>338</ele>
        <time>2016-03-12T09:07:41.348Z</time>
      </trkpt>
      <trkpt lat="43.73206" lon="5.8429">
        <ele>337</ele>
        <time>2016-03-12T09:07:42.323Z</time>
      </trkpt>
      <trkpt lat="43.7321" lon="5.8428">
        <ele>338</ele>
        <time>2016-03-12T09:07:44.361Z</time>
      </trkpt>
      <trkpt lat="43.73212" lon="5.84279">
        <ele>338</ele>
        <time>2016-03-12T09:07:45.323Z</time>
      </trkpt>
      <trkpt lat="43.73217" lon="5.84274">
        <ele>336</ele>
        <time>2016-03-12T09:07:47.425Z</time>
      </trkpt>
      <trkpt lat="43.7322" lon="5.84271">
        <ele>335</ele>
        <time>2016-03-12T09:07:48.319Z</time>
      </trkpt>
      <trkpt lat="43.73224" lon="5.84263">
        <ele>335</ele>
        <time>2016-03-12T09:07:50.350Z</time>
      </trkpt>
      <trkpt lat="43.73226" lon="5.84259">
        <ele>336</ele>
        <time>2016-03-12T09:07:51.349Z</time>
      </trkpt>
      <trkpt lat="43.7323" lon="5.84251">
        <ele>336</ele>
        <time>2016-03-12T09:07:53.350Z</time>
      </trkpt>
      <trkpt lat="43.7323" lon="5.84246">
        <ele>337</ele>
        <time>2016-03-12T09:07:54.334Z</time>
      </trkpt>
      <trkpt lat="43.73229" lon="5.84237">
        <ele>338</ele>
        <time>2016-03-12T09:08:07.338Z</time>
      </trkpt>
      <trkpt lat="43.7323" lon="5.84234">
        <ele>338</ele>
        <time>2016-03-12T09:08:08.322Z</time>
      </trkpt>
      <trkpt lat="43.73233" lon="5.84223">
        <ele>337</ele>
        <time>2016-03-12T09:08:11.344Z</time>
      </trkpt>
      <trkpt lat="43.73235" lon="5.8422">
        <ele>338</ele>
        <time>2016-03-12T09:08:12.321Z</time>
      </trkpt>
      <trkpt lat="43.73239" lon="5.84212">
        <ele>338</ele>
        <time>2016-03-12T09:08:14.341Z</time>
      </trkpt>
      <trkpt lat="43.73241" lon="5.84208">
        <ele>337</ele>
        <time>2016-03-12T09:08:15.320Z</time>
      </trkpt>
      <trkpt lat="43.73245" lon="5.842">
        <ele>337</ele>
        <time>2016-03-12T09:08:17.344Z</time>
      </trkpt>
      <trkpt lat="43.73247" lon="5.84196">
        <ele>338</ele>
        <time>2016-03-12T09:08:18.320Z</time>
      </trkpt>
      <trkpt lat="43.73252" lon="5.84186">
        <ele>337</ele>
        <time>2016-03-12T09:08:20.530Z</time>
      </trkpt>
      <trkpt lat="43.73254" lon="5.84181">
        <ele>338</ele>
        <time>2016-03-12T09:08:21.317Z</time>
      </trkpt>
      <trkpt lat="43.73258" lon="5.84172">
        <ele>338</ele>
        <time>2016-03-12T09:08:23.338Z</time>
      </trkpt>
      <trkpt lat="43.7326" lon="5.84167">
        <ele>338</ele>
        <time>2016-03-12T09:08:24.319Z</time>
      </trkpt>
      <trkpt lat="43.73265" lon="5.84158">
        <ele>338</ele>
        <time>2016-03-12T09:08:26.342Z</time>
      </trkpt>
      <trkpt lat="43.73267" lon="5.84153">
        <ele>338</ele>
        <time>2016-03-12T09:08:27.320Z</time>
      </trkpt>
      <trkpt lat="43.73268" lon="5.84142">
        <ele>336</ele>
        <time>2016-03-12T09:08:29.355Z</time>
      </trkpt>
      <trkpt lat="43.73268" lon="5.84136">
        <ele>336</ele>
        <time>2016-03-12T09:08:30.322Z</time>
      </trkpt>
      <trkpt lat="43.73266" lon="5.84125">
        <ele>335</ele>
        <time>2016-03-12T09:08:32.581Z</time>
      </trkpt>
      <trkpt lat="43.73264" lon="5.8412">
        <ele>335</ele>
        <time>2016-03-12T09:08:33.336Z</time>
      </trkpt>
      <trkpt lat="43.73258" lon="5.84113">
        <ele>336</ele>
        <time>2016-03-12T09:08:35.359Z</time>
      </trkpt>
      <trkpt lat="43.73255" lon="5.8411">
        <ele>336</ele>
        <time>2016-03-12T09:08:36.322Z</time>
      </trkpt>
      <trkpt lat="43.73249" lon="5.84104">
        <ele>336</ele>
        <time>2016-03-12T09:08:38.349Z</time>
      </trkpt>
      <trkpt lat="43.73246" lon="5.84101">
        <ele>337</ele>
        <time>2016-03-12T09:08:39.322Z</time>
      </trkpt>
      <trkpt lat="43.7324" lon="5.84094">
        <ele>338</ele>
        <time>2016-03-12T09:08:41.349Z</time>
      </trkpt>
      <trkpt lat="43.73237" lon="5.8409">
        <ele>339</ele>
        <time>2016-03-12T09:08:42.324Z</time>
      </trkpt>
      <trkpt lat="43.73235" lon="5.84081">
        <ele>338</ele>
        <time>2016-03-12T09:08:44.412Z</time>
      </trkpt>
      <trkpt lat="43.73233" lon="5.84076">
        <ele>338</ele>
        <time>2016-03-12T09:08:45.324Z</time>
      </trkpt>
      <trkpt lat="43.73228" lon="5.84071">
        <ele>336</ele>
        <time>2016-03-12T09:08:47.348Z</time>
      </trkpt>
      <trkpt lat="43.73224" lon="5.84068">
        <ele>335</ele>
        <time>2016-03-12T09:08:48.323Z</time>
      </trkpt>
      <trkpt lat="43.73218" lon="5.84062">
        <ele>334</ele>
        <time>2016-03-12T09:08:50.376Z</time>
      </trkpt>
      <trkpt lat="43.73215" lon="5.84058">
        <ele>333</ele>
        <time>2016-03-12T09:08:51.322Z</time>
      </trkpt>
      <trkpt lat="43.73209" lon="5.84051">
        <ele>333</ele>
        <time>2016-03-12T09:08:53.349Z</time>
      </trkpt>
      <trkpt lat="43.73208" lon="5.84047">
        <ele>337</ele>
        <time>2016-03-12T09:08:54.324Z</time>
      </trkpt>
      <trkpt lat="43.73203" lon="5.8404">
        <ele>337</ele>
        <time>2016-03-12T09:08:56.348Z</time>
      </trkpt>
      <trkpt lat="43.73201" lon="5.84037">
        <ele>337</ele>
        <time>2016-03-12T09:08:57.322Z</time>
      </trkpt>
      <trkpt lat="43.73197" lon="5.84029">
        <ele>336</ele>
        <time>2016-03-12T09:08:59.350Z</time>
      </trkpt>
      <trkpt lat="43.73195" lon="5.84026">
        <ele>337</ele>
        <time>2016-03-12T09:09:00.323Z</time>
      </trkpt>
      <trkpt lat="43.73191" lon="5.8402">
        <ele>336</ele>
        <time>2016-03-12T09:09:02.349Z</time>
      </trkpt>
      <trkpt lat="43.73189" lon="5.84017">
        <ele>336</ele>
        <time>2016-03-12T09:09:03.324Z</time>
      </trkpt>
      <trkpt lat="43.73184" lon="5.84011">
        <ele>336</ele>
        <time>2016-03-12T09:09:05.349Z</time>
      </trkpt>
      <trkpt lat="43.73182" lon="5.84007">
        <ele>336</ele>
        <time>2016-03-12T09:09:06.348Z</time>
      </trkpt>
      <trkpt lat="43.73177" lon="5.84001">
        <ele>336</ele>
        <time>2016-03-12T09:09:08.580Z</time>
      </trkpt>
      <trkpt lat="43.73175" lon="5.83998">
        <ele>337</ele>
        <time>2016-03-12T09:09:09.324Z</time>
      </trkpt>
      <trkpt lat="43.73172" lon="5.8399">
        <ele>337</ele>
        <time>2016-03-12T09:09:11.350Z</time>
      </trkpt>
      <trkpt lat="43.7317" lon="5.83986">
        <ele>336</ele>
        <time>2016-03-12T09:09:12.324Z</time>
      </trkpt>
      <trkpt lat="43.73166" lon="5.83979">
        <ele>336</ele>
        <time>2016-03-12T09:09:14.350Z</time>
      </trkpt>
      <trkpt lat="43.73163" lon="5.83976">
        <ele>336</ele>
        <time>2016-03-12T09:09:15.322Z</time>
      </trkpt>
      <trkpt lat="43.73157" lon="5.83969">
        <ele>334</ele>
        <time>2016-03-12T09:09:17.370Z</time>
      </trkpt>
      <trkpt lat="43.73155" lon="5.83965">
        <ele>334</ele>
        <time>2016-03-12T09:09:18.322Z</time>
      </trkpt>
      <trkpt lat="43.7315" lon="5.83957">
        <ele>334</ele>
        <time>2016-03-12T09:09:20.346Z</time>
      </trkpt>
      <trkpt lat="43.73147" lon="5.83953">
        <ele>332</ele>
        <time>2016-03-12T09:09:21.323Z</time>
      </trkpt>
      <trkpt lat="43.73144" lon="5.83946">
        <ele>332</ele>
        <time>2016-03-12T09:09:23.345Z</time>
      </trkpt>
      <trkpt lat="43.73142" lon="5.83943">
        <ele>331</ele>
        <time>2016-03-12T09:09:24.323Z</time>
      </trkpt>
      <trkpt lat="43.73138" lon="5.83936">
        <ele>330</ele>
        <time>2016-03-12T09:09:26.348Z</time>
      </trkpt>
      <trkpt lat="43.73136" lon="5.83932">
        <ele>332</ele>
        <time>2016-03-12T09:09:27.322Z</time>
      </trkpt>
      <trkpt lat="43.73132" lon="5.83923">
        <ele>334</ele>
        <time>2016-03-12T09:09:29.350Z</time>
      </trkpt>
      <trkpt lat="43.73129" lon="5.83919">
        <ele>332</ele>
        <time>2016-03-12T09:09:30.322Z</time>
      </trkpt>
      <trkpt lat="43.73124" lon="5.8391">
        <ele>331</ele>
        <time>2016-03-12T09:09:32.348Z</time>
      </trkpt>
      <trkpt lat="43.73121" lon="5.83905">
        <ele>330</ele>
        <time>2016-03-12T09:09:33.347Z</time>
      </trkpt>
      <trkpt lat="43.73115" lon="5.83896">
        <ele>331</ele>
        <time>2016-03-12T09:09:35.351Z</time>
      </trkpt>
      <trkpt lat="43.73113" lon="5.8389">
        <ele>331</ele>
        <time>2016-03-12T09:09:36.324Z</time>
      </trkpt>
      <trkpt lat="43.73107" lon="5.83882">
        <ele>330</ele>
        <time>2016-03-12T09:09:38.347Z</time>
      </trkpt>
      <trkpt lat="43.73105" lon="5.83877">
        <ele>330</ele>
        <time>2016-03-12T09:09:39.323Z</time>
      </trkpt>
      <trkpt lat="43.731" lon="5.83868">
        <ele>329</ele>
        <time>2016-03-12T09:09:41.349Z</time>
      </trkpt>
      <trkpt lat="43.73098" lon="5.83863">
        <ele>330</ele>
        <time>2016-03-12T09:09:42.322Z</time>
      </trkpt>
      <trkpt lat="43.73095" lon="5.83852">
        <ele>331</ele>
        <time>2016-03-12T09:09:44.372Z</time>
      </trkpt>
      <trkpt lat="43.73093" lon="5.83848">
        <ele>331</ele>
        <time>2016-03-12T09:09:45.323Z</time>
      </trkpt>
      <trkpt lat="43.7309" lon="5.83839">
        <ele>332</ele>
        <time>2016-03-12T09:09:47.352Z</time>
      </trkpt>
      <trkpt lat="43.73089" lon="5.83835">
        <ele>332</ele>
        <time>2016-03-12T09:09:48.327Z</time>
      </trkpt>
      <trkpt lat="43.73087" lon="5.83827">
        <ele>330</ele>
        <time>2016-03-12T09:09:50.347Z</time>
      </trkpt>
      <trkpt lat="43.73086" lon="5.83822">
        <ele>329</ele>
        <time>2016-03-12T09:09:51.323Z</time>
      </trkpt>
      <trkpt lat="43.73081" lon="5.83813">
        <ele>329</ele>
        <time>2016-03-12T09:09:53.355Z</time>
      </trkpt>
      <trkpt lat="43.73079" lon="5.83809">
        <ele>328</ele>
        <time>2016-03-12T09:09:54.322Z</time>
      </trkpt>
      <trkpt lat="43.73075" lon="5.83799">
        <ele>330</ele>
        <time>2016-03-12T09:09:56.351Z</time>
      </trkpt>
      <trkpt lat="43.73073" lon="5.83794">
        <ele>331</ele>
        <time>2016-03-12T09:09:57.324Z</time>
      </trkpt>
      <trkpt lat="43.73068" lon="5.83785">
        <ele>332</ele>
        <time>2016-03-12T09:09:59.351Z</time>
      </trkpt>
      <trkpt lat="43.73066" lon="5.8378">
        <ele>332</ele>
        <time>2016-03-12T09:10:00.350Z</time>
      </trkpt>
      <trkpt lat="43.73064" lon="5.83769">
        <ele>335</ele>
        <time>2016-03-12T09:10:02.351Z</time>
      </trkpt>
      <trkpt lat="43.73063" lon="5.83764">
        <ele>335</ele>
        <time>2016-03-12T09:10:03.322Z</time>
      </trkpt>
      <trkpt lat="43.73062" lon="5.83754">
        <ele>335</ele>
        <time>2016-03-12T09:10:05.350Z</time>
      </trkpt>
      <trkpt lat="43.7306" lon="5.8375">
        <ele>335</ele>
        <time>2016-03-12T09:10:06.322Z</time>
      </trkpt>
      <trkpt lat="43.73053" lon="5.83747">
        <ele>335</ele>
        <time>2016-03-12T09:10:09.346Z</time>
      </trkpt>
      <trkpt lat="43.73051" lon="5.83745">
        <ele>335</ele>
        <time>2016-03-12T09:10:10.318Z</time>
      </trkpt>
      <trkpt lat="43.73046" lon="5.83739">
        <ele>334</ele>
        <time>2016-03-12T09:10:12.349Z</time>
      </trkpt>
      <trkpt lat="43.73043" lon="5.83734">
        <ele>334</ele>
        <time>2016-03-12T09:10:13.323Z</time>
      </trkpt>
      <trkpt lat="43.73039" lon="5.83725">
        <ele>332</ele>
        <time>2016-03-12T09:10:15.349Z</time>
      </trkpt>
      <trkpt lat="43.73037" lon="5.8372">
        <ele>332</ele>
        <time>2016-03-12T09:10:16.323Z</time>
      </trkpt>
      <trkpt lat="43.73034" lon="5.83711">
        <ele>331</ele>
        <time>2016-03-12T09:10:18.415Z</time>
      </trkpt>
      <trkpt lat="43.73032" lon="5.83706">
        <ele>331</ele>
        <time>2016-03-12T09:10:19.325Z</time>
      </trkpt>
      <trkpt lat="43.73028" lon="5.83696">
        <ele>332</ele>
        <time>2016-03-12T09:10:21.345Z</time>
      </trkpt>
      <trkpt lat="43.73026" lon="5.8369">
        <ele>332</ele>
        <time>2016-03-12T09:10:22.319Z</time>
      </trkpt>
      <trkpt lat="43.73024" lon="5.83684">
        <ele>333</ele>
        <time>2016-03-12T09:10:23.357Z</time>
      </trkpt>
      <trkpt lat="43.73022" lon="5.83677">
        <ele>333</ele>
        <time>2016-03-12T09:10:24.323Z</time>
      </trkpt>
      <trkpt lat="43.7302" lon="5.83672">
        <ele>333</ele>
        <time>2016-03-12T09:10:25.349Z</time>
      </trkpt>
      <trkpt lat="43.73018" lon="5.83666">
        <ele>334</ele>
        <time>2016-03-12T09:10:26.323Z</time>
      </trkpt>
      <trkpt lat="43.73016" lon="5.83659">
        <ele>333</ele>
        <time>2016-03-12T09:10:27.374Z</time>
      </trkpt>
      <trkpt lat="43.73014" lon="5.83648">
        <ele>334</ele>
        <time>2016-03-12T09:10:28.323Z</time>
      </trkpt>
      <trkpt lat="43.73012" lon="5.8364">
        <ele>335</ele>
        <time>2016-03-12T09:10:29.412Z</time>
      </trkpt>
      <trkpt lat="43.73011" lon="5.83635">
        <ele>334</ele>
        <time>2016-03-12T09:10:30.320Z</time>
      </trkpt>
      <trkpt lat="43.7301" lon="5.83627">
        <ele>335</ele>
        <time>2016-03-12T09:10:31.349Z</time>
      </trkpt>
      <trkpt lat="43.73008" lon="5.8362">
        <ele>335</ele>
        <time>2016-03-12T09:10:32.323Z</time>
      </trkpt>
      <trkpt lat="43.73006" lon="5.83614">
        <ele>334</ele>
        <time>2016-03-12T09:10:33.348Z</time>
      </trkpt>
      <trkpt lat="43.73004" lon="5.83607">
        <ele>334</ele>
        <time>2016-03-12T09:10:34.323Z</time>
      </trkpt>
      <trkpt lat="43.73002" lon="5.836">
        <ele>334</ele>
        <time>2016-03-12T09:10:35.356Z</time>
      </trkpt>
      <trkpt lat="43.73" lon="5.83593">
        <ele>333</ele>
        <time>2016-03-12T09:10:36.324Z</time>
      </trkpt>
      <trkpt lat="43.72995" lon="5.83586">
        <ele>333</ele>
        <time>2016-03-12T09:10:38.350Z</time>
      </trkpt>
      <trkpt lat="43.72994" lon="5.83578">
        <ele>330</ele>
        <time>2016-03-12T09:10:39.323Z</time>
      </trkpt>
      <trkpt lat="43.72993" lon="5.83572">
        <ele>329</ele>
        <time>2016-03-12T09:10:40.353Z</time>
      </trkpt>
      <trkpt lat="43.72991" lon="5.83565">
        <ele>329</ele>
        <time>2016-03-12T09:10:41.322Z</time>
      </trkpt>
      <trkpt lat="43.7299" lon="5.83557">
        <ele>328</ele>
        <time>2016-03-12T09:10:42.348Z</time>
      </trkpt>
      <trkpt lat="43.72989" lon="5.8355">
        <ele>329</ele>
        <time>2016-03-12T09:10:43.360Z</time>
      </trkpt>
      <trkpt lat="43.72987" lon="5.83543">
        <ele>329</ele>
        <time>2016-03-12T09:10:44.349Z</time>
      </trkpt>
      <trkpt lat="43.72984" lon="5.83536">
        <ele>330</ele>
        <time>2016-03-12T09:10:45.323Z</time>
      </trkpt>
      <trkpt lat="43.72983" lon="5.83529">
        <ele>330</ele>
        <time>2016-03-12T09:10:46.348Z</time>
      </trkpt>
      <trkpt lat="43.72981" lon="5.83523">
        <ele>332</ele>
        <time>2016-03-12T09:10:47.324Z</time>
      </trkpt>
      <trkpt lat="43.7298" lon="5.83515">
        <ele>330</ele>
        <time>2016-03-12T09:10:48.349Z</time>
      </trkpt>
      <trkpt lat="43.72977" lon="5.8351">
        <ele>330</ele>
        <time>2016-03-12T09:10:49.323Z</time>
      </trkpt>
      <trkpt lat="43.72977" lon="5.83503">
        <ele>331</ele>
        <time>2016-03-12T09:10:50.352Z</time>
      </trkpt>
      <trkpt lat="43.72976" lon="5.83497">
        <ele>332</ele>
        <time>2016-03-12T09:10:51.327Z</time>
      </trkpt>
      <trkpt lat="43.72974" lon="5.83486">
        <ele>332</ele>
        <time>2016-03-12T09:10:53.347Z</time>
      </trkpt>
      <trkpt lat="43.72974" lon="5.83482">
        <ele>332</ele>
        <time>2016-03-12T09:10:54.349Z</time>
      </trkpt>
      <trkpt lat="43.72973" lon="5.83471">
        <ele>332</ele>
        <time>2016-03-12T09:10:56.349Z</time>
      </trkpt>
      <trkpt lat="43.72972" lon="5.83467">
        <ele>332</ele>
        <time>2016-03-12T09:10:57.324Z</time>
      </trkpt>
      <trkpt lat="43.72969" lon="5.83458">
        <ele>332</ele>
        <time>2016-03-12T09:10:59.350Z</time>
      </trkpt>
      <trkpt lat="43.72968" lon="5.83454">
        <ele>331</ele>
        <time>2016-03-12T09:11:00.324Z</time>
      </trkpt>
      <trkpt lat="43.72967" lon="5.83445">
        <ele>330</ele>
        <time>2016-03-12T09:11:02.359Z</time>
      </trkpt>
      <trkpt lat="43.72967" lon="5.8344">
        <ele>330</ele>
        <time>2016-03-12T09:11:03.323Z</time>
      </trkpt>
      <trkpt lat="43.72967" lon="5.83434">
        <ele>330</ele>
        <time>2016-03-12T09:11:04.349Z</time>
      </trkpt>
      <trkpt lat="43.72966" lon="5.83428">
        <ele>331</ele>
        <time>2016-03-12T09:11:05.322Z</time>
      </trkpt>
      <trkpt lat="43.72966" lon="5.83421">
        <ele>330</ele>
        <time>2016-03-12T09:11:06.349Z</time>
      </trkpt>
      <trkpt lat="43.72965" lon="5.83415">
        <ele>330</ele>
        <time>2016-03-12T09:11:07.323Z</time>
      </trkpt>
      <trkpt lat="43.72964" lon="5.83403">
        <ele>330</ele>
        <time>2016-03-12T09:11:09.349Z</time>
      </trkpt>
      <trkpt lat="43.72964" lon="5.83394">
        <ele>330</ele>
        <time>2016-03-12T09:11:10.323Z</time>
      </trkpt>
      <trkpt lat="43.72964" lon="5.83387">
        <ele>330</ele>
        <time>2016-03-12T09:11:11.354Z</time>
      </trkpt>
      <trkpt lat="43.72964" lon="5.8338">
        <ele>330</ele>
        <time>2016-03-12T09:11:12.322Z</time>
      </trkpt>
      <trkpt lat="43.72963" lon="5.8337">
        <ele>328</ele>
        <time>2016-03-12T09:11:14.335Z</time>
      </trkpt>
      <trkpt lat="43.72962" lon="5.83364">
        <ele>329</ele>
        <time>2016-03-12T09:11:15.348Z</time>
      </trkpt>
      <trkpt lat="43.72961" lon="5.83358">
        <ele>329</ele>
        <time>2016-03-12T09:11:16.347Z</time>
      </trkpt>
      <trkpt lat="43.7296" lon="5.83351">
        <ele>328</ele>
        <time>2016-03-12T09:11:17.324Z</time>
      </trkpt>
      <trkpt lat="43.72959" lon="5.83339">
        <ele>327</ele>
        <time>2016-03-12T09:11:19.360Z</time>
      </trkpt>
      <trkpt lat="43.72959" lon="5.83331">
        <ele>327</ele>
        <time>2016-03-12T09:11:20.323Z</time>
      </trkpt>
      <trkpt lat="43.72958" lon="5.83325">
        <ele>328</ele>
        <time>2016-03-12T09:11:21.371Z</time>
      </trkpt>
      <trkpt lat="43.72958" lon="5.83318">
        <ele>328</ele>
        <time>2016-03-12T09:11:22.333Z</time>
      </trkpt>
      <trkpt lat="43.72958" lon="5.8331">
        <ele>329</ele>
        <time>2016-03-12T09:11:23.350Z</time>
      </trkpt>
      <trkpt lat="43.72959" lon="5.83303">
        <ele>330</ele>
        <time>2016-03-12T09:11:24.323Z</time>
      </trkpt>
      <trkpt lat="43.72959" lon="5.83295">
        <ele>330</ele>
        <time>2016-03-12T09:11:25.583Z</time>
      </trkpt>
      <trkpt lat="43.72958" lon="5.83289">
        <ele>330</ele>
        <time>2016-03-12T09:11:26.321Z</time>
      </trkpt>
      <trkpt lat="43.72958" lon="5.83282">
        <ele>330</ele>
        <time>2016-03-12T09:11:27.347Z</time>
      </trkpt>
      <trkpt lat="43.72958" lon="5.83275">
        <ele>330</ele>
        <time>2016-03-12T09:11:28.323Z</time>
      </trkpt>
      <trkpt lat="43.72959" lon="5.83268">
        <ele>330</ele>
        <time>2016-03-12T09:11:29.375Z</time>
      </trkpt>
      <trkpt lat="43.72959" lon="5.83261">
        <ele>329</ele>
        <time>2016-03-12T09:11:30.323Z</time>
      </trkpt>
      <trkpt lat="43.72959" lon="5.83255">
        <ele>328</ele>
        <time>2016-03-12T09:11:31.345Z</time>
      </trkpt>
      <trkpt lat="43.72959" lon="5.83248">
        <ele>328</ele>
        <time>2016-03-12T09:11:32.323Z</time>
      </trkpt>
      <trkpt lat="43.7296" lon="5.83243">
        <ele>327</ele>
        <time>2016-03-12T09:11:33.349Z</time>
      </trkpt>
      <trkpt lat="43.72961" lon="5.83236">
        <ele>327</ele>
        <time>2016-03-12T09:11:34.323Z</time>
      </trkpt>
      <trkpt lat="43.72961" lon="5.8323">
        <ele>327</ele>
        <time>2016-03-12T09:11:35.349Z</time>
      </trkpt>
      <trkpt lat="43.72962" lon="5.83222">
        <ele>327</ele>
        <time>2016-03-12T09:11:36.348Z</time>
      </trkpt>
      <trkpt lat="43.72963" lon="5.83216">
        <ele>328</ele>
        <time>2016-03-12T09:11:37.348Z</time>
      </trkpt>
      <trkpt lat="43.72964" lon="5.83209">
        <ele>328</ele>
        <time>2016-03-12T09:11:38.323Z</time>
      </trkpt>
      <trkpt lat="43.72963" lon="5.83202">
        <ele>328</ele>
        <time>2016-03-12T09:11:39.349Z</time>
      </trkpt>
      <trkpt lat="43.72963" lon="5.83196">
        <ele>328</ele>
        <time>2016-03-12T09:11:40.323Z</time>
      </trkpt>
      <trkpt lat="43.72964" lon="5.83185">
        <ele>329</ele>
        <time>2016-03-12T09:11:42.350Z</time>
      </trkpt>
      <trkpt lat="43.72966" lon="5.83177">
        <ele>330</ele>
        <time>2016-03-12T09:11:43.323Z</time>
      </trkpt>
      <trkpt lat="43.72967" lon="5.83168">
        <ele>329</ele>
        <time>2016-03-12T09:11:44.428Z</time>
      </trkpt>
      <trkpt lat="43.72967" lon="5.83162">
        <ele>328</ele>
        <time>2016-03-12T09:11:45.323Z</time>
      </trkpt>
      <trkpt lat="43.72969" lon="5.83155">
        <ele>330</ele>
        <time>2016-03-12T09:11:46.349Z</time>
      </trkpt>
      <trkpt lat="43.72971" lon="5.83149">
        <ele>331</ele>
        <time>2016-03-12T09:11:47.324Z</time>
      </trkpt>
      <trkpt lat="43.72972" lon="5.83142">
        <ele>331</ele>
        <time>2016-03-12T09:11:48.577Z</time>
      </trkpt>
      <trkpt lat="43.72973" lon="5.83135">
        <ele>331</ele>
        <time>2016-03-12T09:11:49.322Z</time>
      </trkpt>
      <trkpt lat="43.72975" lon="5.83123">
        <ele>331</ele>
        <time>2016-03-12T09:11:51.359Z</time>
      </trkpt>
      <trkpt lat="43.72976" lon="5.83116">
        <ele>331</ele>
        <time>2016-03-12T09:11:52.348Z</time>
      </trkpt>
      <trkpt lat="43.72979" lon="5.83105">
        <ele>331</ele>
        <time>2016-03-12T09:11:54.353Z</time>
      </trkpt>
      <trkpt lat="43.72979" lon="5.83099">
        <ele>331</ele>
        <time>2016-03-12T09:11:55.326Z</time>
      </trkpt>
      <trkpt lat="43.7298" lon="5.83092">
        <ele>331</ele>
        <time>2016-03-12T09:11:56.360Z</time>
      </trkpt>
      <trkpt lat="43.72982" lon="5.83085">
        <ele>331</ele>
        <time>2016-03-12T09:11:57.325Z</time>
      </trkpt>
      <trkpt lat="43.72984" lon="5.8308">
        <ele>332</ele>
        <time>2016-03-12T09:11:58.349Z</time>
      </trkpt>
      <trkpt lat="43.72985" lon="5.83073">
        <ele>332</ele>
        <time>2016-03-12T09:11:59.323Z</time>
      </trkpt>
      <trkpt lat="43.72986" lon="5.83061">
        <ele>331</ele>
        <time>2016-03-12T09:12:01.350Z</time>
      </trkpt>
      <trkpt lat="43.72987" lon="5.83055">
        <ele>332</ele>
        <time>2016-03-12T09:12:02.324Z</time>
      </trkpt>
      <trkpt lat="43.72988" lon="5.83043">
        <ele>331</ele>
        <time>2016-03-12T09:12:04.350Z</time>
      </trkpt>
      <trkpt lat="43.72988" lon="5.83036">
        <ele>331</ele>
        <time>2016-03-12T09:12:05.324Z</time>
      </trkpt>
      <trkpt lat="43.72987" lon="5.8303">
        <ele>331</ele>
        <time>2016-03-12T09:12:06.349Z</time>
      </trkpt>
      <trkpt lat="43.72987" lon="5.83023">
        <ele>330</ele>
        <time>2016-03-12T09:12:07.321Z</time>
      </trkpt>
      <trkpt lat="43.72988" lon="5.83011">
        <ele>329</ele>
        <time>2016-03-12T09:12:09.350Z</time>
      </trkpt>
      <trkpt lat="43.72988" lon="5.83004">
        <ele>328</ele>
        <time>2016-03-12T09:12:10.323Z</time>
      </trkpt>
      <trkpt lat="43.7299" lon="5.82992">
        <ele>328</ele>
        <time>2016-03-12T09:12:12.350Z</time>
      </trkpt>
      <trkpt lat="43.72989" lon="5.82988">
        <ele>327</ele>
        <time>2016-03-12T09:12:13.334Z</time>
      </trkpt>
      <trkpt lat="43.72989" lon="5.82979">
        <ele>328</ele>
        <time>2016-03-12T09:12:15.349Z</time>
      </trkpt>
      <trkpt lat="43.72988" lon="5.82973">
        <ele>328</ele>
        <time>2016-03-12T09:12:16.324Z</time>
      </trkpt>
      <trkpt lat="43.72989" lon="5.82962">
        <ele>328</ele>
        <time>2016-03-12T09:12:18.349Z</time>
      </trkpt>
      <trkpt lat="43.72988" lon="5.82956">
        <ele>327</ele>
        <time>2016-03-12T09:12:19.323Z</time>
      </trkpt>
      <trkpt lat="43.72988" lon="5.8295">
        <ele>327</ele>
        <time>2016-03-12T09:12:20.349Z</time>
      </trkpt>
      <trkpt lat="43.72989" lon="5.82943">
        <ele>328</ele>
        <time>2016-03-12T09:12:21.323Z</time>
      </trkpt>
      <trkpt lat="43.72991" lon="5.82931">
        <ele>329</ele>
        <time>2016-03-12T09:12:23.424Z</time>
      </trkpt>
      <trkpt lat="43.72991" lon="5.82925">
        <ele>329</ele>
        <time>2016-03-12T09:12:24.350Z</time>
      </trkpt>
      <trkpt lat="43.72991" lon="5.82914">
        <ele>328</ele>
        <time>2016-03-12T09:12:26.350Z</time>
      </trkpt>
      <trkpt lat="43.7299" lon="5.82908">
        <ele>327</ele>
        <time>2016-03-12T09:12:27.323Z</time>
      </trkpt>
      <trkpt lat="43.72988" lon="5.82897">
        <ele>326</ele>
        <time>2016-03-12T09:12:29.349Z</time>
      </trkpt>
      <trkpt lat="43.72988" lon="5.82892">
        <ele>326</ele>
        <time>2016-03-12T09:12:30.328Z</time>
      </trkpt>
      <trkpt lat="43.72987" lon="5.8288">
        <ele>327</ele>
        <time>2016-03-12T09:12:32.429Z</time>
      </trkpt>
      <trkpt lat="43.72986" lon="5.82874">
        <ele>328</ele>
        <time>2016-03-12T09:12:33.335Z</time>
      </trkpt>
      <trkpt lat="43.72986" lon="5.82862">
        <ele>330</ele>
        <time>2016-03-12T09:12:39.350Z</time>
      </trkpt>
      <trkpt lat="43.72985" lon="5.82857">
        <ele>329</ele>
        <time>2016-03-12T09:12:40.323Z</time>
      </trkpt>
      <trkpt lat="43.72986" lon="5.82846">
        <ele>328</ele>
        <time>2016-03-12T09:12:42.350Z</time>
      </trkpt>
      <trkpt lat="43.72985" lon="5.8284">
        <ele>328</ele>
        <time>2016-03-12T09:12:43.326Z</time>
      </trkpt>
      <trkpt lat="43.72984" lon="5.82828">
        <ele>329</ele>
        <time>2016-03-12T09:12:45.350Z</time>
      </trkpt>
      <trkpt lat="43.72984" lon="5.82823">
        <ele>330</ele>
        <time>2016-03-12T09:12:46.324Z</time>
      </trkpt>
      <trkpt lat="43.72983" lon="5.82817">
        <ele>330</ele>
        <time>2016-03-12T09:12:47.348Z</time>
      </trkpt>
      <trkpt lat="43.72981" lon="5.82811">
        <ele>331</ele>
        <time>2016-03-12T09:12:48.334Z</time>
      </trkpt>
      <trkpt lat="43.7298" lon="5.82799">
        <ele>330</ele>
        <time>2016-03-12T09:12:50.350Z</time>
      </trkpt>
      <trkpt lat="43.7298" lon="5.82793">
        <ele>331</ele>
        <time>2016-03-12T09:12:51.348Z</time>
      </trkpt>
      <trkpt lat="43.72979" lon="5.82783">
        <ele>332</ele>
        <time>2016-03-12T09:12:53.346Z</time>
      </trkpt>
      <trkpt lat="43.72978" lon="5.82777">
        <ele>333</ele>
        <time>2016-03-12T09:12:54.323Z</time>
      </trkpt>
      <trkpt lat="43.72977" lon="5.82771">
        <ele>333</ele>
        <time>2016-03-12T09:12:55.349Z</time>
      </trkpt>
      <trkpt lat="43.72977" lon="5.82763">
        <ele>334</ele>
        <time>2016-03-12T09:12:56.323Z</time>
      </trkpt>
      <trkpt lat="43.72976" lon="5.82754">
        <ele>333</ele>
        <time>2016-03-12T09:12:57.348Z</time>
      </trkpt>
      <trkpt lat="43.72975" lon="5.82748">
        <ele>333</ele>
        <time>2016-03-12T09:12:58.323Z</time>
      </trkpt>
      <trkpt lat="43.72973" lon="5.82737">
        <ele>333</ele>
        <time>2016-03-12T09:13:00.350Z</time>
      </trkpt>
      <trkpt lat="43.72971" lon="5.82732">
        <ele>333</ele>
        <time>2016-03-12T09:13:01.323Z</time>
      </trkpt>
      <trkpt lat="43.72969" lon="5.8272">
        <ele>334</ele>
        <time>2016-03-12T09:13:03.361Z</time>
      </trkpt>
      <trkpt lat="43.72969" lon="5.82713">
        <ele>335</ele>
        <time>2016-03-12T09:13:04.324Z</time>
      </trkpt>
      <trkpt lat="43.72967" lon="5.82706">
        <ele>334</ele>
        <time>2016-03-12T09:13:05.454Z</time>
      </trkpt>
      <trkpt lat="43.72966" lon="5.82698">
        <ele>333</ele>
        <time>2016-03-12T09:13:06.332Z</time>
      </trkpt>
      <trkpt lat="43.72965" lon="5.8269">
        <ele>333</ele>
        <time>2016-03-12T09:13:07.351Z</time>
      </trkpt>
      <trkpt lat="43.72964" lon="5.82682">
        <ele>333</ele>
        <time>2016-03-12T09:13:08.326Z</time>
      </trkpt>
      <trkpt lat="43.72962" lon="5.82675">
        <ele>333</ele>
        <time>2016-03-12T09:13:09.347Z</time>
      </trkpt>
      <trkpt lat="43.72962" lon="5.82669">
        <ele>332</ele>
        <time>2016-03-12T09:13:10.318Z</time>
      </trkpt>
      <trkpt lat="43.7296" lon="5.82662">
        <ele>331</ele>
        <time>2016-03-12T09:13:11.351Z</time>
      </trkpt>
      <trkpt lat="43.72958" lon="5.82656">
        <ele>331</ele>
        <time>2016-03-12T09:13:12.326Z</time>
      </trkpt>
      <trkpt lat="43.72957" lon="5.82649">
        <ele>330</ele>
        <time>2016-03-12T09:13:13.351Z</time>
      </trkpt>
      <trkpt lat="43.72956" lon="5.82642">
        <ele>330</ele>
        <time>2016-03-12T09:13:14.326Z</time>
      </trkpt>
      <trkpt lat="43.72955" lon="5.82634">
        <ele>330</ele>
        <time>2016-03-12T09:13:15.350Z</time>
      </trkpt>
      <trkpt lat="43.72954" lon="5.82628">
        <ele>330</ele>
        <time>2016-03-12T09:13:16.334Z</time>
      </trkpt>
      <trkpt lat="43.72953" lon="5.82621">
        <ele>331</ele>
        <time>2016-03-12T09:13:17.349Z</time>
      </trkpt>
      <trkpt lat="43.72953" lon="5.82613">
        <ele>331</ele>
        <time>2016-03-12T09:13:18.324Z</time>
      </trkpt>
      <trkpt lat="43.72952" lon="5.82606">
        <ele>332</ele>
        <time>2016-03-12T09:13:19.360Z</time>
      </trkpt>
      <trkpt lat="43.72949" lon="5.826">
        <ele>331</ele>
        <time>2016-03-12T09:13:20.324Z</time>
      </trkpt>
      <trkpt lat="43.72949" lon="5.82594">
        <ele>331</ele>
        <time>2016-03-12T09:13:21.349Z</time>
      </trkpt>
      <trkpt lat="43.72948" lon="5.82586">
        <ele>331</ele>
        <time>2016-03-12T09:13:22.335Z</time>
      </trkpt>
      <trkpt lat="43.72947" lon="5.82579">
        <ele>331</ele>
        <time>2016-03-12T09:13:23.376Z</time>
      </trkpt>
      <trkpt lat="43.72945" lon="5.82573">
        <ele>330</ele>
        <time>2016-03-12T09:13:24.323Z</time>
      </trkpt>
      <trkpt lat="43.72944" lon="5.82566">
        <ele>331</ele>
        <time>2016-03-12T09:13:25.349Z</time>
      </trkpt>
      <trkpt lat="43.72944" lon="5.82559">
        <ele>332</ele>
        <time>2016-03-12T09:13:26.323Z</time>
      </trkpt>
      <trkpt lat="43.72943" lon="5.82553">
        <ele>332</ele>
        <time>2016-03-12T09:13:27.348Z</time>
      </trkpt>
      <trkpt lat="43.72942" lon="5.82545">
        <ele>331</ele>
        <time>2016-03-12T09:13:28.324Z</time>
      </trkpt>
      <trkpt lat="43.72939" lon="5.82541">
        <ele>330</ele>
        <time>2016-03-12T09:13:29.349Z</time>
      </trkpt>
      <trkpt lat="43.72939" lon="5.82533">
        <ele>331</ele>
        <time>2016-03-12T09:13:30.323Z</time>
      </trkpt>
      <trkpt lat="43.72938" lon="5.82526">
        <ele>331</ele>
        <time>2016-03-12T09:13:31.578Z</time>
      </trkpt>
      <trkpt lat="43.72937" lon="5.8252">
        <ele>331</ele>
        <time>2016-03-12T09:13:32.324Z</time>
      </trkpt>
      <trkpt lat="43.72936" lon="5.82509">
        <ele>331</ele>
        <time>2016-03-12T09:13:34.402Z</time>
      </trkpt>
      <trkpt lat="43.72935" lon="5.82503">
        <ele>331</ele>
        <time>2016-03-12T09:13:35.323Z</time>
      </trkpt>
      <trkpt lat="43.72935" lon="5.82496">
        <ele>331</ele>
        <time>2016-03-12T09:13:36.349Z</time>
      </trkpt>
      <trkpt lat="43.72934" lon="5.8249">
        <ele>330</ele>
        <time>2016-03-12T09:13:37.323Z</time>
      </trkpt>
      <trkpt lat="43.72933" lon="5.82483">
        <ele>330</ele>
        <time>2016-03-12T09:13:38.352Z</time>
      </trkpt>
      <trkpt lat="43.72932" lon="5.82476">
        <ele>330</ele>
        <time>2016-03-12T09:13:39.349Z</time>
      </trkpt>
      <trkpt lat="43.7293" lon="5.82465">
        <ele>330</ele>
        <time>2016-03-12T09:13:41.351Z</time>
      </trkpt>
      <trkpt lat="43.72928" lon="5.8246">
        <ele>330</ele>
        <time>2016-03-12T09:13:42.325Z</time>
      </trkpt>
      <trkpt lat="43.72927" lon="5.8245">
        <ele>330</ele>
        <time>2016-03-12T09:13:44.350Z</time>
      </trkpt>
      <trkpt lat="43.72926" lon="5.82447">
        <ele>330</ele>
        <time>2016-03-12T09:13:45.325Z</time>
      </trkpt>
      <trkpt lat="43.72924" lon="5.82436">
        <ele>329</ele>
        <time>2016-03-12T09:13:48.350Z</time>
      </trkpt>
      <trkpt lat="43.72923" lon="5.8243">
        <ele>329</ele>
        <time>2016-03-12T09:13:49.323Z</time>
      </trkpt>
      <trkpt lat="43.72922" lon="5.82421">
        <ele>329</ele>
        <time>2016-03-12T09:13:51.356Z</time>
      </trkpt>
      <trkpt lat="43.72921" lon="5.82416">
        <ele>328</ele>
        <time>2016-03-12T09:13:52.324Z</time>
      </trkpt>
      <trkpt lat="43.7292" lon="5.82407">
        <ele>328</ele>
        <time>2016-03-12T09:13:54.349Z</time>
      </trkpt>
      <trkpt lat="43.72919" lon="5.82402">
        <ele>328</ele>
        <time>2016-03-12T09:13:55.348Z</time>
      </trkpt>
      <trkpt lat="43.72917" lon="5.82391">
        <ele>327</ele>
        <time>2016-03-12T09:13:57.350Z</time>
      </trkpt>
      <trkpt lat="43.72916" lon="5.82385">
        <ele>327</ele>
        <time>2016-03-12T09:13:58.323Z</time>
      </trkpt>
      <trkpt lat="43.72915" lon="5.82379">
        <ele>328</ele>
        <time>2016-03-12T09:13:59.349Z</time>
      </trkpt>
      <trkpt lat="43.72914" lon="5.82373">
        <ele>327</ele>
        <time>2016-03-12T09:14:00.324Z</time>
      </trkpt>
      <trkpt lat="43.72912" lon="5.8236">
        <ele>327</ele>
        <time>2016-03-12T09:14:02.349Z</time>
      </trkpt>
      <trkpt lat="43.72911" lon="5.82354">
        <ele>327</ele>
        <time>2016-03-12T09:14:03.325Z</time>
      </trkpt>
      <trkpt lat="43.72909" lon="5.82342">
        <ele>327</ele>
        <time>2016-03-12T09:14:05.349Z</time>
      </trkpt>
      <trkpt lat="43.72908" lon="5.82337">
        <ele>326</ele>
        <time>2016-03-12T09:14:06.322Z</time>
      </trkpt>
      <trkpt lat="43.72907" lon="5.82325">
        <ele>326</ele>
        <time>2016-03-12T09:14:08.370Z</time>
      </trkpt>
      <trkpt lat="43.72906" lon="5.8232">
        <ele>326</ele>
        <time>2016-03-12T09:14:09.333Z</time>
      </trkpt>
      <trkpt lat="43.72904" lon="5.82309">
        <ele>325</ele>
        <time>2016-03-12T09:14:11.365Z</time>
      </trkpt>
      <trkpt lat="43.72903" lon="5.82304">
        <ele>326</ele>
        <time>2016-03-12T09:14:12.310Z</time>
      </trkpt>
      <trkpt lat="43.729" lon="5.82293">
        <ele>325</ele>
        <time>2016-03-12T09:14:14.328Z</time>
      </trkpt>
      <trkpt lat="43.72899" lon="5.82288">
        <ele>325</ele>
        <time>2016-03-12T09:14:15.312Z</time>
      </trkpt>
      <trkpt lat="43.72897" lon="5.82277">
        <ele>325</ele>
        <time>2016-03-12T09:14:17.331Z</time>
      </trkpt>
      <trkpt lat="43.72897" lon="5.82272">
        <ele>325</ele>
        <time>2016-03-12T09:14:18.313Z</time>
      </trkpt>
      <trkpt lat="43.72895" lon="5.82261">
        <ele>325</ele>
        <time>2016-03-12T09:14:20.378Z</time>
      </trkpt>
      <trkpt lat="43.72894" lon="5.82255">
        <ele>325</ele>
        <time>2016-03-12T09:14:21.314Z</time>
      </trkpt>
      <trkpt lat="43.72893" lon="5.82244">
        <ele>326</ele>
        <time>2016-03-12T09:14:23.343Z</time>
      </trkpt>
      <trkpt lat="43.72892" lon="5.82238">
        <ele>324</ele>
        <time>2016-03-12T09:14:24.315Z</time>
      </trkpt>
      <trkpt lat="43.72889" lon="5.82228">
        <ele>321</ele>
        <time>2016-03-12T09:14:26.345Z</time>
      </trkpt>
      <trkpt lat="43.72888" lon="5.82222">
        <ele>322</ele>
        <time>2016-03-12T09:14:27.317Z</time>
      </trkpt>
      <trkpt lat="43.72887" lon="5.82212">
        <ele>323</ele>
        <time>2016-03-12T09:14:29.337Z</time>
      </trkpt>
      <trkpt lat="43.72887" lon="5.82208">
        <ele>322</ele>
        <time>2016-03-12T09:14:30.311Z</time>
      </trkpt>
      <trkpt lat="43.72886" lon="5.82198">
        <ele>321</ele>
        <time>2016-03-12T09:14:32.338Z</time>
      </trkpt>
      <trkpt lat="43.72885" lon="5.82193">
        <ele>323</ele>
        <time>2016-03-12T09:14:33.346Z</time>
      </trkpt>
      <trkpt lat="43.72885" lon="5.82187">
        <ele>324</ele>
        <time>2016-03-12T09:14:34.350Z</time>
      </trkpt>
      <trkpt lat="43.72884" lon="5.82179">
        <ele>325</ele>
        <time>2016-03-12T09:14:35.322Z</time>
      </trkpt>
      <trkpt lat="43.72883" lon="5.82173">
        <ele>325</ele>
        <time>2016-03-12T09:14:36.346Z</time>
      </trkpt>
      <trkpt lat="43.72883" lon="5.82166">
        <ele>325</ele>
        <time>2016-03-12T09:14:37.322Z</time>
      </trkpt>
      <trkpt lat="43.72881" lon="5.82154">
        <ele>325</ele>
        <time>2016-03-12T09:14:39.350Z</time>
      </trkpt>
      <trkpt lat="43.7288" lon="5.82148">
        <ele>324</ele>
        <time>2016-03-12T09:14:40.324Z</time>
      </trkpt>
      <trkpt lat="43.72879" lon="5.82138">
        <ele>324</ele>
        <time>2016-03-12T09:14:42.369Z</time>
      </trkpt>
      <trkpt lat="43.72878" lon="5.82133">
        <ele>325</ele>
        <time>2016-03-12T09:14:43.323Z</time>
      </trkpt>
      <trkpt lat="43.72877" lon="5.82122">
        <ele>325</ele>
        <time>2016-03-12T09:14:45.350Z</time>
      </trkpt>
      <trkpt lat="43.72876" lon="5.82118">
        <ele>326</ele>
        <time>2016-03-12T09:14:46.324Z</time>
      </trkpt>
      <trkpt lat="43.72874" lon="5.82108">
        <ele>325</ele>
        <time>2016-03-12T09:14:48.350Z</time>
      </trkpt>
      <trkpt lat="43.72873" lon="5.82103">
        <ele>325</ele>
        <time>2016-03-12T09:14:49.350Z</time>
      </trkpt>
      <trkpt lat="43.72871" lon="5.82093">
        <ele>324</ele>
        <time>2016-03-12T09:14:51.350Z</time>
      </trkpt>
      <trkpt lat="43.7287" lon="5.82088">
        <ele>325</ele>
        <time>2016-03-12T09:14:52.323Z</time>
      </trkpt>
      <trkpt lat="43.72868" lon="5.82076">
        <ele>325</ele>
        <time>2016-03-12T09:14:54.349Z</time>
      </trkpt>
      <trkpt lat="43.72867" lon="5.82069">
        <ele>325</ele>
        <time>2016-03-12T09:14:55.335Z</time>
      </trkpt>
      <trkpt lat="43.72866" lon="5.82058">
        <ele>326</ele>
        <time>2016-03-12T09:14:57.351Z</time>
      </trkpt>
      <trkpt lat="43.72865" lon="5.82052">
        <ele>326</ele>
        <time>2016-03-12T09:14:58.324Z</time>
      </trkpt>
      <trkpt lat="43.72863" lon="5.8204">
        <ele>328</ele>
        <time>2016-03-12T09:15:00.350Z</time>
      </trkpt>
      <trkpt lat="43.72862" lon="5.82033">
        <ele>328</ele>
        <time>2016-03-12T09:15:01.325Z</time>
      </trkpt>
      <trkpt lat="43.7286" lon="5.82023">
        <ele>325</ele>
        <time>2016-03-12T09:15:03.349Z</time>
      </trkpt>
      <trkpt lat="43.72858" lon="5.82018">
        <ele>325</ele>
        <time>2016-03-12T09:15:04.324Z</time>
      </trkpt>
      <trkpt lat="43.72856" lon="5.82008">
        <ele>327</ele>
        <time>2016-03-12T09:15:06.355Z</time>
      </trkpt>
      <trkpt lat="43.72855" lon="5.82002">
        <ele>327</ele>
        <time>2016-03-12T09:15:07.326Z</time>
      </trkpt>
      <trkpt lat="43.72854" lon="5.8199">
        <ele>329</ele>
        <time>2016-03-12T09:15:09.350Z</time>
      </trkpt>
      <trkpt lat="43.72854" lon="5.81984">
        <ele>330</ele>
        <time>2016-03-12T09:15:10.350Z</time>
      </trkpt>
      <trkpt lat="43.72853" lon="5.81973">
        <ele>330</ele>
        <time>2016-03-12T09:15:12.349Z</time>
      </trkpt>
      <trkpt lat="43.72852" lon="5.81968">
        <ele>330</ele>
        <time>2016-03-12T09:15:13.333Z</time>
      </trkpt>
      <trkpt lat="43.7285" lon="5.81957">
        <ele>330</ele>
        <time>2016-03-12T09:15:15.350Z</time>
      </trkpt>
      <trkpt lat="43.72849" lon="5.81951">
        <ele>331</ele>
        <time>2016-03-12T09:15:16.324Z</time>
      </trkpt>
      <trkpt lat="43.72848" lon="5.81945">
        <ele>330</ele>
        <time>2016-03-12T09:15:17.346Z</time>
      </trkpt>
      <trkpt lat="43.72847" lon="5.81939">
        <ele>330</ele>
        <time>2016-03-12T09:15:18.323Z</time>
      </trkpt>
      <trkpt lat="43.72846" lon="5.81932">
        <ele>330</ele>
        <time>2016-03-12T09:15:19.349Z</time>
      </trkpt>
      <trkpt lat="43.72845" lon="5.81925">
        <ele>330</ele>
        <time>2016-03-12T09:15:20.324Z</time>
      </trkpt>
      <trkpt lat="43.72844" lon="5.81919">
        <ele>330</ele>
        <time>2016-03-12T09:15:21.348Z</time>
      </trkpt>
      <trkpt lat="43.72843" lon="5.81913">
        <ele>330</ele>
        <time>2016-03-12T09:15:22.324Z</time>
      </trkpt>
      <trkpt lat="43.72842" lon="5.81906">
        <ele>329</ele>
        <time>2016-03-12T09:15:23.350Z</time>
      </trkpt>
      <trkpt lat="43.72841" lon="5.819">
        <ele>329</ele>
        <time>2016-03-12T09:15:24.323Z</time>
      </trkpt>
      <trkpt lat="43.7284" lon="5.81891">
        <ele>328</ele>
        <time>2016-03-12T09:15:25.361Z</time>
      </trkpt>
      <trkpt lat="43.72839" lon="5.81885">
        <ele>328</ele>
        <time>2016-03-12T09:15:26.349Z</time>
      </trkpt>
      <trkpt lat="43.72838" lon="5.81878">
        <ele>329</ele>
        <time>2016-03-12T09:15:27.579Z</time>
      </trkpt>
      <trkpt lat="43.72836" lon="5.81872">
        <ele>328</ele>
        <time>2016-03-12T09:15:28.332Z</time>
      </trkpt>
      <trkpt lat="43.72834" lon="5.81861">
        <ele>327</ele>
        <time>2016-03-12T09:15:30.349Z</time>
      </trkpt>
      <trkpt lat="43.72833" lon="5.81855">
        <ele>326</ele>
        <time>2016-03-12T09:15:31.324Z</time>
      </trkpt>
      <trkpt lat="43.72831" lon="5.81843">
        <ele>326</ele>
        <time>2016-03-12T09:15:33.349Z</time>
      </trkpt>
      <trkpt lat="43.7283" lon="5.81839">
        <ele>326</ele>
        <time>2016-03-12T09:15:34.329Z</time>
      </trkpt>
      <trkpt lat="43.72828" lon="5.81827">
        <ele>326</ele>
        <time>2016-03-12T09:15:36.350Z</time>
      </trkpt>
      <trkpt lat="43.72827" lon="5.81822">
        <ele>327</ele>
        <time>2016-03-12T09:15:37.325Z</time>
      </trkpt>
      <trkpt lat="43.72825" lon="5.8181">
        <ele>326</ele>
        <time>2016-03-12T09:15:39.350Z</time>
      </trkpt>
      <trkpt lat="43.72825" lon="5.81805">
        <ele>326</ele>
        <time>2016-03-12T09:15:40.325Z</time>
      </trkpt>
      <trkpt lat="43.72823" lon="5.81795">
        <ele>327</ele>
        <time>2016-03-12T09:15:42.364Z</time>
      </trkpt>
      <trkpt lat="43.72822" lon="5.81789">
        <ele>328</ele>
        <time>2016-03-12T09:15:43.322Z</time>
      </trkpt>
      <trkpt lat="43.72821" lon="5.81777">
        <ele>328</ele>
        <time>2016-03-12T09:15:45.352Z</time>
      </trkpt>
      <trkpt lat="43.7282" lon="5.81771">
        <ele>327</ele>
        <time>2016-03-12T09:15:46.325Z</time>
      </trkpt>
      <trkpt lat="43.72818" lon="5.81759">
        <ele>327</ele>
        <time>2016-03-12T09:15:48.351Z</time>
      </trkpt>
      <trkpt lat="43.72817" lon="5.81753">
        <ele>326</ele>
        <time>2016-03-12T09:15:49.324Z</time>
      </trkpt>
      <trkpt lat="43.72815" lon="5.81741">
        <ele>326</ele>
        <time>2016-03-12T09:15:51.361Z</time>
      </trkpt>
      <trkpt lat="43.72814" lon="5.81735">
        <ele>325</ele>
        <time>2016-03-12T09:15:52.322Z</time>
      </trkpt>
      <trkpt lat="43.72812" lon="5.81724">
        <ele>325</ele>
        <time>2016-03-12T09:15:54.350Z</time>
      </trkpt>
      <trkpt lat="43.7281" lon="5.81718">
        <ele>325</ele>
        <time>2016-03-12T09:15:55.324Z</time>
      </trkpt>
      <trkpt lat="43.72809" lon="5.81707">
        <ele>327</ele>
        <time>2016-03-12T09:15:57.350Z</time>
      </trkpt>
      <trkpt lat="43.72808" lon="5.81702">
        <ele>328</ele>
        <time>2016-03-12T09:15:58.324Z</time>
      </trkpt>
      <trkpt lat="43.72806" lon="5.8169">
        <ele>327</ele>
        <time>2016-03-12T09:16:00.336Z</time>
      </trkpt>
      <trkpt lat="43.72805" lon="5.81685">
        <ele>327</ele>
        <time>2016-03-12T09:16:01.324Z</time>
      </trkpt>
      <trkpt lat="43.72803" lon="5.81675">
        <ele>328</ele>
        <time>2016-03-12T09:16:03.377Z</time>
      </trkpt>
      <trkpt lat="43.72802" lon="5.8167">
        <ele>329</ele>
        <time>2016-03-12T09:16:04.324Z</time>
      </trkpt>
      <trkpt lat="43.72798" lon="5.8166">
        <ele>331</ele>
        <time>2016-03-12T09:16:07.351Z</time>
      </trkpt>
      <trkpt lat="43.72794" lon="5.8166">
        <ele>331</ele>
        <time>2016-03-12T09:16:08.323Z</time>
      </trkpt>
      <trkpt lat="43.72786" lon="5.81664">
        <ele>331</ele>
        <time>2016-03-12T09:16:11.349Z</time>
      </trkpt>
      <trkpt lat="43.72783" lon="5.81665">
        <ele>331</ele>
        <time>2016-03-12T09:16:12.336Z</time>
      </trkpt>
      <trkpt lat="43.72775" lon="5.81668">
        <ele>331</ele>
        <time>2016-03-12T09:16:15.572Z</time>
      </trkpt>
      <trkpt lat="43.72772" lon="5.81668">
        <ele>330</ele>
        <time>2016-03-12T09:16:16.321Z</time>
      </trkpt>
      <trkpt lat="43.72764" lon="5.81671">
        <ele>330</ele>
        <time>2016-03-12T09:16:19.398Z</time>
      </trkpt>
      <trkpt lat="43.72762" lon="5.81673">
        <ele>330</ele>
        <time>2016-03-12T09:16:20.325Z</time>
      </trkpt>
      <trkpt lat="43.72753" lon="5.81677">
        <ele>329</ele>
        <time>2016-03-12T09:16:47.351Z</time>
      </trkpt>
      <trkpt lat="43.72753" lon="5.81677">
        <ele>328</ele>
        <time>2016-03-12T09:16:48.324Z</time>
      </trkpt>
      <trkpt lat="43.72744" lon="5.8168">
        <ele>329</ele>
        <time>2016-03-12T09:28:28.355Z</time>
      </trkpt>
      <trkpt lat="43.72743" lon="5.81681">
        <ele>329</ele>
        <time>2016-03-12T09:28:29.329Z</time>
      </trkpt>
      <trkpt lat="43.72739" lon="5.81689">
        <ele>332</ele>
        <time>2016-03-12T09:29:08.356Z</time>
      </trkpt>
      <trkpt lat="43.7274" lon="5.81694">
        <ele>331</ele>
        <time>2016-03-12T09:29:09.327Z</time>
      </trkpt>
      <trkpt lat="43.72741" lon="5.81704">
        <ele>331</ele>
        <time>2016-03-12T09:29:11.352Z</time>
      </trkpt>
      <trkpt lat="43.72742" lon="5.81709">
        <ele>331</ele>
        <time>2016-03-12T09:29:12.328Z</time>
      </trkpt>
      <trkpt lat="43.72743" lon="5.81718">
        <ele>331</ele>
        <time>2016-03-12T09:29:14.353Z</time>
      </trkpt>
      <trkpt lat="43.72744" lon="5.81722">
        <ele>331</ele>
        <time>2016-03-12T09:29:15.327Z</time>
      </trkpt>
      <trkpt lat="43.72746" lon="5.81733">
        <ele>331</ele>
        <time>2016-03-12T09:29:18.571Z</time>
      </trkpt>
      <trkpt lat="43.72747" lon="5.81737">
        <ele>331</ele>
        <time>2016-03-12T09:29:19.326Z</time>
      </trkpt>
      <trkpt lat="43.72749" lon="5.81747">
        <ele>330</ele>
        <time>2016-03-12T09:29:22.353Z</time>
      </trkpt>
      <trkpt lat="43.7275" lon="5.81751">
        <ele>331</ele>
        <time>2016-03-12T09:29:23.354Z</time>
      </trkpt>
      <trkpt lat="43.72751" lon="5.81761">
        <ele>331</ele>
        <time>2016-03-12T09:29:26.353Z</time>
      </trkpt>
      <trkpt lat="43.72751" lon="5.81765">
        <ele>331</ele>
        <time>2016-03-12T09:29:27.327Z</time>
      </trkpt>
      <trkpt lat="43.72753" lon="5.81775">
        <ele>333</ele>
        <time>2016-03-12T09:29:30.352Z</time>
      </trkpt>
      <trkpt lat="43.72753" lon="5.81778">
        <ele>333</ele>
        <time>2016-03-12T09:29:31.327Z</time>
      </trkpt>
      <trkpt lat="43.72753" lon="5.81788">
        <ele>334</ele>
        <time>2016-03-12T09:29:34.352Z</time>
      </trkpt>
      <trkpt lat="43.72753" lon="5.81791">
        <ele>335</ele>
        <time>2016-03-12T09:29:35.326Z</time>
      </trkpt>
      <trkpt lat="43.72748" lon="5.81798">
        <ele>333</ele>
        <time>2016-03-12T09:29:38.352Z</time>
      </trkpt>
      <trkpt lat="43.72745" lon="5.81798">
        <ele>333</ele>
        <time>2016-03-12T09:29:39.365Z</time>
      </trkpt>
      <trkpt lat="43.72737" lon="5.81797">
        <ele>333</ele>
        <time>2016-03-12T09:29:42.565Z</time>
      </trkpt>
      <trkpt lat="43.72735" lon="5.81797">
        <ele>333</ele>
        <time>2016-03-12T09:29:43.323Z</time>
      </trkpt>
      <trkpt lat="43.72728" lon="5.81798">
        <ele>333</ele>
        <time>2016-03-12T09:29:46.353Z</time>
      </trkpt>
      <trkpt lat="43.72725" lon="5.81799">
        <ele>333</ele>
        <time>2016-03-12T09:29:47.327Z</time>
      </trkpt>
      <trkpt lat="43.72718" lon="5.81801">
        <ele>333</ele>
        <time>2016-03-12T09:29:50.379Z</time>
      </trkpt>
      <trkpt lat="43.72716" lon="5.81801">
        <ele>333</ele>
        <time>2016-03-12T09:29:51.324Z</time>
      </trkpt>
      <trkpt lat="43.72709" lon="5.81803">
        <ele>334</ele>
        <time>2016-03-12T09:29:54.352Z</time>
      </trkpt>
      <trkpt lat="43.72707" lon="5.81804">
        <ele>334</ele>
        <time>2016-03-12T09:29:55.328Z</time>
      </trkpt>
      <trkpt lat="43.727" lon="5.81805">
        <ele>333</ele>
        <time>2016-03-12T09:29:58.351Z</time>
      </trkpt>
      <trkpt lat="43.72698" lon="5.81805">
        <ele>333</ele>
        <time>2016-03-12T09:29:59.329Z</time>
      </trkpt>
      <trkpt lat="43.72689" lon="5.81803">
        <ele>332</ele>
        <time>2016-03-12T09:30:03.358Z</time>
      </trkpt>
      <trkpt lat="43.72688" lon="5.818">
        <ele>332</ele>
        <time>2016-03-12T09:30:04.336Z</time>
      </trkpt>
      <trkpt lat="43.72685" lon="5.81789">
        <ele>332</ele>
        <time>2016-03-12T09:30:07.353Z</time>
      </trkpt>
      <trkpt lat="43.72684" lon="5.81785">
        <ele>332</ele>
        <time>2016-03-12T09:30:08.324Z</time>
      </trkpt>
      <trkpt lat="43.72683" lon="5.81774">
        <ele>331</ele>
        <time>2016-03-12T09:30:11.353Z</time>
      </trkpt>
      <trkpt lat="43.72683" lon="5.81771">
        <ele>331</ele>
        <time>2016-03-12T09:30:12.327Z</time>
      </trkpt>
      <trkpt lat="43.72681" lon="5.81761">
        <ele>330</ele>
        <time>2016-03-12T09:30:15.352Z</time>
      </trkpt>
      <trkpt lat="43.7268" lon="5.81756">
        <ele>330</ele>
        <time>2016-03-12T09:30:16.328Z</time>
      </trkpt>
      <trkpt lat="43.72678" lon="5.81747">
        <ele>329</ele>
        <time>2016-03-12T09:30:18.354Z</time>
      </trkpt>
      <trkpt lat="43.72677" lon="5.81742">
        <ele>330</ele>
        <time>2016-03-12T09:30:19.328Z</time>
      </trkpt>
      <trkpt lat="43.72676" lon="5.81733">
        <ele>330</ele>
        <time>2016-03-12T09:30:21.357Z</time>
      </trkpt>
      <trkpt lat="43.72675" lon="5.81729">
        <ele>330</ele>
        <time>2016-03-12T09:30:22.327Z</time>
      </trkpt>
      <trkpt lat="43.72675" lon="5.81718">
        <ele>330</ele>
        <time>2016-03-12T09:30:24.352Z</time>
      </trkpt>
      <trkpt lat="43.72674" lon="5.81712">
        <ele>330</ele>
        <time>2016-03-12T09:30:25.328Z</time>
      </trkpt>
      <trkpt lat="43.72674" lon="5.81705">
        <ele>329</ele>
        <time>2016-03-12T09:30:26.365Z</time>
      </trkpt>
      <trkpt lat="43.72673" lon="5.81699">
        <ele>329</ele>
        <time>2016-03-12T09:30:27.328Z</time>
      </trkpt>
      <trkpt lat="43.72672" lon="5.81687">
        <ele>329</ele>
        <time>2016-03-12T09:30:29.354Z</time>
      </trkpt>
      <trkpt lat="43.72671" lon="5.81682">
        <ele>329</ele>
        <time>2016-03-12T09:30:30.327Z</time>
      </trkpt>
      <trkpt lat="43.7267" lon="5.8167">
        <ele>329</ele>
        <time>2016-03-12T09:30:32.353Z</time>
      </trkpt>
      <trkpt lat="43.7267" lon="5.81664">
        <ele>329</ele>
        <time>2016-03-12T09:30:33.364Z</time>
      </trkpt>
      <trkpt lat="43.72668" lon="5.81653">
        <ele>329</ele>
        <time>2016-03-12T09:30:35.354Z</time>
      </trkpt>
      <trkpt lat="43.72668" lon="5.81648">
        <ele>329</ele>
        <time>2016-03-12T09:30:36.328Z</time>
      </trkpt>
      <trkpt lat="43.72666" lon="5.81639">
        <ele>329</ele>
        <time>2016-03-12T09:30:38.362Z</time>
      </trkpt>
      <trkpt lat="43.72666" lon="5.81635">
        <ele>329</ele>
        <time>2016-03-12T09:30:39.328Z</time>
      </trkpt>
      <trkpt lat="43.72665" lon="5.81624">
        <ele>329</ele>
        <time>2016-03-12T09:30:42.353Z</time>
      </trkpt>
      <trkpt lat="43.72665" lon="5.81619">
        <ele>329</ele>
        <time>2016-03-12T09:30:43.545Z</time>
      </trkpt>
      <trkpt lat="43.72663" lon="5.81608">
        <ele>329</ele>
        <time>2016-03-12T09:30:45.354Z</time>
      </trkpt>
      <trkpt lat="43.72663" lon="5.81603">
        <ele>328</ele>
        <time>2016-03-12T09:30:46.327Z</time>
      </trkpt>
      <trkpt lat="43.72662" lon="5.81592">
        <ele>328</ele>
        <time>2016-03-12T09:30:48.354Z</time>
      </trkpt>
      <trkpt lat="43.72661" lon="5.81587">
        <ele>328</ele>
        <time>2016-03-12T09:30:49.328Z</time>
      </trkpt>
      <trkpt lat="43.7266" lon="5.81575">
        <ele>327</ele>
        <time>2016-03-12T09:30:51.354Z</time>
      </trkpt>
      <trkpt lat="43.72659" lon="5.81569">
        <ele>327</ele>
        <time>2016-03-12T09:30:52.328Z</time>
      </trkpt>
      <trkpt lat="43.72658" lon="5.81561">
        <ele>327</ele>
        <time>2016-03-12T09:30:53.353Z</time>
      </trkpt>
      <trkpt lat="43.72657" lon="5.81555">
        <ele>327</ele>
        <time>2016-03-12T09:30:54.328Z</time>
      </trkpt>
      <trkpt lat="43.72657" lon="5.81549">
        <ele>327</ele>
        <time>2016-03-12T09:30:55.353Z</time>
      </trkpt>
      <trkpt lat="43.72656" lon="5.81541">
        <ele>327</ele>
        <time>2016-03-12T09:30:56.328Z</time>
      </trkpt>
      <trkpt lat="43.72656" lon="5.81535">
        <ele>327</ele>
        <time>2016-03-12T09:30:57.354Z</time>
      </trkpt>
      <trkpt lat="43.72656" lon="5.81529">
        <ele>327</ele>
        <time>2016-03-12T09:30:58.328Z</time>
      </trkpt>
      <trkpt lat="43.72653" lon="5.81518">
        <ele>327</ele>
        <time>2016-03-12T09:31:00.379Z</time>
      </trkpt>
      <trkpt lat="43.72653" lon="5.81511">
        <ele>327</ele>
        <time>2016-03-12T09:31:01.328Z</time>
      </trkpt>
      <trkpt lat="43.72651" lon="5.81499">
        <ele>327</ele>
        <time>2016-03-12T09:31:03.353Z</time>
      </trkpt>
      <trkpt lat="43.72651" lon="5.81493">
        <ele>327</ele>
        <time>2016-03-12T09:31:04.328Z</time>
      </trkpt>
      <trkpt lat="43.72648" lon="5.81483">
        <ele>327</ele>
        <time>2016-03-12T09:31:06.583Z</time>
      </trkpt>
      <trkpt lat="43.72647" lon="5.81478">
        <ele>327</ele>
        <time>2016-03-12T09:31:07.325Z</time>
      </trkpt>
      <trkpt lat="43.72645" lon="5.81467">
        <ele>327</ele>
        <time>2016-03-12T09:31:09.350Z</time>
      </trkpt>
      <trkpt lat="43.72645" lon="5.81461">
        <ele>327</ele>
        <time>2016-03-12T09:31:10.328Z</time>
      </trkpt>
      <trkpt lat="43.72644" lon="5.81449">
        <ele>327</ele>
        <time>2016-03-12T09:31:12.353Z</time>
      </trkpt>
      <trkpt lat="43.72643" lon="5.81444">
        <ele>327</ele>
        <time>2016-03-12T09:31:13.324Z</time>
      </trkpt>
      <trkpt lat="43.72642" lon="5.81433">
        <ele>326</ele>
        <time>2016-03-12T09:31:15.354Z</time>
      </trkpt>
      <trkpt lat="43.72641" lon="5.81428">
        <ele>326</ele>
        <time>2016-03-12T09:31:16.353Z</time>
      </trkpt>
      <trkpt lat="43.72639" lon="5.81418">
        <ele>327</ele>
        <time>2016-03-12T09:31:18.350Z</time>
      </trkpt>
      <trkpt lat="43.72639" lon="5.81413">
        <ele>328</ele>
        <time>2016-03-12T09:31:19.326Z</time>
      </trkpt>
      <trkpt lat="43.72637" lon="5.81405">
        <ele>328</ele>
        <time>2016-03-12T09:31:21.353Z</time>
      </trkpt>
      <trkpt lat="43.72637" lon="5.814">
        <ele>328</ele>
        <time>2016-03-12T09:31:22.328Z</time>
      </trkpt>
      <trkpt lat="43.72637" lon="5.8139">
        <ele>328</ele>
        <time>2016-03-12T09:31:24.354Z</time>
      </trkpt>
      <trkpt lat="43.72637" lon="5.81385">
        <ele>328</ele>
        <time>2016-03-12T09:31:25.327Z</time>
      </trkpt>
      <trkpt lat="43.72636" lon="5.81374">
        <ele>329</ele>
        <time>2016-03-12T09:31:27.355Z</time>
      </trkpt>
      <trkpt lat="43.72636" lon="5.81369">
        <ele>329</ele>
        <time>2016-03-12T09:31:28.329Z</time>
      </trkpt>
      <trkpt lat="43.72636" lon="5.81359">
        <ele>330</ele>
        <time>2016-03-12T09:31:30.353Z</time>
      </trkpt>
      <trkpt lat="43.72635" lon="5.81354">
        <ele>330</ele>
        <time>2016-03-12T09:31:31.328Z</time>
      </trkpt>
      <trkpt lat="43.72635" lon="5.81344">
        <ele>331</ele>
        <time>2016-03-12T09:31:33.354Z</time>
      </trkpt>
      <trkpt lat="43.72635" lon="5.8134">
        <ele>331</ele>
        <time>2016-03-12T09:31:34.326Z</time>
      </trkpt>
      <trkpt lat="43.72634" lon="5.81331">
        <ele>331</ele>
        <time>2016-03-12T09:31:36.353Z</time>
      </trkpt>
      <trkpt lat="43.72633" lon="5.81327">
        <ele>330</ele>
        <time>2016-03-12T09:31:37.329Z</time>
      </trkpt>
      <trkpt lat="43.72629" lon="5.81319">
        <ele>330</ele>
        <time>2016-03-12T09:31:40.455Z</time>
      </trkpt>
      <trkpt lat="43.72626" lon="5.81319">
        <ele>330</ele>
        <time>2016-03-12T09:31:41.324Z</time>
      </trkpt>
      <trkpt lat="43.72619" lon="5.81321">
        <ele>330</ele>
        <time>2016-03-12T09:31:43.404Z</time>
      </trkpt>
      <trkpt lat="43.72616" lon="5.81323">
        <ele>331</ele>
        <time>2016-03-12T09:31:44.328Z</time>
      </trkpt>
      <trkpt lat="43.7261" lon="5.81326">
        <ele>334</ele>
        <time>2016-03-12T09:31:46.365Z</time>
      </trkpt>
      <trkpt lat="43.72608" lon="5.81327">
        <ele>335</ele>
        <time>2016-03-12T09:31:47.328Z</time>
      </trkpt>
      <trkpt lat="43.726" lon="5.8133">
        <ele>335</ele>
        <time>2016-03-12T09:31:50.353Z</time>
      </trkpt>
      <trkpt lat="43.72597" lon="5.8133">
        <ele>336</ele>
        <time>2016-03-12T09:31:51.329Z</time>
      </trkpt>
      <trkpt lat="43.7259" lon="5.81331">
        <ele>337</ele>
        <time>2016-03-12T09:31:54.350Z</time>
      </trkpt>
      <trkpt lat="43.72587" lon="5.81331">
        <ele>337</ele>
        <time>2016-03-12T09:31:55.325Z</time>
      </trkpt>
      <trkpt lat="43.72582" lon="5.81328">
        <ele>336</ele>
        <time>2016-03-12T09:31:57.371Z</time>
      </trkpt>
      <trkpt lat="43.72579" lon="5.81325">
        <ele>336</ele>
        <time>2016-03-12T09:31:58.328Z</time>
      </trkpt>
      <trkpt lat="43.72573" lon="5.81317">
        <ele>335</ele>
        <time>2016-03-12T09:32:00.356Z</time>
      </trkpt>
      <trkpt lat="43.7257" lon="5.81313">
        <ele>334</ele>
        <time>2016-03-12T09:32:01.324Z</time>
      </trkpt>
      <trkpt lat="43.72567" lon="5.81308">
        <ele>333</ele>
        <time>2016-03-12T09:32:02.352Z</time>
      </trkpt>
      <trkpt lat="43.72565" lon="5.81302">
        <ele>333</ele>
        <time>2016-03-12T09:32:03.345Z</time>
      </trkpt>
      <trkpt lat="43.72564" lon="5.81296">
        <ele>333</ele>
        <time>2016-03-12T09:32:04.380Z</time>
      </trkpt>
      <trkpt lat="43.72562" lon="5.8129">
        <ele>333</ele>
        <time>2016-03-12T09:32:05.552Z</time>
      </trkpt>
      <trkpt lat="43.72559" lon="5.81281">
        <ele>333</ele>
        <time>2016-03-12T09:32:07.354Z</time>
      </trkpt>
      <trkpt lat="43.72557" lon="5.81276">
        <ele>333</ele>
        <time>2016-03-12T09:32:08.329Z</time>
      </trkpt>
      <trkpt lat="43.72553" lon="5.81268">
        <ele>333</ele>
        <time>2016-03-12T09:32:10.353Z</time>
      </trkpt>
      <trkpt lat="43.72552" lon="5.81263">
        <ele>333</ele>
        <time>2016-03-12T09:32:11.327Z</time>
      </trkpt>
      <trkpt lat="43.7255" lon="5.81254">
        <ele>332</ele>
        <time>2016-03-12T09:32:13.354Z</time>
      </trkpt>
      <trkpt lat="43.72549" lon="5.81249">
        <ele>331</ele>
        <time>2016-03-12T09:32:14.327Z</time>
      </trkpt>
      <trkpt lat="43.72546" lon="5.8124">
        <ele>330</ele>
        <time>2016-03-12T09:32:16.354Z</time>
      </trkpt>
      <trkpt lat="43.72544" lon="5.81236">
        <ele>330</ele>
        <time>2016-03-12T09:32:17.328Z</time>
      </trkpt>
      <trkpt lat="43.72541" lon="5.81226">
        <ele>329</ele>
        <time>2016-03-12T09:32:19.353Z</time>
      </trkpt>
      <trkpt lat="43.72539" lon="5.81222">
        <ele>329</ele>
        <time>2016-03-12T09:32:20.352Z</time>
      </trkpt>
      <trkpt lat="43.72535" lon="5.81214">
        <ele>329</ele>
        <time>2016-03-12T09:32:22.353Z</time>
      </trkpt>
      <trkpt lat="43.72532" lon="5.8121">
        <ele>330</ele>
        <time>2016-03-12T09:32:23.328Z</time>
      </trkpt>
      <trkpt lat="43.72527" lon="5.81203">
        <ele>332</ele>
        <time>2016-03-12T09:32:25.355Z</time>
      </trkpt>
      <trkpt lat="43.72525" lon="5.812">
        <ele>333</ele>
        <time>2016-03-12T09:32:26.329Z</time>
      </trkpt>
      <trkpt lat="43.72518" lon="5.81196">
        <ele>334</ele>
        <time>2016-03-12T09:32:30.353Z</time>
      </trkpt>
      <trkpt lat="43.72516" lon="5.81197">
        <ele>335</ele>
        <time>2016-03-12T09:32:31.329Z</time>
      </trkpt>
      <trkpt lat="43.72508" lon="5.81194">
        <ele>334</ele>
        <time>2016-03-12T09:32:35.355Z</time>
      </trkpt>
      <trkpt lat="43.72506" lon="5.81193">
        <ele>334</ele>
        <time>2016-03-12T09:32:36.354Z</time>
      </trkpt>
      <trkpt lat="43.72499" lon="5.8119">
        <ele>336</ele>
        <time>2016-03-12T09:32:39.353Z</time>
      </trkpt>
      <trkpt lat="43.72496" lon="5.81189">
        <ele>335</ele>
        <time>2016-03-12T09:32:40.328Z</time>
      </trkpt>
      <trkpt lat="43.72487" lon="5.8119">
        <ele>335</ele>
        <time>2016-03-12T09:32:44.354Z</time>
      </trkpt>
      <trkpt lat="43.72485" lon="5.81191">
        <ele>335</ele>
        <time>2016-03-12T09:32:45.328Z</time>
      </trkpt>
      <trkpt lat="43.72476" lon="5.81192">
        <ele>336</ele>
        <time>2016-03-12T09:32:50.353Z</time>
      </trkpt>
      <trkpt lat="43.72475" lon="5.81192">
        <ele>335</ele>
        <time>2016-03-12T09:32:51.328Z</time>
      </trkpt>
      <trkpt lat="43.72467" lon="5.81192">
        <ele>335</ele>
        <time>2016-03-12T09:32:55.353Z</time>
      </trkpt>
      <trkpt lat="43.72465" lon="5.81192">
        <ele>337</ele>
        <time>2016-03-12T09:32:56.329Z</time>
      </trkpt>
      <trkpt lat="43.72457" lon="5.81188">
        <ele>337</ele>
        <time>2016-03-12T09:33:00.353Z</time>
      </trkpt>
      <trkpt lat="43.72456" lon="5.81187">
        <ele>338</ele>
        <time>2016-03-12T09:33:01.327Z</time>
      </trkpt>
      <trkpt lat="43.72448" lon="5.81184">
        <ele>340</ele>
        <time>2016-03-12T09:33:05.355Z</time>
      </trkpt>
      <trkpt lat="43.72446" lon="5.81184">
        <ele>341</ele>
        <time>2016-03-12T09:33:06.327Z</time>
      </trkpt>
      <trkpt lat="43.72437" lon="5.81183">
        <ele>341</ele>
        <time>2016-03-12T09:33:10.354Z</time>
      </trkpt>
      <trkpt lat="43.72434" lon="5.81183">
        <ele>340</ele>
        <time>2016-03-12T09:33:11.328Z</time>
      </trkpt>
      <trkpt lat="43.72426" lon="5.8118">
        <ele>340</ele>
        <time>2016-03-12T09:33:15.351Z</time>
      </trkpt>
      <trkpt lat="43.72425" lon="5.81179">
        <ele>341</ele>
        <time>2016-03-12T09:33:16.340Z</time>
      </trkpt>
      <trkpt lat="43.72418" lon="5.81183">
        <ele>338</ele>
        <time>2016-03-12T09:33:20.353Z</time>
      </trkpt>
      <trkpt lat="43.72416" lon="5.81185">
        <ele>342</ele>
        <time>2016-03-12T09:33:21.340Z</time>
      </trkpt>
      <trkpt lat="43.72408" lon="5.81191">
        <ele>358</ele>
        <time>2016-03-12T09:33:27.355Z</time>
      </trkpt>
      <trkpt lat="43.72407" lon="5.81192">
        <ele>362</ele>
        <time>2016-03-12T09:33:28.327Z</time>
      </trkpt>
      <trkpt lat="43.72402" lon="5.81202">
        <ele>370</ele>
        <time>2016-03-12T09:33:36.354Z</time>
      </trkpt>
      <trkpt lat="43.72401" lon="5.81203">
        <ele>371</ele>
        <time>2016-03-12T09:33:37.327Z</time>
      </trkpt>
      <trkpt lat="43.72397" lon="5.81212">
        <ele>371</ele>
        <time>2016-03-12T09:33:42.350Z</time>
      </trkpt>
      <trkpt lat="43.72397" lon="5.81214">
        <ele>370</ele>
        <time>2016-03-12T09:33:43.328Z</time>
      </trkpt>
      <trkpt lat="43.72394" lon="5.81225">
        <ele>366</ele>
        <time>2016-03-12T09:33:48.348Z</time>
      </trkpt>
      <trkpt lat="43.72394" lon="5.81226">
        <ele>365</ele>
        <time>2016-03-12T09:33:49.324Z</time>
      </trkpt>
      <trkpt lat="43.7239" lon="5.81236">
        <ele>363</ele>
        <time>2016-03-12T09:33:54.432Z</time>
      </trkpt>
      <trkpt lat="43.72388" lon="5.81237">
        <ele>363</ele>
        <time>2016-03-12T09:33:55.328Z</time>
      </trkpt>
      <trkpt lat="43.72381" lon="5.81242">
        <ele>360</ele>
        <time>2016-03-12T09:33:57.380Z</time>
      </trkpt>
      <trkpt lat="43.72378" lon="5.81243">
        <ele>357</ele>
        <time>2016-03-12T09:33:58.328Z</time>
      </trkpt>
      <trkpt lat="43.72372" lon="5.81247">
        <ele>358</ele>
        <time>2016-03-12T09:34:00.355Z</time>
      </trkpt>
      <trkpt lat="43.72369" lon="5.81248">
        <ele>354</ele>
        <time>2016-03-12T09:34:01.325Z</time>
      </trkpt>
      <trkpt lat="43.72364" lon="5.8125">
        <ele>352</ele>
        <time>2016-03-12T09:34:02.355Z</time>
      </trkpt>
      <trkpt lat="43.72358" lon="5.81252">
        <ele>351</ele>
        <time>2016-03-12T09:34:03.325Z</time>
      </trkpt>
      <trkpt lat="43.72353" lon="5.81253">
        <ele>350</ele>
        <time>2016-03-12T09:34:04.354Z</time>
      </trkpt>
      <trkpt lat="43.72345" lon="5.81257">
        <ele>350</ele>
        <time>2016-03-12T09:34:05.329Z</time>
      </trkpt>
      <trkpt lat="43.7234" lon="5.81257">
        <ele>348</ele>
        <time>2016-03-12T09:34:06.428Z</time>
      </trkpt>
      <trkpt lat="43.72334" lon="5.81256">
        <ele>348</ele>
        <time>2016-03-12T09:34:07.328Z</time>
      </trkpt>
      <trkpt lat="43.72329" lon="5.81254">
        <ele>347</ele>
        <time>2016-03-12T09:34:08.381Z</time>
      </trkpt>
      <trkpt lat="43.72326" lon="5.81249">
        <ele>347</ele>
        <time>2016-03-12T09:34:09.328Z</time>
      </trkpt>
      <trkpt lat="43.72321" lon="5.81248">
        <ele>346</ele>
        <time>2016-03-12T09:34:10.354Z</time>
      </trkpt>
      <trkpt lat="43.72315" lon="5.81247">
        <ele>344</ele>
        <time>2016-03-12T09:34:11.328Z</time>
      </trkpt>
      <trkpt lat="43.7231" lon="5.81245">
        <ele>343</ele>
        <time>2016-03-12T09:34:12.356Z</time>
      </trkpt>
      <trkpt lat="43.72304" lon="5.81244">
        <ele>343</ele>
        <time>2016-03-12T09:34:13.320Z</time>
      </trkpt>
      <trkpt lat="43.72296" lon="5.81244">
        <ele>343</ele>
        <time>2016-03-12T09:34:15.359Z</time>
      </trkpt>
      <trkpt lat="43.72293" lon="5.81245">
        <ele>341</ele>
        <time>2016-03-12T09:34:16.327Z</time>
      </trkpt>
      <trkpt lat="43.72284" lon="5.81246">
        <ele>344</ele>
        <time>2016-03-12T09:34:19.409Z</time>
      </trkpt>
      <trkpt lat="43.72282" lon="5.81247">
        <ele>345</ele>
        <time>2016-03-12T09:34:20.327Z</time>
      </trkpt>
      <trkpt lat="43.72275" lon="5.81248">
        <ele>346</ele>
        <time>2016-03-12T09:34:22.348Z</time>
      </trkpt>
      <trkpt lat="43.72271" lon="5.81249">
        <ele>346</ele>
        <time>2016-03-12T09:34:23.328Z</time>
      </trkpt>
      <trkpt lat="43.72265" lon="5.81252">
        <ele>345</ele>
        <time>2016-03-12T09:34:25.349Z</time>
      </trkpt>
      <trkpt lat="43.72262" lon="5.81253">
        <ele>344</ele>
        <time>2016-03-12T09:34:26.327Z</time>
      </trkpt>
      <trkpt lat="43.72256" lon="5.81255">
        <ele>346</ele>
        <time>2016-03-12T09:34:28.354Z</time>
      </trkpt>
      <trkpt lat="43.72253" lon="5.81256">
        <ele>346</ele>
        <time>2016-03-12T09:34:29.329Z</time>
      </trkpt>
      <trkpt lat="43.72244" lon="5.81259">
        <ele>345</ele>
        <time>2016-03-12T09:34:32.355Z</time>
      </trkpt>
      <trkpt lat="43.72241" lon="5.81259">
        <ele>347</ele>
        <time>2016-03-12T09:34:33.329Z</time>
      </trkpt>
      <trkpt lat="43.72233" lon="5.81259">
        <ele>348</ele>
        <time>2016-03-12T09:34:36.354Z</time>
      </trkpt>
      <trkpt lat="43.72229" lon="5.81261">
        <ele>347</ele>
        <time>2016-03-12T09:34:37.329Z</time>
      </trkpt>
      <trkpt lat="43.72223" lon="5.81265">
        <ele>346</ele>
        <time>2016-03-12T09:34:39.355Z</time>
      </trkpt>
      <trkpt lat="43.72219" lon="5.81267">
        <ele>346</ele>
        <time>2016-03-12T09:34:40.350Z</time>
      </trkpt>
      <trkpt lat="43.72212" lon="5.8127">
        <ele>345</ele>
        <time>2016-03-12T09:34:42.355Z</time>
      </trkpt>
      <trkpt lat="43.72208" lon="5.81272">
        <ele>345</ele>
        <time>2016-03-12T09:34:43.326Z</time>
      </trkpt>
      <trkpt lat="43.72201" lon="5.81275">
        <ele>346</ele>
        <time>2016-03-12T09:34:45.354Z</time>
      </trkpt>
      <trkpt lat="43.72198" lon="5.81277">
        <ele>346</ele>
        <time>2016-03-12T09:34:46.328Z</time>
      </trkpt>
      <trkpt lat="43.72191" lon="5.8128">
        <ele>346</ele>
        <time>2016-03-12T09:34:48.354Z</time>
      </trkpt>
      <trkpt lat="43.72187" lon="5.81281">
        <ele>347</ele>
        <time>2016-03-12T09:34:49.329Z</time>
      </trkpt>
      <trkpt lat="43.72181" lon="5.81283">
        <ele>347</ele>
        <time>2016-03-12T09:34:51.354Z</time>
      </trkpt>
      <trkpt lat="43.72178" lon="5.81285">
        <ele>347</ele>
        <time>2016-03-12T09:34:52.329Z</time>
      </trkpt>
      <trkpt lat="43.72171" lon="5.81286">
        <ele>348</ele>
        <time>2016-03-12T09:34:54.354Z</time>
      </trkpt>
      <trkpt lat="43.72168" lon="5.81287">
        <ele>348</ele>
        <time>2016-03-12T09:34:55.328Z</time>
      </trkpt>
      <trkpt lat="43.72161" lon="5.81288">
        <ele>349</ele>
        <time>2016-03-12T09:34:57.354Z</time>
      </trkpt>
      <trkpt lat="43.72158" lon="5.81288">
        <ele>348</ele>
        <time>2016-03-12T09:34:58.329Z</time>
      </trkpt>
      <trkpt lat="43.72152" lon="5.81287">
        <ele>348</ele>
        <time>2016-03-12T09:35:00.348Z</time>
      </trkpt>
      <trkpt lat="43.72148" lon="5.81286">
        <ele>349</ele>
        <time>2016-03-12T09:35:01.340Z</time>
      </trkpt>
      <trkpt lat="43.72142" lon="5.81284">
        <ele>349</ele>
        <time>2016-03-12T09:35:03.353Z</time>
      </trkpt>
      <trkpt lat="43.72138" lon="5.81283">
        <ele>350</ele>
        <time>2016-03-12T09:35:04.325Z</time>
      </trkpt>
      <trkpt lat="43.72132" lon="5.81281">
        <ele>351</ele>
        <time>2016-03-12T09:35:06.354Z</time>
      </trkpt>
      <trkpt lat="43.72128" lon="5.8128">
        <ele>351</ele>
        <time>2016-03-12T09:35:07.329Z</time>
      </trkpt>
      <trkpt lat="43.72122" lon="5.81277">
        <ele>351</ele>
        <time>2016-03-12T09:35:09.351Z</time>
      </trkpt>
      <trkpt lat="43.72119" lon="5.81275">
        <ele>351</ele>
        <time>2016-03-12T09:35:10.328Z</time>
      </trkpt>
      <trkpt lat="43.72113" lon="5.81271">
        <ele>351</ele>
        <time>2016-03-12T09:35:12.381Z</time>
      </trkpt>
      <trkpt lat="43.7211" lon="5.81269">
        <ele>351</ele>
        <time>2016-03-12T09:35:13.328Z</time>
      </trkpt>
      <trkpt lat="43.72104" lon="5.81264">
        <ele>351</ele>
        <time>2016-03-12T09:35:15.354Z</time>
      </trkpt>
      <trkpt lat="43.72101" lon="5.81261">
        <ele>350</ele>
        <time>2016-03-12T09:35:16.325Z</time>
      </trkpt>
      <trkpt lat="43.72095" lon="5.81256">
        <ele>349</ele>
        <time>2016-03-12T09:35:18.356Z</time>
      </trkpt>
      <trkpt lat="43.72092" lon="5.81254">
        <ele>349</ele>
        <time>2016-03-12T09:35:19.325Z</time>
      </trkpt>
      <trkpt lat="43.72087" lon="5.81248">
        <ele>348</ele>
        <time>2016-03-12T09:35:21.365Z</time>
      </trkpt>
      <trkpt lat="43.72084" lon="5.81245">
        <ele>348</ele>
        <time>2016-03-12T09:35:22.329Z</time>
      </trkpt>
      <trkpt lat="43.72079" lon="5.8124">
        <ele>348</ele>
        <time>2016-03-12T09:35:24.351Z</time>
      </trkpt>
      <trkpt lat="43.72076" lon="5.81238">
        <ele>348</ele>
        <time>2016-03-12T09:35:25.329Z</time>
      </trkpt>
      <trkpt lat="43.7207" lon="5.81232">
        <ele>349</ele>
        <time>2016-03-12T09:35:28.354Z</time>
      </trkpt>
      <trkpt lat="43.72068" lon="5.8123">
        <ele>350</ele>
        <time>2016-03-12T09:35:29.341Z</time>
      </trkpt>
      <trkpt lat="43.72063" lon="5.81223">
        <ele>350</ele>
        <time>2016-03-12T09:35:32.351Z</time>
      </trkpt>
      <trkpt lat="43.72062" lon="5.81221">
        <ele>349</ele>
        <time>2016-03-12T09:35:33.329Z</time>
      </trkpt>
      <trkpt lat="43.72054" lon="5.81215">
        <ele>347</ele>
        <time>2016-03-12T09:35:37.351Z</time>
      </trkpt>
      <trkpt lat="43.72052" lon="5.81213">
        <ele>348</ele>
        <time>2016-03-12T09:35:38.348Z</time>
      </trkpt>
      <trkpt lat="43.72047" lon="5.81206">
        <ele>349</ele>
        <time>2016-03-12T09:35:43.589Z</time>
      </trkpt>
      <trkpt lat="43.72046" lon="5.81204">
        <ele>350</ele>
        <time>2016-03-12T09:35:44.329Z</time>
      </trkpt>
      <trkpt lat="43.72042" lon="5.81196">
        <ele>353</ele>
        <time>2016-03-12T09:35:49.424Z</time>
      </trkpt>
      <trkpt lat="43.7204" lon="5.81194">
        <ele>352</ele>
        <time>2016-03-12T09:35:50.329Z</time>
      </trkpt>
      <trkpt lat="43.72035" lon="5.81189">
        <ele>352</ele>
        <time>2016-03-12T09:35:52.354Z</time>
      </trkpt>
      <trkpt lat="43.72032" lon="5.81187">
        <ele>352</ele>
        <time>2016-03-12T09:35:53.328Z</time>
      </trkpt>
      <trkpt lat="43.72027" lon="5.81182">
        <ele>352</ele>
        <time>2016-03-12T09:35:55.379Z</time>
      </trkpt>
      <trkpt lat="43.72025" lon="5.8118">
        <ele>353</ele>
        <time>2016-03-12T09:35:56.329Z</time>
      </trkpt>
      <trkpt lat="43.7202" lon="5.81174">
        <ele>353</ele>
        <time>2016-03-12T09:35:58.358Z</time>
      </trkpt>
      <trkpt lat="43.72018" lon="5.81172">
        <ele>352</ele>
        <time>2016-03-12T09:35:59.329Z</time>
      </trkpt>
      <trkpt lat="43.72013" lon="5.81165">
        <ele>351</ele>
        <time>2016-03-12T09:36:01.363Z</time>
      </trkpt>
      <trkpt lat="43.72011" lon="5.81162">
        <ele>350</ele>
        <time>2016-03-12T09:36:02.330Z</time>
      </trkpt>
      <trkpt lat="43.72007" lon="5.81155">
        <ele>350</ele>
        <time>2016-03-12T09:36:04.355Z</time>
      </trkpt>
      <trkpt lat="43.72005" lon="5.81151">
        <ele>350</ele>
        <time>2016-03-12T09:36:05.328Z</time>
      </trkpt>
      <trkpt lat="43.72001" lon="5.81145">
        <ele>350</ele>
        <time>2016-03-12T09:36:07.356Z</time>
      </trkpt>
      <trkpt lat="43.71999" lon="5.81141">
        <ele>351</ele>
        <time>2016-03-12T09:36:08.326Z</time>
      </trkpt>
      <trkpt lat="43.71994" lon="5.81132">
        <ele>351</ele>
        <time>2016-03-12T09:36:11.356Z</time>
      </trkpt>
      <trkpt lat="43.71992" lon="5.81129">
        <ele>351</ele>
        <time>2016-03-12T09:36:12.328Z</time>
      </trkpt>
      <trkpt lat="43.71987" lon="5.81123">
        <ele>351</ele>
        <time>2016-03-12T09:36:14.354Z</time>
      </trkpt>
      <trkpt lat="43.71986" lon="5.81119">
        <ele>351</ele>
        <time>2016-03-12T09:36:15.328Z</time>
      </trkpt>
      <trkpt lat="43.71981" lon="5.81113">
        <ele>349</ele>
        <time>2016-03-12T09:36:17.351Z</time>
      </trkpt>
      <trkpt lat="43.7198" lon="5.81109">
        <ele>349</ele>
        <time>2016-03-12T09:36:18.329Z</time>
      </trkpt>
      <trkpt lat="43.71978" lon="5.81101">
        <ele>348</ele>
        <time>2016-03-12T09:36:20.354Z</time>
      </trkpt>
      <trkpt lat="43.71977" lon="5.81097">
        <ele>348</ele>
        <time>2016-03-12T09:36:21.328Z</time>
      </trkpt>
      <trkpt lat="43.71976" lon="5.81086">
        <ele>348</ele>
        <time>2016-03-12T09:36:24.357Z</time>
      </trkpt>
      <trkpt lat="43.71975" lon="5.81084">
        <ele>348</ele>
        <time>2016-03-12T09:36:25.329Z</time>
      </trkpt>
      <trkpt lat="43.71973" lon="5.81073">
        <ele>349</ele>
        <time>2016-03-12T09:36:31.405Z</time>
      </trkpt>
      <trkpt lat="43.71973" lon="5.81072">
        <ele>350</ele>
        <time>2016-03-12T09:36:32.329Z</time>
      </trkpt>
      <trkpt lat="43.7197" lon="5.81061">
        <ele>352</ele>
        <time>2016-03-12T09:36:38.355Z</time>
      </trkpt>
      <trkpt lat="43.71969" lon="5.81059">
        <ele>352</ele>
        <time>2016-03-12T09:36:39.326Z</time>
      </trkpt>
      <trkpt lat="43.71967" lon="5.81048">
        <ele>354</ele>
        <time>2016-03-12T09:36:46.355Z</time>
      </trkpt>
      <trkpt lat="43.71967" lon="5.81047">
        <ele>355</ele>
        <time>2016-03-12T09:36:47.329Z</time>
      </trkpt>
      <trkpt lat="43.71962" lon="5.81037">
        <ele>356</ele>
        <time>2016-03-12T09:36:53.350Z</time>
      </trkpt>
      <trkpt lat="43.71962" lon="5.81036">
        <ele>356</ele>
        <time>2016-03-12T09:36:54.328Z</time>
      </trkpt>
      <trkpt lat="43.71954" lon="5.81028">
        <ele>355</ele>
        <time>2016-03-12T09:37:00.436Z</time>
      </trkpt>
      <trkpt lat="43.71953" lon="5.81027">
        <ele>355</ele>
        <time>2016-03-12T09:37:01.329Z</time>
      </trkpt>
      <trkpt lat="43.71946" lon="5.81023">
        <ele>355</ele>
        <time>2016-03-12T09:37:06.355Z</time>
      </trkpt>
      <trkpt lat="43.71944" lon="5.81022">
        <ele>355</ele>
        <time>2016-03-12T09:37:07.330Z</time>
      </trkpt>
      <trkpt lat="43.71936" lon="5.81018">
        <ele>354</ele>
        <time>2016-03-12T09:37:13.356Z</time>
      </trkpt>
      <trkpt lat="43.71934" lon="5.81017">
        <ele>354</ele>
        <time>2016-03-12T09:37:14.326Z</time>
      </trkpt>
      <trkpt lat="43.71926" lon="5.81015">
        <ele>355</ele>
        <time>2016-03-12T09:37:20.355Z</time>
      </trkpt>
      <trkpt lat="43.71924" lon="5.81015">
        <ele>355</ele>
        <time>2016-03-12T09:37:21.329Z</time>
      </trkpt>
      <trkpt lat="43.71916" lon="5.81014">
        <ele>357</ele>
        <time>2016-03-12T09:37:27.383Z</time>
      </trkpt>
      <trkpt lat="43.71915" lon="5.81013">
        <ele>357</ele>
        <time>2016-03-12T09:37:28.325Z</time>
      </trkpt>
      <trkpt lat="43.71907" lon="5.8101">
        <ele>358</ele>
        <time>2016-03-12T09:37:35.351Z</time>
      </trkpt>
      <trkpt lat="43.71905" lon="5.8101">
        <ele>358</ele>
        <time>2016-03-12T09:37:36.326Z</time>
      </trkpt>
      <trkpt lat="43.71897" lon="5.81007">
        <ele>360</ele>
        <time>2016-03-12T09:37:43.380Z</time>
      </trkpt>
      <trkpt lat="43.71895" lon="5.81007">
        <ele>360</ele>
        <time>2016-03-12T09:37:44.322Z</time>
      </trkpt>
      <trkpt lat="43.71888" lon="5.81002">
        <ele>363</ele>
        <time>2016-03-12T09:37:51.351Z</time>
      </trkpt>
      <trkpt lat="43.71886" lon="5.81002">
        <ele>363</ele>
        <time>2016-03-12T09:37:52.329Z</time>
      </trkpt>
      <trkpt lat="43.71879" lon="5.80997">
        <ele>365</ele>
        <time>2016-03-12T09:37:58.356Z</time>
      </trkpt>
      <trkpt lat="43.71877" lon="5.80996">
        <ele>365</ele>
        <time>2016-03-12T09:37:59.355Z</time>
      </trkpt>
      <trkpt lat="43.7187" lon="5.80989">
        <ele>367</ele>
        <time>2016-03-12T09:38:05.355Z</time>
      </trkpt>
      <trkpt lat="43.71869" lon="5.80988">
        <ele>368</ele>
        <time>2016-03-12T09:38:06.330Z</time>
      </trkpt>
      <trkpt lat="43.71863" lon="5.8098">
        <ele>368</ele>
        <time>2016-03-12T09:38:12.351Z</time>
      </trkpt>
      <trkpt lat="43.71861" lon="5.80979">
        <ele>368</ele>
        <time>2016-03-12T09:38:13.329Z</time>
      </trkpt>
      <trkpt lat="43.71855" lon="5.80972">
        <ele>368</ele>
        <time>2016-03-12T09:38:18.364Z</time>
      </trkpt>
      <trkpt lat="43.71854" lon="5.80971">
        <ele>368</ele>
        <time>2016-03-12T09:38:19.328Z</time>
      </trkpt>
      <trkpt lat="43.71847" lon="5.80964">
        <ele>368</ele>
        <time>2016-03-12T09:38:24.365Z</time>
      </trkpt>
      <trkpt lat="43.71846" lon="5.80963">
        <ele>368</ele>
        <time>2016-03-12T09:38:25.326Z</time>
      </trkpt>
      <trkpt lat="43.71839" lon="5.80957">
        <ele>367</ele>
        <time>2016-03-12T09:38:30.355Z</time>
      </trkpt>
      <trkpt lat="43.71838" lon="5.80956">
        <ele>368</ele>
        <time>2016-03-12T09:38:31.354Z</time>
      </trkpt>
      <trkpt lat="43.71831" lon="5.8095">
        <ele>368</ele>
        <time>2016-03-12T09:38:36.355Z</time>
      </trkpt>
      <trkpt lat="43.7183" lon="5.80949">
        <ele>368</ele>
        <time>2016-03-12T09:38:37.325Z</time>
      </trkpt>
      <trkpt lat="43.71824" lon="5.80942">
        <ele>370</ele>
        <time>2016-03-12T09:38:42.382Z</time>
      </trkpt>
      <trkpt lat="43.71823" lon="5.8094">
        <ele>370</ele>
        <time>2016-03-12T09:38:43.330Z</time>
      </trkpt>
      <trkpt lat="43.71817" lon="5.80932">
        <ele>372</ele>
        <time>2016-03-12T09:38:49.355Z</time>
      </trkpt>
      <trkpt lat="43.71817" lon="5.80931">
        <ele>373</ele>
        <time>2016-03-12T09:38:50.329Z</time>
      </trkpt>
      <trkpt lat="43.71811" lon="5.80922">
        <ele>375</ele>
        <time>2016-03-12T09:39:04.356Z</time>
      </trkpt>
      <trkpt lat="43.7181" lon="5.8092">
        <ele>375</ele>
        <time>2016-03-12T09:39:05.330Z</time>
      </trkpt>
      <trkpt lat="43.71804" lon="5.80911">
        <ele>375</ele>
        <time>2016-03-12T09:39:10.355Z</time>
      </trkpt>
      <trkpt lat="43.71803" lon="5.8091">
        <ele>376</ele>
        <time>2016-03-12T09:39:11.330Z</time>
      </trkpt>
      <trkpt lat="43.71795" lon="5.80904">
        <ele>375</ele>
        <time>2016-03-12T09:39:18.578Z</time>
      </trkpt>
      <trkpt lat="43.71794" lon="5.80903">
        <ele>375</ele>
        <time>2016-03-12T09:39:19.328Z</time>
      </trkpt>
      <trkpt lat="43.71787" lon="5.80897">
        <ele>376</ele>
        <time>2016-03-12T09:39:26.354Z</time>
      </trkpt>
      <trkpt lat="43.71786" lon="5.80896">
        <ele>376</ele>
        <time>2016-03-12T09:39:27.326Z</time>
      </trkpt>
      <trkpt lat="43.71778" lon="5.80891">
        <ele>377</ele>
        <time>2016-03-12T09:39:35.356Z</time>
      </trkpt>
      <trkpt lat="43.71777" lon="5.8089">
        <ele>377</ele>
        <time>2016-03-12T09:39:36.329Z</time>
      </trkpt>
      <trkpt lat="43.7177" lon="5.80883">
        <ele>378</ele>
        <time>2016-03-12T09:39:44.357Z</time>
      </trkpt>
      <trkpt lat="43.71769" lon="5.80883">
        <ele>379</ele>
        <time>2016-03-12T09:39:45.328Z</time>
      </trkpt>
      <trkpt lat="43.71761" lon="5.80877">
        <ele>380</ele>
        <time>2016-03-12T09:39:52.356Z</time>
      </trkpt>
      <trkpt lat="43.7176" lon="5.80876">
        <ele>379</ele>
        <time>2016-03-12T09:39:53.332Z</time>
      </trkpt>
      <trkpt lat="43.71753" lon="5.80871">
        <ele>381</ele>
        <time>2016-03-12T09:39:59.356Z</time>
      </trkpt>
      <trkpt lat="43.71752" lon="5.8087">
        <ele>381</ele>
        <time>2016-03-12T09:40:00.326Z</time>
      </trkpt>
      <trkpt lat="43.71744" lon="5.80865">
        <ele>381</ele>
        <time>2016-03-12T09:40:07.351Z</time>
      </trkpt>
      <trkpt lat="43.71743" lon="5.80864">
        <ele>381</ele>
        <time>2016-03-12T09:40:08.331Z</time>
      </trkpt>
      <trkpt lat="43.71735" lon="5.8086">
        <ele>381</ele>
        <time>2016-03-12T09:40:15.351Z</time>
      </trkpt>
      <trkpt lat="43.71733" lon="5.80859">
        <ele>381</ele>
        <time>2016-03-12T09:40:16.327Z</time>
      </trkpt>
      <trkpt lat="43.71726" lon="5.80853">
        <ele>383</ele>
        <time>2016-03-12T09:40:24.355Z</time>
      </trkpt>
      <trkpt lat="43.71725" lon="5.80852">
        <ele>383</ele>
        <time>2016-03-12T09:40:25.327Z</time>
      </trkpt>
      <trkpt lat="43.71717" lon="5.80846">
        <ele>385</ele>
        <time>2016-03-12T09:40:33.366Z</time>
      </trkpt>
      <trkpt lat="43.71716" lon="5.80845">
        <ele>385</ele>
        <time>2016-03-12T09:40:34.327Z</time>
      </trkpt>
      <trkpt lat="43.71708" lon="5.80841">
        <ele>387</ele>
        <time>2016-03-12T09:40:42.356Z</time>
      </trkpt>
      <trkpt lat="43.71707" lon="5.8084">
        <ele>388</ele>
        <time>2016-03-12T09:40:43.329Z</time>
      </trkpt>
      <trkpt lat="43.71698" lon="5.80835">
        <ele>391</ele>
        <time>2016-03-12T09:40:52.364Z</time>
      </trkpt>
      <trkpt lat="43.71698" lon="5.80835">
        <ele>391</ele>
        <time>2016-03-12T09:40:53.330Z</time>
      </trkpt>
      <trkpt lat="43.7169" lon="5.80831">
        <ele>392</ele>
        <time>2016-03-12T09:41:02.604Z</time>
      </trkpt>
      <trkpt lat="43.71689" lon="5.8083">
        <ele>392</ele>
        <time>2016-03-12T09:41:03.331Z</time>
      </trkpt>
      <trkpt lat="43.71681" lon="5.80826">
        <ele>394</ele>
        <time>2016-03-12T09:41:11.355Z</time>
      </trkpt>
      <trkpt lat="43.7168" lon="5.80825">
        <ele>393</ele>
        <time>2016-03-12T09:41:12.355Z</time>
      </trkpt>
      <trkpt lat="43.71673" lon="5.8082">
        <ele>395</ele>
        <time>2016-03-12T09:41:20.356Z</time>
      </trkpt>
      <trkpt lat="43.71672" lon="5.80819">
        <ele>395</ele>
        <time>2016-03-12T09:41:21.330Z</time>
      </trkpt>
      <trkpt lat="43.71664" lon="5.80816">
        <ele>396</ele>
        <time>2016-03-12T09:41:27.357Z</time>
      </trkpt>
      <trkpt lat="43.71662" lon="5.80816">
        <ele>396</ele>
        <time>2016-03-12T09:41:28.331Z</time>
      </trkpt>
      <trkpt lat="43.71655" lon="5.80811">
        <ele>396</ele>
        <time>2016-03-12T09:41:34.356Z</time>
      </trkpt>
      <trkpt lat="43.71654" lon="5.8081">
        <ele>396</ele>
        <time>2016-03-12T09:41:35.328Z</time>
      </trkpt>
      <trkpt lat="43.71647" lon="5.80803">
        <ele>397</ele>
        <time>2016-03-12T09:41:41.361Z</time>
      </trkpt>
      <trkpt lat="43.71646" lon="5.80801">
        <ele>398</ele>
        <time>2016-03-12T09:41:42.327Z</time>
      </trkpt>
      <trkpt lat="43.71641" lon="5.80793">
        <ele>397</ele>
        <time>2016-03-12T09:41:46.357Z</time>
      </trkpt>
      <trkpt lat="43.7164" lon="5.80791">
        <ele>397</ele>
        <time>2016-03-12T09:41:47.330Z</time>
      </trkpt>
      <trkpt lat="43.71636" lon="5.80782">
        <ele>398</ele>
        <time>2016-03-12T09:41:51.356Z</time>
      </trkpt>
      <trkpt lat="43.71634" lon="5.8078">
        <ele>397</ele>
        <time>2016-03-12T09:41:52.330Z</time>
      </trkpt>
      <trkpt lat="43.7163" lon="5.80772">
        <ele>398</ele>
        <time>2016-03-12T09:41:56.357Z</time>
      </trkpt>
      <trkpt lat="43.7163" lon="5.80769">
        <ele>398</ele>
        <time>2016-03-12T09:41:57.330Z</time>
      </trkpt>
      <trkpt lat="43.71626" lon="5.80761">
        <ele>400</ele>
        <time>2016-03-12T09:42:01.355Z</time>
      </trkpt>
      <trkpt lat="43.71625" lon="5.80759">
        <ele>400</ele>
        <time>2016-03-12T09:42:02.331Z</time>
      </trkpt>
      <trkpt lat="43.71622" lon="5.8075">
        <ele>399</ele>
        <time>2016-03-12T09:42:05.589Z</time>
      </trkpt>
      <trkpt lat="43.71621" lon="5.80747">
        <ele>399</ele>
        <time>2016-03-12T09:42:06.352Z</time>
      </trkpt>
      <trkpt lat="43.71618" lon="5.80736">
        <ele>399</ele>
        <time>2016-03-12T09:42:09.359Z</time>
      </trkpt>
      <trkpt lat="43.71617" lon="5.80733">
        <ele>398</ele>
        <time>2016-03-12T09:42:10.327Z</time>
      </trkpt>
      <trkpt lat="43.71613" lon="5.80724">
        <ele>397</ele>
        <time>2016-03-12T09:42:13.352Z</time>
      </trkpt>
      <trkpt lat="43.71611" lon="5.80721">
        <ele>397</ele>
        <time>2016-03-12T09:42:14.334Z</time>
      </trkpt>
      <trkpt lat="43.71609" lon="5.80714">
        <ele>397</ele>
        <time>2016-03-12T09:42:16.353Z</time>
      </trkpt>
      <trkpt lat="43.71607" lon="5.8071">
        <ele>396</ele>
        <time>2016-03-12T09:42:17.331Z</time>
      </trkpt>
      <trkpt lat="43.71604" lon="5.80701">
        <ele>396</ele>
        <time>2016-03-12T09:42:19.356Z</time>
      </trkpt>
      <trkpt lat="43.71602" lon="5.80697">
        <ele>397</ele>
        <time>2016-03-12T09:42:20.327Z</time>
      </trkpt>
      <trkpt lat="43.71599" lon="5.80689">
        <ele>397</ele>
        <time>2016-03-12T09:42:22.356Z</time>
      </trkpt>
      <trkpt lat="43.71598" lon="5.80685">
        <ele>396</ele>
        <time>2016-03-12T09:42:23.331Z</time>
      </trkpt>
      <trkpt lat="43.71594" lon="5.80676">
        <ele>396</ele>
        <time>2016-03-12T09:42:25.358Z</time>
      </trkpt>
      <trkpt lat="43.71593" lon="5.80672">
        <ele>396</ele>
        <time>2016-03-12T09:42:26.331Z</time>
      </trkpt>
      <trkpt lat="43.71589" lon="5.80661">
        <ele>395</ele>
        <time>2016-03-12T09:42:29.355Z</time>
      </trkpt>
      <trkpt lat="43.71588" lon="5.80658">
        <ele>396</ele>
        <time>2016-03-12T09:42:30.333Z</time>
      </trkpt>
      <trkpt lat="43.71585" lon="5.80647">
        <ele>396</ele>
        <time>2016-03-12T09:42:33.353Z</time>
      </trkpt>
      <trkpt lat="43.71584" lon="5.80643">
        <ele>396</ele>
        <time>2016-03-12T09:42:34.331Z</time>
      </trkpt>
      <trkpt lat="43.71581" lon="5.80635">
        <ele>396</ele>
        <time>2016-03-12T09:42:36.357Z</time>
      </trkpt>
      <trkpt lat="43.7158" lon="5.80631">
        <ele>396</ele>
        <time>2016-03-12T09:42:37.331Z</time>
      </trkpt>
      <trkpt lat="43.71579" lon="5.80624">
        <ele>396</ele>
        <time>2016-03-12T09:42:39.355Z</time>
      </trkpt>
      <trkpt lat="43.71578" lon="5.80619">
        <ele>396</ele>
        <time>2016-03-12T09:42:40.330Z</time>
      </trkpt>
      <trkpt lat="43.71575" lon="5.80611">
        <ele>396</ele>
        <time>2016-03-12T09:42:42.356Z</time>
      </trkpt>
      <trkpt lat="43.71575" lon="5.80607">
        <ele>396</ele>
        <time>2016-03-12T09:42:43.351Z</time>
      </trkpt>
      <trkpt lat="43.71572" lon="5.80598">
        <ele>396</ele>
        <time>2016-03-12T09:42:45.357Z</time>
      </trkpt>
      <trkpt lat="43.71571" lon="5.80594">
        <ele>396</ele>
        <time>2016-03-12T09:42:46.328Z</time>
      </trkpt>
      <trkpt lat="43.71569" lon="5.80583">
        <ele>396</ele>
        <time>2016-03-12T09:42:49.357Z</time>
      </trkpt>
      <trkpt lat="43.71569" lon="5.80579">
        <ele>396</ele>
        <time>2016-03-12T09:42:50.331Z</time>
      </trkpt>
      <trkpt lat="43.71567" lon="5.80567">
        <ele>396</ele>
        <time>2016-03-12T09:42:53.356Z</time>
      </trkpt>
      <trkpt lat="43.71566" lon="5.80564">
        <ele>396</ele>
        <time>2016-03-12T09:42:54.331Z</time>
      </trkpt>
      <trkpt lat="43.71562" lon="5.80552">
        <ele>396</ele>
        <time>2016-03-12T09:42:57.358Z</time>
      </trkpt>
      <trkpt lat="43.71561" lon="5.80548">
        <ele>395</ele>
        <time>2016-03-12T09:42:58.331Z</time>
      </trkpt>
      <trkpt lat="43.71559" lon="5.8054">
        <ele>395</ele>
        <time>2016-03-12T09:43:00.356Z</time>
      </trkpt>
      <trkpt lat="43.71557" lon="5.80534">
        <ele>394</ele>
        <time>2016-03-12T09:43:01.326Z</time>
      </trkpt>
      <trkpt lat="43.71554" lon="5.80524">
        <ele>394</ele>
        <time>2016-03-12T09:43:03.360Z</time>
      </trkpt>
      <trkpt lat="43.71553" lon="5.80518">
        <ele>394</ele>
        <time>2016-03-12T09:43:04.365Z</time>
      </trkpt>
      <trkpt lat="43.7155" lon="5.80508">
        <ele>393</ele>
        <time>2016-03-12T09:43:06.560Z</time>
      </trkpt>
      <trkpt lat="43.71548" lon="5.80498">
        <ele>393</ele>
        <time>2016-03-12T09:43:07.330Z</time>
      </trkpt>
      <trkpt lat="43.71546" lon="5.80492">
        <ele>392</ele>
        <time>2016-03-12T09:43:08.357Z</time>
      </trkpt>
      <trkpt lat="43.71543" lon="5.80484">
        <ele>391</ele>
        <time>2016-03-12T09:43:09.339Z</time>
      </trkpt>
      <trkpt lat="43.7154" lon="5.80477">
        <ele>391</ele>
        <time>2016-03-12T09:43:10.362Z</time>
      </trkpt>
      <trkpt lat="43.71536" lon="5.8047">
        <ele>390</ele>
        <time>2016-03-12T09:43:11.331Z</time>
      </trkpt>
      <trkpt lat="43.71532" lon="5.80463">
        <ele>389</ele>
        <time>2016-03-12T09:43:12.352Z</time>
      </trkpt>
      <trkpt lat="43.71528" lon="5.80457">
        <ele>389</ele>
        <time>2016-03-12T09:43:13.330Z</time>
      </trkpt>
      <trkpt lat="43.71524" lon="5.8045">
        <ele>389</ele>
        <time>2016-03-12T09:43:14.364Z</time>
      </trkpt>
      <trkpt lat="43.71525" lon="5.80442">
        <ele>388</ele>
        <time>2016-03-12T09:43:15.328Z</time>
      </trkpt>
      <trkpt lat="43.71525" lon="5.80435">
        <ele>388</ele>
        <time>2016-03-12T09:43:16.405Z</time>
      </trkpt>
      <trkpt lat="43.71527" lon="5.80429">
        <ele>387</ele>
        <time>2016-03-12T09:43:17.327Z</time>
      </trkpt>
      <trkpt lat="43.71526" lon="5.80422">
        <ele>387</ele>
        <time>2016-03-12T09:43:18.425Z</time>
      </trkpt>
      <trkpt lat="43.71528" lon="5.80415">
        <ele>386</ele>
        <time>2016-03-12T09:43:19.330Z</time>
      </trkpt>
      <trkpt lat="43.71527" lon="5.80406">
        <ele>387</ele>
        <time>2016-03-12T09:43:21.357Z</time>
      </trkpt>
      <trkpt lat="43.71528" lon="5.804">
        <ele>387</ele>
        <time>2016-03-12T09:43:22.330Z</time>
      </trkpt>
      <trkpt lat="43.7153" lon="5.8039">
        <ele>388</ele>
        <time>2016-03-12T09:43:24.357Z</time>
      </trkpt>
      <trkpt lat="43.71531" lon="5.80386">
        <ele>388</ele>
        <time>2016-03-12T09:43:25.327Z</time>
      </trkpt>
      <trkpt lat="43.71532" lon="5.80382">
        <ele>388</ele>
        <time>2016-03-12T09:43:26.353Z</time>
      </trkpt>
      <trkpt lat="43.71536" lon="5.80375">
        <ele>388</ele>
        <time>2016-03-12T09:43:27.331Z</time>
      </trkpt>
      <trkpt lat="43.7154" lon="5.80366">
        <ele>390</ele>
        <time>2016-03-12T09:43:30.365Z</time>
      </trkpt>
      <trkpt lat="43.71541" lon="5.80363">
        <ele>390</ele>
        <time>2016-03-12T09:43:31.328Z</time>
      </trkpt>
      <trkpt lat="43.71545" lon="5.80352">
        <ele>391</ele>
        <time>2016-03-12T09:43:34.361Z</time>
      </trkpt>
      <trkpt lat="43.71546" lon="5.80347">
        <ele>392</ele>
        <time>2016-03-12T09:43:35.330Z</time>
      </trkpt>
      <trkpt lat="43.71546" lon="5.80337">
        <ele>392</ele>
        <time>2016-03-12T09:43:37.358Z</time>
      </trkpt>
      <trkpt lat="43.71546" lon="5.80331">
        <ele>392</ele>
        <time>2016-03-12T09:43:38.331Z</time>
      </trkpt>
      <trkpt lat="43.71546" lon="5.80321">
        <ele>393</ele>
        <time>2016-03-12T09:43:40.353Z</time>
      </trkpt>
      <trkpt lat="43.71546" lon="5.80315">
        <ele>393</ele>
        <time>2016-03-12T09:43:41.331Z</time>
      </trkpt>
      <trkpt lat="43.71547" lon="5.80306">
        <ele>394</ele>
        <time>2016-03-12T09:43:43.356Z</time>
      </trkpt>
      <trkpt lat="43.71548" lon="5.80301">
        <ele>394</ele>
        <time>2016-03-12T09:43:44.327Z</time>
      </trkpt>
      <trkpt lat="43.7155" lon="5.80292">
        <ele>394</ele>
        <time>2016-03-12T09:43:46.356Z</time>
      </trkpt>
      <trkpt lat="43.71551" lon="5.80288">
        <ele>394</ele>
        <time>2016-03-12T09:43:47.331Z</time>
      </trkpt>
      <trkpt lat="43.71554" lon="5.80278">
        <ele>394</ele>
        <time>2016-03-12T09:43:49.387Z</time>
      </trkpt>
      <trkpt lat="43.71555" lon="5.80273">
        <ele>394</ele>
        <time>2016-03-12T09:43:50.331Z</time>
      </trkpt>
      <trkpt lat="43.71557" lon="5.80263">
        <ele>395</ele>
        <time>2016-03-12T09:43:52.423Z</time>
      </trkpt>
      <trkpt lat="43.71558" lon="5.80259">
        <ele>395</ele>
        <time>2016-03-12T09:43:53.331Z</time>
      </trkpt>
      <trkpt lat="43.7156" lon="5.80249">
        <ele>395</ele>
        <time>2016-03-12T09:43:55.357Z</time>
      </trkpt>
      <trkpt lat="43.71561" lon="5.80244">
        <ele>395</ele>
        <time>2016-03-12T09:43:56.331Z</time>
      </trkpt>
      <trkpt lat="43.71562" lon="5.80234">
        <ele>395</ele>
        <time>2016-03-12T09:43:58.357Z</time>
      </trkpt>
      <trkpt lat="43.71562" lon="5.80229">
        <ele>395</ele>
        <time>2016-03-12T09:43:59.332Z</time>
      </trkpt>
      <trkpt lat="43.71563" lon="5.8022">
        <ele>396</ele>
        <time>2016-03-12T09:44:01.356Z</time>
      </trkpt>
      <trkpt lat="43.71564" lon="5.80215">
        <ele>396</ele>
        <time>2016-03-12T09:44:02.331Z</time>
      </trkpt>
      <trkpt lat="43.71563" lon="5.80206">
        <ele>395</ele>
        <time>2016-03-12T09:44:04.357Z</time>
      </trkpt>
      <trkpt lat="43.71562" lon="5.80201">
        <ele>396</ele>
        <time>2016-03-12T09:44:05.328Z</time>
      </trkpt>
      <trkpt lat="43.71561" lon="5.80191">
        <ele>395</ele>
        <time>2016-03-12T09:44:07.357Z</time>
      </trkpt>
      <trkpt lat="43.71561" lon="5.80186">
        <ele>395</ele>
        <time>2016-03-12T09:44:08.357Z</time>
      </trkpt>
      <trkpt lat="43.71562" lon="5.80176">
        <ele>395</ele>
        <time>2016-03-12T09:44:10.358Z</time>
      </trkpt>
      <trkpt lat="43.71563" lon="5.8017">
        <ele>395</ele>
        <time>2016-03-12T09:44:11.328Z</time>
      </trkpt>
      <trkpt lat="43.71566" lon="5.80161">
        <ele>395</ele>
        <time>2016-03-12T09:44:13.442Z</time>
      </trkpt>
      <trkpt lat="43.71568" lon="5.80157">
        <ele>396</ele>
        <time>2016-03-12T09:44:14.322Z</time>
      </trkpt>
      <trkpt lat="43.7157" lon="5.80147">
        <ele>396</ele>
        <time>2016-03-12T09:44:16.358Z</time>
      </trkpt>
      <trkpt lat="43.71572" lon="5.80143">
        <ele>395</ele>
        <time>2016-03-12T09:44:17.330Z</time>
      </trkpt>
      <trkpt lat="43.71575" lon="5.80132">
        <ele>394</ele>
        <time>2016-03-12T09:44:19.356Z</time>
      </trkpt>
      <trkpt lat="43.71577" lon="5.80126">
        <ele>394</ele>
        <time>2016-03-12T09:44:20.352Z</time>
      </trkpt>
      <trkpt lat="43.71578" lon="5.80115">
        <ele>394</ele>
        <time>2016-03-12T09:44:22.353Z</time>
      </trkpt>
      <trkpt lat="43.71577" lon="5.80109">
        <ele>394</ele>
        <time>2016-03-12T09:44:23.329Z</time>
      </trkpt>
      <trkpt lat="43.71577" lon="5.80098">
        <ele>394</ele>
        <time>2016-03-12T09:44:25.356Z</time>
      </trkpt>
      <trkpt lat="43.71577" lon="5.80093">
        <ele>394</ele>
        <time>2016-03-12T09:44:26.331Z</time>
      </trkpt>
      <trkpt lat="43.71577" lon="5.80081">
        <ele>393</ele>
        <time>2016-03-12T09:44:28.357Z</time>
      </trkpt>
      <trkpt lat="43.71577" lon="5.80075">
        <ele>393</ele>
        <time>2016-03-12T09:44:29.331Z</time>
      </trkpt>
      <trkpt lat="43.71577" lon="5.80064">
        <ele>393</ele>
        <time>2016-03-12T09:44:31.358Z</time>
      </trkpt>
      <trkpt lat="43.71578" lon="5.80058">
        <ele>393</ele>
        <time>2016-03-12T09:44:32.331Z</time>
      </trkpt>
      <trkpt lat="43.71578" lon="5.80047">
        <ele>394</ele>
        <time>2016-03-12T09:44:34.362Z</time>
      </trkpt>
      <trkpt lat="43.71578" lon="5.80042">
        <ele>394</ele>
        <time>2016-03-12T09:44:35.331Z</time>
      </trkpt>
      <trkpt lat="43.71577" lon="5.80032">
        <ele>394</ele>
        <time>2016-03-12T09:44:37.354Z</time>
      </trkpt>
      <trkpt lat="43.71577" lon="5.80028">
        <ele>395</ele>
        <time>2016-03-12T09:44:38.331Z</time>
      </trkpt>
      <trkpt lat="43.71578" lon="5.80017">
        <ele>394</ele>
        <time>2016-03-12T09:44:40.385Z</time>
      </trkpt>
      <trkpt lat="43.71578" lon="5.80011">
        <ele>394</ele>
        <time>2016-03-12T09:44:41.329Z</time>
      </trkpt>
      <trkpt lat="43.71579" lon="5.80004">
        <ele>394</ele>
        <time>2016-03-12T09:44:42.566Z</time>
      </trkpt>
      <trkpt lat="43.71579" lon="5.79998">
        <ele>394</ele>
        <time>2016-03-12T09:44:43.328Z</time>
      </trkpt>
      <trkpt lat="43.71579" lon="5.7999">
        <ele>394</ele>
        <time>2016-03-12T09:44:44.352Z</time>
      </trkpt>
      <trkpt lat="43.71579" lon="5.79983">
        <ele>394</ele>
        <time>2016-03-12T09:44:45.331Z</time>
      </trkpt>
      <trkpt lat="43.71578" lon="5.79971">
        <ele>393</ele>
        <time>2016-03-12T09:44:47.357Z</time>
      </trkpt>
      <trkpt lat="43.71578" lon="5.79964">
        <ele>393</ele>
        <time>2016-03-12T09:44:48.328Z</time>
      </trkpt>
      <trkpt lat="43.71577" lon="5.79953">
        <ele>393</ele>
        <time>2016-03-12T09:44:50.358Z</time>
      </trkpt>
      <trkpt lat="43.71576" lon="5.79948">
        <ele>393</ele>
        <time>2016-03-12T09:44:51.332Z</time>
      </trkpt>
      <trkpt lat="43.71575" lon="5.79942">
        <ele>393</ele>
        <time>2016-03-12T09:44:52.358Z</time>
      </trkpt>
      <trkpt lat="43.71575" lon="5.79936">
        <ele>394</ele>
        <time>2016-03-12T09:44:53.334Z</time>
      </trkpt>
      <trkpt lat="43.71574" lon="5.79925">
        <ele>393</ele>
        <time>2016-03-12T09:44:55.357Z</time>
      </trkpt>
      <trkpt lat="43.71574" lon="5.79918">
        <ele>393</ele>
        <time>2016-03-12T09:44:56.356Z</time>
      </trkpt>
      <trkpt lat="43.71573" lon="5.79906">
        <ele>392</ele>
        <time>2016-03-12T09:44:58.363Z</time>
      </trkpt>
      <trkpt lat="43.71572" lon="5.79899">
        <ele>391</ele>
        <time>2016-03-12T09:44:59.331Z</time>
      </trkpt>
      <trkpt lat="43.71573" lon="5.79891">
        <ele>392</ele>
        <time>2016-03-12T09:45:00.357Z</time>
      </trkpt>
      <trkpt lat="43.71572" lon="5.79883">
        <ele>391</ele>
        <time>2016-03-12T09:45:01.332Z</time>
      </trkpt>
      <trkpt lat="43.71573" lon="5.79875">
        <ele>392</ele>
        <time>2016-03-12T09:45:02.357Z</time>
      </trkpt>
      <trkpt lat="43.71572" lon="5.79868">
        <ele>391</ele>
        <time>2016-03-12T09:45:03.332Z</time>
      </trkpt>
      <trkpt lat="43.71571" lon="5.7986">
        <ele>392</ele>
        <time>2016-03-12T09:45:04.357Z</time>
      </trkpt>
      <trkpt lat="43.71571" lon="5.79854">
        <ele>391</ele>
        <time>2016-03-12T09:45:05.331Z</time>
      </trkpt>
      <trkpt lat="43.71571" lon="5.79847">
        <ele>391</ele>
        <time>2016-03-12T09:45:06.357Z</time>
      </trkpt>
      <trkpt lat="43.71572" lon="5.7984">
        <ele>391</ele>
        <time>2016-03-12T09:45:07.333Z</time>
      </trkpt>
      <trkpt lat="43.71573" lon="5.79833">
        <ele>391</ele>
        <time>2016-03-12T09:45:08.357Z</time>
      </trkpt>
      <trkpt lat="43.71572" lon="5.79826">
        <ele>391</ele>
        <time>2016-03-12T09:45:09.330Z</time>
      </trkpt>
      <trkpt lat="43.71573" lon="5.79815">
        <ele>391</ele>
        <time>2016-03-12T09:45:12.408Z</time>
      </trkpt>
      <trkpt lat="43.71573" lon="5.7981">
        <ele>392</ele>
        <time>2016-03-12T09:45:13.331Z</time>
      </trkpt>
      <trkpt lat="43.71575" lon="5.79804">
        <ele>391</ele>
        <time>2016-03-12T09:45:14.357Z</time>
      </trkpt>
      <trkpt lat="43.71576" lon="5.79797">
        <ele>392</ele>
        <time>2016-03-12T09:45:15.332Z</time>
      </trkpt>
      <trkpt lat="43.71578" lon="5.79785">
        <ele>392</ele>
        <time>2016-03-12T09:45:17.358Z</time>
      </trkpt>
      <trkpt lat="43.71578" lon="5.79782">
        <ele>392</ele>
        <time>2016-03-12T09:45:18.339Z</time>
      </trkpt>
      <trkpt lat="43.71581" lon="5.7977">
        <ele>392</ele>
        <time>2016-03-12T09:45:20.357Z</time>
      </trkpt>
      <trkpt lat="43.71582" lon="5.79766">
        <ele>393</ele>
        <time>2016-03-12T09:45:21.332Z</time>
      </trkpt>
      <trkpt lat="43.7158" lon="5.79756">
        <ele>394</ele>
        <time>2016-03-12T09:45:23.359Z</time>
      </trkpt>
      <trkpt lat="43.71578" lon="5.79752">
        <ele>393</ele>
        <time>2016-03-12T09:45:24.328Z</time>
      </trkpt>
      <trkpt lat="43.71572" lon="5.79743">
        <ele>392</ele>
        <time>2016-03-12T09:45:27.359Z</time>
      </trkpt>
      <trkpt lat="43.71571" lon="5.79739">
        <ele>392</ele>
        <time>2016-03-12T09:45:28.327Z</time>
      </trkpt>
      <trkpt lat="43.71568" lon="5.79729">
        <ele>389</ele>
        <time>2016-03-12T09:45:31.359Z</time>
      </trkpt>
      <trkpt lat="43.71567" lon="5.79726">
        <ele>388</ele>
        <time>2016-03-12T09:45:32.332Z</time>
      </trkpt>
      <trkpt lat="43.71565" lon="5.79717">
        <ele>388</ele>
        <time>2016-03-12T09:45:34.353Z</time>
      </trkpt>
      <trkpt lat="43.71563" lon="5.79711">
        <ele>388</ele>
        <time>2016-03-12T09:45:35.328Z</time>
      </trkpt>
      <trkpt lat="43.71561" lon="5.79706">
        <ele>388</ele>
        <time>2016-03-12T09:45:36.353Z</time>
      </trkpt>
      <trkpt lat="43.71559" lon="5.79701">
        <ele>388</ele>
        <time>2016-03-12T09:45:37.332Z</time>
      </trkpt>
      <trkpt lat="43.71556" lon="5.79695">
        <ele>388</ele>
        <time>2016-03-12T09:45:38.358Z</time>
      </trkpt>
      <trkpt lat="43.71553" lon="5.79688">
        <ele>388</ele>
        <time>2016-03-12T09:45:39.331Z</time>
      </trkpt>
      <trkpt lat="43.71548" lon="5.79678">
        <ele>388</ele>
        <time>2016-03-12T09:45:41.368Z</time>
      </trkpt>
      <trkpt lat="43.71547" lon="5.79673">
        <ele>388</ele>
        <time>2016-03-12T09:45:42.331Z</time>
      </trkpt>
      <trkpt lat="43.71545" lon="5.79663">
        <ele>388</ele>
        <time>2016-03-12T09:45:44.357Z</time>
      </trkpt>
      <trkpt lat="43.71545" lon="5.79658">
        <ele>388</ele>
        <time>2016-03-12T09:45:45.328Z</time>
      </trkpt>
      <trkpt lat="43.71545" lon="5.79647">
        <ele>389</ele>
        <time>2016-03-12T09:45:47.357Z</time>
      </trkpt>
      <trkpt lat="43.71545" lon="5.79644">
        <ele>389</ele>
        <time>2016-03-12T09:45:48.332Z</time>
      </trkpt>
      <trkpt lat="43.71545" lon="5.79632">
        <ele>392</ele>
        <time>2016-03-12T09:45:51.358Z</time>
      </trkpt>
      <trkpt lat="43.71546" lon="5.79627">
        <ele>392</ele>
        <time>2016-03-12T09:45:52.331Z</time>
      </trkpt>
      <trkpt lat="43.7155" lon="5.79621">
        <ele>391</ele>
        <time>2016-03-12T09:45:54.391Z</time>
      </trkpt>
      <trkpt lat="43.71553" lon="5.79619">
        <ele>391</ele>
        <time>2016-03-12T09:45:55.327Z</time>
      </trkpt>
      <trkpt lat="43.7156" lon="5.79612">
        <ele>390</ele>
        <time>2016-03-12T09:45:57.358Z</time>
      </trkpt>
      <trkpt lat="43.71563" lon="5.79607">
        <ele>390</ele>
        <time>2016-03-12T09:45:58.332Z</time>
      </trkpt>
      <trkpt lat="43.71566" lon="5.79602">
        <ele>390</ele>
        <time>2016-03-12T09:45:59.365Z</time>
      </trkpt>
      <trkpt lat="43.71568" lon="5.79597">
        <ele>390</ele>
        <time>2016-03-12T09:46:00.332Z</time>
      </trkpt>
      <trkpt lat="43.71573" lon="5.79587">
        <ele>390</ele>
        <time>2016-03-12T09:46:02.367Z</time>
      </trkpt>
      <trkpt lat="43.71575" lon="5.79582">
        <ele>390</ele>
        <time>2016-03-12T09:46:03.328Z</time>
      </trkpt>
      <trkpt lat="43.71578" lon="5.79571">
        <ele>390</ele>
        <time>2016-03-12T09:46:05.355Z</time>
      </trkpt>
      <trkpt lat="43.71579" lon="5.79565">
        <ele>390</ele>
        <time>2016-03-12T09:46:06.332Z</time>
      </trkpt>
      <trkpt lat="43.7158" lon="5.79559">
        <ele>390</ele>
        <time>2016-03-12T09:46:07.356Z</time>
      </trkpt>
      <trkpt lat="43.71581" lon="5.79553">
        <ele>390</ele>
        <time>2016-03-12T09:46:08.332Z</time>
      </trkpt>
      <trkpt lat="43.71582" lon="5.79541">
        <ele>390</ele>
        <time>2016-03-12T09:46:10.388Z</time>
      </trkpt>
      <trkpt lat="43.71582" lon="5.79535">
        <ele>390</ele>
        <time>2016-03-12T09:46:11.331Z</time>
      </trkpt>
      <trkpt lat="43.71582" lon="5.79529">
        <ele>390</ele>
        <time>2016-03-12T09:46:12.354Z</time>
      </trkpt>
      <trkpt lat="43.71582" lon="5.79522">
        <ele>389</ele>
        <time>2016-03-12T09:46:13.329Z</time>
      </trkpt>
      <trkpt lat="43.71582" lon="5.79516">
        <ele>389</ele>
        <time>2016-03-12T09:46:14.357Z</time>
      </trkpt>
      <trkpt lat="43.71582" lon="5.79508">
        <ele>389</ele>
        <time>2016-03-12T09:46:15.331Z</time>
      </trkpt>
      <trkpt lat="43.71583" lon="5.79497">
        <ele>388</ele>
        <time>2016-03-12T09:46:17.353Z</time>
      </trkpt>
      <trkpt lat="43.71583" lon="5.79492">
        <ele>389</ele>
        <time>2016-03-12T09:46:18.332Z</time>
      </trkpt>
      <trkpt lat="43.71582" lon="5.79484">
        <ele>389</ele>
        <time>2016-03-12T09:46:20.357Z</time>
      </trkpt>
      <trkpt lat="43.71583" lon="5.79478">
        <ele>389</ele>
        <time>2016-03-12T09:46:21.332Z</time>
      </trkpt>
      <trkpt lat="43.71582" lon="5.79469">
        <ele>388</ele>
        <time>2016-03-12T09:46:23.358Z</time>
      </trkpt>
      <trkpt lat="43.71582" lon="5.79463">
        <ele>388</ele>
        <time>2016-03-12T09:46:24.331Z</time>
      </trkpt>
      <trkpt lat="43.71576" lon="5.79458">
        <ele>388</ele>
        <time>2016-03-12T09:46:26.378Z</time>
      </trkpt>
      <trkpt lat="43.71573" lon="5.79456">
        <ele>389</ele>
        <time>2016-03-12T09:46:27.332Z</time>
      </trkpt>
      <trkpt lat="43.71566" lon="5.79456">
        <ele>389</ele>
        <time>2016-03-12T09:46:29.357Z</time>
      </trkpt>
      <trkpt lat="43.71563" lon="5.79457">
        <ele>389</ele>
        <time>2016-03-12T09:46:30.333Z</time>
      </trkpt>
      <trkpt lat="43.71555" lon="5.79459">
        <ele>390</ele>
        <time>2016-03-12T09:46:33.357Z</time>
      </trkpt>
      <trkpt lat="43.71552" lon="5.79459">
        <ele>390</ele>
        <time>2016-03-12T09:46:34.332Z</time>
      </trkpt>
      <trkpt lat="43.71544" lon="5.7946">
        <ele>390</ele>
        <time>2016-03-12T09:46:37.357Z</time>
      </trkpt>
      <trkpt lat="43.71542" lon="5.79459">
        <ele>390</ele>
        <time>2016-03-12T09:46:38.333Z</time>
      </trkpt>
      <trkpt lat="43.71537" lon="5.7945">
        <ele>391</ele>
        <time>2016-03-12T09:46:41.352Z</time>
      </trkpt>
      <trkpt lat="43.71536" lon="5.79445">
        <ele>391</ele>
        <time>2016-03-12T09:46:42.356Z</time>
      </trkpt>
      <trkpt lat="43.71533" lon="5.79435">
        <ele>390</ele>
        <time>2016-03-12T09:46:44.357Z</time>
      </trkpt>
      <trkpt lat="43.71531" lon="5.79429">
        <ele>391</ele>
        <time>2016-03-12T09:46:45.332Z</time>
      </trkpt>
      <trkpt lat="43.7153" lon="5.79423">
        <ele>390</ele>
        <time>2016-03-12T09:46:46.358Z</time>
      </trkpt>
      <trkpt lat="43.71531" lon="5.79411">
        <ele>390</ele>
        <time>2016-03-12T09:46:47.332Z</time>
      </trkpt>
      <trkpt lat="43.71531" lon="5.79399">
        <ele>388</ele>
        <time>2016-03-12T09:46:49.369Z</time>
      </trkpt>
      <trkpt lat="43.71533" lon="5.79392">
        <ele>386</ele>
        <time>2016-03-12T09:46:50.328Z</time>
      </trkpt>
      <trkpt lat="43.71535" lon="5.79384">
        <ele>385</ele>
        <time>2016-03-12T09:46:51.358Z</time>
      </trkpt>
      <trkpt lat="43.71536" lon="5.79379">
        <ele>384</ele>
        <time>2016-03-12T09:46:52.332Z</time>
      </trkpt>
      <trkpt lat="43.71541" lon="5.79369">
        <ele>383</ele>
        <time>2016-03-12T09:46:54.357Z</time>
      </trkpt>
      <trkpt lat="43.71545" lon="5.79363">
        <ele>383</ele>
        <time>2016-03-12T09:46:55.332Z</time>
      </trkpt>
      <trkpt lat="43.71549" lon="5.79356">
        <ele>383</ele>
        <time>2016-03-12T09:46:56.356Z</time>
      </trkpt>
      <trkpt lat="43.71551" lon="5.79349">
        <ele>382</ele>
        <time>2016-03-12T09:46:57.333Z</time>
      </trkpt>
      <trkpt lat="43.71551" lon="5.79341">
        <ele>381</ele>
        <time>2016-03-12T09:46:58.384Z</time>
      </trkpt>
      <trkpt lat="43.71553" lon="5.79332">
        <ele>380</ele>
        <time>2016-03-12T09:46:59.332Z</time>
      </trkpt>
      <trkpt lat="43.71553" lon="5.79326">
        <ele>379</ele>
        <time>2016-03-12T09:47:00.356Z</time>
      </trkpt>
      <trkpt lat="43.71553" lon="5.79319">
        <ele>379</ele>
        <time>2016-03-12T09:47:01.331Z</time>
      </trkpt>
      <trkpt lat="43.71552" lon="5.79313">
        <ele>379</ele>
        <time>2016-03-12T09:47:02.357Z</time>
      </trkpt>
      <trkpt lat="43.71551" lon="5.79304">
        <ele>379</ele>
        <time>2016-03-12T09:47:03.332Z</time>
      </trkpt>
      <trkpt lat="43.71549" lon="5.79297">
        <ele>379</ele>
        <time>2016-03-12T09:47:04.357Z</time>
      </trkpt>
      <trkpt lat="43.71551" lon="5.79291">
        <ele>379</ele>
        <time>2016-03-12T09:47:05.332Z</time>
      </trkpt>
      <trkpt lat="43.71553" lon="5.79284">
        <ele>378</ele>
        <time>2016-03-12T09:47:06.357Z</time>
      </trkpt>
      <trkpt lat="43.71554" lon="5.79276">
        <ele>378</ele>
        <time>2016-03-12T09:47:07.332Z</time>
      </trkpt>
      <trkpt lat="43.71554" lon="5.79269">
        <ele>378</ele>
        <time>2016-03-12T09:47:08.358Z</time>
      </trkpt>
      <trkpt lat="43.71554" lon="5.79263">
        <ele>377</ele>
        <time>2016-03-12T09:47:09.332Z</time>
      </trkpt>
      <trkpt lat="43.71552" lon="5.79253">
        <ele>376</ele>
        <time>2016-03-12T09:47:11.357Z</time>
      </trkpt>
      <trkpt lat="43.71553" lon="5.79245">
        <ele>375</ele>
        <time>2016-03-12T09:47:12.331Z</time>
      </trkpt>
      <trkpt lat="43.71557" lon="5.79236">
        <ele>374</ele>
        <time>2016-03-12T09:47:14.613Z</time>
      </trkpt>
      <trkpt lat="43.7156" lon="5.79235">
        <ele>373</ele>
        <time>2016-03-12T09:47:15.333Z</time>
      </trkpt>
      <trkpt lat="43.71563" lon="5.7923">
        <ele>372</ele>
        <time>2016-03-12T09:47:16.357Z</time>
      </trkpt>
      <trkpt lat="43.71566" lon="5.79224">
        <ele>371</ele>
        <time>2016-03-12T09:47:17.333Z</time>
      </trkpt>
      <trkpt lat="43.71567" lon="5.79217">
        <ele>371</ele>
        <time>2016-03-12T09:47:18.353Z</time>
      </trkpt>
      <trkpt lat="43.7157" lon="5.79209">
        <ele>371</ele>
        <time>2016-03-12T09:47:19.334Z</time>
      </trkpt>
      <trkpt lat="43.71572" lon="5.79203">
        <ele>371</ele>
        <time>2016-03-12T09:47:20.357Z</time>
      </trkpt>
      <trkpt lat="43.71575" lon="5.79198">
        <ele>372</ele>
        <time>2016-03-12T09:47:21.333Z</time>
      </trkpt>
      <trkpt lat="43.71579" lon="5.7919">
        <ele>372</ele>
        <time>2016-03-12T09:47:23.359Z</time>
      </trkpt>
      <trkpt lat="43.71582" lon="5.79187">
        <ele>372</ele>
        <time>2016-03-12T09:47:24.331Z</time>
      </trkpt>
      <trkpt lat="43.71585" lon="5.79182">
        <ele>373</ele>
        <time>2016-03-12T09:47:25.384Z</time>
      </trkpt>
      <trkpt lat="43.71588" lon="5.79177">
        <ele>373</ele>
        <time>2016-03-12T09:47:26.333Z</time>
      </trkpt>
      <trkpt lat="43.71592" lon="5.79167">
        <ele>375</ele>
        <time>2016-03-12T09:47:28.359Z</time>
      </trkpt>
      <trkpt lat="43.71593" lon="5.79163">
        <ele>375</ele>
        <time>2016-03-12T09:47:29.332Z</time>
      </trkpt>
      <trkpt lat="43.71596" lon="5.79156">
        <ele>375</ele>
        <time>2016-03-12T09:47:30.357Z</time>
      </trkpt>
      <trkpt lat="43.716" lon="5.79151">
        <ele>375</ele>
        <time>2016-03-12T09:47:31.332Z</time>
      </trkpt>
      <trkpt lat="43.71602" lon="5.79145">
        <ele>376</ele>
        <time>2016-03-12T09:47:32.357Z</time>
      </trkpt>
      <trkpt lat="43.71606" lon="5.7914">
        <ele>375</ele>
        <time>2016-03-12T09:47:33.332Z</time>
      </trkpt>
      <trkpt lat="43.71607" lon="5.79134">
        <ele>375</ele>
        <time>2016-03-12T09:47:34.357Z</time>
      </trkpt>
      <trkpt lat="43.71609" lon="5.79126">
        <ele>374</ele>
        <time>2016-03-12T09:47:35.332Z</time>
      </trkpt>
      <trkpt lat="43.71611" lon="5.79118">
        <ele>373</ele>
        <time>2016-03-12T09:47:36.423Z</time>
      </trkpt>
      <trkpt lat="43.71611" lon="5.79111">
        <ele>373</ele>
        <time>2016-03-12T09:47:37.332Z</time>
      </trkpt>
      <trkpt lat="43.71611" lon="5.79105">
        <ele>373</ele>
        <time>2016-03-12T09:47:38.357Z</time>
      </trkpt>
      <trkpt lat="43.71611" lon="5.79098">
        <ele>372</ele>
        <time>2016-03-12T09:47:39.328Z</time>
      </trkpt>
      <trkpt lat="43.7161" lon="5.79088">
        <ele>372</ele>
        <time>2016-03-12T09:47:41.397Z</time>
      </trkpt>
      <trkpt lat="43.71609" lon="5.79084">
        <ele>372</ele>
        <time>2016-03-12T09:47:42.332Z</time>
      </trkpt>
      <trkpt lat="43.71608" lon="5.79078">
        <ele>371</ele>
        <time>2016-03-12T09:47:43.358Z</time>
      </trkpt>
      <trkpt lat="43.71606" lon="5.79072">
        <ele>371</ele>
        <time>2016-03-12T09:47:44.332Z</time>
      </trkpt>
      <trkpt lat="43.71601" lon="5.79062">
        <ele>369</ele>
        <time>2016-03-12T09:47:46.358Z</time>
      </trkpt>
      <trkpt lat="43.71598" lon="5.79059">
        <ele>369</ele>
        <time>2016-03-12T09:47:47.333Z</time>
      </trkpt>
      <trkpt lat="43.716" lon="5.79048">
        <ele>367</ele>
        <time>2016-03-12T09:47:51.358Z</time>
      </trkpt>
      <trkpt lat="43.71602" lon="5.79045">
        <ele>367</ele>
        <time>2016-03-12T09:47:52.333Z</time>
      </trkpt>
      <trkpt lat="43.71608" lon="5.7904">
        <ele>366</ele>
        <time>2016-03-12T09:47:54.349Z</time>
      </trkpt>
      <trkpt lat="43.71611" lon="5.79036">
        <ele>365</ele>
        <time>2016-03-12T09:47:55.332Z</time>
      </trkpt>
      <trkpt lat="43.71619" lon="5.79032">
        <ele>363</ele>
        <time>2016-03-12T09:47:57.384Z</time>
      </trkpt>
      <trkpt lat="43.71622" lon="5.79029">
        <ele>363</ele>
        <time>2016-03-12T09:47:58.327Z</time>
      </trkpt>
      <trkpt lat="43.71627" lon="5.79022">
        <ele>361</ele>
        <time>2016-03-12T09:48:00.357Z</time>
      </trkpt>
      <trkpt lat="43.71629" lon="5.79017">
        <ele>361</ele>
        <time>2016-03-12T09:48:01.332Z</time>
      </trkpt>
      <trkpt lat="43.71634" lon="5.79009">
        <ele>359</ele>
        <time>2016-03-12T09:48:03.357Z</time>
      </trkpt>
      <trkpt lat="43.71637" lon="5.79004">
        <ele>358</ele>
        <time>2016-03-12T09:48:04.333Z</time>
      </trkpt>
      <trkpt lat="43.71638" lon="5.78998">
        <ele>358</ele>
        <time>2016-03-12T09:48:05.358Z</time>
      </trkpt>
      <trkpt lat="43.71639" lon="5.78991">
        <ele>357</ele>
        <time>2016-03-12T09:48:06.332Z</time>
      </trkpt>
      <trkpt lat="43.7164" lon="5.78983">
        <ele>356</ele>
        <time>2016-03-12T09:48:07.358Z</time>
      </trkpt>
      <trkpt lat="43.71641" lon="5.78975">
        <ele>355</ele>
        <time>2016-03-12T09:48:08.332Z</time>
      </trkpt>
      <trkpt lat="43.71641" lon="5.78966">
        <ele>355</ele>
        <time>2016-03-12T09:48:10.359Z</time>
      </trkpt>
      <trkpt lat="43.71642" lon="5.78959">
        <ele>354</ele>
        <time>2016-03-12T09:48:11.333Z</time>
      </trkpt>
      <trkpt lat="43.71641" lon="5.78948">
        <ele>355</ele>
        <time>2016-03-12T09:48:13.392Z</time>
      </trkpt>
      <trkpt lat="43.71639" lon="5.78944">
        <ele>354</ele>
        <time>2016-03-12T09:48:14.333Z</time>
      </trkpt>
      <trkpt lat="43.71644" lon="5.78936">
        <ele>353</ele>
        <time>2016-03-12T09:48:19.357Z</time>
      </trkpt>
      <trkpt lat="43.71646" lon="5.78934">
        <ele>352</ele>
        <time>2016-03-12T09:48:20.332Z</time>
      </trkpt>
      <trkpt lat="43.71649" lon="5.78928">
        <ele>350</ele>
        <time>2016-03-12T09:48:22.358Z</time>
      </trkpt>
      <trkpt lat="43.71652" lon="5.78924">
        <ele>349</ele>
        <time>2016-03-12T09:48:23.332Z</time>
      </trkpt>
      <trkpt lat="43.71655" lon="5.78914">
        <ele>347</ele>
        <time>2016-03-12T09:48:26.358Z</time>
      </trkpt>
      <trkpt lat="43.71654" lon="5.7891">
        <ele>347</ele>
        <time>2016-03-12T09:48:27.331Z</time>
      </trkpt>
      <trkpt lat="43.71645" lon="5.78907">
        <ele>350</ele>
        <time>2016-03-12T09:48:31.358Z</time>
      </trkpt>
      <trkpt lat="43.71644" lon="5.78907">
        <ele>351</ele>
        <time>2016-03-12T09:48:32.333Z</time>
      </trkpt>
      <trkpt lat="43.71636" lon="5.78906">
        <ele>350</ele>
        <time>2016-03-12T09:48:37.353Z</time>
      </trkpt>
      <trkpt lat="43.71632" lon="5.78906">
        <ele>348</ele>
        <time>2016-03-12T09:48:38.332Z</time>
      </trkpt>
      <trkpt lat="43.71625" lon="5.78906">
        <ele>348</ele>
        <time>2016-03-12T09:48:40.384Z</time>
      </trkpt>
      <trkpt lat="43.71622" lon="5.78908">
        <ele>347</ele>
        <time>2016-03-12T09:48:41.332Z</time>
      </trkpt>
      <trkpt lat="43.71616" lon="5.78912">
        <ele>346</ele>
        <time>2016-03-12T09:48:43.358Z</time>
      </trkpt>
      <trkpt lat="43.71613" lon="5.78914">
        <ele>346</ele>
        <time>2016-03-12T09:48:44.332Z</time>
      </trkpt>
      <trkpt lat="43.71606" lon="5.78916">
        <ele>344</ele>
        <time>2016-03-12T09:48:46.357Z</time>
      </trkpt>
      <trkpt lat="43.71602" lon="5.78918">
        <ele>343</ele>
        <time>2016-03-12T09:48:47.328Z</time>
      </trkpt>
      <trkpt lat="43.71596" lon="5.78922">
        <ele>341</ele>
        <time>2016-03-12T09:48:49.354Z</time>
      </trkpt>
      <trkpt lat="43.71594" lon="5.78925">
        <ele>339</ele>
        <time>2016-03-12T09:48:50.328Z</time>
      </trkpt>
      <trkpt lat="43.71588" lon="5.78928">
        <ele>336</ele>
        <time>2016-03-12T09:48:52.358Z</time>
      </trkpt>
      <trkpt lat="43.71584" lon="5.78928">
        <ele>336</ele>
        <time>2016-03-12T09:48:53.333Z</time>
      </trkpt>
      <trkpt lat="43.71576" lon="5.78929">
        <ele>336</ele>
        <time>2016-03-12T09:48:55.358Z</time>
      </trkpt>
      <trkpt lat="43.71572" lon="5.78931">
        <ele>335</ele>
        <time>2016-03-12T09:48:56.358Z</time>
      </trkpt>
      <trkpt lat="43.71567" lon="5.78932">
        <ele>334</ele>
        <time>2016-03-12T09:48:57.358Z</time>
      </trkpt>
      <trkpt lat="43.71562" lon="5.78931">
        <ele>334</ele>
        <time>2016-03-12T09:48:58.331Z</time>
      </trkpt>
      <trkpt lat="43.71559" lon="5.78935">
        <ele>333</ele>
        <time>2016-03-12T09:48:59.367Z</time>
      </trkpt>
      <trkpt lat="43.71556" lon="5.78941">
        <ele>333</ele>
        <time>2016-03-12T09:49:00.332Z</time>
      </trkpt>
      <trkpt lat="43.71552" lon="5.78946">
        <ele>332</ele>
        <time>2016-03-12T09:49:01.357Z</time>
      </trkpt>
      <trkpt lat="43.71548" lon="5.78947">
        <ele>332</ele>
        <time>2016-03-12T09:49:02.332Z</time>
      </trkpt>
      <trkpt lat="43.71543" lon="5.78946">
        <ele>331</ele>
        <time>2016-03-12T09:49:03.358Z</time>
      </trkpt>
      <trkpt lat="43.71538" lon="5.78949">
        <ele>331</ele>
        <time>2016-03-12T09:49:04.344Z</time>
      </trkpt>
      <trkpt lat="43.71534" lon="5.78953">
        <ele>330</ele>
        <time>2016-03-12T09:49:05.360Z</time>
      </trkpt>
      <trkpt lat="43.71531" lon="5.78957">
        <ele>330</ele>
        <time>2016-03-12T09:49:06.335Z</time>
      </trkpt>
      <trkpt lat="43.71528" lon="5.78967">
        <ele>329</ele>
        <time>2016-03-12T09:49:13.358Z</time>
      </trkpt>
      <trkpt lat="43.71527" lon="5.78969">
        <ele>330</ele>
        <time>2016-03-12T09:49:14.333Z</time>
      </trkpt>
      <trkpt lat="43.71523" lon="5.78979">
        <ele>330</ele>
        <time>2016-03-12T09:49:17.354Z</time>
      </trkpt>
      <trkpt lat="43.71522" lon="5.78983">
        <ele>330</ele>
        <time>2016-03-12T09:49:18.345Z</time>
      </trkpt>
      <trkpt lat="43.71519" lon="5.78995">
        <ele>331</ele>
        <time>2016-03-12T09:49:21.359Z</time>
      </trkpt>
      <trkpt lat="43.71518" lon="5.78998">
        <ele>330</ele>
        <time>2016-03-12T09:49:22.334Z</time>
      </trkpt>
      <trkpt lat="43.71514" lon="5.79005">
        <ele>331</ele>
        <time>2016-03-12T09:49:24.355Z</time>
      </trkpt>
      <trkpt lat="43.71512" lon="5.79008">
        <ele>331</ele>
        <time>2016-03-12T09:49:25.333Z</time>
      </trkpt>
      <trkpt lat="43.71508" lon="5.79014">
        <ele>332</ele>
        <time>2016-03-12T09:49:27.359Z</time>
      </trkpt>
      <trkpt lat="43.71506" lon="5.79018">
        <ele>332</ele>
        <time>2016-03-12T09:49:28.328Z</time>
      </trkpt>
      <trkpt lat="43.71504" lon="5.79026">
        <ele>332</ele>
        <time>2016-03-12T09:49:30.360Z</time>
      </trkpt>
      <trkpt lat="43.71503" lon="5.7903">
        <ele>332</ele>
        <time>2016-03-12T09:49:31.333Z</time>
      </trkpt>
      <trkpt lat="43.715" lon="5.79039">
        <ele>332</ele>
        <time>2016-03-12T09:49:33.396Z</time>
      </trkpt>
      <trkpt lat="43.71498" lon="5.79042">
        <ele>332</ele>
        <time>2016-03-12T09:49:34.329Z</time>
      </trkpt>
      <trkpt lat="43.71495" lon="5.79051">
        <ele>332</ele>
        <time>2016-03-12T09:49:36.415Z</time>
      </trkpt>
      <trkpt lat="43.71494" lon="5.79055">
        <ele>332</ele>
        <time>2016-03-12T09:49:37.332Z</time>
      </trkpt>
      <trkpt lat="43.71492" lon="5.79064">
        <ele>330</ele>
        <time>2016-03-12T09:49:39.358Z</time>
      </trkpt>
      <trkpt lat="43.7149" lon="5.7907">
        <ele>330</ele>
        <time>2016-03-12T09:49:40.332Z</time>
      </trkpt>
      <trkpt lat="43.71487" lon="5.7908">
        <ele>330</ele>
        <time>2016-03-12T09:49:42.358Z</time>
      </trkpt>
      <trkpt lat="43.71486" lon="5.79085">
        <ele>330</ele>
        <time>2016-03-12T09:49:43.333Z</time>
      </trkpt>
      <trkpt lat="43.71484" lon="5.79096">
        <ele>331</ele>
        <time>2016-03-12T09:49:45.354Z</time>
      </trkpt>
      <trkpt lat="43.71483" lon="5.79101">
        <ele>332</ele>
        <time>2016-03-12T09:49:46.332Z</time>
      </trkpt>
      <trkpt lat="43.71481" lon="5.79111">
        <ele>333</ele>
        <time>2016-03-12T09:49:48.354Z</time>
      </trkpt>
      <trkpt lat="43.71481" lon="5.79117">
        <ele>332</ele>
        <time>2016-03-12T09:49:49.332Z</time>
      </trkpt>
      <trkpt lat="43.71478" lon="5.79127">
        <ele>331</ele>
        <time>2016-03-12T09:49:51.359Z</time>
      </trkpt>
      <trkpt lat="43.71477" lon="5.79133">
        <ele>332</ele>
        <time>2016-03-12T09:49:52.333Z</time>
      </trkpt>
      <trkpt lat="43.71475" lon="5.79142">
        <ele>331</ele>
        <time>2016-03-12T09:49:54.362Z</time>
      </trkpt>
      <trkpt lat="43.71473" lon="5.79147">
        <ele>331</ele>
        <time>2016-03-12T09:49:55.333Z</time>
      </trkpt>
      <trkpt lat="43.71469" lon="5.79157">
        <ele>333</ele>
        <time>2016-03-12T09:49:57.358Z</time>
      </trkpt>
      <trkpt lat="43.71467" lon="5.7916">
        <ele>333</ele>
        <time>2016-03-12T09:49:58.333Z</time>
      </trkpt>
      <trkpt lat="43.71463" lon="5.79169">
        <ele>334</ele>
        <time>2016-03-12T09:50:00.394Z</time>
      </trkpt>
      <trkpt lat="43.71462" lon="5.79174">
        <ele>334</ele>
        <time>2016-03-12T09:50:01.555Z</time>
      </trkpt>
      <trkpt lat="43.71459" lon="5.79184">
        <ele>335</ele>
        <time>2016-03-12T09:50:03.359Z</time>
      </trkpt>
      <trkpt lat="43.71458" lon="5.79189">
        <ele>334</ele>
        <time>2016-03-12T09:50:04.351Z</time>
      </trkpt>
      <trkpt lat="43.71455" lon="5.79199">
        <ele>334</ele>
        <time>2016-03-12T09:50:06.359Z</time>
      </trkpt>
      <trkpt lat="43.71454" lon="5.79203">
        <ele>335</ele>
        <time>2016-03-12T09:50:07.333Z</time>
      </trkpt>
      <trkpt lat="43.71451" lon="5.79212">
        <ele>334</ele>
        <time>2016-03-12T09:50:09.360Z</time>
      </trkpt>
      <trkpt lat="43.7145" lon="5.79217">
        <ele>334</ele>
        <time>2016-03-12T09:50:10.333Z</time>
      </trkpt>
      <trkpt lat="43.71446" lon="5.79226">
        <ele>334</ele>
        <time>2016-03-12T09:50:12.365Z</time>
      </trkpt>
      <trkpt lat="43.71444" lon="5.79231">
        <ele>333</ele>
        <time>2016-03-12T09:50:13.335Z</time>
      </trkpt>
      <trkpt lat="43.71441" lon="5.79239">
        <ele>333</ele>
        <time>2016-03-12T09:50:15.359Z</time>
      </trkpt>
      <trkpt lat="43.71439" lon="5.79244">
        <ele>333</ele>
        <time>2016-03-12T09:50:16.338Z</time>
      </trkpt>
      <trkpt lat="43.71436" lon="5.79254">
        <ele>333</ele>
        <time>2016-03-12T09:50:18.367Z</time>
      </trkpt>
      <trkpt lat="43.71434" lon="5.79259">
        <ele>332</ele>
        <time>2016-03-12T09:50:19.333Z</time>
      </trkpt>
      <trkpt lat="43.71432" lon="5.79269">
        <ele>332</ele>
        <time>2016-03-12T09:50:21.359Z</time>
      </trkpt>
      <trkpt lat="43.71431" lon="5.79273">
        <ele>332</ele>
        <time>2016-03-12T09:50:22.333Z</time>
      </trkpt>
      <trkpt lat="43.71428" lon="5.79283">
        <ele>332</ele>
        <time>2016-03-12T09:50:24.358Z</time>
      </trkpt>
      <trkpt lat="43.71427" lon="5.79288">
        <ele>332</ele>
        <time>2016-03-12T09:50:25.333Z</time>
      </trkpt>
      <trkpt lat="43.71425" lon="5.79297">
        <ele>332</ele>
        <time>2016-03-12T09:50:27.384Z</time>
      </trkpt>
      <trkpt lat="43.71423" lon="5.79302">
        <ele>332</ele>
        <time>2016-03-12T09:50:28.333Z</time>
      </trkpt>
      <trkpt lat="43.71421" lon="5.79311">
        <ele>333</ele>
        <time>2016-03-12T09:50:30.359Z</time>
      </trkpt>
      <trkpt lat="43.7142" lon="5.79315">
        <ele>333</ele>
        <time>2016-03-12T09:50:31.333Z</time>
      </trkpt>
      <trkpt lat="43.71418" lon="5.79324">
        <ele>332</ele>
        <time>2016-03-12T09:50:33.360Z</time>
      </trkpt>
      <trkpt lat="43.71418" lon="5.79329">
        <ele>332</ele>
        <time>2016-03-12T09:50:34.333Z</time>
      </trkpt>
      <trkpt lat="43.71416" lon="5.79338">
        <ele>333</ele>
        <time>2016-03-12T09:50:36.358Z</time>
      </trkpt>
      <trkpt lat="43.71415" lon="5.79343">
        <ele>332</ele>
        <time>2016-03-12T09:50:37.344Z</time>
      </trkpt>
      <trkpt lat="43.71412" lon="5.79351">
        <ele>333</ele>
        <time>2016-03-12T09:50:39.359Z</time>
      </trkpt>
      <trkpt lat="43.71411" lon="5.79355">
        <ele>334</ele>
        <time>2016-03-12T09:50:40.333Z</time>
      </trkpt>
      <trkpt lat="43.71409" lon="5.79364">
        <ele>334</ele>
        <time>2016-03-12T09:50:42.358Z</time>
      </trkpt>
      <trkpt lat="43.71408" lon="5.79368">
        <ele>333</ele>
        <time>2016-03-12T09:50:43.358Z</time>
      </trkpt>
      <trkpt lat="43.71407" lon="5.79378">
        <ele>332</ele>
        <time>2016-03-12T09:50:45.358Z</time>
      </trkpt>
      <trkpt lat="43.71407" lon="5.79383">
        <ele>333</ele>
        <time>2016-03-12T09:50:46.333Z</time>
      </trkpt>
      <trkpt lat="43.71406" lon="5.79393">
        <ele>332</ele>
        <time>2016-03-12T09:50:48.418Z</time>
      </trkpt>
      <trkpt lat="43.71406" lon="5.79398">
        <ele>332</ele>
        <time>2016-03-12T09:50:49.325Z</time>
      </trkpt>
      <trkpt lat="43.71406" lon="5.79408">
        <ele>333</ele>
        <time>2016-03-12T09:50:51.355Z</time>
      </trkpt>
      <trkpt lat="43.71405" lon="5.79413">
        <ele>333</ele>
        <time>2016-03-12T09:50:52.330Z</time>
      </trkpt>
      <trkpt lat="43.71405" lon="5.79423">
        <ele>333</ele>
        <time>2016-03-12T09:50:54.353Z</time>
      </trkpt>
      <trkpt lat="43.71405" lon="5.79428">
        <ele>332</ele>
        <time>2016-03-12T09:50:55.323Z</time>
      </trkpt>
      <trkpt lat="43.71404" lon="5.79438">
        <ele>331</ele>
        <time>2016-03-12T09:50:57.350Z</time>
      </trkpt>
      <trkpt lat="43.71403" lon="5.79443">
        <ele>331</ele>
        <time>2016-03-12T09:50:58.330Z</time>
      </trkpt>
      <trkpt lat="43.71402" lon="5.79454">
        <ele>331</ele>
        <time>2016-03-12T09:51:00.395Z</time>
      </trkpt>
      <trkpt lat="43.71402" lon="5.79459">
        <ele>330</ele>
        <time>2016-03-12T09:51:01.331Z</time>
      </trkpt>
      <trkpt lat="43.71401" lon="5.79469">
        <ele>330</ele>
        <time>2016-03-12T09:51:03.338Z</time>
      </trkpt>
      <trkpt lat="43.714" lon="5.79474">
        <ele>331</ele>
        <time>2016-03-12T09:51:04.326Z</time>
      </trkpt>
      <trkpt lat="43.71398" lon="5.79484">
        <ele>331</ele>
        <time>2016-03-12T09:51:06.354Z</time>
      </trkpt>
      <trkpt lat="43.71398" lon="5.7949">
        <ele>331</ele>
        <time>2016-03-12T09:51:07.334Z</time>
      </trkpt>
      <trkpt lat="43.71396" lon="5.795">
        <ele>332</ele>
        <time>2016-03-12T09:51:09.358Z</time>
      </trkpt>
      <trkpt lat="43.71395" lon="5.79504">
        <ele>332</ele>
        <time>2016-03-12T09:51:10.334Z</time>
      </trkpt>
      <trkpt lat="43.71392" lon="5.79514">
        <ele>333</ele>
        <time>2016-03-12T09:51:12.359Z</time>
      </trkpt>
      <trkpt lat="43.71391" lon="5.79519">
        <ele>335</ele>
        <time>2016-03-12T09:51:13.335Z</time>
      </trkpt>
      <trkpt lat="43.7139" lon="5.79528">
        <ele>335</ele>
        <time>2016-03-12T09:51:15.386Z</time>
      </trkpt>
      <trkpt lat="43.7139" lon="5.79533">
        <ele>335</ele>
        <time>2016-03-12T09:51:16.331Z</time>
      </trkpt>
      <trkpt lat="43.71389" lon="5.79543">
        <ele>337</ele>
        <time>2016-03-12T09:51:18.362Z</time>
      </trkpt>
      <trkpt lat="43.71389" lon="5.79549">
        <ele>337</ele>
        <time>2016-03-12T09:51:19.334Z</time>
      </trkpt>
      <trkpt lat="43.71389" lon="5.79558">
        <ele>336</ele>
        <time>2016-03-12T09:51:21.338Z</time>
      </trkpt>
      <trkpt lat="43.71389" lon="5.79562">
        <ele>335</ele>
        <time>2016-03-12T09:51:22.332Z</time>
      </trkpt>
      <trkpt lat="43.71393" lon="5.79573">
        <ele>335</ele>
        <time>2016-03-12T09:51:26.359Z</time>
      </trkpt>
      <trkpt lat="43.71394" lon="5.79577">
        <ele>334</ele>
        <time>2016-03-12T09:51:27.333Z</time>
      </trkpt>
      <trkpt lat="43.71395" lon="5.79589">
        <ele>335</ele>
        <time>2016-03-12T09:51:30.361Z</time>
      </trkpt>
      <trkpt lat="43.71394" lon="5.79594">
        <ele>335</ele>
        <time>2016-03-12T09:51:31.359Z</time>
      </trkpt>
      <trkpt lat="43.71391" lon="5.79603">
        <ele>334</ele>
        <time>2016-03-12T09:51:33.360Z</time>
      </trkpt>
      <trkpt lat="43.71391" lon="5.79607">
        <ele>335</ele>
        <time>2016-03-12T09:51:34.333Z</time>
      </trkpt>
      <trkpt lat="43.71388" lon="5.79616">
        <ele>338</ele>
        <time>2016-03-12T09:51:36.422Z</time>
      </trkpt>
      <trkpt lat="43.71387" lon="5.79619">
        <ele>338</ele>
        <time>2016-03-12T09:51:37.333Z</time>
      </trkpt>
      <trkpt lat="43.71385" lon="5.79628">
        <ele>338</ele>
        <time>2016-03-12T09:51:39.371Z</time>
      </trkpt>
      <trkpt lat="43.71384" lon="5.79634">
        <ele>338</ele>
        <time>2016-03-12T09:51:40.329Z</time>
      </trkpt>
      <trkpt lat="43.71383" lon="5.79644">
        <ele>338</ele>
        <time>2016-03-12T09:51:42.359Z</time>
      </trkpt>
      <trkpt lat="43.71382" lon="5.79649">
        <ele>338</ele>
        <time>2016-03-12T09:51:43.329Z</time>
      </trkpt>
      <trkpt lat="43.71381" lon="5.79659">
        <ele>338</ele>
        <time>2016-03-12T09:51:45.361Z</time>
      </trkpt>
      <trkpt lat="43.7138" lon="5.79664">
        <ele>338</ele>
        <time>2016-03-12T09:51:46.334Z</time>
      </trkpt>
      <trkpt lat="43.71379" lon="5.79674">
        <ele>338</ele>
        <time>2016-03-12T09:51:48.360Z</time>
      </trkpt>
      <trkpt lat="43.71379" lon="5.7968">
        <ele>339</ele>
        <time>2016-03-12T09:51:49.334Z</time>
      </trkpt>
      <trkpt lat="43.71378" lon="5.79689">
        <ele>337</ele>
        <time>2016-03-12T09:51:51.359Z</time>
      </trkpt>
      <trkpt lat="43.71378" lon="5.79695">
        <ele>338</ele>
        <time>2016-03-12T09:51:52.333Z</time>
      </trkpt>
      <trkpt lat="43.71377" lon="5.79705">
        <ele>337</ele>
        <time>2016-03-12T09:51:54.358Z</time>
      </trkpt>
      <trkpt lat="43.71377" lon="5.7971">
        <ele>337</ele>
        <time>2016-03-12T09:51:55.334Z</time>
      </trkpt>
      <trkpt lat="43.71375" lon="5.7972">
        <ele>337</ele>
        <time>2016-03-12T09:51:57.358Z</time>
      </trkpt>
      <trkpt lat="43.71375" lon="5.79724">
        <ele>337</ele>
        <time>2016-03-12T09:51:58.334Z</time>
      </trkpt>
      <trkpt lat="43.71374" lon="5.79734">
        <ele>337</ele>
        <time>2016-03-12T09:52:00.399Z</time>
      </trkpt>
      <trkpt lat="43.71373" lon="5.79738">
        <ele>338</ele>
        <time>2016-03-12T09:52:01.335Z</time>
      </trkpt>
      <trkpt lat="43.71371" lon="5.79746">
        <ele>338</ele>
        <time>2016-03-12T09:52:03.376Z</time>
      </trkpt>
      <trkpt lat="43.7137" lon="5.79751">
        <ele>338</ele>
        <time>2016-03-12T09:52:04.332Z</time>
      </trkpt>
      <trkpt lat="43.71367" lon="5.79759">
        <ele>338</ele>
        <time>2016-03-12T09:52:06.358Z</time>
      </trkpt>
      <trkpt lat="43.71366" lon="5.79764">
        <ele>338</ele>
        <time>2016-03-12T09:52:07.334Z</time>
      </trkpt>
      <trkpt lat="43.71364" lon="5.79773">
        <ele>338</ele>
        <time>2016-03-12T09:52:09.353Z</time>
      </trkpt>
      <trkpt lat="43.71363" lon="5.79778">
        <ele>338</ele>
        <time>2016-03-12T09:52:10.334Z</time>
      </trkpt>
      <trkpt lat="43.71362" lon="5.79787">
        <ele>338</ele>
        <time>2016-03-12T09:52:12.358Z</time>
      </trkpt>
      <trkpt lat="43.71362" lon="5.79792">
        <ele>338</ele>
        <time>2016-03-12T09:52:13.589Z</time>
      </trkpt>
      <trkpt lat="43.71363" lon="5.79803">
        <ele>336</ele>
        <time>2016-03-12T09:52:15.359Z</time>
      </trkpt>
      <trkpt lat="43.71365" lon="5.79809">
        <ele>336</ele>
        <time>2016-03-12T09:52:16.333Z</time>
      </trkpt>
      <trkpt lat="43.71368" lon="5.79819">
        <ele>334</ele>
        <time>2016-03-12T09:52:18.361Z</time>
      </trkpt>
      <trkpt lat="43.71369" lon="5.79824">
        <ele>334</ele>
        <time>2016-03-12T09:52:19.334Z</time>
      </trkpt>
      <trkpt lat="43.7137" lon="5.79835">
        <ele>335</ele>
        <time>2016-03-12T09:52:21.358Z</time>
      </trkpt>
      <trkpt lat="43.7137" lon="5.7984">
        <ele>334</ele>
        <time>2016-03-12T09:52:22.333Z</time>
      </trkpt>
      <trkpt lat="43.71367" lon="5.79851">
        <ele>333</ele>
        <time>2016-03-12T09:52:24.400Z</time>
      </trkpt>
      <trkpt lat="43.71366" lon="5.79855">
        <ele>333</ele>
        <time>2016-03-12T09:52:25.334Z</time>
      </trkpt>
      <trkpt lat="43.71363" lon="5.79865">
        <ele>334</ele>
        <time>2016-03-12T09:52:27.360Z</time>
      </trkpt>
      <trkpt lat="43.71361" lon="5.79869">
        <ele>334</ele>
        <time>2016-03-12T09:52:28.333Z</time>
      </trkpt>
      <trkpt lat="43.71357" lon="5.79877">
        <ele>335</ele>
        <time>2016-03-12T09:52:30.359Z</time>
      </trkpt>
      <trkpt lat="43.71355" lon="5.79881">
        <ele>336</ele>
        <time>2016-03-12T09:52:31.333Z</time>
      </trkpt>
      <trkpt lat="43.71352" lon="5.79888">
        <ele>338</ele>
        <time>2016-03-12T09:52:33.368Z</time>
      </trkpt>
      <trkpt lat="43.7135" lon="5.79892">
        <ele>338</ele>
        <time>2016-03-12T09:52:34.333Z</time>
      </trkpt>
      <trkpt lat="43.71347" lon="5.799">
        <ele>339</ele>
        <time>2016-03-12T09:52:36.358Z</time>
      </trkpt>
      <trkpt lat="43.71345" lon="5.79904">
        <ele>340</ele>
        <time>2016-03-12T09:52:37.333Z</time>
      </trkpt>
      <trkpt lat="43.71343" lon="5.79913">
        <ele>339</ele>
        <time>2016-03-12T09:52:39.358Z</time>
      </trkpt>
      <trkpt lat="43.71341" lon="5.79917">
        <ele>340</ele>
        <time>2016-03-12T09:52:40.333Z</time>
      </trkpt>
      <trkpt lat="43.71339" lon="5.79926">
        <ele>340</ele>
        <time>2016-03-12T09:52:42.359Z</time>
      </trkpt>
      <trkpt lat="43.71338" lon="5.79931">
        <ele>340</ele>
        <time>2016-03-12T09:52:43.333Z</time>
      </trkpt>
      <trkpt lat="43.71336" lon="5.79941">
        <ele>340</ele>
        <time>2016-03-12T09:52:45.355Z</time>
      </trkpt>
      <trkpt lat="43.71334" lon="5.79945">
        <ele>341</ele>
        <time>2016-03-12T09:52:46.359Z</time>
      </trkpt>
      <trkpt lat="43.7133" lon="5.79955">
        <ele>341</ele>
        <time>2016-03-12T09:52:48.357Z</time>
      </trkpt>
      <trkpt lat="43.71328" lon="5.79959">
        <ele>339</ele>
        <time>2016-03-12T09:52:49.332Z</time>
      </trkpt>
      <trkpt lat="43.71323" lon="5.79969">
        <ele>339</ele>
        <time>2016-03-12T09:52:51.358Z</time>
      </trkpt>
      <trkpt lat="43.71321" lon="5.79974">
        <ele>339</ele>
        <time>2016-03-12T09:52:52.334Z</time>
      </trkpt>
      <trkpt lat="43.71317" lon="5.79984">
        <ele>338</ele>
        <time>2016-03-12T09:52:54.358Z</time>
      </trkpt>
      <trkpt lat="43.71314" lon="5.79989">
        <ele>338</ele>
        <time>2016-03-12T09:52:55.335Z</time>
      </trkpt>
      <trkpt lat="43.71312" lon="5.79994">
        <ele>338</ele>
        <time>2016-03-12T09:52:56.359Z</time>
      </trkpt>
      <trkpt lat="43.71309" lon="5.8">
        <ele>338</ele>
        <time>2016-03-12T09:52:57.334Z</time>
      </trkpt>
      <trkpt lat="43.71307" lon="5.80005">
        <ele>338</ele>
        <time>2016-03-12T09:52:58.358Z</time>
      </trkpt>
      <trkpt lat="43.71304" lon="5.80011">
        <ele>338</ele>
        <time>2016-03-12T09:52:59.333Z</time>
      </trkpt>
      <trkpt lat="43.713" lon="5.80021">
        <ele>339</ele>
        <time>2016-03-12T09:53:01.386Z</time>
      </trkpt>
      <trkpt lat="43.71298" lon="5.80025">
        <ele>341</ele>
        <time>2016-03-12T09:53:02.360Z</time>
      </trkpt>
      <trkpt lat="43.71295" lon="5.80035">
        <ele>341</ele>
        <time>2016-03-12T09:53:04.359Z</time>
      </trkpt>
      <trkpt lat="43.71293" lon="5.80039">
        <ele>342</ele>
        <time>2016-03-12T09:53:05.333Z</time>
      </trkpt>
      <trkpt lat="43.71289" lon="5.80047">
        <ele>343</ele>
        <time>2016-03-12T09:53:07.360Z</time>
      </trkpt>
      <trkpt lat="43.71287" lon="5.80051">
        <ele>343</ele>
        <time>2016-03-12T09:53:08.333Z</time>
      </trkpt>
      <trkpt lat="43.71285" lon="5.80058">
        <ele>342</ele>
        <time>2016-03-12T09:53:10.358Z</time>
      </trkpt>
      <trkpt lat="43.71283" lon="5.80062">
        <ele>342</ele>
        <time>2016-03-12T09:53:11.334Z</time>
      </trkpt>
      <trkpt lat="43.71279" lon="5.8007">
        <ele>341</ele>
        <time>2016-03-12T09:53:13.357Z</time>
      </trkpt>
      <trkpt lat="43.71277" lon="5.80074">
        <ele>341</ele>
        <time>2016-03-12T09:53:14.334Z</time>
      </trkpt>
      <trkpt lat="43.71274" lon="5.80083">
        <ele>340</ele>
        <time>2016-03-12T09:53:16.359Z</time>
      </trkpt>
      <trkpt lat="43.71272" lon="5.80087">
        <ele>339</ele>
        <time>2016-03-12T09:53:17.334Z</time>
      </trkpt>
      <trkpt lat="43.71268" lon="5.80095">
        <ele>340</ele>
        <time>2016-03-12T09:53:19.358Z</time>
      </trkpt>
      <trkpt lat="43.71265" lon="5.801">
        <ele>340</ele>
        <time>2016-03-12T09:53:20.334Z</time>
      </trkpt>
      <trkpt lat="43.71261" lon="5.80107">
        <ele>340</ele>
        <time>2016-03-12T09:53:22.358Z</time>
      </trkpt>
      <trkpt lat="43.71258" lon="5.80111">
        <ele>341</ele>
        <time>2016-03-12T09:53:23.334Z</time>
      </trkpt>
      <trkpt lat="43.71253" lon="5.8012">
        <ele>340</ele>
        <time>2016-03-12T09:53:25.360Z</time>
      </trkpt>
      <trkpt lat="43.71251" lon="5.80124">
        <ele>341</ele>
        <time>2016-03-12T09:53:26.335Z</time>
      </trkpt>
      <trkpt lat="43.71244" lon="5.80133">
        <ele>340</ele>
        <time>2016-03-12T09:53:28.359Z</time>
      </trkpt>
      <trkpt lat="43.71242" lon="5.80137">
        <ele>340</ele>
        <time>2016-03-12T09:53:29.334Z</time>
      </trkpt>
      <trkpt lat="43.71237" lon="5.80146">
        <ele>341</ele>
        <time>2016-03-12T09:53:31.359Z</time>
      </trkpt>
      <trkpt lat="43.71235" lon="5.80151">
        <ele>340</ele>
        <time>2016-03-12T09:53:32.334Z</time>
      </trkpt>
      <trkpt lat="43.71231" lon="5.8016">
        <ele>341</ele>
        <time>2016-03-12T09:53:34.384Z</time>
      </trkpt>
      <trkpt lat="43.71229" lon="5.80164">
        <ele>341</ele>
        <time>2016-03-12T09:53:35.333Z</time>
      </trkpt>
      <trkpt lat="43.71225" lon="5.80173">
        <ele>342</ele>
        <time>2016-03-12T09:53:37.358Z</time>
      </trkpt>
      <trkpt lat="43.71224" lon="5.80178">
        <ele>342</ele>
        <time>2016-03-12T09:53:38.333Z</time>
      </trkpt>
      <trkpt lat="43.71222" lon="5.80187">
        <ele>342</ele>
        <time>2016-03-12T09:53:40.359Z</time>
      </trkpt>
      <trkpt lat="43.71221" lon="5.80192">
        <ele>342</ele>
        <time>2016-03-12T09:53:41.334Z</time>
      </trkpt>
      <trkpt lat="43.71219" lon="5.80201">
        <ele>343</ele>
        <time>2016-03-12T09:53:43.359Z</time>
      </trkpt>
      <trkpt lat="43.71218" lon="5.80206">
        <ele>344</ele>
        <time>2016-03-12T09:53:44.334Z</time>
      </trkpt>
      <trkpt lat="43.71215" lon="5.80214">
        <ele>345</ele>
        <time>2016-03-12T09:53:46.358Z</time>
      </trkpt>
      <trkpt lat="43.71214" lon="5.80219">
        <ele>345</ele>
        <time>2016-03-12T09:53:47.329Z</time>
      </trkpt>
      <trkpt lat="43.71212" lon="5.80228">
        <ele>346</ele>
        <time>2016-03-12T09:53:49.358Z</time>
      </trkpt>
      <trkpt lat="43.71211" lon="5.80232">
        <ele>345</ele>
        <time>2016-03-12T09:53:50.370Z</time>
      </trkpt>
      <trkpt lat="43.7121" lon="5.80242">
        <ele>345</ele>
        <time>2016-03-12T09:53:52.359Z</time>
      </trkpt>
      <trkpt lat="43.7121" lon="5.80247">
        <ele>345</ele>
        <time>2016-03-12T09:53:53.334Z</time>
      </trkpt>
      <trkpt lat="43.71209" lon="5.80256">
        <ele>346</ele>
        <time>2016-03-12T09:53:55.360Z</time>
      </trkpt>
      <trkpt lat="43.71208" lon="5.80261">
        <ele>346</ele>
        <time>2016-03-12T09:53:56.333Z</time>
      </trkpt>
      <trkpt lat="43.71206" lon="5.8027">
        <ele>345</ele>
        <time>2016-03-12T09:53:58.358Z</time>
      </trkpt>
      <trkpt lat="43.71204" lon="5.80275">
        <ele>345</ele>
        <time>2016-03-12T09:53:59.334Z</time>
      </trkpt>
      <trkpt lat="43.71199" lon="5.80282">
        <ele>345</ele>
        <time>2016-03-12T09:54:01.354Z</time>
      </trkpt>
      <trkpt lat="43.71197" lon="5.80286">
        <ele>344</ele>
        <time>2016-03-12T09:54:02.345Z</time>
      </trkpt>
      <trkpt lat="43.71192" lon="5.80293">
        <ele>344</ele>
        <time>2016-03-12T09:54:04.360Z</time>
      </trkpt>
      <trkpt lat="43.71189" lon="5.80295">
        <ele>343</ele>
        <time>2016-03-12T09:54:05.334Z</time>
      </trkpt>
      <trkpt lat="43.71181" lon="5.80296">
        <ele>340</ele>
        <time>2016-03-12T09:54:10.359Z</time>
      </trkpt>
      <trkpt lat="43.71179" lon="5.80294">
        <ele>339</ele>
        <time>2016-03-12T09:54:11.334Z</time>
      </trkpt>
      <trkpt lat="43.71174" lon="5.80288">
        <ele>338</ele>
        <time>2016-03-12T09:54:13.499Z</time>
      </trkpt>
      <trkpt lat="43.71171" lon="5.80284">
        <ele>338</ele>
        <time>2016-03-12T09:54:14.355Z</time>
      </trkpt>
      <trkpt lat="43.71166" lon="5.80277">
        <ele>337</ele>
        <time>2016-03-12T09:54:16.355Z</time>
      </trkpt>
      <trkpt lat="43.71164" lon="5.80273">
        <ele>338</ele>
        <time>2016-03-12T09:54:17.355Z</time>
      </trkpt>
      <trkpt lat="43.71159" lon="5.80266">
        <ele>339</ele>
        <time>2016-03-12T09:54:19.356Z</time>
      </trkpt>
      <trkpt lat="43.71157" lon="5.80262">
        <ele>338</ele>
        <time>2016-03-12T09:54:20.322Z</time>
      </trkpt>
      <trkpt lat="43.71153" lon="5.80258">
        <ele>339</ele>
        <time>2016-03-12T09:54:21.358Z</time>
      </trkpt>
      <trkpt lat="43.71145" lon="5.80251">
        <ele>338</ele>
        <time>2016-03-12T09:54:22.334Z</time>
      </trkpt>
      <trkpt lat="43.7114" lon="5.80247">
        <ele>338</ele>
        <time>2016-03-12T09:54:23.361Z</time>
      </trkpt>
      <trkpt lat="43.71135" lon="5.80242">
        <ele>338</ele>
        <time>2016-03-12T09:54:24.330Z</time>
      </trkpt>
      <trkpt lat="43.71131" lon="5.80239">
        <ele>338</ele>
        <time>2016-03-12T09:54:25.359Z</time>
      </trkpt>
      <trkpt lat="43.71126" lon="5.80235">
        <ele>337</ele>
        <time>2016-03-12T09:54:26.334Z</time>
      </trkpt>
      <trkpt lat="43.71122" lon="5.80231">
        <ele>337</ele>
        <time>2016-03-12T09:54:27.359Z</time>
      </trkpt>
      <trkpt lat="43.71119" lon="5.80227">
        <ele>338</ele>
        <time>2016-03-12T09:54:28.334Z</time>
      </trkpt>
      <trkpt lat="43.71113" lon="5.80218">
        <ele>336</ele>
        <time>2016-03-12T09:54:30.359Z</time>
      </trkpt>
      <trkpt lat="43.71112" lon="5.80214">
        <ele>337</ele>
        <time>2016-03-12T09:54:31.333Z</time>
      </trkpt>
      <trkpt lat="43.71107" lon="5.80205">
        <ele>335</ele>
        <time>2016-03-12T09:54:33.385Z</time>
      </trkpt>
      <trkpt lat="43.71103" lon="5.80202">
        <ele>335</ele>
        <time>2016-03-12T09:54:34.345Z</time>
      </trkpt>
      <trkpt lat="43.71098" lon="5.80196">
        <ele>335</ele>
        <time>2016-03-12T09:54:36.358Z</time>
      </trkpt>
      <trkpt lat="43.71096" lon="5.80193">
        <ele>335</ele>
        <time>2016-03-12T09:54:37.333Z</time>
      </trkpt>
      <trkpt lat="43.71091" lon="5.80187">
        <ele>336</ele>
        <time>2016-03-12T09:54:39.359Z</time>
      </trkpt>
      <trkpt lat="43.71088" lon="5.80184">
        <ele>336</ele>
        <time>2016-03-12T09:54:40.334Z</time>
      </trkpt>
      <trkpt lat="43.71083" lon="5.80178">
        <ele>336</ele>
        <time>2016-03-12T09:54:42.359Z</time>
      </trkpt>
      <trkpt lat="43.7108" lon="5.80174">
        <ele>336</ele>
        <time>2016-03-12T09:54:43.333Z</time>
      </trkpt>
      <trkpt lat="43.71075" lon="5.80168">
        <ele>336</ele>
        <time>2016-03-12T09:54:45.425Z</time>
      </trkpt>
      <trkpt lat="43.71073" lon="5.80165">
        <ele>336</ele>
        <time>2016-03-12T09:54:46.329Z</time>
      </trkpt>
      <trkpt lat="43.71067" lon="5.80159">
        <ele>337</ele>
        <time>2016-03-12T09:54:48.359Z</time>
      </trkpt>
      <trkpt lat="43.71065" lon="5.80156">
        <ele>337</ele>
        <time>2016-03-12T09:54:49.333Z</time>
      </trkpt>
      <trkpt lat="43.7106" lon="5.8015">
        <ele>338</ele>
        <time>2016-03-12T09:54:51.360Z</time>
      </trkpt>
      <trkpt lat="43.71058" lon="5.80147">
        <ele>338</ele>
        <time>2016-03-12T09:54:52.334Z</time>
      </trkpt>
      <trkpt lat="43.7105" lon="5.80141">
        <ele>338</ele>
        <time>2016-03-12T09:54:55.360Z</time>
      </trkpt>
      <trkpt lat="43.71047" lon="5.80139">
        <ele>338</ele>
        <time>2016-03-12T09:54:56.336Z</time>
      </trkpt>
      <trkpt lat="43.71041" lon="5.8014">
        <ele>338</ele>
        <time>2016-03-12T09:54:58.360Z</time>
      </trkpt>
      <trkpt lat="43.71038" lon="5.80142">
        <ele>338</ele>
        <time>2016-03-12T09:54:59.330Z</time>
      </trkpt>
      <trkpt lat="43.71032" lon="5.80148">
        <ele>340</ele>
        <time>2016-03-12T09:55:01.356Z</time>
      </trkpt>
      <trkpt lat="43.7103" lon="5.80151">
        <ele>339</ele>
        <time>2016-03-12T09:55:02.335Z</time>
      </trkpt>
      <trkpt lat="43.71026" lon="5.80158">
        <ele>339</ele>
        <time>2016-03-12T09:55:05.360Z</time>
      </trkpt>
      <trkpt lat="43.71024" lon="5.80161">
        <ele>339</ele>
        <time>2016-03-12T09:55:06.334Z</time>
      </trkpt>
      <trkpt lat="43.71021" lon="5.80167">
        <ele>338</ele>
        <time>2016-03-12T09:55:08.360Z</time>
      </trkpt>
      <trkpt lat="43.71019" lon="5.80171">
        <ele>338</ele>
        <time>2016-03-12T09:55:09.330Z</time>
      </trkpt>
      <trkpt lat="43.71015" lon="5.80178">
        <ele>339</ele>
        <time>2016-03-12T09:55:11.590Z</time>
      </trkpt>
      <trkpt lat="43.71013" lon="5.80182">
        <ele>340</ele>
        <time>2016-03-12T09:55:12.334Z</time>
      </trkpt>
      <trkpt lat="43.71006" lon="5.8019">
        <ele>340</ele>
        <time>2016-03-12T09:55:15.360Z</time>
      </trkpt>
      <trkpt lat="43.71003" lon="5.80191">
        <ele>340</ele>
        <time>2016-03-12T09:55:16.335Z</time>
      </trkpt>
      <trkpt lat="43.70996" lon="5.80193">
        <ele>340</ele>
        <time>2016-03-12T09:55:19.349Z</time>
      </trkpt>
      <trkpt lat="43.70994" lon="5.80194">
        <ele>341</ele>
        <time>2016-03-12T09:55:20.330Z</time>
      </trkpt>
      <trkpt lat="43.70988" lon="5.80203">
        <ele>343</ele>
        <time>2016-03-12T09:55:24.360Z</time>
      </trkpt>
      <trkpt lat="43.70986" lon="5.80205">
        <ele>343</ele>
        <time>2016-03-12T09:55:25.335Z</time>
      </trkpt>
      <trkpt lat="43.70979" lon="5.80213">
        <ele>346</ele>
        <time>2016-03-12T09:55:29.367Z</time>
      </trkpt>
      <trkpt lat="43.70977" lon="5.80214">
        <ele>346</ele>
        <time>2016-03-12T09:55:30.338Z</time>
      </trkpt>
      <trkpt lat="43.70971" lon="5.80222">
        <ele>347</ele>
        <time>2016-03-12T09:55:34.588Z</time>
      </trkpt>
      <trkpt lat="43.70969" lon="5.80223">
        <ele>347</ele>
        <time>2016-03-12T09:55:35.330Z</time>
      </trkpt>
      <trkpt lat="43.70961" lon="5.80229">
        <ele>347</ele>
        <time>2016-03-12T09:55:39.361Z</time>
      </trkpt>
      <trkpt lat="43.7096" lon="5.8023">
        <ele>348</ele>
        <time>2016-03-12T09:55:40.335Z</time>
      </trkpt>
      <trkpt lat="43.70953" lon="5.80236">
        <ele>349</ele>
        <time>2016-03-12T09:55:44.370Z</time>
      </trkpt>
      <trkpt lat="43.70952" lon="5.80238">
        <ele>350</ele>
        <time>2016-03-12T09:55:45.331Z</time>
      </trkpt>
      <trkpt lat="43.70949" lon="5.80249">
        <ele>349</ele>
        <time>2016-03-12T09:55:48.358Z</time>
      </trkpt>
      <trkpt lat="43.70949" lon="5.80255">
        <ele>349</ele>
        <time>2016-03-12T09:55:49.345Z</time>
      </trkpt>
      <trkpt lat="43.7095" lon="5.80267">
        <ele>347</ele>
        <time>2016-03-12T09:55:51.359Z</time>
      </trkpt>
      <trkpt lat="43.7095" lon="5.80272">
        <ele>347</ele>
        <time>2016-03-12T09:55:52.333Z</time>
      </trkpt>
      <trkpt lat="43.7095" lon="5.80282">
        <ele>346</ele>
        <time>2016-03-12T09:55:54.370Z</time>
      </trkpt>
      <trkpt lat="43.70949" lon="5.80288">
        <ele>346</ele>
        <time>2016-03-12T09:55:55.339Z</time>
      </trkpt>
      <trkpt lat="43.70948" lon="5.80297">
        <ele>347</ele>
        <time>2016-03-12T09:55:57.354Z</time>
      </trkpt>
      <trkpt lat="43.70947" lon="5.80301">
        <ele>346</ele>
        <time>2016-03-12T09:55:58.328Z</time>
      </trkpt>
      <trkpt lat="43.70943" lon="5.80309">
        <ele>345</ele>
        <time>2016-03-12T09:56:00.355Z</time>
      </trkpt>
      <trkpt lat="43.70941" lon="5.80313">
        <ele>345</ele>
        <time>2016-03-12T09:56:01.334Z</time>
      </trkpt>
      <trkpt lat="43.70937" lon="5.80321">
        <ele>345</ele>
        <time>2016-03-12T09:56:03.362Z</time>
      </trkpt>
      <trkpt lat="43.70935" lon="5.80325">
        <ele>345</ele>
        <time>2016-03-12T09:56:04.328Z</time>
      </trkpt>
      <trkpt lat="43.70931" lon="5.80334">
        <ele>344</ele>
        <time>2016-03-12T09:56:06.370Z</time>
      </trkpt>
      <trkpt lat="43.70929" lon="5.80338">
        <ele>344</ele>
        <time>2016-03-12T09:56:07.334Z</time>
      </trkpt>
      <trkpt lat="43.70925" lon="5.80347">
        <ele>344</ele>
        <time>2016-03-12T09:56:09.359Z</time>
      </trkpt>
      <trkpt lat="43.70923" lon="5.80351">
        <ele>343</ele>
        <time>2016-03-12T09:56:10.334Z</time>
      </trkpt>
      <trkpt lat="43.70919" lon="5.80361">
        <ele>343</ele>
        <time>2016-03-12T09:56:12.355Z</time>
      </trkpt>
      <trkpt lat="43.70917" lon="5.80366">
        <ele>343</ele>
        <time>2016-03-12T09:56:13.334Z</time>
      </trkpt>
      <trkpt lat="43.70912" lon="5.80376">
        <ele>343</ele>
        <time>2016-03-12T09:56:15.360Z</time>
      </trkpt>
      <trkpt lat="43.7091" lon="5.80382">
        <ele>343</ele>
        <time>2016-03-12T09:56:16.334Z</time>
      </trkpt>
      <trkpt lat="43.70906" lon="5.80391">
        <ele>343</ele>
        <time>2016-03-12T09:56:18.360Z</time>
      </trkpt>
      <trkpt lat="43.70903" lon="5.80395">
        <ele>343</ele>
        <time>2016-03-12T09:56:19.335Z</time>
      </trkpt>
      <trkpt lat="43.70899" lon="5.80403">
        <ele>344</ele>
        <time>2016-03-12T09:56:21.359Z</time>
      </trkpt>
      <trkpt lat="43.70898" lon="5.80407">
        <ele>344</ele>
        <time>2016-03-12T09:56:22.334Z</time>
      </trkpt>
      <trkpt lat="43.70897" lon="5.80416">
        <ele>343</ele>
        <time>2016-03-12T09:56:24.361Z</time>
      </trkpt>
      <trkpt lat="43.70896" lon="5.80421">
        <ele>343</ele>
        <time>2016-03-12T09:56:25.341Z</time>
      </trkpt>
      <trkpt lat="43.70894" lon="5.80431">
        <ele>343</ele>
        <time>2016-03-12T09:56:27.360Z</time>
      </trkpt>
      <trkpt lat="43.70892" lon="5.80434">
        <ele>343</ele>
        <time>2016-03-12T09:56:28.335Z</time>
      </trkpt>
      <trkpt lat="43.70888" lon="5.80442">
        <ele>343</ele>
        <time>2016-03-12T09:56:30.399Z</time>
      </trkpt>
      <trkpt lat="43.70886" lon="5.80445">
        <ele>343</ele>
        <time>2016-03-12T09:56:31.334Z</time>
      </trkpt>
      <trkpt lat="43.70883" lon="5.80453">
        <ele>343</ele>
        <time>2016-03-12T09:56:33.358Z</time>
      </trkpt>
      <trkpt lat="43.70881" lon="5.80457">
        <ele>342</ele>
        <time>2016-03-12T09:56:34.334Z</time>
      </trkpt>
      <trkpt lat="43.70877" lon="5.80465">
        <ele>342</ele>
        <time>2016-03-12T09:56:36.359Z</time>
      </trkpt>
      <trkpt lat="43.70875" lon="5.80469">
        <ele>343</ele>
        <time>2016-03-12T09:56:37.334Z</time>
      </trkpt>
      <trkpt lat="43.70871" lon="5.80477">
        <ele>343</ele>
        <time>2016-03-12T09:56:39.360Z</time>
      </trkpt>
      <trkpt lat="43.70869" lon="5.80481">
        <ele>343</ele>
        <time>2016-03-12T09:56:40.332Z</time>
      </trkpt>
      <trkpt lat="43.70864" lon="5.8049">
        <ele>343</ele>
        <time>2016-03-12T09:56:42.371Z</time>
      </trkpt>
      <trkpt lat="43.70862" lon="5.80494">
        <ele>342</ele>
        <time>2016-03-12T09:56:43.331Z</time>
      </trkpt>
      <trkpt lat="43.70856" lon="5.80502">
        <ele>342</ele>
        <time>2016-03-12T09:56:45.360Z</time>
      </trkpt>
      <trkpt lat="43.70854" lon="5.80507">
        <ele>342</ele>
        <time>2016-03-12T09:56:46.361Z</time>
      </trkpt>
      <trkpt lat="43.70849" lon="5.80516">
        <ele>342</ele>
        <time>2016-03-12T09:56:48.361Z</time>
      </trkpt>
      <trkpt lat="43.70847" lon="5.8052">
        <ele>342</ele>
        <time>2016-03-12T09:56:49.336Z</time>
      </trkpt>
      <trkpt lat="43.70842" lon="5.80529">
        <ele>341</ele>
        <time>2016-03-12T09:56:51.361Z</time>
      </trkpt>
      <trkpt lat="43.7084" lon="5.80534">
        <ele>342</ele>
        <time>2016-03-12T09:56:52.334Z</time>
      </trkpt>
      <trkpt lat="43.70836" lon="5.80543">
        <ele>342</ele>
        <time>2016-03-12T09:56:54.360Z</time>
      </trkpt>
      <trkpt lat="43.70833" lon="5.80547">
        <ele>342</ele>
        <time>2016-03-12T09:56:55.334Z</time>
      </trkpt>
      <trkpt lat="43.70828" lon="5.80557">
        <ele>341</ele>
        <time>2016-03-12T09:56:57.360Z</time>
      </trkpt>
      <trkpt lat="43.70826" lon="5.80562">
        <ele>341</ele>
        <time>2016-03-12T09:56:58.335Z</time>
      </trkpt>
      <trkpt lat="43.7082" lon="5.80571">
        <ele>342</ele>
        <time>2016-03-12T09:57:00.375Z</time>
      </trkpt>
      <trkpt lat="43.70817" lon="5.80575">
        <ele>342</ele>
        <time>2016-03-12T09:57:01.334Z</time>
      </trkpt>
      <trkpt lat="43.70811" lon="5.80581">
        <ele>342</ele>
        <time>2016-03-12T09:57:03.371Z</time>
      </trkpt>
      <trkpt lat="43.70808" lon="5.80584">
        <ele>342</ele>
        <time>2016-03-12T09:57:04.334Z</time>
      </trkpt>
      <trkpt lat="43.70802" lon="5.8059">
        <ele>342</ele>
        <time>2016-03-12T09:57:06.370Z</time>
      </trkpt>
      <trkpt lat="43.708" lon="5.80594">
        <ele>342</ele>
        <time>2016-03-12T09:57:07.334Z</time>
      </trkpt>
      <trkpt lat="43.70795" lon="5.80601">
        <ele>342</ele>
        <time>2016-03-12T09:57:09.358Z</time>
      </trkpt>
      <trkpt lat="43.70792" lon="5.80604">
        <ele>342</ele>
        <time>2016-03-12T09:57:10.334Z</time>
      </trkpt>
      <trkpt lat="43.70787" lon="5.80612">
        <ele>342</ele>
        <time>2016-03-12T09:57:12.360Z</time>
      </trkpt>
      <trkpt lat="43.70784" lon="5.80615">
        <ele>342</ele>
        <time>2016-03-12T09:57:13.330Z</time>
      </trkpt>
      <trkpt lat="43.70779" lon="5.80622">
        <ele>342</ele>
        <time>2016-03-12T09:57:15.360Z</time>
      </trkpt>
      <trkpt lat="43.70776" lon="5.80626">
        <ele>343</ele>
        <time>2016-03-12T09:57:16.334Z</time>
      </trkpt>
      <trkpt lat="43.70771" lon="5.80633">
        <ele>343</ele>
        <time>2016-03-12T09:57:18.386Z</time>
      </trkpt>
      <trkpt lat="43.70768" lon="5.80637">
        <ele>342</ele>
        <time>2016-03-12T09:57:19.335Z</time>
      </trkpt>
      <trkpt lat="43.70764" lon="5.80645">
        <ele>343</ele>
        <time>2016-03-12T09:57:21.360Z</time>
      </trkpt>
      <trkpt lat="43.70761" lon="5.80649">
        <ele>343</ele>
        <time>2016-03-12T09:57:22.566Z</time>
      </trkpt>
      <trkpt lat="43.70757" lon="5.80657">
        <ele>343</ele>
        <time>2016-03-12T09:57:24.361Z</time>
      </trkpt>
      <trkpt lat="43.70754" lon="5.80662">
        <ele>342</ele>
        <time>2016-03-12T09:57:25.347Z</time>
      </trkpt>
      <trkpt lat="43.70748" lon="5.80669">
        <ele>342</ele>
        <time>2016-03-12T09:57:27.362Z</time>
      </trkpt>
      <trkpt lat="43.70745" lon="5.80673">
        <ele>343</ele>
        <time>2016-03-12T09:57:28.335Z</time>
      </trkpt>
      <trkpt lat="43.70739" lon="5.8068">
        <ele>343</ele>
        <time>2016-03-12T09:57:30.360Z</time>
      </trkpt>
      <trkpt lat="43.70736" lon="5.80684">
        <ele>343</ele>
        <time>2016-03-12T09:57:31.331Z</time>
      </trkpt>
      <trkpt lat="43.7073" lon="5.80691">
        <ele>343</ele>
        <time>2016-03-12T09:57:33.362Z</time>
      </trkpt>
      <trkpt lat="43.70728" lon="5.80695">
        <ele>343</ele>
        <time>2016-03-12T09:57:34.335Z</time>
      </trkpt>
      <trkpt lat="43.70722" lon="5.80703">
        <ele>344</ele>
        <time>2016-03-12T09:57:36.359Z</time>
      </trkpt>
      <trkpt lat="43.7072" lon="5.80706">
        <ele>344</ele>
        <time>2016-03-12T09:57:37.336Z</time>
      </trkpt>
      <trkpt lat="43.70715" lon="5.80716">
        <ele>343</ele>
        <time>2016-03-12T09:57:40.360Z</time>
      </trkpt>
      <trkpt lat="43.70713" lon="5.8072">
        <ele>343</ele>
        <time>2016-03-12T09:57:41.335Z</time>
      </trkpt>
      <trkpt lat="43.70707" lon="5.80728">
        <ele>344</ele>
        <time>2016-03-12T09:57:43.356Z</time>
      </trkpt>
      <trkpt lat="43.70704" lon="5.80732">
        <ele>344</ele>
        <time>2016-03-12T09:57:44.345Z</time>
      </trkpt>
      <trkpt lat="43.70697" lon="5.80739">
        <ele>344</ele>
        <time>2016-03-12T09:57:46.360Z</time>
      </trkpt>
      <trkpt lat="43.70694" lon="5.80743">
        <ele>344</ele>
        <time>2016-03-12T09:57:47.335Z</time>
      </trkpt>
      <trkpt lat="43.70689" lon="5.8075">
        <ele>345</ele>
        <time>2016-03-12T09:57:49.356Z</time>
      </trkpt>
      <trkpt lat="43.70687" lon="5.80754">
        <ele>345</ele>
        <time>2016-03-12T09:57:50.330Z</time>
      </trkpt>
      <trkpt lat="43.70682" lon="5.80761">
        <ele>345</ele>
        <time>2016-03-12T09:57:52.350Z</time>
      </trkpt>
      <trkpt lat="43.7068" lon="5.80764">
        <ele>345</ele>
        <time>2016-03-12T09:57:53.335Z</time>
      </trkpt>
      <trkpt lat="43.70674" lon="5.80771">
        <ele>345</ele>
        <time>2016-03-12T09:57:55.361Z</time>
      </trkpt>
      <trkpt lat="43.70671" lon="5.80774">
        <ele>345</ele>
        <time>2016-03-12T09:57:56.335Z</time>
      </trkpt>
      <trkpt lat="43.70664" lon="5.80781">
        <ele>345</ele>
        <time>2016-03-12T09:57:58.354Z</time>
      </trkpt>
      <trkpt lat="43.70661" lon="5.80785">
        <ele>345</ele>
        <time>2016-03-12T09:57:59.331Z</time>
      </trkpt>
      <trkpt lat="43.70655" lon="5.80793">
        <ele>344</ele>
        <time>2016-03-12T09:58:01.378Z</time>
      </trkpt>
      <trkpt lat="43.70652" lon="5.80797">
        <ele>344</ele>
        <time>2016-03-12T09:58:02.333Z</time>
      </trkpt>
      <trkpt lat="43.70648" lon="5.80802">
        <ele>344</ele>
        <time>2016-03-12T09:58:03.355Z</time>
      </trkpt>
      <trkpt lat="43.70645" lon="5.80806">
        <ele>345</ele>
        <time>2016-03-12T09:58:04.335Z</time>
      </trkpt>
      <trkpt lat="43.70639" lon="5.80813">
        <ele>345</ele>
        <time>2016-03-12T09:58:06.356Z</time>
      </trkpt>
      <trkpt lat="43.70636" lon="5.80816">
        <ele>344</ele>
        <time>2016-03-12T09:58:07.332Z</time>
      </trkpt>
      <trkpt lat="43.7063" lon="5.80822">
        <ele>344</ele>
        <time>2016-03-12T09:58:09.594Z</time>
      </trkpt>
      <trkpt lat="43.70627" lon="5.80825">
        <ele>344</ele>
        <time>2016-03-12T09:58:10.329Z</time>
      </trkpt>
      <trkpt lat="43.70621" lon="5.8083">
        <ele>344</ele>
        <time>2016-03-12T09:58:12.354Z</time>
      </trkpt>
      <trkpt lat="43.70617" lon="5.80831">
        <ele>344</ele>
        <time>2016-03-12T09:58:13.332Z</time>
      </trkpt>
      <trkpt lat="43.70611" lon="5.80834">
        <ele>344</ele>
        <time>2016-03-12T09:58:15.357Z</time>
      </trkpt>
      <trkpt lat="43.70608" lon="5.80835">
        <ele>344</ele>
        <time>2016-03-12T09:58:16.334Z</time>
      </trkpt>
      <trkpt lat="43.70602" lon="5.80838">
        <ele>345</ele>
        <time>2016-03-12T09:58:18.355Z</time>
      </trkpt>
      <trkpt lat="43.70599" lon="5.80839">
        <ele>345</ele>
        <time>2016-03-12T09:58:19.333Z</time>
      </trkpt>
      <trkpt lat="43.70592" lon="5.80843">
        <ele>345</ele>
        <time>2016-03-12T09:58:21.576Z</time>
      </trkpt>
      <trkpt lat="43.70589" lon="5.80845">
        <ele>345</ele>
        <time>2016-03-12T09:58:22.329Z</time>
      </trkpt>
      <trkpt lat="43.70581" lon="5.80849">
        <ele>346</ele>
        <time>2016-03-12T09:58:25.352Z</time>
      </trkpt>
      <trkpt lat="43.70579" lon="5.80849">
        <ele>346</ele>
        <time>2016-03-12T09:58:26.332Z</time>
      </trkpt>
      <trkpt lat="43.70572" lon="5.80845">
        <ele>345</ele>
        <time>2016-03-12T09:58:29.355Z</time>
      </trkpt>
      <trkpt lat="43.70569" lon="5.80844">
        <ele>346</ele>
        <time>2016-03-12T09:58:30.333Z</time>
      </trkpt>
      <trkpt lat="43.70561" lon="5.8084">
        <ele>347</ele>
        <time>2016-03-12T09:58:33.381Z</time>
      </trkpt>
      <trkpt lat="43.70559" lon="5.80838">
        <ele>347</ele>
        <time>2016-03-12T09:58:34.334Z</time>
      </trkpt>
      <trkpt lat="43.70551" lon="5.80833">
        <ele>346</ele>
        <time>2016-03-12T09:58:37.352Z</time>
      </trkpt>
      <trkpt lat="43.70548" lon="5.80831">
        <ele>345</ele>
        <time>2016-03-12T09:58:38.331Z</time>
      </trkpt>
      <trkpt lat="43.70544" lon="5.80824">
        <ele>346</ele>
        <time>2016-03-12T09:58:40.376Z</time>
      </trkpt>
      <trkpt lat="43.70542" lon="5.80821">
        <ele>346</ele>
        <time>2016-03-12T09:58:41.333Z</time>
      </trkpt>
      <trkpt lat="43.70539" lon="5.80814">
        <ele>346</ele>
        <time>2016-03-12T09:58:43.352Z</time>
      </trkpt>
      <trkpt lat="43.70537" lon="5.8081">
        <ele>347</ele>
        <time>2016-03-12T09:58:44.333Z</time>
      </trkpt>
      <trkpt lat="43.70532" lon="5.80802">
        <ele>348</ele>
        <time>2016-03-12T09:58:46.355Z</time>
      </trkpt>
      <trkpt lat="43.7053" lon="5.80798">
        <ele>348</ele>
        <time>2016-03-12T09:58:47.332Z</time>
      </trkpt>
      <trkpt lat="43.70526" lon="5.8079">
        <ele>349</ele>
        <time>2016-03-12T09:58:49.438Z</time>
      </trkpt>
      <trkpt lat="43.70524" lon="5.80786">
        <ele>349</ele>
        <time>2016-03-12T09:58:50.333Z</time>
      </trkpt>
      <trkpt lat="43.7052" lon="5.80778">
        <ele>349</ele>
        <time>2016-03-12T09:58:52.360Z</time>
      </trkpt>
      <trkpt lat="43.70518" lon="5.80774">
        <ele>349</ele>
        <time>2016-03-12T09:58:53.330Z</time>
      </trkpt>
      <trkpt lat="43.70513" lon="5.80767">
        <ele>349</ele>
        <time>2016-03-12T09:58:55.355Z</time>
      </trkpt>
      <trkpt lat="43.70511" lon="5.80764">
        <ele>350</ele>
        <time>2016-03-12T09:58:56.329Z</time>
      </trkpt>
      <trkpt lat="43.70508" lon="5.80755">
        <ele>351</ele>
        <time>2016-03-12T09:58:58.355Z</time>
      </trkpt>
      <trkpt lat="43.70507" lon="5.80751">
        <ele>353</ele>
        <time>2016-03-12T09:58:59.333Z</time>
      </trkpt>
      <trkpt lat="43.70505" lon="5.80742">
        <ele>352</ele>
        <time>2016-03-12T09:59:01.355Z</time>
      </trkpt>
      <trkpt lat="43.70503" lon="5.80739">
        <ele>352</ele>
        <time>2016-03-12T09:59:02.333Z</time>
      </trkpt>
      <trkpt lat="43.70497" lon="5.80729">
        <ele>351</ele>
        <time>2016-03-12T09:59:05.355Z</time>
      </trkpt>
      <trkpt lat="43.70496" lon="5.80726">
        <ele>351</ele>
        <time>2016-03-12T09:59:06.333Z</time>
      </trkpt>
      <trkpt lat="43.70492" lon="5.80719">
        <ele>350</ele>
        <time>2016-03-12T09:59:08.355Z</time>
      </trkpt>
      <trkpt lat="43.70491" lon="5.80715">
        <ele>350</ele>
        <time>2016-03-12T09:59:09.333Z</time>
      </trkpt>
      <trkpt lat="43.70488" lon="5.80707">
        <ele>351</ele>
        <time>2016-03-12T09:59:11.360Z</time>
      </trkpt>
      <trkpt lat="43.70486" lon="5.80704">
        <ele>353</ele>
        <time>2016-03-12T09:59:12.332Z</time>
      </trkpt>
      <trkpt lat="43.70483" lon="5.80696">
        <ele>352</ele>
        <time>2016-03-12T09:59:14.361Z</time>
      </trkpt>
      <trkpt lat="43.70481" lon="5.80693">
        <ele>352</ele>
        <time>2016-03-12T09:59:15.334Z</time>
      </trkpt>
      <trkpt lat="43.70475" lon="5.80688">
        <ele>352</ele>
        <time>2016-03-12T09:59:17.350Z</time>
      </trkpt>
      <trkpt lat="43.70472" lon="5.80687">
        <ele>353</ele>
        <time>2016-03-12T09:59:18.331Z</time>
      </trkpt>
      <trkpt lat="43.70466" lon="5.80684">
        <ele>352</ele>
        <time>2016-03-12T09:59:20.359Z</time>
      </trkpt>
      <trkpt lat="43.70463" lon="5.80682">
        <ele>352</ele>
        <time>2016-03-12T09:59:21.335Z</time>
      </trkpt>
      <trkpt lat="43.70457" lon="5.8068">
        <ele>351</ele>
        <time>2016-03-12T09:59:23.361Z</time>
      </trkpt>
      <trkpt lat="43.70454" lon="5.8068">
        <ele>352</ele>
        <time>2016-03-12T09:59:24.333Z</time>
      </trkpt>
      <trkpt lat="43.70448" lon="5.80679">
        <ele>351</ele>
        <time>2016-03-12T09:59:26.387Z</time>
      </trkpt>
      <trkpt lat="43.70445" lon="5.80678">
        <ele>350</ele>
        <time>2016-03-12T09:59:27.334Z</time>
      </trkpt>
      <trkpt lat="43.70438" lon="5.8068">
        <ele>352</ele>
        <time>2016-03-12T09:59:29.361Z</time>
      </trkpt>
      <trkpt lat="43.70435" lon="5.8068">
        <ele>353</ele>
        <time>2016-03-12T09:59:30.335Z</time>
      </trkpt>
      <trkpt lat="43.70429" lon="5.8068">
        <ele>354</ele>
        <time>2016-03-12T09:59:32.415Z</time>
      </trkpt>
      <trkpt lat="43.70426" lon="5.80679">
        <ele>354</ele>
        <time>2016-03-12T09:59:33.335Z</time>
      </trkpt>
      <trkpt lat="43.7042" lon="5.80676">
        <ele>354</ele>
        <time>2016-03-12T09:59:35.360Z</time>
      </trkpt>
      <trkpt lat="43.70416" lon="5.80673">
        <ele>353</ele>
        <time>2016-03-12T09:59:36.334Z</time>
      </trkpt>
      <trkpt lat="43.70411" lon="5.80668">
        <ele>353</ele>
        <time>2016-03-12T09:59:38.360Z</time>
      </trkpt>
      <trkpt lat="43.70408" lon="5.80664">
        <ele>354</ele>
        <time>2016-03-12T09:59:39.335Z</time>
      </trkpt>
      <trkpt lat="43.70403" lon="5.80658">
        <ele>353</ele>
        <time>2016-03-12T09:59:41.361Z</time>
      </trkpt>
      <trkpt lat="43.70401" lon="5.80655">
        <ele>353</ele>
        <time>2016-03-12T09:59:42.360Z</time>
      </trkpt>
      <trkpt lat="43.70397" lon="5.80648">
        <ele>354</ele>
        <time>2016-03-12T09:59:44.362Z</time>
      </trkpt>
      <trkpt lat="43.70395" lon="5.80644">
        <ele>354</ele>
        <time>2016-03-12T09:59:45.340Z</time>
      </trkpt>
      <trkpt lat="43.70392" lon="5.80636">
        <ele>354</ele>
        <time>2016-03-12T09:59:47.360Z</time>
      </trkpt>
      <trkpt lat="43.70391" lon="5.80631">
        <ele>353</ele>
        <time>2016-03-12T09:59:48.330Z</time>
      </trkpt>
      <trkpt lat="43.70388" lon="5.80623">
        <ele>352</ele>
        <time>2016-03-12T09:59:50.343Z</time>
      </trkpt>
      <trkpt lat="43.70387" lon="5.80618">
        <ele>352</ele>
        <time>2016-03-12T09:59:51.333Z</time>
      </trkpt>
      <trkpt lat="43.70384" lon="5.8061">
        <ele>353</ele>
        <time>2016-03-12T09:59:53.355Z</time>
      </trkpt>
      <trkpt lat="43.70383" lon="5.80605">
        <ele>353</ele>
        <time>2016-03-12T09:59:54.332Z</time>
      </trkpt>
      <trkpt lat="43.70378" lon="5.80598">
        <ele>353</ele>
        <time>2016-03-12T09:59:56.354Z</time>
      </trkpt>
      <trkpt lat="43.70376" lon="5.80594">
        <ele>352</ele>
        <time>2016-03-12T09:59:57.334Z</time>
      </trkpt>
      <trkpt lat="43.70371" lon="5.80588">
        <ele>353</ele>
        <time>2016-03-12T09:59:59.370Z</time>
      </trkpt>
      <trkpt lat="43.70368" lon="5.80584">
        <ele>354</ele>
        <time>2016-03-12T10:00:00.333Z</time>
      </trkpt>
      <trkpt lat="43.70365" lon="5.80575">
        <ele>354</ele>
        <time>2016-03-12T10:00:03.425Z</time>
      </trkpt>
      <trkpt lat="43.70364" lon="5.80572">
        <ele>355</ele>
        <time>2016-03-12T10:00:04.334Z</time>
      </trkpt>
      <trkpt lat="43.7036" lon="5.80561">
        <ele>355</ele>
        <time>2016-03-12T10:00:07.349Z</time>
      </trkpt>
      <trkpt lat="43.70359" lon="5.80556">
        <ele>356</ele>
        <time>2016-03-12T10:00:08.325Z</time>
      </trkpt>
      <trkpt lat="43.70356" lon="5.80545">
        <ele>357</ele>
        <time>2016-03-12T10:00:11.341Z</time>
      </trkpt>
      <trkpt lat="43.70354" lon="5.80542">
        <ele>357</ele>
        <time>2016-03-12T10:00:12.325Z</time>
      </trkpt>
      <trkpt lat="43.70347" lon="5.80538">
        <ele>356</ele>
        <time>2016-03-12T10:00:14.352Z</time>
      </trkpt>
      <trkpt lat="43.70342" lon="5.80536">
        <ele>357</ele>
        <time>2016-03-12T10:00:15.328Z</time>
      </trkpt>
      <trkpt lat="43.70335" lon="5.80534">
        <ele>358</ele>
        <time>2016-03-12T10:00:17.354Z</time>
      </trkpt>
      <trkpt lat="43.70331" lon="5.80533">
        <ele>357</ele>
        <time>2016-03-12T10:00:18.326Z</time>
      </trkpt>
      <trkpt lat="43.70324" lon="5.80533">
        <ele>358</ele>
        <time>2016-03-12T10:00:20.344Z</time>
      </trkpt>
      <trkpt lat="43.70321" lon="5.80534">
        <ele>358</ele>
        <time>2016-03-12T10:00:21.328Z</time>
      </trkpt>
      <trkpt lat="43.70314" lon="5.80536">
        <ele>358</ele>
        <time>2016-03-12T10:00:23.361Z</time>
      </trkpt>
      <trkpt lat="43.7031" lon="5.80538">
        <ele>357</ele>
        <time>2016-03-12T10:00:24.334Z</time>
      </trkpt>
      <trkpt lat="43.70305" lon="5.80541">
        <ele>356</ele>
        <time>2016-03-12T10:00:26.360Z</time>
      </trkpt>
      <trkpt lat="43.70302" lon="5.80544">
        <ele>357</ele>
        <time>2016-03-12T10:00:27.335Z</time>
      </trkpt>
      <trkpt lat="43.70296" lon="5.80554">
        <ele>355</ele>
        <time>2016-03-12T10:00:31.355Z</time>
      </trkpt>
      <trkpt lat="43.70295" lon="5.80557">
        <ele>355</ele>
        <time>2016-03-12T10:00:32.334Z</time>
      </trkpt>
      <trkpt lat="43.70291" lon="5.80565">
        <ele>358</ele>
        <time>2016-03-12T10:00:35.381Z</time>
      </trkpt>
      <trkpt lat="43.70289" lon="5.80568">
        <ele>359</ele>
        <time>2016-03-12T10:00:36.333Z</time>
      </trkpt>
      <trkpt lat="43.70285" lon="5.80577">
        <ele>359</ele>
        <time>2016-03-12T10:00:39.372Z</time>
      </trkpt>
      <trkpt lat="43.70283" lon="5.80579">
        <ele>360</ele>
        <time>2016-03-12T10:00:40.343Z</time>
      </trkpt>
      <trkpt lat="43.70276" lon="5.80587">
        <ele>361</ele>
        <time>2016-03-12T10:00:44.356Z</time>
      </trkpt>
      <trkpt lat="43.70274" lon="5.80589">
        <ele>360</ele>
        <time>2016-03-12T10:00:45.339Z</time>
      </trkpt>
      <trkpt lat="43.70266" lon="5.80593">
        <ele>361</ele>
        <time>2016-03-12T10:00:48.361Z</time>
      </trkpt>
      <trkpt lat="43.70263" lon="5.80594">
        <ele>362</ele>
        <time>2016-03-12T10:00:49.335Z</time>
      </trkpt>
      <trkpt lat="43.70255" lon="5.80599">
        <ele>361</ele>
        <time>2016-03-12T10:00:52.355Z</time>
      </trkpt>
      <trkpt lat="43.70252" lon="5.806">
        <ele>362</ele>
        <time>2016-03-12T10:00:53.334Z</time>
      </trkpt>
      <trkpt lat="43.70244" lon="5.80605">
        <ele>361</ele>
        <time>2016-03-12T10:00:56.357Z</time>
      </trkpt>
      <trkpt lat="43.70241" lon="5.80607">
        <ele>361</ele>
        <time>2016-03-12T10:00:57.337Z</time>
      </trkpt>
      <trkpt lat="43.70235" lon="5.80614">
        <ele>364</ele>
        <time>2016-03-12T10:01:00.361Z</time>
      </trkpt>
      <trkpt lat="43.70233" lon="5.80617">
        <ele>364</ele>
        <time>2016-03-12T10:01:01.333Z</time>
      </trkpt>
      <trkpt lat="43.70228" lon="5.80623">
        <ele>364</ele>
        <time>2016-03-12T10:01:04.360Z</time>
      </trkpt>
      <trkpt lat="43.70225" lon="5.80624">
        <ele>364</ele>
        <time>2016-03-12T10:01:05.336Z</time>
      </trkpt>
      <trkpt lat="43.70218" lon="5.80628">
        <ele>364</ele>
        <time>2016-03-12T10:01:08.362Z</time>
      </trkpt>
      <trkpt lat="43.70217" lon="5.80632">
        <ele>364</ele>
        <time>2016-03-12T10:01:09.337Z</time>
      </trkpt>
      <trkpt lat="43.70214" lon="5.80639">
        <ele>364</ele>
        <time>2016-03-12T10:01:11.361Z</time>
      </trkpt>
      <trkpt lat="43.70212" lon="5.80643">
        <ele>366</ele>
        <time>2016-03-12T10:01:12.334Z</time>
      </trkpt>
      <trkpt lat="43.70208" lon="5.80649">
        <ele>365</ele>
        <time>2016-03-12T10:01:14.430Z</time>
      </trkpt>
      <trkpt lat="43.70206" lon="5.80653">
        <ele>363</ele>
        <time>2016-03-12T10:01:15.334Z</time>
      </trkpt>
      <trkpt lat="43.70204" lon="5.80663">
        <ele>361</ele>
        <time>2016-03-12T10:01:17.361Z</time>
      </trkpt>
      <trkpt lat="43.70203" lon="5.80669">
        <ele>361</ele>
        <time>2016-03-12T10:01:18.363Z</time>
      </trkpt>
      <trkpt lat="43.70203" lon="5.80679">
        <ele>361</ele>
        <time>2016-03-12T10:01:20.360Z</time>
      </trkpt>
      <trkpt lat="43.70203" lon="5.80684">
        <ele>362</ele>
        <time>2016-03-12T10:01:21.335Z</time>
      </trkpt>
      <trkpt lat="43.70204" lon="5.80693">
        <ele>364</ele>
        <time>2016-03-12T10:01:23.372Z</time>
      </trkpt>
      <trkpt lat="43.70205" lon="5.80697">
        <ele>365</ele>
        <time>2016-03-12T10:01:24.334Z</time>
      </trkpt>
      <trkpt lat="43.70206" lon="5.80708">
        <ele>364</ele>
        <time>2016-03-12T10:01:27.361Z</time>
      </trkpt>
      <trkpt lat="43.70204" lon="5.80711">
        <ele>364</ele>
        <time>2016-03-12T10:01:28.344Z</time>
      </trkpt>
      <trkpt lat="43.702" lon="5.80721">
        <ele>366</ele>
        <time>2016-03-12T10:01:31.363Z</time>
      </trkpt>
      <trkpt lat="43.70199" lon="5.80725">
        <ele>365</ele>
        <time>2016-03-12T10:01:32.335Z</time>
      </trkpt>
      <trkpt lat="43.70199" lon="5.80736">
        <ele>365</ele>
        <time>2016-03-12T10:01:35.360Z</time>
      </trkpt>
      <trkpt lat="43.70196" lon="5.80739">
        <ele>364</ele>
        <time>2016-03-12T10:01:36.336Z</time>
      </trkpt>
      <trkpt lat="43.70191" lon="5.80748">
        <ele>362</ele>
        <time>2016-03-12T10:01:39.356Z</time>
      </trkpt>
      <trkpt lat="43.70188" lon="5.80751">
        <ele>361</ele>
        <time>2016-03-12T10:01:40.334Z</time>
      </trkpt>
      <trkpt lat="43.70183" lon="5.80757">
        <ele>362</ele>
        <time>2016-03-12T10:01:42.359Z</time>
      </trkpt>
      <trkpt lat="43.70181" lon="5.8076">
        <ele>362</ele>
        <time>2016-03-12T10:01:43.335Z</time>
      </trkpt>
      <trkpt lat="43.70176" lon="5.80768">
        <ele>362</ele>
        <time>2016-03-12T10:01:45.389Z</time>
      </trkpt>
      <trkpt lat="43.70173" lon="5.80771">
        <ele>362</ele>
        <time>2016-03-12T10:01:46.335Z</time>
      </trkpt>
      <trkpt lat="43.70166" lon="5.80776">
        <ele>365</ele>
        <time>2016-03-12T10:01:49.407Z</time>
      </trkpt>
      <trkpt lat="43.70163" lon="5.80778">
        <ele>365</ele>
        <time>2016-03-12T10:01:50.341Z</time>
      </trkpt>
      <trkpt lat="43.70158" lon="5.80785">
        <ele>365</ele>
        <time>2016-03-12T10:01:53.572Z</time>
      </trkpt>
      <trkpt lat="43.70155" lon="5.80787">
        <ele>365</ele>
        <time>2016-03-12T10:01:54.331Z</time>
      </trkpt>
      <trkpt lat="43.70148" lon="5.80793">
        <ele>365</ele>
        <time>2016-03-12T10:01:57.356Z</time>
      </trkpt>
      <trkpt lat="43.70145" lon="5.80795">
        <ele>365</ele>
        <time>2016-03-12T10:01:58.330Z</time>
      </trkpt>
      <trkpt lat="43.7014" lon="5.80799">
        <ele>366</ele>
        <time>2016-03-12T10:02:00.360Z</time>
      </trkpt>
      <trkpt lat="43.70137" lon="5.80801">
        <ele>366</ele>
        <time>2016-03-12T10:02:01.361Z</time>
      </trkpt>
      <trkpt lat="43.70132" lon="5.80805">
        <ele>366</ele>
        <time>2016-03-12T10:02:03.360Z</time>
      </trkpt>
      <trkpt lat="43.7013" lon="5.80808">
        <ele>366</ele>
        <time>2016-03-12T10:02:04.335Z</time>
      </trkpt>
      <trkpt lat="43.70125" lon="5.80813">
        <ele>366</ele>
        <time>2016-03-12T10:02:06.357Z</time>
      </trkpt>
      <trkpt lat="43.70121" lon="5.80815">
        <ele>365</ele>
        <time>2016-03-12T10:02:07.331Z</time>
      </trkpt>
      <trkpt lat="43.70115" lon="5.80815">
        <ele>367</ele>
        <time>2016-03-12T10:02:09.360Z</time>
      </trkpt>
      <trkpt lat="43.70112" lon="5.80814">
        <ele>365</ele>
        <time>2016-03-12T10:02:10.335Z</time>
      </trkpt>
      <trkpt lat="43.70104" lon="5.80814">
        <ele>364</ele>
        <time>2016-03-12T10:02:12.389Z</time>
      </trkpt>
      <trkpt lat="43.701" lon="5.80814">
        <ele>363</ele>
        <time>2016-03-12T10:02:13.333Z</time>
      </trkpt>
      <trkpt lat="43.70092" lon="5.80808">
        <ele>362</ele>
        <time>2016-03-12T10:02:15.361Z</time>
      </trkpt>
      <trkpt lat="43.70089" lon="5.80804">
        <ele>362</ele>
        <time>2016-03-12T10:02:16.336Z</time>
      </trkpt>
      <trkpt lat="43.70082" lon="5.80803">
        <ele>360</ele>
        <time>2016-03-12T10:02:19.363Z</time>
      </trkpt>
      <trkpt lat="43.70079" lon="5.80804">
        <ele>360</ele>
        <time>2016-03-12T10:02:20.334Z</time>
      </trkpt>
      <trkpt lat="43.70073" lon="5.80806">
        <ele>360</ele>
        <time>2016-03-12T10:02:22.361Z</time>
      </trkpt>
      <trkpt lat="43.7007" lon="5.80806">
        <ele>360</ele>
        <time>2016-03-12T10:02:23.336Z</time>
      </trkpt>
      <trkpt lat="43.70063" lon="5.80808">
        <ele>361</ele>
        <time>2016-03-12T10:02:25.354Z</time>
      </trkpt>
      <trkpt lat="43.7006" lon="5.80808">
        <ele>361</ele>
        <time>2016-03-12T10:02:26.322Z</time>
      </trkpt>
      <trkpt lat="43.70054" lon="5.80808">
        <ele>362</ele>
        <time>2016-03-12T10:02:28.360Z</time>
      </trkpt>
      <trkpt lat="43.70051" lon="5.80808">
        <ele>362</ele>
        <time>2016-03-12T10:02:29.340Z</time>
      </trkpt>
      <trkpt lat="43.70043" lon="5.80814">
        <ele>361</ele>
        <time>2016-03-12T10:02:33.360Z</time>
      </trkpt>
      <trkpt lat="43.70042" lon="5.80817">
        <ele>361</ele>
        <time>2016-03-12T10:02:34.369Z</time>
      </trkpt>
      <trkpt lat="43.7004" lon="5.80826">
        <ele>363</ele>
        <time>2016-03-12T10:02:37.356Z</time>
      </trkpt>
      <trkpt lat="43.70039" lon="5.80829">
        <ele>364</ele>
        <time>2016-03-12T10:02:38.362Z</time>
      </trkpt>
      <trkpt lat="43.70039" lon="5.8084">
        <ele>365</ele>
        <time>2016-03-12T10:02:41.372Z</time>
      </trkpt>
      <trkpt lat="43.70039" lon="5.80844">
        <ele>365</ele>
        <time>2016-03-12T10:02:42.335Z</time>
      </trkpt>
      <trkpt lat="43.70035" lon="5.80854">
        <ele>367</ele>
        <time>2016-03-12T10:02:45.442Z</time>
      </trkpt>
      <trkpt lat="43.70033" lon="5.80857">
        <ele>367</ele>
        <time>2016-03-12T10:02:46.336Z</time>
      </trkpt>
      <trkpt lat="43.70029" lon="5.80865">
        <ele>366</ele>
        <time>2016-03-12T10:02:48.385Z</time>
      </trkpt>
      <trkpt lat="43.70027" lon="5.80868">
        <ele>368</ele>
        <time>2016-03-12T10:02:49.331Z</time>
      </trkpt>
      <trkpt lat="43.70026" lon="5.8088">
        <ele>374</ele>
        <time>2016-03-12T10:02:52.361Z</time>
      </trkpt>
      <trkpt lat="43.70027" lon="5.80884">
        <ele>372</ele>
        <time>2016-03-12T10:02:53.337Z</time>
      </trkpt>
      <trkpt lat="43.70027" lon="5.80893">
        <ele>372</ele>
        <time>2016-03-12T10:02:55.373Z</time>
      </trkpt>
      <trkpt lat="43.70026" lon="5.80897">
        <ele>372</ele>
        <time>2016-03-12T10:02:56.337Z</time>
      </trkpt>
      <trkpt lat="43.70025" lon="5.80906">
        <ele>370</ele>
        <time>2016-03-12T10:02:58.363Z</time>
      </trkpt>
      <trkpt lat="43.70025" lon="5.8091">
        <ele>368</ele>
        <time>2016-03-12T10:02:59.362Z</time>
      </trkpt>
      <trkpt lat="43.70027" lon="5.80919">
        <ele>367</ele>
        <time>2016-03-12T10:03:01.362Z</time>
      </trkpt>
      <trkpt lat="43.70027" lon="5.80923">
        <ele>367</ele>
        <time>2016-03-12T10:03:02.336Z</time>
      </trkpt>
      <trkpt lat="43.70026" lon="5.80932">
        <ele>365</ele>
        <time>2016-03-12T10:03:04.359Z</time>
      </trkpt>
      <trkpt lat="43.70027" lon="5.80936">
        <ele>364</ele>
        <time>2016-03-12T10:03:05.337Z</time>
      </trkpt>
      <trkpt lat="43.70028" lon="5.80945">
        <ele>365</ele>
        <time>2016-03-12T10:03:07.401Z</time>
      </trkpt>
      <trkpt lat="43.7003" lon="5.80948">
        <ele>365</ele>
        <time>2016-03-12T10:03:08.335Z</time>
      </trkpt>
      <trkpt lat="43.70033" lon="5.80955">
        <ele>365</ele>
        <time>2016-03-12T10:03:10.357Z</time>
      </trkpt>
      <trkpt lat="43.70035" lon="5.80958">
        <ele>364</ele>
        <time>2016-03-12T10:03:11.339Z</time>
      </trkpt>
      <trkpt lat="43.70039" lon="5.80968">
        <ele>369</ele>
        <time>2016-03-12T10:03:25.581Z</time>
      </trkpt>
      <trkpt lat="43.70041" lon="5.80971">
        <ele>369</ele>
        <time>2016-03-12T10:03:26.362Z</time>
      </trkpt>
      <trkpt lat="43.70045" lon="5.80978">
        <ele>370</ele>
        <time>2016-03-12T10:03:28.362Z</time>
      </trkpt>
      <trkpt lat="43.70047" lon="5.8098">
        <ele>368</ele>
        <time>2016-03-12T10:03:29.336Z</time>
      </trkpt>
      <trkpt lat="43.70052" lon="5.80985">
        <ele>369</ele>
        <time>2016-03-12T10:03:31.362Z</time>
      </trkpt>
      <trkpt lat="43.70055" lon="5.80987">
        <ele>369</ele>
        <time>2016-03-12T10:03:32.335Z</time>
      </trkpt>
      <trkpt lat="43.70061" lon="5.80991">
        <ele>368</ele>
        <time>2016-03-12T10:03:34.355Z</time>
      </trkpt>
      <trkpt lat="43.70064" lon="5.80993">
        <ele>366</ele>
        <time>2016-03-12T10:03:35.537Z</time>
      </trkpt>
      <trkpt lat="43.70072" lon="5.80994">
        <ele>364</ele>
        <time>2016-03-12T10:03:38.366Z</time>
      </trkpt>
      <trkpt lat="43.70074" lon="5.80993">
        <ele>363</ele>
        <time>2016-03-12T10:03:39.341Z</time>
      </trkpt>
      <trkpt lat="43.70082" lon="5.80991">
        <ele>362</ele>
        <time>2016-03-12T10:03:42.345Z</time>
      </trkpt>
      <trkpt lat="43.70085" lon="5.8099">
        <ele>363</ele>
        <time>2016-03-12T10:03:43.335Z</time>
      </trkpt>
      <trkpt lat="43.70093" lon="5.80987">
        <ele>363</ele>
        <time>2016-03-12T10:03:46.597Z</time>
      </trkpt>
      <trkpt lat="43.70095" lon="5.80985">
        <ele>363</ele>
        <time>2016-03-12T10:03:47.334Z</time>
      </trkpt>
      <trkpt lat="43.70102" lon="5.80982">
        <ele>366</ele>
        <time>2016-03-12T10:03:50.471Z</time>
      </trkpt>
      <trkpt lat="43.70104" lon="5.8098">
        <ele>367</ele>
        <time>2016-03-12T10:03:51.335Z</time>
      </trkpt>
      <trkpt lat="43.7011" lon="5.80976">
        <ele>367</ele>
        <time>2016-03-12T10:03:53.363Z</time>
      </trkpt>
      <trkpt lat="43.70114" lon="5.80973">
        <ele>368</ele>
        <time>2016-03-12T10:03:54.337Z</time>
      </trkpt>
      <trkpt lat="43.70121" lon="5.80968">
        <ele>366</ele>
        <time>2016-03-12T10:03:56.374Z</time>
      </trkpt>
      <trkpt lat="43.70124" lon="5.80966">
        <ele>365</ele>
        <time>2016-03-12T10:03:57.337Z</time>
      </trkpt>
      <trkpt lat="43.70128" lon="5.80961">
        <ele>366</ele>
        <time>2016-03-12T10:03:59.373Z</time>
      </trkpt>
      <trkpt lat="43.70131" lon="5.80959">
        <ele>366</ele>
        <time>2016-03-12T10:04:00.337Z</time>
      </trkpt>
      <trkpt lat="43.70139" lon="5.80955">
        <ele>367</ele>
        <time>2016-03-12T10:04:03.362Z</time>
      </trkpt>
      <trkpt lat="43.70141" lon="5.80955">
        <ele>366</ele>
        <time>2016-03-12T10:04:04.365Z</time>
      </trkpt>
      <trkpt lat="43.7015" lon="5.80954">
        <ele>366</ele>
        <time>2016-03-12T10:04:07.364Z</time>
      </trkpt>
      <trkpt lat="43.70153" lon="5.80953">
        <ele>367</ele>
        <time>2016-03-12T10:04:08.340Z</time>
      </trkpt>
      <trkpt lat="43.70161" lon="5.80951">
        <ele>367</ele>
        <time>2016-03-12T10:04:11.405Z</time>
      </trkpt>
      <trkpt lat="43.70163" lon="5.80949">
        <ele>367</ele>
        <time>2016-03-12T10:04:12.336Z</time>
      </trkpt>
      <trkpt lat="43.70171" lon="5.80945">
        <ele>367</ele>
        <time>2016-03-12T10:04:15.350Z</time>
      </trkpt>
      <trkpt lat="43.70173" lon="5.80944">
        <ele>367</ele>
        <time>2016-03-12T10:04:16.328Z</time>
      </trkpt>
      <trkpt lat="43.7018" lon="5.80943">
        <ele>364</ele>
        <time>2016-03-12T10:04:19.366Z</time>
      </trkpt>
      <trkpt lat="43.70183" lon="5.80942">
        <ele>364</ele>
        <time>2016-03-12T10:04:20.326Z</time>
      </trkpt>
      <trkpt lat="43.70191" lon="5.80942">
        <ele>365</ele>
        <time>2016-03-12T10:04:23.357Z</time>
      </trkpt>
      <trkpt lat="43.70194" lon="5.80942">
        <ele>365</ele>
        <time>2016-03-12T10:04:24.352Z</time>
      </trkpt>
      <trkpt lat="43.70197" lon="5.80943">
        <ele>365</ele>
        <time>2016-03-12T10:04:25.396Z</time>
      </trkpt>
      <trkpt lat="43.70228" lon="5.80957">
        <ele>369</ele>
        <time>2016-03-12T10:04:39.380Z</time>
      </trkpt>
      <trkpt lat="43.70228" lon="5.80965">
        <ele>368</ele>
        <time>2016-03-12T10:04:41.372Z</time>
      </trkpt>
      <trkpt lat="43.70228" lon="5.8097">
        <ele>367</ele>
        <time>2016-03-12T10:04:42.338Z</time>
      </trkpt>
      <trkpt lat="43.70227" lon="5.80982">
        <ele>368</ele>
        <time>2016-03-12T10:04:45.356Z</time>
      </trkpt>
      <trkpt lat="43.70227" lon="5.80986">
        <ele>367</ele>
        <time>2016-03-12T10:04:46.331Z</time>
      </trkpt>
      <trkpt lat="43.70227" lon="5.80998">
        <ele>368</ele>
        <time>2016-03-12T10:04:49.355Z</time>
      </trkpt>
      <trkpt lat="43.70227" lon="5.81002">
        <ele>368</ele>
        <time>2016-03-12T10:04:50.353Z</time>
      </trkpt>
      <trkpt lat="43.70228" lon="5.81011">
        <ele>366</ele>
        <time>2016-03-12T10:04:52.357Z</time>
      </trkpt>
      <trkpt lat="43.70229" lon="5.81016">
        <ele>366</ele>
        <time>2016-03-12T10:04:53.335Z</time>
      </trkpt>
      <trkpt lat="43.70231" lon="5.81025">
        <ele>364</ele>
        <time>2016-03-12T10:04:55.384Z</time>
      </trkpt>
      <trkpt lat="43.70231" lon="5.8103">
        <ele>365</ele>
        <time>2016-03-12T10:04:56.335Z</time>
      </trkpt>
      <trkpt lat="43.70232" lon="5.81041">
        <ele>366</ele>
        <time>2016-03-12T10:04:59.435Z</time>
      </trkpt>
      <trkpt lat="43.70231" lon="5.81045">
        <ele>367</ele>
        <time>2016-03-12T10:05:00.337Z</time>
      </trkpt>
      <trkpt lat="43.70229" lon="5.81055">
        <ele>367</ele>
        <time>2016-03-12T10:05:03.364Z</time>
      </trkpt>
      <trkpt lat="43.70228" lon="5.81058">
        <ele>369</ele>
        <time>2016-03-12T10:05:04.338Z</time>
      </trkpt>
      <trkpt lat="43.70226" lon="5.81069">
        <ele>365</ele>
        <time>2016-03-12T10:08:36.363Z</time>
      </trkpt>
      <trkpt lat="43.70226" lon="5.81071">
        <ele>366</ele>
        <time>2016-03-12T10:08:37.337Z</time>
      </trkpt>
      <trkpt lat="43.70223" lon="5.81081">
        <ele>369</ele>
        <time>2016-03-12T10:08:41.362Z</time>
      </trkpt>
      <trkpt lat="43.70222" lon="5.81084">
        <ele>369</ele>
        <time>2016-03-12T10:08:42.337Z</time>
      </trkpt>
      <trkpt lat="43.70219" lon="5.81095">
        <ele>371</ele>
        <time>2016-03-12T10:08:46.375Z</time>
      </trkpt>
      <trkpt lat="43.70219" lon="5.81098">
        <ele>371</ele>
        <time>2016-03-12T10:08:47.333Z</time>
      </trkpt>
      <trkpt lat="43.70216" lon="5.81109">
        <ele>372</ele>
        <time>2016-03-12T10:08:51.351Z</time>
      </trkpt>
      <trkpt lat="43.70215" lon="5.81112">
        <ele>371</ele>
        <time>2016-03-12T10:08:52.333Z</time>
      </trkpt>
      <trkpt lat="43.70211" lon="5.8112">
        <ele>373</ele>
        <time>2016-03-12T10:08:55.363Z</time>
      </trkpt>
      <trkpt lat="43.7021" lon="5.81122">
        <ele>373</ele>
        <time>2016-03-12T10:08:56.364Z</time>
      </trkpt>
      <trkpt lat="43.70205" lon="5.8113">
        <ele>372</ele>
        <time>2016-03-12T10:08:59.362Z</time>
      </trkpt>
      <trkpt lat="43.70204" lon="5.81132">
        <ele>371</ele>
        <time>2016-03-12T10:09:00.509Z</time>
      </trkpt>
      <trkpt lat="43.70199" lon="5.81139">
        <ele>370</ele>
        <time>2016-03-12T10:09:03.363Z</time>
      </trkpt>
      <trkpt lat="43.70197" lon="5.81142">
        <ele>370</ele>
        <time>2016-03-12T10:09:04.337Z</time>
      </trkpt>
      <trkpt lat="43.70191" lon="5.81149">
        <ele>369</ele>
        <time>2016-03-12T10:09:07.363Z</time>
      </trkpt>
      <trkpt lat="43.70189" lon="5.81151">
        <ele>369</ele>
        <time>2016-03-12T10:09:08.336Z</time>
      </trkpt>
      <trkpt lat="43.70185" lon="5.81159">
        <ele>373</ele>
        <time>2016-03-12T10:09:11.362Z</time>
      </trkpt>
      <trkpt lat="43.70184" lon="5.81163">
        <ele>373</ele>
        <time>2016-03-12T10:09:12.360Z</time>
      </trkpt>
      <trkpt lat="43.70183" lon="5.81172">
        <ele>373</ele>
        <time>2016-03-12T10:09:15.364Z</time>
      </trkpt>
      <trkpt lat="43.70183" lon="5.81176">
        <ele>374</ele>
        <time>2016-03-12T10:09:16.341Z</time>
      </trkpt>
      <trkpt lat="43.70181" lon="5.81187">
        <ele>378</ele>
        <time>2016-03-12T10:09:20.362Z</time>
      </trkpt>
      <trkpt lat="43.7018" lon="5.8119">
        <ele>379</ele>
        <time>2016-03-12T10:09:21.338Z</time>
      </trkpt>
      <trkpt lat="43.70179" lon="5.81199">
        <ele>378</ele>
        <time>2016-03-12T10:09:24.363Z</time>
      </trkpt>
      <trkpt lat="43.70179" lon="5.81203">
        <ele>378</ele>
        <time>2016-03-12T10:09:25.495Z</time>
      </trkpt>
      <trkpt lat="43.70175" lon="5.81214">
        <ele>377</ele>
        <time>2016-03-12T10:09:28.363Z</time>
      </trkpt>
      <trkpt lat="43.70174" lon="5.81218">
        <ele>377</ele>
        <time>2016-03-12T10:09:29.337Z</time>
      </trkpt>
      <trkpt lat="43.70172" lon="5.8123">
        <ele>376</ele>
        <time>2016-03-12T10:09:32.363Z</time>
      </trkpt>
      <trkpt lat="43.70171" lon="5.81234">
        <ele>376</ele>
        <time>2016-03-12T10:09:33.366Z</time>
      </trkpt>
      <trkpt lat="43.7017" lon="5.81244">
        <ele>375</ele>
        <time>2016-03-12T10:09:36.364Z</time>
      </trkpt>
      <trkpt lat="43.7017" lon="5.81248">
        <ele>375</ele>
        <time>2016-03-12T10:09:37.565Z</time>
      </trkpt>
      <trkpt lat="43.70169" lon="5.81259">
        <ele>374</ele>
        <time>2016-03-12T10:09:40.362Z</time>
      </trkpt>
      <trkpt lat="43.70169" lon="5.81263">
        <ele>373</ele>
        <time>2016-03-12T10:09:41.338Z</time>
      </trkpt>
      <trkpt lat="43.70172" lon="5.81273">
        <ele>374</ele>
        <time>2016-03-12T10:09:44.393Z</time>
      </trkpt>
      <trkpt lat="43.70172" lon="5.81277">
        <ele>372</ele>
        <time>2016-03-12T10:09:45.351Z</time>
      </trkpt>
      <trkpt lat="43.70176" lon="5.81287">
        <ele>372</ele>
        <time>2016-03-12T10:09:48.537Z</time>
      </trkpt>
      <trkpt lat="43.70178" lon="5.8129">
        <ele>372</ele>
        <time>2016-03-12T10:09:49.338Z</time>
      </trkpt>
      <trkpt lat="43.70183" lon="5.81299">
        <ele>373</ele>
        <time>2016-03-12T10:09:52.365Z</time>
      </trkpt>
      <trkpt lat="43.70184" lon="5.81302">
        <ele>373</ele>
        <time>2016-03-12T10:09:53.338Z</time>
      </trkpt>
      <trkpt lat="43.7019" lon="5.81311">
        <ele>373</ele>
        <time>2016-03-12T10:09:56.368Z</time>
      </trkpt>
      <trkpt lat="43.70193" lon="5.81314">
        <ele>372</ele>
        <time>2016-03-12T10:09:57.337Z</time>
      </trkpt>
      <trkpt lat="43.70199" lon="5.81321">
        <ele>372</ele>
        <time>2016-03-12T10:10:00.353Z</time>
      </trkpt>
      <trkpt lat="43.70201" lon="5.81323">
        <ele>373</ele>
        <time>2016-03-12T10:10:01.328Z</time>
      </trkpt>
      <trkpt lat="43.70208" lon="5.8133">
        <ele>373</ele>
        <time>2016-03-12T10:10:04.362Z</time>
      </trkpt>
      <trkpt lat="43.70211" lon="5.81332">
        <ele>372</ele>
        <time>2016-03-12T10:10:05.338Z</time>
      </trkpt>
      <trkpt lat="43.70217" lon="5.8134">
        <ele>373</ele>
        <time>2016-03-12T10:10:08.362Z</time>
      </trkpt>
      <trkpt lat="43.70219" lon="5.81342">
        <ele>373</ele>
        <time>2016-03-12T10:10:09.336Z</time>
      </trkpt>
      <trkpt lat="43.70227" lon="5.81346">
        <ele>375</ele>
        <time>2016-03-12T10:10:12.363Z</time>
      </trkpt>
      <trkpt lat="43.70229" lon="5.81347">
        <ele>376</ele>
        <time>2016-03-12T10:10:13.349Z</time>
      </trkpt>
      <trkpt lat="43.70235" lon="5.81354">
        <ele>376</ele>
        <time>2016-03-12T10:10:16.375Z</time>
      </trkpt>
      <trkpt lat="43.70237" lon="5.81356">
        <ele>377</ele>
        <time>2016-03-12T10:10:17.336Z</time>
      </trkpt>
      <trkpt lat="43.70243" lon="5.81362">
        <ele>379</ele>
        <time>2016-03-12T10:10:20.360Z</time>
      </trkpt>
      <trkpt lat="43.70245" lon="5.81364">
        <ele>379</ele>
        <time>2016-03-12T10:10:21.345Z</time>
      </trkpt>
      <trkpt lat="43.70252" lon="5.8137">
        <ele>379</ele>
        <time>2016-03-12T10:10:25.361Z</time>
      </trkpt>
      <trkpt lat="43.70252" lon="5.81373">
        <ele>378</ele>
        <time>2016-03-12T10:10:26.337Z</time>
      </trkpt>
      <trkpt lat="43.70249" lon="5.81383">
        <ele>378</ele>
        <time>2016-03-12T10:10:30.364Z</time>
      </trkpt>
      <trkpt lat="43.70248" lon="5.81386">
        <ele>378</ele>
        <time>2016-03-12T10:10:31.338Z</time>
      </trkpt>
      <trkpt lat="43.70246" lon="5.81397">
        <ele>378</ele>
        <time>2016-03-12T10:10:35.362Z</time>
      </trkpt>
      <trkpt lat="43.70246" lon="5.81399">
        <ele>379</ele>
        <time>2016-03-12T10:10:36.337Z</time>
      </trkpt>
      <trkpt lat="43.70243" lon="5.8141">
        <ele>380</ele>
        <time>2016-03-12T10:10:41.363Z</time>
      </trkpt>
      <trkpt lat="43.70242" lon="5.81412">
        <ele>380</ele>
        <time>2016-03-12T10:10:42.338Z</time>
      </trkpt>
      <trkpt lat="43.70237" lon="5.81421">
        <ele>383</ele>
        <time>2016-03-12T10:10:49.366Z</time>
      </trkpt>
      <trkpt lat="43.70236" lon="5.81423">
        <ele>382</ele>
        <time>2016-03-12T10:10:50.340Z</time>
      </trkpt>
      <trkpt lat="43.7023" lon="5.81432">
        <ele>384</ele>
        <time>2016-03-12T10:10:56.375Z</time>
      </trkpt>
      <trkpt lat="43.70229" lon="5.81433">
        <ele>384</ele>
        <time>2016-03-12T10:10:57.338Z</time>
      </trkpt>
      <trkpt lat="43.70221" lon="5.81439">
        <ele>384</ele>
        <time>2016-03-12T10:11:03.360Z</time>
      </trkpt>
      <trkpt lat="43.7022" lon="5.81441">
        <ele>384</ele>
        <time>2016-03-12T10:11:04.338Z</time>
      </trkpt>
      <trkpt lat="43.70215" lon="5.8145">
        <ele>385</ele>
        <time>2016-03-12T10:11:10.364Z</time>
      </trkpt>
      <trkpt lat="43.70214" lon="5.81452">
        <ele>385</ele>
        <time>2016-03-12T10:11:11.569Z</time>
      </trkpt>
      <trkpt lat="43.70208" lon="5.81459">
        <ele>387</ele>
        <time>2016-03-12T10:11:16.365Z</time>
      </trkpt>
      <trkpt lat="43.70207" lon="5.8146">
        <ele>389</ele>
        <time>2016-03-12T10:11:17.337Z</time>
      </trkpt>
      <trkpt lat="43.70202" lon="5.81469">
        <ele>390</ele>
        <time>2016-03-12T10:11:24.364Z</time>
      </trkpt>
      <trkpt lat="43.702" lon="5.8147">
        <ele>390</ele>
        <time>2016-03-12T10:11:25.336Z</time>
      </trkpt>
      <trkpt lat="43.70193" lon="5.81476">
        <ele>390</ele>
        <time>2016-03-12T10:11:31.378Z</time>
      </trkpt>
      <trkpt lat="43.70192" lon="5.81477">
        <ele>390</ele>
        <time>2016-03-12T10:11:32.335Z</time>
      </trkpt>
      <trkpt lat="43.70184" lon="5.81481">
        <ele>388</ele>
        <time>2016-03-12T10:11:37.364Z</time>
      </trkpt>
      <trkpt lat="43.70183" lon="5.81482">
        <ele>389</ele>
        <time>2016-03-12T10:11:38.339Z</time>
      </trkpt>
      <trkpt lat="43.70174" lon="5.81484">
        <ele>390</ele>
        <time>2016-03-12T10:11:44.359Z</time>
      </trkpt>
      <trkpt lat="43.70173" lon="5.81485">
        <ele>390</ele>
        <time>2016-03-12T10:11:45.338Z</time>
      </trkpt>
      <trkpt lat="43.70165" lon="5.81489">
        <ele>391</ele>
        <time>2016-03-12T10:11:51.365Z</time>
      </trkpt>
      <trkpt lat="43.70163" lon="5.8149">
        <ele>391</ele>
        <time>2016-03-12T10:11:52.366Z</time>
      </trkpt>
      <trkpt lat="43.70155" lon="5.81494">
        <ele>393</ele>
        <time>2016-03-12T10:11:58.365Z</time>
      </trkpt>
      <trkpt lat="43.70154" lon="5.81495">
        <ele>393</ele>
        <time>2016-03-12T10:11:59.339Z</time>
      </trkpt>
      <trkpt lat="43.70147" lon="5.81501">
        <ele>393</ele>
        <time>2016-03-12T10:12:05.378Z</time>
      </trkpt>
      <trkpt lat="43.70146" lon="5.81502">
        <ele>394</ele>
        <time>2016-03-12T10:12:06.333Z</time>
      </trkpt>
      <trkpt lat="43.70138" lon="5.81506">
        <ele>394</ele>
        <time>2016-03-12T10:12:12.365Z</time>
      </trkpt>
      <trkpt lat="43.70136" lon="5.81507">
        <ele>394</ele>
        <time>2016-03-12T10:12:13.338Z</time>
      </trkpt>
      <trkpt lat="43.70131" lon="5.81511">
        <ele>394</ele>
        <time>2016-03-12T10:12:36.366Z</time>
      </trkpt>
      <trkpt lat="43.70129" lon="5.81514">
        <ele>394</ele>
        <time>2016-03-12T10:12:37.338Z</time>
      </trkpt>
      <trkpt lat="43.70124" lon="5.81519">
        <ele>394</ele>
        <time>2016-03-12T10:12:39.368Z</time>
      </trkpt>
      <trkpt lat="43.70121" lon="5.81522">
        <ele>394</ele>
        <time>2016-03-12T10:12:40.338Z</time>
      </trkpt>
      <trkpt lat="43.70115" lon="5.81527">
        <ele>394</ele>
        <time>2016-03-12T10:12:42.363Z</time>
      </trkpt>
      <trkpt lat="43.70112" lon="5.8153">
        <ele>394</ele>
        <time>2016-03-12T10:12:43.339Z</time>
      </trkpt>
      <trkpt lat="43.70108" lon="5.81538">
        <ele>394</ele>
        <time>2016-03-12T10:12:45.369Z</time>
      </trkpt>
      <trkpt lat="43.70107" lon="5.81543">
        <ele>394</ele>
        <time>2016-03-12T10:12:46.363Z</time>
      </trkpt>
      <trkpt lat="43.70104" lon="5.81554">
        <ele>395</ele>
        <time>2016-03-12T10:12:49.340Z</time>
      </trkpt>
      <trkpt lat="43.70104" lon="5.81557">
        <ele>394</ele>
        <time>2016-03-12T10:12:50.339Z</time>
      </trkpt>
      <trkpt lat="43.70102" lon="5.81567">
        <ele>394</ele>
        <time>2016-03-12T10:12:53.366Z</time>
      </trkpt>
      <trkpt lat="43.70102" lon="5.81571">
        <ele>394</ele>
        <time>2016-03-12T10:12:54.337Z</time>
      </trkpt>
      <trkpt lat="43.70097" lon="5.8158">
        <ele>393</ele>
        <time>2016-03-12T10:12:57.366Z</time>
      </trkpt>
      <trkpt lat="43.70095" lon="5.81583">
        <ele>394</ele>
        <time>2016-03-12T10:12:58.339Z</time>
      </trkpt>
      <trkpt lat="43.70089" lon="5.81591">
        <ele>393</ele>
        <time>2016-03-12T10:13:01.376Z</time>
      </trkpt>
      <trkpt lat="43.70087" lon="5.81594">
        <ele>393</ele>
        <time>2016-03-12T10:13:02.367Z</time>
      </trkpt>
      <trkpt lat="43.70081" lon="5.81601">
        <ele>394</ele>
        <time>2016-03-12T10:13:05.356Z</time>
      </trkpt>
      <trkpt lat="43.70078" lon="5.81603">
        <ele>394</ele>
        <time>2016-03-12T10:13:06.332Z</time>
      </trkpt>
      <trkpt lat="43.70072" lon="5.81611">
        <ele>394</ele>
        <time>2016-03-12T10:13:09.365Z</time>
      </trkpt>
      <trkpt lat="43.7007" lon="5.81613">
        <ele>394</ele>
        <time>2016-03-12T10:13:10.336Z</time>
      </trkpt>
      <trkpt lat="43.70063" lon="5.8162">
        <ele>395</ele>
        <time>2016-03-12T10:13:13.372Z</time>
      </trkpt>
      <trkpt lat="43.70061" lon="5.81623">
        <ele>396</ele>
        <time>2016-03-12T10:13:14.340Z</time>
      </trkpt>
      <trkpt lat="43.70056" lon="5.81632">
        <ele>396</ele>
        <time>2016-03-12T10:13:17.366Z</time>
      </trkpt>
      <trkpt lat="43.70055" lon="5.81635">
        <ele>396</ele>
        <time>2016-03-12T10:13:18.370Z</time>
      </trkpt>
      <trkpt lat="43.70053" lon="5.81646">
        <ele>396</ele>
        <time>2016-03-12T10:13:21.434Z</time>
      </trkpt>
      <trkpt lat="43.70052" lon="5.81649">
        <ele>397</ele>
        <time>2016-03-12T10:13:22.338Z</time>
      </trkpt>
      <trkpt lat="43.70045" lon="5.81656">
        <ele>398</ele>
        <time>2016-03-12T10:13:32.375Z</time>
      </trkpt>
      <trkpt lat="43.70044" lon="5.81656">
        <ele>398</ele>
        <time>2016-03-12T10:13:33.338Z</time>
      </trkpt>
      <trkpt lat="43.70036" lon="5.81652">
        <ele>398</ele>
        <time>2016-03-12T10:13:40.360Z</time>
      </trkpt>
      <trkpt lat="43.70035" lon="5.81652">
        <ele>398</ele>
        <time>2016-03-12T10:13:41.337Z</time>
      </trkpt>
      <trkpt lat="43.70028" lon="5.81645">
        <ele>399</ele>
        <time>2016-03-12T10:13:48.378Z</time>
      </trkpt>
      <trkpt lat="43.70028" lon="5.81644">
        <ele>399</ele>
        <time>2016-03-12T10:13:49.339Z</time>
      </trkpt>
      <trkpt lat="43.70024" lon="5.81633">
        <ele>401</ele>
        <time>2016-03-12T10:13:56.369Z</time>
      </trkpt>
      <trkpt lat="43.70024" lon="5.81631">
        <ele>402</ele>
        <time>2016-03-12T10:13:57.337Z</time>
      </trkpt>
      <trkpt lat="43.70022" lon="5.8162">
        <ele>404</ele>
        <time>2016-03-12T10:14:04.368Z</time>
      </trkpt>
      <trkpt lat="43.70021" lon="5.81619">
        <ele>403</ele>
        <time>2016-03-12T10:14:05.338Z</time>
      </trkpt>
      <trkpt lat="43.70013" lon="5.81624">
        <ele>405</ele>
        <time>2016-03-12T10:14:17.406Z</time>
      </trkpt>
      <trkpt lat="43.70012" lon="5.81625">
        <ele>405</ele>
        <time>2016-03-12T10:14:18.338Z</time>
      </trkpt>
      <trkpt lat="43.70006" lon="5.81631">
        <ele>406</ele>
        <time>2016-03-12T10:14:25.359Z</time>
      </trkpt>
      <trkpt lat="43.70004" lon="5.81632">
        <ele>407</ele>
        <time>2016-03-12T10:14:26.336Z</time>
      </trkpt>
      <trkpt lat="43.69997" lon="5.81639">
        <ele>408</ele>
        <time>2016-03-12T10:14:39.368Z</time>
      </trkpt>
      <trkpt lat="43.69996" lon="5.8164">
        <ele>408</ele>
        <time>2016-03-12T10:14:40.339Z</time>
      </trkpt>
      <trkpt lat="43.69989" lon="5.81647">
        <ele>408</ele>
        <time>2016-03-12T10:14:47.349Z</time>
      </trkpt>
      <trkpt lat="43.69988" lon="5.81648">
        <ele>408</ele>
        <time>2016-03-12T10:14:48.334Z</time>
      </trkpt>
      <trkpt lat="43.69981" lon="5.81656">
        <ele>408</ele>
        <time>2016-03-12T10:14:55.368Z</time>
      </trkpt>
      <trkpt lat="43.69978" lon="5.81659">
        <ele>407</ele>
        <time>2016-03-12T10:14:56.337Z</time>
      </trkpt>
      <trkpt lat="43.69974" lon="5.81664">
        <ele>406</ele>
        <time>2016-03-12T10:14:58.363Z</time>
      </trkpt>
      <trkpt lat="43.69971" lon="5.81667">
        <ele>406</ele>
        <time>2016-03-12T10:14:59.336Z</time>
      </trkpt>
      <trkpt lat="43.69968" lon="5.81672">
        <ele>405</ele>
        <time>2016-03-12T10:15:00.356Z</time>
      </trkpt>
      <trkpt lat="43.69963" lon="5.81676">
        <ele>403</ele>
        <time>2016-03-12T10:15:01.335Z</time>
      </trkpt>
      <trkpt lat="43.69959" lon="5.81681">
        <ele>403</ele>
        <time>2016-03-12T10:15:02.364Z</time>
      </trkpt>
      <trkpt lat="43.69953" lon="5.81686">
        <ele>402</ele>
        <time>2016-03-12T10:15:03.341Z</time>
      </trkpt>
      <trkpt lat="43.69948" lon="5.81693">
        <ele>400</ele>
        <time>2016-03-12T10:15:04.362Z</time>
      </trkpt>
      <trkpt lat="43.69944" lon="5.81701">
        <ele>398</ele>
        <time>2016-03-12T10:15:05.336Z</time>
      </trkpt>
      <trkpt lat="43.69938" lon="5.8171">
        <ele>399</ele>
        <time>2016-03-12T10:15:06.360Z</time>
      </trkpt>
      <trkpt lat="43.69934" lon="5.81719">
        <ele>398</ele>
        <time>2016-03-12T10:15:07.333Z</time>
      </trkpt>
      <trkpt lat="43.6993" lon="5.81728">
        <ele>398</ele>
        <time>2016-03-12T10:15:08.364Z</time>
      </trkpt>
      <trkpt lat="43.69927" lon="5.81736">
        <ele>399</ele>
        <time>2016-03-12T10:15:09.337Z</time>
      </trkpt>
      <trkpt lat="43.69924" lon="5.81743">
        <ele>399</ele>
        <time>2016-03-12T10:15:10.376Z</time>
      </trkpt>
      <trkpt lat="43.69922" lon="5.81747">
        <ele>401</ele>
        <time>2016-03-12T10:15:11.338Z</time>
      </trkpt>
      <trkpt lat="43.69917" lon="5.81758">
        <ele>403</ele>
        <time>2016-03-12T10:15:14.363Z</time>
      </trkpt>
      <trkpt lat="43.69916" lon="5.8176">
        <ele>404</ele>
        <time>2016-03-12T10:15:15.337Z</time>
      </trkpt>
      <trkpt lat="43.69912" lon="5.8177">
        <ele>405</ele>
        <time>2016-03-12T10:15:24.360Z</time>
      </trkpt>
      <trkpt lat="43.69912" lon="5.81771">
        <ele>404</ele>
        <time>2016-03-12T10:15:25.338Z</time>
      </trkpt>
      <trkpt lat="43.69909" lon="5.81779">
        <ele>405</ele>
        <time>2016-03-12T10:15:32.394Z</time>
      </trkpt>
      <trkpt lat="43.69907" lon="5.81782">
        <ele>405</ele>
        <time>2016-03-12T10:15:33.337Z</time>
      </trkpt>
      <trkpt lat="43.69903" lon="5.81788">
        <ele>405</ele>
        <time>2016-03-12T10:15:35.366Z</time>
      </trkpt>
      <trkpt lat="43.69901" lon="5.81792">
        <ele>405</ele>
        <time>2016-03-12T10:15:36.338Z</time>
      </trkpt>
      <trkpt lat="43.69896" lon="5.81798">
        <ele>406</ele>
        <time>2016-03-12T10:15:38.364Z</time>
      </trkpt>
      <trkpt lat="43.69893" lon="5.81801">
        <ele>407</ele>
        <time>2016-03-12T10:15:39.337Z</time>
      </trkpt>
      <trkpt lat="43.69888" lon="5.8181">
        <ele>410</ele>
        <time>2016-03-12T10:15:43.396Z</time>
      </trkpt>
      <trkpt lat="43.69887" lon="5.81812">
        <ele>411</ele>
        <time>2016-03-12T10:15:44.336Z</time>
      </trkpt>
      <trkpt lat="43.69884" lon="5.81822">
        <ele>409</ele>
        <time>2016-03-12T10:15:48.369Z</time>
      </trkpt>
      <trkpt lat="43.69884" lon="5.81825">
        <ele>409</ele>
        <time>2016-03-12T10:15:49.337Z</time>
      </trkpt>
      <trkpt lat="43.69883" lon="5.81835">
        <ele>409</ele>
        <time>2016-03-12T10:15:53.368Z</time>
      </trkpt>
      <trkpt lat="43.69882" lon="5.81838">
        <ele>410</ele>
        <time>2016-03-12T10:15:54.341Z</time>
      </trkpt>
      <trkpt lat="43.69881" lon="5.81848">
        <ele>410</ele>
        <time>2016-03-12T10:15:58.369Z</time>
      </trkpt>
      <trkpt lat="43.6988" lon="5.81851">
        <ele>410</ele>
        <time>2016-03-12T10:15:59.366Z</time>
      </trkpt>
      <trkpt lat="43.6988" lon="5.81862">
        <ele>409</ele>
        <time>2016-03-12T10:16:05.365Z</time>
      </trkpt>
      <trkpt lat="43.6988" lon="5.81864">
        <ele>408</ele>
        <time>2016-03-12T10:16:06.339Z</time>
      </trkpt>
      <trkpt lat="43.69879" lon="5.81873">
        <ele>408</ele>
        <time>2016-03-12T10:16:10.378Z</time>
      </trkpt>
      <trkpt lat="43.69878" lon="5.81876">
        <ele>409</ele>
        <time>2016-03-12T10:16:11.334Z</time>
      </trkpt>
      <trkpt lat="43.69876" lon="5.81885">
        <ele>409</ele>
        <time>2016-03-12T10:16:15.395Z</time>
      </trkpt>
      <trkpt lat="43.69875" lon="5.81888">
        <ele>409</ele>
        <time>2016-03-12T10:16:16.338Z</time>
      </trkpt>
      <trkpt lat="43.69872" lon="5.81898">
        <ele>409</ele>
        <time>2016-03-12T10:16:20.369Z</time>
      </trkpt>
      <trkpt lat="43.69871" lon="5.819">
        <ele>409</ele>
        <time>2016-03-12T10:16:21.337Z</time>
      </trkpt>
      <trkpt lat="43.69867" lon="5.8191">
        <ele>409</ele>
        <time>2016-03-12T10:16:25.367Z</time>
      </trkpt>
      <trkpt lat="43.69866" lon="5.81913">
        <ele>409</ele>
        <time>2016-03-12T10:16:26.379Z</time>
      </trkpt>
      <trkpt lat="43.6986" lon="5.81923">
        <ele>410</ele>
        <time>2016-03-12T10:16:30.369Z</time>
      </trkpt>
      <trkpt lat="43.69859" lon="5.81925">
        <ele>409</ele>
        <time>2016-03-12T10:16:31.348Z</time>
      </trkpt>
      <trkpt lat="43.69854" lon="5.81935">
        <ele>410</ele>
        <time>2016-03-12T10:16:35.364Z</time>
      </trkpt>
      <trkpt lat="43.69853" lon="5.81938">
        <ele>410</ele>
        <time>2016-03-12T10:16:36.338Z</time>
      </trkpt>
      <trkpt lat="43.69846" lon="5.81946">
        <ele>410</ele>
        <time>2016-03-12T10:16:40.379Z</time>
      </trkpt>
      <trkpt lat="43.69845" lon="5.81948">
        <ele>410</ele>
        <time>2016-03-12T10:16:41.333Z</time>
      </trkpt>
      <trkpt lat="43.69839" lon="5.81955">
        <ele>411</ele>
        <time>2016-03-12T10:16:44.364Z</time>
      </trkpt>
      <trkpt lat="43.69837" lon="5.81958">
        <ele>411</ele>
        <time>2016-03-12T10:16:45.339Z</time>
      </trkpt>
      <trkpt lat="43.69831" lon="5.81965">
        <ele>411</ele>
        <time>2016-03-12T10:16:49.349Z</time>
      </trkpt>
      <trkpt lat="43.69829" lon="5.81967">
        <ele>411</ele>
        <time>2016-03-12T10:16:50.333Z</time>
      </trkpt>
      <trkpt lat="43.69822" lon="5.81973">
        <ele>410</ele>
        <time>2016-03-12T10:16:54.366Z</time>
      </trkpt>
      <trkpt lat="43.6982" lon="5.81975">
        <ele>409</ele>
        <time>2016-03-12T10:16:55.337Z</time>
      </trkpt>
      <trkpt lat="43.69813" lon="5.81981">
        <ele>411</ele>
        <time>2016-03-12T10:16:59.363Z</time>
      </trkpt>
      <trkpt lat="43.69812" lon="5.81982">
        <ele>410</ele>
        <time>2016-03-12T10:17:00.337Z</time>
      </trkpt>
      <trkpt lat="43.69804" lon="5.81988">
        <ele>410</ele>
        <time>2016-03-12T10:17:04.364Z</time>
      </trkpt>
      <trkpt lat="43.69803" lon="5.8199">
        <ele>410</ele>
        <time>2016-03-12T10:17:05.366Z</time>
      </trkpt>
      <trkpt lat="43.69796" lon="5.81996">
        <ele>411</ele>
        <time>2016-03-12T10:17:09.369Z</time>
      </trkpt>
      <trkpt lat="43.69794" lon="5.81998">
        <ele>411</ele>
        <time>2016-03-12T10:17:10.337Z</time>
      </trkpt>
      <trkpt lat="43.69788" lon="5.82003">
        <ele>412</ele>
        <time>2016-03-12T10:17:14.397Z</time>
      </trkpt>
      <trkpt lat="43.69786" lon="5.82005">
        <ele>412</ele>
        <time>2016-03-12T10:17:15.330Z</time>
      </trkpt>
      <trkpt lat="43.69781" lon="5.82012">
        <ele>414</ele>
        <time>2016-03-12T10:17:19.403Z</time>
      </trkpt>
      <trkpt lat="43.69779" lon="5.82014">
        <ele>415</ele>
        <time>2016-03-12T10:17:20.337Z</time>
      </trkpt>
      <trkpt lat="43.69775" lon="5.82023">
        <ele>417</ele>
        <time>2016-03-12T10:17:24.367Z</time>
      </trkpt>
      <trkpt lat="43.69774" lon="5.82025">
        <ele>419</ele>
        <time>2016-03-12T10:17:25.350Z</time>
      </trkpt>
      <trkpt lat="43.69771" lon="5.82035">
        <ele>420</ele>
        <time>2016-03-12T10:17:29.367Z</time>
      </trkpt>
      <trkpt lat="43.69771" lon="5.82038">
        <ele>420</ele>
        <time>2016-03-12T10:17:30.384Z</time>
      </trkpt>
      <trkpt lat="43.69771" lon="5.8205">
        <ele>419</ele>
        <time>2016-03-12T10:17:34.369Z</time>
      </trkpt>
      <trkpt lat="43.6977" lon="5.82053">
        <ele>420</ele>
        <time>2016-03-12T10:17:35.350Z</time>
      </trkpt>
      <trkpt lat="43.6977" lon="5.82062">
        <ele>420</ele>
        <time>2016-03-12T10:17:38.369Z</time>
      </trkpt>
      <trkpt lat="43.69769" lon="5.82065">
        <ele>419</ele>
        <time>2016-03-12T10:17:39.338Z</time>
      </trkpt>
      <trkpt lat="43.69768" lon="5.82074">
        <ele>420</ele>
        <time>2016-03-12T10:17:42.367Z</time>
      </trkpt>
      <trkpt lat="43.69768" lon="5.82078">
        <ele>420</ele>
        <time>2016-03-12T10:17:43.338Z</time>
      </trkpt>
      <trkpt lat="43.69765" lon="5.82086">
        <ele>420</ele>
        <time>2016-03-12T10:17:46.369Z</time>
      </trkpt>
      <trkpt lat="43.69764" lon="5.82089">
        <ele>421</ele>
        <time>2016-03-12T10:17:47.338Z</time>
      </trkpt>
      <trkpt lat="43.69759" lon="5.82099">
        <ele>420</ele>
        <time>2016-03-12T10:17:51.364Z</time>
      </trkpt>
      <trkpt lat="43.69757" lon="5.82101">
        <ele>420</ele>
        <time>2016-03-12T10:17:52.566Z</time>
      </trkpt>
      <trkpt lat="43.69751" lon="5.8211">
        <ele>421</ele>
        <time>2016-03-12T10:17:56.366Z</time>
      </trkpt>
      <trkpt lat="43.6975" lon="5.82113">
        <ele>420</ele>
        <time>2016-03-12T10:17:57.364Z</time>
      </trkpt>
      <trkpt lat="43.69744" lon="5.82121">
        <ele>420</ele>
        <time>2016-03-12T10:18:01.380Z</time>
      </trkpt>
      <trkpt lat="43.69743" lon="5.82123">
        <ele>421</ele>
        <time>2016-03-12T10:18:02.333Z</time>
      </trkpt>
      <trkpt lat="43.69741" lon="5.82133">
        <ele>422</ele>
        <time>2016-03-12T10:18:06.366Z</time>
      </trkpt>
      <trkpt lat="43.6974" lon="5.82136">
        <ele>422</ele>
        <time>2016-03-12T10:18:07.338Z</time>
      </trkpt>
      <trkpt lat="43.6974" lon="5.82147">
        <ele>423</ele>
        <time>2016-03-12T10:18:11.376Z</time>
      </trkpt>
      <trkpt lat="43.69739" lon="5.82149">
        <ele>424</ele>
        <time>2016-03-12T10:18:12.335Z</time>
      </trkpt>
      <trkpt lat="43.69738" lon="5.82159">
        <ele>422</ele>
        <time>2016-03-12T10:18:15.368Z</time>
      </trkpt>
      <trkpt lat="43.69738" lon="5.82162">
        <ele>421</ele>
        <time>2016-03-12T10:18:16.341Z</time>
      </trkpt>
      <trkpt lat="43.69736" lon="5.82172">
        <ele>423</ele>
        <time>2016-03-12T10:18:19.376Z</time>
      </trkpt>
      <trkpt lat="43.69735" lon="5.82175">
        <ele>423</ele>
        <time>2016-03-12T10:18:20.338Z</time>
      </trkpt>
      <trkpt lat="43.69733" lon="5.82185">
        <ele>423</ele>
        <time>2016-03-12T10:18:23.365Z</time>
      </trkpt>
      <trkpt lat="43.69732" lon="5.82189">
        <ele>422</ele>
        <time>2016-03-12T10:18:24.365Z</time>
      </trkpt>
      <trkpt lat="43.6973" lon="5.82201">
        <ele>423</ele>
        <time>2016-03-12T10:18:27.364Z</time>
      </trkpt>
      <trkpt lat="43.69729" lon="5.82204">
        <ele>422</ele>
        <time>2016-03-12T10:18:28.337Z</time>
      </trkpt>
      <trkpt lat="43.69724" lon="5.82212">
        <ele>423</ele>
        <time>2016-03-12T10:18:31.365Z</time>
      </trkpt>
      <trkpt lat="43.69723" lon="5.82216">
        <ele>423</ele>
        <time>2016-03-12T10:18:32.340Z</time>
      </trkpt>
      <trkpt lat="43.69717" lon="5.82225">
        <ele>422</ele>
        <time>2016-03-12T10:18:35.380Z</time>
      </trkpt>
      <trkpt lat="43.69715" lon="5.82227">
        <ele>422</ele>
        <time>2016-03-12T10:18:36.334Z</time>
      </trkpt>
      <trkpt lat="43.69707" lon="5.8223">
        <ele>421</ele>
        <time>2016-03-12T10:18:39.376Z</time>
      </trkpt>
      <trkpt lat="43.69704" lon="5.82231">
        <ele>421</ele>
        <time>2016-03-12T10:18:40.338Z</time>
      </trkpt>
      <trkpt lat="43.69696" lon="5.82235">
        <ele>419</ele>
        <time>2016-03-12T10:18:43.362Z</time>
      </trkpt>
      <trkpt lat="43.69692" lon="5.82236">
        <ele>419</ele>
        <time>2016-03-12T10:18:44.337Z</time>
      </trkpt>
      <trkpt lat="43.69685" lon="5.82238">
        <ele>418</ele>
        <time>2016-03-12T10:18:46.368Z</time>
      </trkpt>
      <trkpt lat="43.69682" lon="5.82239">
        <ele>419</ele>
        <time>2016-03-12T10:18:47.339Z</time>
      </trkpt>
      <trkpt lat="43.69676" lon="5.82243">
        <ele>420</ele>
        <time>2016-03-12T10:18:49.368Z</time>
      </trkpt>
      <trkpt lat="43.69673" lon="5.82246">
        <ele>421</ele>
        <time>2016-03-12T10:18:50.339Z</time>
      </trkpt>
      <trkpt lat="43.69667" lon="5.8225">
        <ele>421</ele>
        <time>2016-03-12T10:18:52.372Z</time>
      </trkpt>
      <trkpt lat="43.69665" lon="5.82253">
        <ele>422</ele>
        <time>2016-03-12T10:18:53.562Z</time>
      </trkpt>
      <trkpt lat="43.69661" lon="5.8226">
        <ele>422</ele>
        <time>2016-03-12T10:18:55.360Z</time>
      </trkpt>
      <trkpt lat="43.69659" lon="5.82263">
        <ele>423</ele>
        <time>2016-03-12T10:18:56.339Z</time>
      </trkpt>
      <trkpt lat="43.69654" lon="5.82271">
        <ele>424</ele>
        <time>2016-03-12T10:18:59.365Z</time>
      </trkpt>
      <trkpt lat="43.69653" lon="5.82273">
        <ele>424</ele>
        <time>2016-03-12T10:19:00.338Z</time>
      </trkpt>
      <trkpt lat="43.69647" lon="5.82279">
        <ele>425</ele>
        <time>2016-03-12T10:19:03.368Z</time>
      </trkpt>
      <trkpt lat="43.69645" lon="5.82282">
        <ele>424</ele>
        <time>2016-03-12T10:19:04.337Z</time>
      </trkpt>
      <trkpt lat="43.69641" lon="5.82293">
        <ele>424</ele>
        <time>2016-03-12T10:19:07.366Z</time>
      </trkpt>
      <trkpt lat="43.69641" lon="5.82296">
        <ele>425</ele>
        <time>2016-03-12T10:19:08.350Z</time>
      </trkpt>
      <trkpt lat="43.69637" lon="5.82306">
        <ele>425</ele>
        <time>2016-03-12T10:19:11.365Z</time>
      </trkpt>
      <trkpt lat="43.69636" lon="5.8231">
        <ele>425</ele>
        <time>2016-03-12T10:19:12.366Z</time>
      </trkpt>
      <trkpt lat="43.6963" lon="5.82319">
        <ele>425</ele>
        <time>2016-03-12T10:19:15.376Z</time>
      </trkpt>
      <trkpt lat="43.69628" lon="5.82322">
        <ele>426</ele>
        <time>2016-03-12T10:19:16.337Z</time>
      </trkpt>
      <trkpt lat="43.69624" lon="5.82329">
        <ele>427</ele>
        <time>2016-03-12T10:19:18.368Z</time>
      </trkpt>
      <trkpt lat="43.69622" lon="5.82333">
        <ele>426</ele>
        <time>2016-03-12T10:19:19.338Z</time>
      </trkpt>
      <trkpt lat="43.69618" lon="5.82341">
        <ele>427</ele>
        <time>2016-03-12T10:19:21.365Z</time>
      </trkpt>
      <trkpt lat="43.69616" lon="5.82345">
        <ele>426</ele>
        <time>2016-03-12T10:19:22.339Z</time>
      </trkpt>
      <trkpt lat="43.69612" lon="5.82352">
        <ele>426</ele>
        <time>2016-03-12T10:19:24.367Z</time>
      </trkpt>
      <trkpt lat="43.69611" lon="5.82356">
        <ele>426</ele>
        <time>2016-03-12T10:19:25.338Z</time>
      </trkpt>
      <trkpt lat="43.69608" lon="5.82364">
        <ele>427</ele>
        <time>2016-03-12T10:19:27.365Z</time>
      </trkpt>
      <trkpt lat="43.69607" lon="5.82368">
        <ele>427</ele>
        <time>2016-03-12T10:19:28.365Z</time>
      </trkpt>
      <trkpt lat="43.69603" lon="5.82375">
        <ele>427</ele>
        <time>2016-03-12T10:19:30.366Z</time>
      </trkpt>
      <trkpt lat="43.69602" lon="5.82379">
        <ele>427</ele>
        <time>2016-03-12T10:19:31.339Z</time>
      </trkpt>
      <trkpt lat="43.69597" lon="5.82388">
        <ele>428</ele>
        <time>2016-03-12T10:19:34.366Z</time>
      </trkpt>
      <trkpt lat="43.69594" lon="5.82392">
        <ele>429</ele>
        <time>2016-03-12T10:19:35.338Z</time>
      </trkpt>
      <trkpt lat="43.6959" lon="5.82398">
        <ele>429</ele>
        <time>2016-03-12T10:19:37.366Z</time>
      </trkpt>
      <trkpt lat="43.69588" lon="5.82401">
        <ele>430</ele>
        <time>2016-03-12T10:19:38.333Z</time>
      </trkpt>
      <trkpt lat="43.69582" lon="5.82411">
        <ele>430</ele>
        <time>2016-03-12T10:19:41.368Z</time>
      </trkpt>
      <trkpt lat="43.6958" lon="5.82414">
        <ele>429</ele>
        <time>2016-03-12T10:19:42.339Z</time>
      </trkpt>
      <trkpt lat="43.69576" lon="5.8242">
        <ele>428</ele>
        <time>2016-03-12T10:19:44.396Z</time>
      </trkpt>
      <trkpt lat="43.69574" lon="5.82422">
        <ele>427</ele>
        <time>2016-03-12T10:19:45.339Z</time>
      </trkpt>
      <trkpt lat="43.69567" lon="5.82429">
        <ele>426</ele>
        <time>2016-03-12T10:19:47.361Z</time>
      </trkpt>
      <trkpt lat="43.69564" lon="5.82433">
        <ele>425</ele>
        <time>2016-03-12T10:19:48.338Z</time>
      </trkpt>
      <trkpt lat="43.6956" lon="5.82438">
        <ele>425</ele>
        <time>2016-03-12T10:19:49.359Z</time>
      </trkpt>
      <trkpt lat="43.69557" lon="5.82442">
        <ele>424</ele>
        <time>2016-03-12T10:19:50.334Z</time>
      </trkpt>
      <trkpt lat="43.69553" lon="5.82446">
        <ele>424</ele>
        <time>2016-03-12T10:19:51.373Z</time>
      </trkpt>
      <trkpt lat="43.6955" lon="5.8245">
        <ele>424</ele>
        <time>2016-03-12T10:19:52.339Z</time>
      </trkpt>
      <trkpt lat="43.69546" lon="5.82454">
        <ele>424</ele>
        <time>2016-03-12T10:19:53.601Z</time>
      </trkpt>
      <trkpt lat="43.69543" lon="5.82459">
        <ele>423</ele>
        <time>2016-03-12T10:19:54.333Z</time>
      </trkpt>
      <trkpt lat="43.69537" lon="5.82466">
        <ele>423</ele>
        <time>2016-03-12T10:19:56.365Z</time>
      </trkpt>
      <trkpt lat="43.69533" lon="5.8247">
        <ele>422</ele>
        <time>2016-03-12T10:19:57.339Z</time>
      </trkpt>
      <trkpt lat="43.69527" lon="5.82477">
        <ele>422</ele>
        <time>2016-03-12T10:19:59.365Z</time>
      </trkpt>
      <trkpt lat="43.69524" lon="5.8248">
        <ele>421</ele>
        <time>2016-03-12T10:20:00.350Z</time>
      </trkpt>
      <trkpt lat="43.69517" lon="5.82486">
        <ele>420</ele>
        <time>2016-03-12T10:20:02.364Z</time>
      </trkpt>
      <trkpt lat="43.69513" lon="5.82487">
        <ele>419</ele>
        <time>2016-03-12T10:20:03.338Z</time>
      </trkpt>
      <trkpt lat="43.69504" lon="5.8249">
        <ele>420</ele>
        <time>2016-03-12T10:20:05.608Z</time>
      </trkpt>
      <trkpt lat="43.69501" lon="5.8249">
        <ele>420</ele>
        <time>2016-03-12T10:20:06.365Z</time>
      </trkpt>
      <trkpt lat="43.69493" lon="5.82491">
        <ele>419</ele>
        <time>2016-03-12T10:20:08.360Z</time>
      </trkpt>
      <trkpt lat="43.69489" lon="5.82491">
        <ele>419</ele>
        <time>2016-03-12T10:20:09.340Z</time>
      </trkpt>
      <trkpt lat="43.69484" lon="5.82492">
        <ele>419</ele>
        <time>2016-03-12T10:20:10.368Z</time>
      </trkpt>
      <trkpt lat="43.69478" lon="5.82494">
        <ele>419</ele>
        <time>2016-03-12T10:20:11.341Z</time>
      </trkpt>
      <trkpt lat="43.69473" lon="5.82495">
        <ele>419</ele>
        <time>2016-03-12T10:20:12.367Z</time>
      </trkpt>
      <trkpt lat="43.69468" lon="5.82496">
        <ele>419</ele>
        <time>2016-03-12T10:20:13.338Z</time>
      </trkpt>
      <trkpt lat="43.69459" lon="5.82498">
        <ele>418</ele>
        <time>2016-03-12T10:20:15.378Z</time>
      </trkpt>
      <trkpt lat="43.69455" lon="5.825">
        <ele>418</ele>
        <time>2016-03-12T10:20:16.338Z</time>
      </trkpt>
      <trkpt lat="43.6945" lon="5.82501">
        <ele>418</ele>
        <time>2016-03-12T10:20:17.364Z</time>
      </trkpt>
      <trkpt lat="43.69445" lon="5.82503">
        <ele>417</ele>
        <time>2016-03-12T10:20:18.349Z</time>
      </trkpt>
      <trkpt lat="43.69437" lon="5.82506">
        <ele>417</ele>
        <time>2016-03-12T10:20:20.367Z</time>
      </trkpt>
      <trkpt lat="43.69432" lon="5.82508">
        <ele>417</ele>
        <time>2016-03-12T10:20:21.352Z</time>
      </trkpt>
      <trkpt lat="43.69426" lon="5.82511">
        <ele>418</ele>
        <time>2016-03-12T10:20:23.347Z</time>
      </trkpt>
      <trkpt lat="43.69421" lon="5.82513">
        <ele>418</ele>
        <time>2016-03-12T10:20:24.338Z</time>
      </trkpt>
      <trkpt lat="43.69415" lon="5.82515">
        <ele>418</ele>
        <time>2016-03-12T10:20:26.364Z</time>
      </trkpt>
      <trkpt lat="43.69411" lon="5.82516">
        <ele>417</ele>
        <time>2016-03-12T10:20:27.366Z</time>
      </trkpt>
      <trkpt lat="43.69404" lon="5.82518">
        <ele>417</ele>
        <time>2016-03-12T10:20:29.364Z</time>
      </trkpt>
      <trkpt lat="43.69401" lon="5.82519">
        <ele>418</ele>
        <time>2016-03-12T10:20:30.335Z</time>
      </trkpt>
      <trkpt lat="43.69393" lon="5.82518">
        <ele>419</ele>
        <time>2016-03-12T10:20:33.375Z</time>
      </trkpt>
      <trkpt lat="43.69391" lon="5.82518">
        <ele>419</ele>
        <time>2016-03-12T10:20:34.338Z</time>
      </trkpt>
      <trkpt lat="43.69382" lon="5.82516">
        <ele>420</ele>
        <time>2016-03-12T10:20:38.369Z</time>
      </trkpt>
      <trkpt lat="43.6938" lon="5.82515">
        <ele>420</ele>
        <time>2016-03-12T10:20:39.338Z</time>
      </trkpt>
      <trkpt lat="43.69371" lon="5.82512">
        <ele>421</ele>
        <time>2016-03-12T10:20:43.413Z</time>
      </trkpt>
      <trkpt lat="43.69369" lon="5.82511">
        <ele>420</ele>
        <time>2016-03-12T10:20:44.334Z</time>
      </trkpt>
      <trkpt lat="43.69362" lon="5.82507">
        <ele>422</ele>
        <time>2016-03-12T10:20:48.407Z</time>
      </trkpt>
      <trkpt lat="43.6936" lon="5.82506">
        <ele>421</ele>
        <time>2016-03-12T10:20:49.350Z</time>
      </trkpt>
      <trkpt lat="43.69352" lon="5.82503">
        <ele>423</ele>
        <time>2016-03-12T10:20:53.361Z</time>
      </trkpt>
      <trkpt lat="43.6935" lon="5.82503">
        <ele>423</ele>
        <time>2016-03-12T10:20:54.338Z</time>
      </trkpt>
      <trkpt lat="43.69343" lon="5.825">
        <ele>425</ele>
        <time>2016-03-12T10:20:59.394Z</time>
      </trkpt>
      <trkpt lat="43.69341" lon="5.82499">
        <ele>425</ele>
        <time>2016-03-12T10:21:00.336Z</time>
      </trkpt>
      <trkpt lat="43.69332" lon="5.82496">
        <ele>426</ele>
        <time>2016-03-12T10:21:05.355Z</time>
      </trkpt>
      <trkpt lat="43.69331" lon="5.82496">
        <ele>427</ele>
        <time>2016-03-12T10:21:06.345Z</time>
      </trkpt>
      <trkpt lat="43.69323" lon="5.82492">
        <ele>426</ele>
        <time>2016-03-12T10:21:10.360Z</time>
      </trkpt>
      <trkpt lat="43.69321" lon="5.8249">
        <ele>426</ele>
        <time>2016-03-12T10:21:11.336Z</time>
      </trkpt>
      <trkpt lat="43.69313" lon="5.82485">
        <ele>426</ele>
        <time>2016-03-12T10:21:15.386Z</time>
      </trkpt>
      <trkpt lat="43.69312" lon="5.82483">
        <ele>427</ele>
        <time>2016-03-12T10:21:16.337Z</time>
      </trkpt>
      <trkpt lat="43.69305" lon="5.82477">
        <ele>427</ele>
        <time>2016-03-12T10:21:20.405Z</time>
      </trkpt>
      <trkpt lat="43.69304" lon="5.82475">
        <ele>428</ele>
        <time>2016-03-12T10:21:21.337Z</time>
      </trkpt>
      <trkpt lat="43.69297" lon="5.82467">
        <ele>428</ele>
        <time>2016-03-12T10:21:26.360Z</time>
      </trkpt>
      <trkpt lat="43.69296" lon="5.82466">
        <ele>428</ele>
        <time>2016-03-12T10:21:27.338Z</time>
      </trkpt>
      <trkpt lat="43.6929" lon="5.82458">
        <ele>430</ele>
        <time>2016-03-12T10:21:31.392Z</time>
      </trkpt>
      <trkpt lat="43.69288" lon="5.82456">
        <ele>430</ele>
        <time>2016-03-12T10:21:32.338Z</time>
      </trkpt>
      <trkpt lat="43.69281" lon="5.8245">
        <ele>431</ele>
        <time>2016-03-12T10:21:36.366Z</time>
      </trkpt>
      <trkpt lat="43.69279" lon="5.82449">
        <ele>431</ele>
        <time>2016-03-12T10:21:37.339Z</time>
      </trkpt>
      <trkpt lat="43.69272" lon="5.82443">
        <ele>431</ele>
        <time>2016-03-12T10:21:41.364Z</time>
      </trkpt>
      <trkpt lat="43.6927" lon="5.82442">
        <ele>432</ele>
        <time>2016-03-12T10:21:42.567Z</time>
      </trkpt>
      <trkpt lat="43.69264" lon="5.82436">
        <ele>434</ele>
        <time>2016-03-12T10:21:46.364Z</time>
      </trkpt>
      <trkpt lat="43.69262" lon="5.82435">
        <ele>434</ele>
        <time>2016-03-12T10:21:47.363Z</time>
      </trkpt>
      <trkpt lat="43.69256" lon="5.8243">
        <ele>434</ele>
        <time>2016-03-12T10:21:51.361Z</time>
      </trkpt>
      <trkpt lat="43.69254" lon="5.82428">
        <ele>434</ele>
        <time>2016-03-12T10:21:52.338Z</time>
      </trkpt>
      <trkpt lat="43.69246" lon="5.82423">
        <ele>434</ele>
        <time>2016-03-12T10:21:56.366Z</time>
      </trkpt>
      <trkpt lat="43.69244" lon="5.82421">
        <ele>434</ele>
        <time>2016-03-12T10:21:57.339Z</time>
      </trkpt>
      <trkpt lat="43.69237" lon="5.82414">
        <ele>435</ele>
        <time>2016-03-12T10:22:01.376Z</time>
      </trkpt>
      <trkpt lat="43.69236" lon="5.82413">
        <ele>435</ele>
        <time>2016-03-12T10:22:02.335Z</time>
      </trkpt>
      <trkpt lat="43.69229" lon="5.82407">
        <ele>435</ele>
        <time>2016-03-12T10:22:06.365Z</time>
      </trkpt>
      <trkpt lat="43.69228" lon="5.82406">
        <ele>436</ele>
        <time>2016-03-12T10:22:07.338Z</time>
      </trkpt>
      <trkpt lat="43.69222" lon="5.82398">
        <ele>437</ele>
        <time>2016-03-12T10:22:11.365Z</time>
      </trkpt>
      <trkpt lat="43.69221" lon="5.82396">
        <ele>437</ele>
        <time>2016-03-12T10:22:12.339Z</time>
      </trkpt>
      <trkpt lat="43.69218" lon="5.82387">
        <ele>438</ele>
        <time>2016-03-12T10:22:16.365Z</time>
      </trkpt>
      <trkpt lat="43.69218" lon="5.82385">
        <ele>438</ele>
        <time>2016-03-12T10:22:17.339Z</time>
      </trkpt>
      <trkpt lat="43.69218" lon="5.82372">
        <ele>441</ele>
        <time>2016-03-12T10:22:22.365Z</time>
      </trkpt>
      <trkpt lat="43.69218" lon="5.8237">
        <ele>441</ele>
        <time>2016-03-12T10:22:23.340Z</time>
      </trkpt>
      <trkpt lat="43.69219" lon="5.82359">
        <ele>443</ele>
        <time>2016-03-12T10:22:27.366Z</time>
      </trkpt>
      <trkpt lat="43.69218" lon="5.82356">
        <ele>443</ele>
        <time>2016-03-12T10:22:28.339Z</time>
      </trkpt>
      <trkpt lat="43.69215" lon="5.82346">
        <ele>445</ele>
        <time>2016-03-12T10:22:32.415Z</time>
      </trkpt>
      <trkpt lat="43.69213" lon="5.82344">
        <ele>444</ele>
        <time>2016-03-12T10:22:33.340Z</time>
      </trkpt>
      <trkpt lat="43.69206" lon="5.82337">
        <ele>442</ele>
        <time>2016-03-12T10:22:40.364Z</time>
      </trkpt>
      <trkpt lat="43.69205" lon="5.82336">
        <ele>443</ele>
        <time>2016-03-12T10:22:41.347Z</time>
      </trkpt>
      <trkpt lat="43.69197" lon="5.82335">
        <ele>444</ele>
        <time>2016-03-12T10:22:49.369Z</time>
      </trkpt>
      <trkpt lat="43.69196" lon="5.82334">
        <ele>445</ele>
        <time>2016-03-12T10:22:50.340Z</time>
      </trkpt>
      <trkpt lat="43.69187" lon="5.82331">
        <ele>446</ele>
        <time>2016-03-12T10:22:58.366Z</time>
      </trkpt>
      <trkpt lat="43.69187" lon="5.82331">
        <ele>446</ele>
        <time>2016-03-12T10:22:59.340Z</time>
      </trkpt>
      <trkpt lat="43.69178" lon="5.82327">
        <ele>447</ele>
        <time>2016-03-12T10:23:07.364Z</time>
      </trkpt>
      <trkpt lat="43.69177" lon="5.82326">
        <ele>447</ele>
        <time>2016-03-12T10:23:08.338Z</time>
      </trkpt>
      <trkpt lat="43.69171" lon="5.8232">
        <ele>447</ele>
        <time>2016-03-12T10:23:15.364Z</time>
      </trkpt>
      <trkpt lat="43.6917" lon="5.82319">
        <ele>447</ele>
        <time>2016-03-12T10:23:16.338Z</time>
      </trkpt>
      <trkpt lat="43.69164" lon="5.82312">
        <ele>446</ele>
        <time>2016-03-12T10:23:21.365Z</time>
      </trkpt>
      <trkpt lat="43.69162" lon="5.82311">
        <ele>446</ele>
        <time>2016-03-12T10:23:22.340Z</time>
      </trkpt>
      <trkpt lat="43.69155" lon="5.82305">
        <ele>447</ele>
        <time>2016-03-12T10:23:27.364Z</time>
      </trkpt>
      <trkpt lat="43.69154" lon="5.82303">
        <ele>447</ele>
        <time>2016-03-12T10:23:28.339Z</time>
      </trkpt>
      <trkpt lat="43.69148" lon="5.82297">
        <ele>446</ele>
        <time>2016-03-12T10:23:32.365Z</time>
      </trkpt>
      <trkpt lat="43.69146" lon="5.82295">
        <ele>445</ele>
        <time>2016-03-12T10:23:33.338Z</time>
      </trkpt>
      <trkpt lat="43.69139" lon="5.8229">
        <ele>444</ele>
        <time>2016-03-12T10:23:38.366Z</time>
      </trkpt>
      <trkpt lat="43.69137" lon="5.82289">
        <ele>444</ele>
        <time>2016-03-12T10:23:39.335Z</time>
      </trkpt>
      <trkpt lat="43.6913" lon="5.82283">
        <ele>444</ele>
        <time>2016-03-12T10:23:45.365Z</time>
      </trkpt>
      <trkpt lat="43.69129" lon="5.82282">
        <ele>444</ele>
        <time>2016-03-12T10:23:46.338Z</time>
      </trkpt>
      <trkpt lat="43.69121" lon="5.8228">
        <ele>445</ele>
        <time>2016-03-12T10:23:51.365Z</time>
      </trkpt>
      <trkpt lat="43.69119" lon="5.8228">
        <ele>445</ele>
        <time>2016-03-12T10:23:52.338Z</time>
      </trkpt>
      <trkpt lat="43.6911" lon="5.82282">
        <ele>445</ele>
        <time>2016-03-12T10:23:56.365Z</time>
      </trkpt>
      <trkpt lat="43.69108" lon="5.82282">
        <ele>445</ele>
        <time>2016-03-12T10:23:57.338Z</time>
      </trkpt>
      <trkpt lat="43.691" lon="5.82284">
        <ele>445</ele>
        <time>2016-03-12T10:24:01.594Z</time>
      </trkpt>
      <trkpt lat="43.69098" lon="5.82285">
        <ele>444</ele>
        <time>2016-03-12T10:24:02.338Z</time>
      </trkpt>
      <trkpt lat="43.69089" lon="5.82286">
        <ele>445</ele>
        <time>2016-03-12T10:24:07.365Z</time>
      </trkpt>
      <trkpt lat="43.69087" lon="5.82287">
        <ele>445</ele>
        <time>2016-03-12T10:24:08.338Z</time>
      </trkpt>
      <trkpt lat="43.69079" lon="5.82287">
        <ele>446</ele>
        <time>2016-03-12T10:24:13.365Z</time>
      </trkpt>
      <trkpt lat="43.69077" lon="5.82287">
        <ele>445</ele>
        <time>2016-03-12T10:24:14.355Z</time>
      </trkpt>
      <trkpt lat="43.6907" lon="5.82287">
        <ele>446</ele>
        <time>2016-03-12T10:24:19.397Z</time>
      </trkpt>
      <trkpt lat="43.69068" lon="5.82288">
        <ele>446</ele>
        <time>2016-03-12T10:24:20.339Z</time>
      </trkpt>
      <trkpt lat="43.6906" lon="5.8229">
        <ele>444</ele>
        <time>2016-03-12T10:24:24.455Z</time>
      </trkpt>
      <trkpt lat="43.69059" lon="5.82291">
        <ele>444</ele>
        <time>2016-03-12T10:24:25.330Z</time>
      </trkpt>
      <trkpt lat="43.69052" lon="5.82298">
        <ele>448</ele>
        <time>2016-03-12T10:24:31.356Z</time>
      </trkpt>
      <trkpt lat="43.69051" lon="5.823">
        <ele>448</ele>
        <time>2016-03-12T10:24:32.344Z</time>
      </trkpt>
      <trkpt lat="43.69046" lon="5.8231">
        <ele>448</ele>
        <time>2016-03-12T10:24:38.360Z</time>
      </trkpt>
      <trkpt lat="43.69045" lon="5.82312">
        <ele>448</ele>
        <time>2016-03-12T10:24:39.363Z</time>
      </trkpt>
      <trkpt lat="43.69041" lon="5.82321">
        <ele>450</ele>
        <time>2016-03-12T10:24:44.359Z</time>
      </trkpt>
      <trkpt lat="43.6904" lon="5.82323">
        <ele>449</ele>
        <time>2016-03-12T10:24:45.327Z</time>
      </trkpt>
      <trkpt lat="43.69036" lon="5.82333">
        <ele>451</ele>
        <time>2016-03-12T10:24:51.366Z</time>
      </trkpt>
      <trkpt lat="43.69035" lon="5.82334">
        <ele>451</ele>
        <time>2016-03-12T10:24:52.338Z</time>
      </trkpt>
      <trkpt lat="43.69029" lon="5.82343">
        <ele>453</ele>
        <time>2016-03-12T10:24:59.366Z</time>
      </trkpt>
      <trkpt lat="43.69028" lon="5.82344">
        <ele>453</ele>
        <time>2016-03-12T10:25:00.331Z</time>
      </trkpt>
      <trkpt lat="43.69021" lon="5.82351">
        <ele>456</ele>
        <time>2016-03-12T10:25:07.368Z</time>
      </trkpt>
      <trkpt lat="43.6902" lon="5.82352">
        <ele>456</ele>
        <time>2016-03-12T10:25:08.340Z</time>
      </trkpt>
      <trkpt lat="43.69015" lon="5.82362">
        <ele>458</ele>
        <time>2016-03-12T10:25:15.363Z</time>
      </trkpt>
      <trkpt lat="43.69015" lon="5.82363">
        <ele>458</ele>
        <time>2016-03-12T10:25:16.339Z</time>
      </trkpt>
      <trkpt lat="43.69011" lon="5.82372">
        <ele>457</ele>
        <time>2016-03-12T10:25:21.365Z</time>
      </trkpt>
      <trkpt lat="43.6901" lon="5.82374">
        <ele>457</ele>
        <time>2016-03-12T10:25:22.347Z</time>
      </trkpt>
      <trkpt lat="43.69005" lon="5.82382">
        <ele>457</ele>
        <time>2016-03-12T10:25:27.370Z</time>
      </trkpt>
      <trkpt lat="43.69004" lon="5.82384">
        <ele>457</ele>
        <time>2016-03-12T10:25:28.339Z</time>
      </trkpt>
      <trkpt lat="43.68998" lon="5.82393">
        <ele>457</ele>
        <time>2016-03-12T10:25:34.367Z</time>
      </trkpt>
      <trkpt lat="43.68997" lon="5.82395">
        <ele>457</ele>
        <time>2016-03-12T10:25:35.333Z</time>
      </trkpt>
      <trkpt lat="43.68992" lon="5.82404">
        <ele>458</ele>
        <time>2016-03-12T10:25:40.365Z</time>
      </trkpt>
      <trkpt lat="43.6899" lon="5.82406">
        <ele>457</ele>
        <time>2016-03-12T10:25:41.339Z</time>
      </trkpt>
      <trkpt lat="43.68985" lon="5.82413">
        <ele>457</ele>
        <time>2016-03-12T10:25:45.368Z</time>
      </trkpt>
      <trkpt lat="43.68984" lon="5.82415">
        <ele>457</ele>
        <time>2016-03-12T10:25:46.339Z</time>
      </trkpt>
      <trkpt lat="43.68978" lon="5.82423">
        <ele>457</ele>
        <time>2016-03-12T10:25:51.366Z</time>
      </trkpt>
      <trkpt lat="43.68977" lon="5.82425">
        <ele>457</ele>
        <time>2016-03-12T10:25:52.339Z</time>
      </trkpt>
      <trkpt lat="43.68971" lon="5.82435">
        <ele>457</ele>
        <time>2016-03-12T10:25:57.362Z</time>
      </trkpt>
      <trkpt lat="43.6897" lon="5.82437">
        <ele>458</ele>
        <time>2016-03-12T10:25:58.358Z</time>
      </trkpt>
      <trkpt lat="43.68965" lon="5.82446">
        <ele>457</ele>
        <time>2016-03-12T10:26:03.366Z</time>
      </trkpt>
      <trkpt lat="43.68964" lon="5.82447">
        <ele>457</ele>
        <time>2016-03-12T10:26:04.339Z</time>
      </trkpt>
      <trkpt lat="43.68959" lon="5.82455">
        <ele>458</ele>
        <time>2016-03-12T10:26:09.367Z</time>
      </trkpt>
      <trkpt lat="43.68958" lon="5.82457">
        <ele>458</ele>
        <time>2016-03-12T10:26:10.368Z</time>
      </trkpt>
      <trkpt lat="43.68952" lon="5.82465">
        <ele>458</ele>
        <time>2016-03-12T10:26:15.367Z</time>
      </trkpt>
      <trkpt lat="43.68951" lon="5.82467">
        <ele>458</ele>
        <time>2016-03-12T10:26:16.339Z</time>
      </trkpt>
      <trkpt lat="43.68945" lon="5.82475">
        <ele>459</ele>
        <time>2016-03-12T10:26:21.366Z</time>
      </trkpt>
      <trkpt lat="43.68944" lon="5.82476">
        <ele>459</ele>
        <time>2016-03-12T10:26:22.336Z</time>
      </trkpt>
      <trkpt lat="43.68939" lon="5.82484">
        <ele>459</ele>
        <time>2016-03-12T10:26:33.368Z</time>
      </trkpt>
      <trkpt lat="43.68937" lon="5.82486">
        <ele>459</ele>
        <time>2016-03-12T10:26:34.340Z</time>
      </trkpt>
      <trkpt lat="43.68931" lon="5.82494">
        <ele>459</ele>
        <time>2016-03-12T10:26:39.376Z</time>
      </trkpt>
      <trkpt lat="43.6893" lon="5.82495">
        <ele>460</ele>
        <time>2016-03-12T10:26:40.538Z</time>
      </trkpt>
      <trkpt lat="43.68924" lon="5.82501">
        <ele>460</ele>
        <time>2016-03-12T10:26:44.368Z</time>
      </trkpt>
      <trkpt lat="43.68922" lon="5.82502">
        <ele>460</ele>
        <time>2016-03-12T10:26:45.335Z</time>
      </trkpt>
      <trkpt lat="43.68915" lon="5.8251">
        <ele>462</ele>
        <time>2016-03-12T10:26:50.368Z</time>
      </trkpt>
      <trkpt lat="43.68914" lon="5.82511">
        <ele>462</ele>
        <time>2016-03-12T10:26:51.341Z</time>
      </trkpt>
      <trkpt lat="43.68909" lon="5.8252">
        <ele>463</ele>
        <time>2016-03-12T10:26:56.381Z</time>
      </trkpt>
      <trkpt lat="43.68908" lon="5.82522">
        <ele>463</ele>
        <time>2016-03-12T10:26:57.335Z</time>
      </trkpt>
      <trkpt lat="43.689" lon="5.82527">
        <ele>464</ele>
        <time>2016-03-12T10:27:02.366Z</time>
      </trkpt>
      <trkpt lat="43.68899" lon="5.82527">
        <ele>464</ele>
        <time>2016-03-12T10:27:03.379Z</time>
      </trkpt>
      <trkpt lat="43.6889" lon="5.8253">
        <ele>464</ele>
        <time>2016-03-12T10:27:08.366Z</time>
      </trkpt>
      <trkpt lat="43.68889" lon="5.82531">
        <ele>464</ele>
        <time>2016-03-12T10:27:09.339Z</time>
      </trkpt>
      <trkpt lat="43.6888" lon="5.82535">
        <ele>464</ele>
        <time>2016-03-12T10:27:14.397Z</time>
      </trkpt>
      <trkpt lat="43.68879" lon="5.82536">
        <ele>464</ele>
        <time>2016-03-12T10:27:15.339Z</time>
      </trkpt>
      <trkpt lat="43.68872" lon="5.82541">
        <ele>464</ele>
        <time>2016-03-12T10:27:20.368Z</time>
      </trkpt>
      <trkpt lat="43.6887" lon="5.82542">
        <ele>464</ele>
        <time>2016-03-12T10:27:21.339Z</time>
      </trkpt>
      <trkpt lat="43.68862" lon="5.82548">
        <ele>465</ele>
        <time>2016-03-12T10:27:26.369Z</time>
      </trkpt>
      <trkpt lat="43.68861" lon="5.82549">
        <ele>465</ele>
        <time>2016-03-12T10:27:27.340Z</time>
      </trkpt>
      <trkpt lat="43.68852" lon="5.82553">
        <ele>465</ele>
        <time>2016-03-12T10:27:32.366Z</time>
      </trkpt>
      <trkpt lat="43.68851" lon="5.82555">
        <ele>465</ele>
        <time>2016-03-12T10:27:33.337Z</time>
      </trkpt>
      <trkpt lat="43.68845" lon="5.82563">
        <ele>467</ele>
        <time>2016-03-12T10:27:38.363Z</time>
      </trkpt>
      <trkpt lat="43.68844" lon="5.82565">
        <ele>467</ele>
        <time>2016-03-12T10:27:39.340Z</time>
      </trkpt>
      <trkpt lat="43.68839" lon="5.82574">
        <ele>467</ele>
        <time>2016-03-12T10:27:44.365Z</time>
      </trkpt>
      <trkpt lat="43.68838" lon="5.82576">
        <ele>468</ele>
        <time>2016-03-12T10:27:45.340Z</time>
      </trkpt>
      <trkpt lat="43.68833" lon="5.82585">
        <ele>469</ele>
        <time>2016-03-12T10:27:50.364Z</time>
      </trkpt>
      <trkpt lat="43.68832" lon="5.82586">
        <ele>469</ele>
        <time>2016-03-12T10:27:51.341Z</time>
      </trkpt>
      <trkpt lat="43.68826" lon="5.82594">
        <ele>470</ele>
        <time>2016-03-12T10:27:56.370Z</time>
      </trkpt>
      <trkpt lat="43.68824" lon="5.82595">
        <ele>470</ele>
        <time>2016-03-12T10:27:57.339Z</time>
      </trkpt>
      <trkpt lat="43.68818" lon="5.82603">
        <ele>470</ele>
        <time>2016-03-12T10:28:02.378Z</time>
      </trkpt>
      <trkpt lat="43.68817" lon="5.82605">
        <ele>470</ele>
        <time>2016-03-12T10:28:03.340Z</time>
      </trkpt>
      <trkpt lat="43.68811" lon="5.82612">
        <ele>471</ele>
        <time>2016-03-12T10:28:07.367Z</time>
      </trkpt>
      <trkpt lat="43.6881" lon="5.82615">
        <ele>471</ele>
        <time>2016-03-12T10:28:08.368Z</time>
      </trkpt>
      <trkpt lat="43.68807" lon="5.82624">
        <ele>470</ele>
        <time>2016-03-12T10:28:11.371Z</time>
      </trkpt>
      <trkpt lat="43.68807" lon="5.82627">
        <ele>470</ele>
        <time>2016-03-12T10:28:12.340Z</time>
      </trkpt>
      <trkpt lat="43.68807" lon="5.82637">
        <ele>470</ele>
        <time>2016-03-12T10:28:15.366Z</time>
      </trkpt>
      <trkpt lat="43.68808" lon="5.82641">
        <ele>470</ele>
        <time>2016-03-12T10:28:16.339Z</time>
      </trkpt>
      <trkpt lat="43.68808" lon="5.82653">
        <ele>470</ele>
        <time>2016-03-12T10:28:20.362Z</time>
      </trkpt>
      <trkpt lat="43.68808" lon="5.82656">
        <ele>470</ele>
        <time>2016-03-12T10:28:21.340Z</time>
      </trkpt>
      <trkpt lat="43.68805" lon="5.82668">
        <ele>470</ele>
        <time>2016-03-12T10:28:25.366Z</time>
      </trkpt>
      <trkpt lat="43.68804" lon="5.82671">
        <ele>470</ele>
        <time>2016-03-12T10:28:26.340Z</time>
      </trkpt>
      <trkpt lat="43.688" lon="5.8266">
        <ele>470</ele>
        <time>2016-03-12T10:28:38.367Z</time>
      </trkpt>
      <trkpt lat="43.68799" lon="5.82657">
        <ele>470</ele>
        <time>2016-03-12T10:28:39.340Z</time>
      </trkpt>
      <trkpt lat="43.68794" lon="5.82651">
        <ele>469</ele>
        <time>2016-03-12T10:28:42.367Z</time>
      </trkpt>
      <trkpt lat="43.68791" lon="5.8265">
        <ele>469</ele>
        <time>2016-03-12T10:28:43.341Z</time>
      </trkpt>
      <trkpt lat="43.68784" lon="5.82648">
        <ele>470</ele>
        <time>2016-03-12T10:28:46.378Z</time>
      </trkpt>
      <trkpt lat="43.68781" lon="5.82648">
        <ele>470</ele>
        <time>2016-03-12T10:28:47.341Z</time>
      </trkpt>
      <trkpt lat="43.68773" lon="5.82646">
        <ele>470</ele>
        <time>2016-03-12T10:28:50.371Z</time>
      </trkpt>
      <trkpt lat="43.6877" lon="5.82646">
        <ele>470</ele>
        <time>2016-03-12T10:28:51.340Z</time>
      </trkpt>
      <trkpt lat="43.68762" lon="5.82644">
        <ele>471</ele>
        <time>2016-03-12T10:28:54.366Z</time>
      </trkpt>
      <trkpt lat="43.68759" lon="5.82644">
        <ele>471</ele>
        <time>2016-03-12T10:28:55.340Z</time>
      </trkpt>
      <trkpt lat="43.68751" lon="5.82644">
        <ele>472</ele>
        <time>2016-03-12T10:28:58.362Z</time>
      </trkpt>
      <trkpt lat="43.68748" lon="5.82644">
        <ele>472</ele>
        <time>2016-03-12T10:28:59.340Z</time>
      </trkpt>
      <trkpt lat="43.6874" lon="5.82646">
        <ele>472</ele>
        <time>2016-03-12T10:29:02.369Z</time>
      </trkpt>
      <trkpt lat="43.68737" lon="5.82647">
        <ele>472</ele>
        <time>2016-03-12T10:29:03.339Z</time>
      </trkpt>
      <trkpt lat="43.68729" lon="5.8265">
        <ele>472</ele>
        <time>2016-03-12T10:29:06.362Z</time>
      </trkpt>
      <trkpt lat="43.68726" lon="5.82651">
        <ele>472</ele>
        <time>2016-03-12T10:29:07.340Z</time>
      </trkpt>
      <trkpt lat="43.68717" lon="5.82654">
        <ele>472</ele>
        <time>2016-03-12T10:29:10.365Z</time>
      </trkpt>
      <trkpt lat="43.68714" lon="5.82655">
        <ele>472</ele>
        <time>2016-03-12T10:29:11.371Z</time>
      </trkpt>
      <trkpt lat="43.68708" lon="5.82657">
        <ele>472</ele>
        <time>2016-03-12T10:29:13.365Z</time>
      </trkpt>
      <trkpt lat="43.68705" lon="5.82659">
        <ele>472</ele>
        <time>2016-03-12T10:29:14.336Z</time>
      </trkpt>
      <trkpt lat="43.68699" lon="5.82662">
        <ele>472</ele>
        <time>2016-03-12T10:29:16.353Z</time>
      </trkpt>
      <trkpt lat="43.68695" lon="5.82664">
        <ele>472</ele>
        <time>2016-03-12T10:29:17.340Z</time>
      </trkpt>
      <trkpt lat="43.68688" lon="5.82667">
        <ele>471</ele>
        <time>2016-03-12T10:29:19.369Z</time>
      </trkpt>
      <trkpt lat="43.68684" lon="5.82668">
        <ele>470</ele>
        <time>2016-03-12T10:29:20.335Z</time>
      </trkpt>
      <trkpt lat="43.68677" lon="5.82671">
        <ele>470</ele>
        <time>2016-03-12T10:29:22.367Z</time>
      </trkpt>
      <trkpt lat="43.68673" lon="5.82673">
        <ele>470</ele>
        <time>2016-03-12T10:29:23.340Z</time>
      </trkpt>
      <trkpt lat="43.68666" lon="5.82676">
        <ele>470</ele>
        <time>2016-03-12T10:29:25.360Z</time>
      </trkpt>
      <trkpt lat="43.68663" lon="5.82677">
        <ele>469</ele>
        <time>2016-03-12T10:29:26.340Z</time>
      </trkpt>
      <trkpt lat="43.68655" lon="5.82681">
        <ele>468</ele>
        <time>2016-03-12T10:29:28.365Z</time>
      </trkpt>
      <trkpt lat="43.68651" lon="5.82682">
        <ele>468</ele>
        <time>2016-03-12T10:29:29.339Z</time>
      </trkpt>
      <trkpt lat="43.68644" lon="5.82682">
        <ele>467</ele>
        <time>2016-03-12T10:29:30.365Z</time>
      </trkpt>
      <trkpt lat="43.68638" lon="5.82684">
        <ele>467</ele>
        <time>2016-03-12T10:29:31.339Z</time>
      </trkpt>
      <trkpt lat="43.68633" lon="5.82684">
        <ele>466</ele>
        <time>2016-03-12T10:29:32.365Z</time>
      </trkpt>
      <trkpt lat="43.68626" lon="5.82686">
        <ele>465</ele>
        <time>2016-03-12T10:29:33.362Z</time>
      </trkpt>
      <trkpt lat="43.6862" lon="5.82688">
        <ele>464</ele>
        <time>2016-03-12T10:29:34.364Z</time>
      </trkpt>
      <trkpt lat="43.68614" lon="5.82691">
        <ele>464</ele>
        <time>2016-03-12T10:29:35.351Z</time>
      </trkpt>
      <trkpt lat="43.68607" lon="5.82694">
        <ele>463</ele>
        <time>2016-03-12T10:29:36.370Z</time>
      </trkpt>
      <trkpt lat="43.686" lon="5.82699">
        <ele>462</ele>
        <time>2016-03-12T10:29:37.340Z</time>
      </trkpt>
      <trkpt lat="43.68594" lon="5.82704">
        <ele>462</ele>
        <time>2016-03-12T10:29:38.393Z</time>
      </trkpt>
      <trkpt lat="43.68588" lon="5.8271">
        <ele>461</ele>
        <time>2016-03-12T10:29:39.340Z</time>
      </trkpt>
      <trkpt lat="43.68582" lon="5.82716">
        <ele>460</ele>
        <time>2016-03-12T10:29:40.367Z</time>
      </trkpt>
      <trkpt lat="43.68576" lon="5.82723">
        <ele>460</ele>
        <time>2016-03-12T10:29:41.337Z</time>
      </trkpt>
      <trkpt lat="43.6857" lon="5.82729">
        <ele>459</ele>
        <time>2016-03-12T10:29:42.364Z</time>
      </trkpt>
      <trkpt lat="43.68565" lon="5.82736">
        <ele>459</ele>
        <time>2016-03-12T10:29:43.351Z</time>
      </trkpt>
      <trkpt lat="43.68558" lon="5.82743">
        <ele>459</ele>
        <time>2016-03-12T10:29:44.390Z</time>
      </trkpt>
      <trkpt lat="43.68553" lon="5.8275">
        <ele>459</ele>
        <time>2016-03-12T10:29:45.339Z</time>
      </trkpt>
      <trkpt lat="43.68548" lon="5.82758">
        <ele>459</ele>
        <time>2016-03-12T10:29:46.370Z</time>
      </trkpt>
      <trkpt lat="43.68543" lon="5.82768">
        <ele>459</ele>
        <time>2016-03-12T10:29:47.340Z</time>
      </trkpt>
      <trkpt lat="43.6854" lon="5.82775">
        <ele>459</ele>
        <time>2016-03-12T10:29:48.379Z</time>
      </trkpt>
      <trkpt lat="43.68534" lon="5.82786">
        <ele>459</ele>
        <time>2016-03-12T10:29:49.331Z</time>
      </trkpt>
      <trkpt lat="43.68532" lon="5.82794">
        <ele>459</ele>
        <time>2016-03-12T10:29:50.358Z</time>
      </trkpt>
      <trkpt lat="43.68531" lon="5.82803">
        <ele>458</ele>
        <time>2016-03-12T10:29:51.336Z</time>
      </trkpt>
      <trkpt lat="43.68529" lon="5.82813">
        <ele>457</ele>
        <time>2016-03-12T10:29:52.370Z</time>
      </trkpt>
      <trkpt lat="43.68528" lon="5.82822">
        <ele>457</ele>
        <time>2016-03-12T10:29:53.342Z</time>
      </trkpt>
      <trkpt lat="43.68524" lon="5.82832">
        <ele>457</ele>
        <time>2016-03-12T10:29:54.359Z</time>
      </trkpt>
      <trkpt lat="43.6852" lon="5.82839">
        <ele>457</ele>
        <time>2016-03-12T10:29:55.336Z</time>
      </trkpt>
      <trkpt lat="43.68515" lon="5.82845">
        <ele>457</ele>
        <time>2016-03-12T10:29:56.345Z</time>
      </trkpt>
      <trkpt lat="43.68509" lon="5.8285">
        <ele>457</ele>
        <time>2016-03-12T10:29:57.324Z</time>
      </trkpt>
      <trkpt lat="43.68504" lon="5.82853">
        <ele>458</ele>
        <time>2016-03-12T10:29:58.366Z</time>
      </trkpt>
      <trkpt lat="43.68501" lon="5.82856">
        <ele>459</ele>
        <time>2016-03-12T10:29:59.330Z</time>
      </trkpt>
      <trkpt lat="43.68494" lon="5.82862">
        <ele>459</ele>
        <time>2016-03-12T10:30:01.366Z</time>
      </trkpt>
      <trkpt lat="43.68493" lon="5.82865">
        <ele>460</ele>
        <time>2016-03-12T10:30:02.570Z</time>
      </trkpt>
      <trkpt lat="43.68489" lon="5.82875">
        <ele>462</ele>
        <time>2016-03-12T10:30:05.365Z</time>
      </trkpt>
      <trkpt lat="43.68488" lon="5.82878">
        <ele>463</ele>
        <time>2016-03-12T10:30:06.340Z</time>
      </trkpt>
      <trkpt lat="43.68487" lon="5.82887">
        <ele>463</ele>
        <time>2016-03-12T10:30:08.360Z</time>
      </trkpt>
      <trkpt lat="43.68487" lon="5.82891">
        <ele>463</ele>
        <time>2016-03-12T10:30:09.339Z</time>
      </trkpt>
      <trkpt lat="43.68487" lon="5.829">
        <ele>463</ele>
        <time>2016-03-12T10:30:11.406Z</time>
      </trkpt>
      <trkpt lat="43.68487" lon="5.82904">
        <ele>464</ele>
        <time>2016-03-12T10:30:12.340Z</time>
      </trkpt>
      <trkpt lat="43.68487" lon="5.82913">
        <ele>466</ele>
        <time>2016-03-12T10:30:14.370Z</time>
      </trkpt>
      <trkpt lat="43.68487" lon="5.82917">
        <ele>466</ele>
        <time>2016-03-12T10:30:15.340Z</time>
      </trkpt>
      <trkpt lat="43.68486" lon="5.82928">
        <ele>466</ele>
        <time>2016-03-12T10:30:18.365Z</time>
      </trkpt>
      <trkpt lat="43.68485" lon="5.82933">
        <ele>466</ele>
        <time>2016-03-12T10:30:19.331Z</time>
      </trkpt>
      <trkpt lat="43.68483" lon="5.82941">
        <ele>465</ele>
        <time>2016-03-12T10:30:21.397Z</time>
      </trkpt>
      <trkpt lat="43.68482" lon="5.82945">
        <ele>465</ele>
        <time>2016-03-12T10:30:22.339Z</time>
      </trkpt>
      <trkpt lat="43.68478" lon="5.82953">
        <ele>464</ele>
        <time>2016-03-12T10:30:24.447Z</time>
      </trkpt>
      <trkpt lat="43.68475" lon="5.82955">
        <ele>464</ele>
        <time>2016-03-12T10:30:25.336Z</time>
      </trkpt>
      <trkpt lat="43.68468" lon="5.82961">
        <ele>463</ele>
        <time>2016-03-12T10:30:27.367Z</time>
      </trkpt>
      <trkpt lat="43.68463" lon="5.82964">
        <ele>462</ele>
        <time>2016-03-12T10:30:28.340Z</time>
      </trkpt>
      <trkpt lat="43.68457" lon="5.82968">
        <ele>461</ele>
        <time>2016-03-12T10:30:29.367Z</time>
      </trkpt>
      <trkpt lat="43.68453" lon="5.82973">
        <ele>460</ele>
        <time>2016-03-12T10:30:30.339Z</time>
      </trkpt>
      <trkpt lat="43.68449" lon="5.82979">
        <ele>459</ele>
        <time>2016-03-12T10:30:31.377Z</time>
      </trkpt>
      <trkpt lat="43.68445" lon="5.82987">
        <ele>458</ele>
        <time>2016-03-12T10:30:32.363Z</time>
      </trkpt>
      <trkpt lat="43.68443" lon="5.82995">
        <ele>457</ele>
        <time>2016-03-12T10:30:33.362Z</time>
      </trkpt>
      <trkpt lat="43.68442" lon="5.83004">
        <ele>456</ele>
        <time>2016-03-12T10:30:34.336Z</time>
      </trkpt>
      <trkpt lat="43.68438" lon="5.83012">
        <ele>455</ele>
        <time>2016-03-12T10:30:35.368Z</time>
      </trkpt>
      <trkpt lat="43.68436" lon="5.83019">
        <ele>454</ele>
        <time>2016-03-12T10:30:36.340Z</time>
      </trkpt>
      <trkpt lat="43.68435" lon="5.83027">
        <ele>453</ele>
        <time>2016-03-12T10:30:37.361Z</time>
      </trkpt>
      <trkpt lat="43.68437" lon="5.83035">
        <ele>452</ele>
        <time>2016-03-12T10:30:38.340Z</time>
      </trkpt>
      <trkpt lat="43.68438" lon="5.83044">
        <ele>451</ele>
        <time>2016-03-12T10:30:39.362Z</time>
      </trkpt>
      <trkpt lat="43.68441" lon="5.83054">
        <ele>449</ele>
        <time>2016-03-12T10:30:40.338Z</time>
      </trkpt>
      <trkpt lat="43.68443" lon="5.83063">
        <ele>449</ele>
        <time>2016-03-12T10:30:41.367Z</time>
      </trkpt>
      <trkpt lat="43.68445" lon="5.83074">
        <ele>448</ele>
        <time>2016-03-12T10:30:42.340Z</time>
      </trkpt>
      <trkpt lat="43.68446" lon="5.83084">
        <ele>446</ele>
        <time>2016-03-12T10:30:43.367Z</time>
      </trkpt>
      <trkpt lat="43.68446" lon="5.83093">
        <ele>446</ele>
        <time>2016-03-12T10:30:44.340Z</time>
      </trkpt>
      <trkpt lat="43.68443" lon="5.83102">
        <ele>445</ele>
        <time>2016-03-12T10:30:45.366Z</time>
      </trkpt>
      <trkpt lat="43.68438" lon="5.83109">
        <ele>445</ele>
        <time>2016-03-12T10:30:46.336Z</time>
      </trkpt>
      <trkpt lat="43.68434" lon="5.83115">
        <ele>445</ele>
        <time>2016-03-12T10:30:47.352Z</time>
      </trkpt>
      <trkpt lat="43.68433" lon="5.83123">
        <ele>445</ele>
        <time>2016-03-12T10:30:48.346Z</time>
      </trkpt>
      <trkpt lat="43.68433" lon="5.83129">
        <ele>446</ele>
        <time>2016-03-12T10:30:49.362Z</time>
      </trkpt>
      <trkpt lat="43.68433" lon="5.83135">
        <ele>446</ele>
        <time>2016-03-12T10:30:50.336Z</time>
      </trkpt>
      <trkpt lat="43.68435" lon="5.83146">
        <ele>447</ele>
        <time>2016-03-12T10:30:52.370Z</time>
      </trkpt>
      <trkpt lat="43.68435" lon="5.83151">
        <ele>447</ele>
        <time>2016-03-12T10:30:53.336Z</time>
      </trkpt>
      <trkpt lat="43.68435" lon="5.83161">
        <ele>446</ele>
        <time>2016-03-12T10:30:55.449Z</time>
      </trkpt>
      <trkpt lat="43.68435" lon="5.83165">
        <ele>446</ele>
        <time>2016-03-12T10:30:56.340Z</time>
      </trkpt>
      <trkpt lat="43.68433" lon="5.83176">
        <ele>447</ele>
        <time>2016-03-12T10:30:59.443Z</time>
      </trkpt>
      <trkpt lat="43.68432" lon="5.8318">
        <ele>447</ele>
        <time>2016-03-12T10:31:00.347Z</time>
      </trkpt>
      <trkpt lat="43.68431" lon="5.83189">
        <ele>448</ele>
        <time>2016-03-12T10:31:02.362Z</time>
      </trkpt>
      <trkpt lat="43.68431" lon="5.83193">
        <ele>448</ele>
        <time>2016-03-12T10:31:03.341Z</time>
      </trkpt>
      <trkpt lat="43.68429" lon="5.83204">
        <ele>450</ele>
        <time>2016-03-12T10:31:06.370Z</time>
      </trkpt>
      <trkpt lat="43.68428" lon="5.83206">
        <ele>451</ele>
        <time>2016-03-12T10:31:07.336Z</time>
      </trkpt>
      <trkpt lat="43.6842" lon="5.83209">
        <ele>451</ele>
        <time>2016-03-12T10:31:12.368Z</time>
      </trkpt>
      <trkpt lat="43.68419" lon="5.83209">
        <ele>451</ele>
        <time>2016-03-12T10:31:13.342Z</time>
      </trkpt>
      <trkpt lat="43.68411" lon="5.83213">
        <ele>452</ele>
        <time>2016-03-12T10:31:19.363Z</time>
      </trkpt>
      <trkpt lat="43.6841" lon="5.83214">
        <ele>453</ele>
        <time>2016-03-12T10:31:20.362Z</time>
      </trkpt>
      <trkpt lat="43.68405" lon="5.83223">
        <ele>454</ele>
        <time>2016-03-12T10:31:25.366Z</time>
      </trkpt>
      <trkpt lat="43.68404" lon="5.83224">
        <ele>454</ele>
        <time>2016-03-12T10:31:26.340Z</time>
      </trkpt>
      <trkpt lat="43.68398" lon="5.83231">
        <ele>456</ele>
        <time>2016-03-12T10:31:32.363Z</time>
      </trkpt>
      <trkpt lat="43.68397" lon="5.83232">
        <ele>456</ele>
        <time>2016-03-12T10:31:33.351Z</time>
      </trkpt>
      <trkpt lat="43.68389" lon="5.83236">
        <ele>457</ele>
        <time>2016-03-12T10:31:39.369Z</time>
      </trkpt>
      <trkpt lat="43.68388" lon="5.83237">
        <ele>457</ele>
        <time>2016-03-12T10:31:40.340Z</time>
      </trkpt>
      <trkpt lat="43.68379" lon="5.83241">
        <ele>458</ele>
        <time>2016-03-12T10:31:46.361Z</time>
      </trkpt>
      <trkpt lat="43.68378" lon="5.83242">
        <ele>458</ele>
        <time>2016-03-12T10:31:47.339Z</time>
      </trkpt>
      <trkpt lat="43.6837" lon="5.83244">
        <ele>459</ele>
        <time>2016-03-12T10:31:52.396Z</time>
      </trkpt>
      <trkpt lat="43.68368" lon="5.83244">
        <ele>459</ele>
        <time>2016-03-12T10:31:53.341Z</time>
      </trkpt>
      <trkpt lat="43.6836" lon="5.83241">
        <ele>459</ele>
        <time>2016-03-12T10:31:58.376Z</time>
      </trkpt>
      <trkpt lat="43.68359" lon="5.8324">
        <ele>460</ele>
        <time>2016-03-12T10:31:59.340Z</time>
      </trkpt>
      <trkpt lat="43.68351" lon="5.83235">
        <ele>461</ele>
        <time>2016-03-12T10:32:05.370Z</time>
      </trkpt>
      <trkpt lat="43.6835" lon="5.83235">
        <ele>461</ele>
        <time>2016-03-12T10:32:06.340Z</time>
      </trkpt>
      <trkpt lat="43.68342" lon="5.83233">
        <ele>462</ele>
        <time>2016-03-12T10:32:13.392Z</time>
      </trkpt>
      <trkpt lat="43.68341" lon="5.83232">
        <ele>463</ele>
        <time>2016-03-12T10:32:14.340Z</time>
      </trkpt>
      <trkpt lat="43.68333" lon="5.8323">
        <ele>464</ele>
        <time>2016-03-12T10:32:21.369Z</time>
      </trkpt>
      <trkpt lat="43.68332" lon="5.8323">
        <ele>464</ele>
        <time>2016-03-12T10:32:22.338Z</time>
      </trkpt>
      <trkpt lat="43.68323" lon="5.83228">
        <ele>466</ele>
        <time>2016-03-12T10:32:29.369Z</time>
      </trkpt>
      <trkpt lat="43.68322" lon="5.83228">
        <ele>467</ele>
        <time>2016-03-12T10:32:30.339Z</time>
      </trkpt>
      <trkpt lat="43.68315" lon="5.83226">
        <ele>466</ele>
        <time>2016-03-12T10:32:35.367Z</time>
      </trkpt>
      <trkpt lat="43.68313" lon="5.83225">
        <ele>466</ele>
        <time>2016-03-12T10:32:36.340Z</time>
      </trkpt>
      <trkpt lat="43.68304" lon="5.83223">
        <ele>467</ele>
        <time>2016-03-12T10:32:41.366Z</time>
      </trkpt>
      <trkpt lat="43.68302" lon="5.83224">
        <ele>467</ele>
        <time>2016-03-12T10:32:42.340Z</time>
      </trkpt>
      <trkpt lat="43.68294" lon="5.83229">
        <ele>468</ele>
        <time>2016-03-12T10:32:47.363Z</time>
      </trkpt>
      <trkpt lat="43.68292" lon="5.8323">
        <ele>468</ele>
        <time>2016-03-12T10:32:48.340Z</time>
      </trkpt>
      <trkpt lat="43.68284" lon="5.83233">
        <ele>468</ele>
        <time>2016-03-12T10:32:52.370Z</time>
      </trkpt>
      <trkpt lat="43.68282" lon="5.83234">
        <ele>469</ele>
        <time>2016-03-12T10:32:53.336Z</time>
      </trkpt>
      <trkpt lat="43.68276" lon="5.83241">
        <ele>468</ele>
        <time>2016-03-12T10:32:57.373Z</time>
      </trkpt>
      <trkpt lat="43.68274" lon="5.83243">
        <ele>469</ele>
        <time>2016-03-12T10:32:58.340Z</time>
      </trkpt>
      <trkpt lat="43.68269" lon="5.8325">
        <ele>469</ele>
        <time>2016-03-12T10:33:02.376Z</time>
      </trkpt>
      <trkpt lat="43.68267" lon="5.83251">
        <ele>469</ele>
        <time>2016-03-12T10:33:03.341Z</time>
      </trkpt>
      <trkpt lat="43.68259" lon="5.83254">
        <ele>469</ele>
        <time>2016-03-12T10:33:07.367Z</time>
      </trkpt>
      <trkpt lat="43.68258" lon="5.83256">
        <ele>469</ele>
        <time>2016-03-12T10:33:08.337Z</time>
      </trkpt>
      <trkpt lat="43.68253" lon="5.83265">
        <ele>469</ele>
        <time>2016-03-12T10:33:12.403Z</time>
      </trkpt>
      <trkpt lat="43.68251" lon="5.83266">
        <ele>468</ele>
        <time>2016-03-12T10:33:13.336Z</time>
      </trkpt>
      <trkpt lat="43.68243" lon="5.83269">
        <ele>468</ele>
        <time>2016-03-12T10:33:16.370Z</time>
      </trkpt>
      <trkpt lat="43.6824" lon="5.8327">
        <ele>468</ele>
        <time>2016-03-12T10:33:17.351Z</time>
      </trkpt>
      <trkpt lat="43.68234" lon="5.83271">
        <ele>468</ele>
        <time>2016-03-12T10:33:19.361Z</time>
      </trkpt>
      <trkpt lat="43.68229" lon="5.83273">
        <ele>467</ele>
        <time>2016-03-12T10:33:20.340Z</time>
      </trkpt>
      <trkpt lat="43.68225" lon="5.83275">
        <ele>467</ele>
        <time>2016-03-12T10:33:21.366Z</time>
      </trkpt>
      <trkpt lat="43.6822" lon="5.83277">
        <ele>467</ele>
        <time>2016-03-12T10:33:22.340Z</time>
      </trkpt>
      <trkpt lat="43.68216" lon="5.83279">
        <ele>467</ele>
        <time>2016-03-12T10:33:23.362Z</time>
      </trkpt>
      <trkpt lat="43.68211" lon="5.8328">
        <ele>466</ele>
        <time>2016-03-12T10:33:24.341Z</time>
      </trkpt>
      <trkpt lat="43.68206" lon="5.83282">
        <ele>466</ele>
        <time>2016-03-12T10:33:25.370Z</time>
      </trkpt>
      <trkpt lat="43.68201" lon="5.83285">
        <ele>466</ele>
        <time>2016-03-12T10:33:26.340Z</time>
      </trkpt>
      <trkpt lat="43.68196" lon="5.83286">
        <ele>466</ele>
        <time>2016-03-12T10:33:27.368Z</time>
      </trkpt>
      <trkpt lat="43.68191" lon="5.83287">
        <ele>466</ele>
        <time>2016-03-12T10:33:28.339Z</time>
      </trkpt>
      <trkpt lat="43.68187" lon="5.83287">
        <ele>465</ele>
        <time>2016-03-12T10:33:29.348Z</time>
      </trkpt>
      <trkpt lat="43.68181" lon="5.83288">
        <ele>465</ele>
        <time>2016-03-12T10:33:30.336Z</time>
      </trkpt>
      <trkpt lat="43.68177" lon="5.83291">
        <ele>464</ele>
        <time>2016-03-12T10:33:31.401Z</time>
      </trkpt>
      <trkpt lat="43.68173" lon="5.83297">
        <ele>464</ele>
        <time>2016-03-12T10:33:32.351Z</time>
      </trkpt>
      <trkpt lat="43.6817" lon="5.83304">
        <ele>462</ele>
        <time>2016-03-12T10:33:33.389Z</time>
      </trkpt>
      <trkpt lat="43.68167" lon="5.8331">
        <ele>462</ele>
        <time>2016-03-12T10:33:34.341Z</time>
      </trkpt>
      <trkpt lat="43.68165" lon="5.83321">
        <ele>460</ele>
        <time>2016-03-12T10:33:36.372Z</time>
      </trkpt>
      <trkpt lat="43.68166" lon="5.83327">
        <ele>459</ele>
        <time>2016-03-12T10:33:37.341Z</time>
      </trkpt>
      <trkpt lat="43.68169" lon="5.83334">
        <ele>458</ele>
        <time>2016-03-12T10:33:38.381Z</time>
      </trkpt>
      <trkpt lat="43.68173" lon="5.8334">
        <ele>457</ele>
        <time>2016-03-12T10:33:39.340Z</time>
      </trkpt>
      <trkpt lat="43.68176" lon="5.83348">
        <ele>456</ele>
        <time>2016-03-12T10:33:40.366Z</time>
      </trkpt>
      <trkpt lat="43.68179" lon="5.83357">
        <ele>454</ele>
        <time>2016-03-12T10:33:41.339Z</time>
      </trkpt>
      <trkpt lat="43.68182" lon="5.83365">
        <ele>454</ele>
        <time>2016-03-12T10:33:42.370Z</time>
      </trkpt>
      <trkpt lat="43.68186" lon="5.83373">
        <ele>453</ele>
        <time>2016-03-12T10:33:43.341Z</time>
      </trkpt>
      <trkpt lat="43.68189" lon="5.8338">
        <ele>452</ele>
        <time>2016-03-12T10:33:44.399Z</time>
      </trkpt>
      <trkpt lat="43.68191" lon="5.83387">
        <ele>452</ele>
        <time>2016-03-12T10:33:45.341Z</time>
      </trkpt>
      <trkpt lat="43.68193" lon="5.83396">
        <ele>451</ele>
        <time>2016-03-12T10:33:46.379Z</time>
      </trkpt>
      <trkpt lat="43.68197" lon="5.83404">
        <ele>450</ele>
        <time>2016-03-12T10:33:47.336Z</time>
      </trkpt>
      <trkpt lat="43.682" lon="5.83411">
        <ele>449</ele>
        <time>2016-03-12T10:33:48.368Z</time>
      </trkpt>
      <trkpt lat="43.68204" lon="5.8342">
        <ele>447</ele>
        <time>2016-03-12T10:33:49.340Z</time>
      </trkpt>
      <trkpt lat="43.68206" lon="5.83429">
        <ele>446</ele>
        <time>2016-03-12T10:33:50.366Z</time>
      </trkpt>
      <trkpt lat="43.68208" lon="5.83439">
        <ele>445</ele>
        <time>2016-03-12T10:33:51.341Z</time>
      </trkpt>
      <trkpt lat="43.68211" lon="5.83449">
        <ele>444</ele>
        <time>2016-03-12T10:33:52.366Z</time>
      </trkpt>
      <trkpt lat="43.68213" lon="5.83457">
        <ele>444</ele>
        <time>2016-03-12T10:33:53.340Z</time>
      </trkpt>
      <trkpt lat="43.68213" lon="5.83465">
        <ele>443</ele>
        <time>2016-03-12T10:33:54.395Z</time>
      </trkpt>
      <trkpt lat="43.68213" lon="5.83474">
        <ele>442</ele>
        <time>2016-03-12T10:33:55.342Z</time>
      </trkpt>
      <trkpt lat="43.68215" lon="5.83482">
        <ele>441</ele>
        <time>2016-03-12T10:33:56.364Z</time>
      </trkpt>
      <trkpt lat="43.68217" lon="5.83491">
        <ele>441</ele>
        <time>2016-03-12T10:33:57.351Z</time>
      </trkpt>
      <trkpt lat="43.68219" lon="5.83499">
        <ele>441</ele>
        <time>2016-03-12T10:33:58.367Z</time>
      </trkpt>
      <trkpt lat="43.6822" lon="5.83506">
        <ele>438</ele>
        <time>2016-03-12T10:33:59.340Z</time>
      </trkpt>
      <trkpt lat="43.68225" lon="5.83515">
        <ele>438</ele>
        <time>2016-03-12T10:34:01.369Z</time>
      </trkpt>
      <trkpt lat="43.68229" lon="5.83518">
        <ele>439</ele>
        <time>2016-03-12T10:34:02.340Z</time>
      </trkpt>
      <trkpt lat="43.68235" lon="5.8352">
        <ele>439</ele>
        <time>2016-03-12T10:34:04.367Z</time>
      </trkpt>
      <trkpt lat="43.68239" lon="5.83522">
        <ele>439</ele>
        <time>2016-03-12T10:34:05.342Z</time>
      </trkpt>
      <trkpt lat="43.68243" lon="5.83528">
        <ele>440</ele>
        <time>2016-03-12T10:34:07.366Z</time>
      </trkpt>
      <trkpt lat="43.68246" lon="5.83531">
        <ele>440</ele>
        <time>2016-03-12T10:34:08.340Z</time>
      </trkpt>
      <trkpt lat="43.68243" lon="5.83542">
        <ele>439</ele>
        <time>2016-03-12T10:34:12.369Z</time>
      </trkpt>
      <trkpt lat="43.68241" lon="5.83547">
        <ele>437</ele>
        <time>2016-03-12T10:34:13.343Z</time>
      </trkpt>
      <trkpt lat="43.6824" lon="5.83553">
        <ele>437</ele>
        <time>2016-03-12T10:34:14.367Z</time>
      </trkpt>
      <trkpt lat="43.68242" lon="5.83561">
        <ele>436</ele>
        <time>2016-03-12T10:34:15.339Z</time>
      </trkpt>
      <trkpt lat="43.68241" lon="5.83566">
        <ele>437</ele>
        <time>2016-03-12T10:34:16.533Z</time>
      </trkpt>
      <trkpt lat="43.68238" lon="5.83573">
        <ele>436</ele>
        <time>2016-03-12T10:34:17.336Z</time>
      </trkpt>
      <trkpt lat="43.68236" lon="5.83581">
        <ele>436</ele>
        <time>2016-03-12T10:34:18.353Z</time>
      </trkpt>
      <trkpt lat="43.68236" lon="5.83587">
        <ele>435</ele>
        <time>2016-03-12T10:34:19.340Z</time>
      </trkpt>
      <trkpt lat="43.68234" lon="5.83593">
        <ele>435</ele>
        <time>2016-03-12T10:34:20.367Z</time>
      </trkpt>
      <trkpt lat="43.68229" lon="5.83602">
        <ele>435</ele>
        <time>2016-03-12T10:34:21.340Z</time>
      </trkpt>
      <trkpt lat="43.68227" lon="5.83609">
        <ele>435</ele>
        <time>2016-03-12T10:34:22.358Z</time>
      </trkpt>
      <trkpt lat="43.68225" lon="5.83618">
        <ele>434</ele>
        <time>2016-03-12T10:34:23.341Z</time>
      </trkpt>
      <trkpt lat="43.68223" lon="5.83626">
        <ele>434</ele>
        <time>2016-03-12T10:34:24.347Z</time>
      </trkpt>
      <trkpt lat="43.6822" lon="5.83631">
        <ele>434</ele>
        <time>2016-03-12T10:34:25.340Z</time>
      </trkpt>
      <trkpt lat="43.68214" lon="5.83638">
        <ele>434</ele>
        <time>2016-03-12T10:34:27.373Z</time>
      </trkpt>
      <trkpt lat="43.6821" lon="5.83645">
        <ele>433</ele>
        <time>2016-03-12T10:34:28.339Z</time>
      </trkpt>
      <trkpt lat="43.68207" lon="5.83652">
        <ele>434</ele>
        <time>2016-03-12T10:34:29.365Z</time>
      </trkpt>
      <trkpt lat="43.68204" lon="5.83657">
        <ele>433</ele>
        <time>2016-03-12T10:34:30.336Z</time>
      </trkpt>
      <trkpt lat="43.68201" lon="5.83664">
        <ele>433</ele>
        <time>2016-03-12T10:34:31.367Z</time>
      </trkpt>
      <trkpt lat="43.68199" lon="5.83671">
        <ele>433</ele>
        <time>2016-03-12T10:34:32.339Z</time>
      </trkpt>
      <trkpt lat="43.68195" lon="5.8368">
        <ele>433</ele>
        <time>2016-03-12T10:34:34.366Z</time>
      </trkpt>
      <trkpt lat="43.68193" lon="5.83684">
        <ele>434</ele>
        <time>2016-03-12T10:34:35.339Z</time>
      </trkpt>
      <trkpt lat="43.68187" lon="5.83687">
        <ele>435</ele>
        <time>2016-03-12T10:34:38.362Z</time>
      </trkpt>
      <trkpt lat="43.68184" lon="5.83689">
        <ele>435</ele>
        <time>2016-03-12T10:34:39.340Z</time>
      </trkpt>
      <trkpt lat="43.68176" lon="5.83691">
        <ele>434</ele>
        <time>2016-03-12T10:34:42.367Z</time>
      </trkpt>
      <trkpt lat="43.68174" lon="5.83691">
        <ele>435</ele>
        <time>2016-03-12T10:34:43.343Z</time>
      </trkpt>
      <trkpt lat="43.68165" lon="5.8369">
        <ele>435</ele>
        <time>2016-03-12T10:34:47.363Z</time>
      </trkpt>
      <trkpt lat="43.68162" lon="5.8369">
        <ele>434</ele>
        <time>2016-03-12T10:34:48.340Z</time>
      </trkpt>
      <trkpt lat="43.68154" lon="5.83688">
        <ele>435</ele>
        <time>2016-03-12T10:34:51.371Z</time>
      </trkpt>
      <trkpt lat="43.68151" lon="5.83689">
        <ele>435</ele>
        <time>2016-03-12T10:34:52.337Z</time>
      </trkpt>
      <trkpt lat="43.68143" lon="5.8369">
        <ele>436</ele>
        <time>2016-03-12T10:34:55.364Z</time>
      </trkpt>
      <trkpt lat="43.68141" lon="5.8369">
        <ele>436</ele>
        <time>2016-03-12T10:34:56.359Z</time>
      </trkpt>
      <trkpt lat="43.68134" lon="5.83687">
        <ele>437</ele>
        <time>2016-03-12T10:34:59.367Z</time>
      </trkpt>
      <trkpt lat="43.68132" lon="5.83686">
        <ele>437</ele>
        <time>2016-03-12T10:35:00.337Z</time>
      </trkpt>
      <trkpt lat="43.68124" lon="5.83683">
        <ele>437</ele>
        <time>2016-03-12T10:35:04.397Z</time>
      </trkpt>
      <trkpt lat="43.68122" lon="5.83683">
        <ele>437</ele>
        <time>2016-03-12T10:35:05.340Z</time>
      </trkpt>
      <trkpt lat="43.68115" lon="5.83685">
        <ele>438</ele>
        <time>2016-03-12T10:35:09.370Z</time>
      </trkpt>
      <trkpt lat="43.68113" lon="5.83685">
        <ele>438</ele>
        <time>2016-03-12T10:35:10.340Z</time>
      </trkpt>
      <trkpt lat="43.68107" lon="5.83692">
        <ele>438</ele>
        <time>2016-03-12T10:35:15.369Z</time>
      </trkpt>
      <trkpt lat="43.68106" lon="5.83694">
        <ele>439</ele>
        <time>2016-03-12T10:35:16.341Z</time>
      </trkpt>
      <trkpt lat="43.68101" lon="5.83702">
        <ele>440</ele>
        <time>2016-03-12T10:35:23.369Z</time>
      </trkpt>
      <trkpt lat="43.681" lon="5.83703">
        <ele>440</ele>
        <time>2016-03-12T10:35:24.340Z</time>
      </trkpt>
      <trkpt lat="43.68093" lon="5.8371">
        <ele>440</ele>
        <time>2016-03-12T10:35:35.368Z</time>
      </trkpt>
      <trkpt lat="43.68091" lon="5.83712">
        <ele>440</ele>
        <time>2016-03-12T10:35:36.369Z</time>
      </trkpt>
      <trkpt lat="43.68087" lon="5.83721">
        <ele>442</ele>
        <time>2016-03-12T10:35:41.367Z</time>
      </trkpt>
      <trkpt lat="43.68086" lon="5.83722">
        <ele>442</ele>
        <time>2016-03-12T10:35:42.342Z</time>
      </trkpt>
      <trkpt lat="43.6808" lon="5.83731">
        <ele>442</ele>
        <time>2016-03-12T10:35:48.368Z</time>
      </trkpt>
      <trkpt lat="43.68079" lon="5.83733">
        <ele>442</ele>
        <time>2016-03-12T10:35:49.336Z</time>
      </trkpt>
      <trkpt lat="43.68073" lon="5.83742">
        <ele>443</ele>
        <time>2016-03-12T10:35:55.362Z</time>
      </trkpt>
      <trkpt lat="43.68072" lon="5.83744">
        <ele>443</ele>
        <time>2016-03-12T10:35:56.341Z</time>
      </trkpt>
      <trkpt lat="43.68067" lon="5.83752">
        <ele>444</ele>
        <time>2016-03-12T10:36:01.368Z</time>
      </trkpt>
      <trkpt lat="43.68066" lon="5.83754">
        <ele>444</ele>
        <time>2016-03-12T10:36:02.340Z</time>
      </trkpt>
      <trkpt lat="43.68059" lon="5.83762">
        <ele>445</ele>
        <time>2016-03-12T10:36:07.371Z</time>
      </trkpt>
      <trkpt lat="43.68058" lon="5.83764">
        <ele>444</ele>
        <time>2016-03-12T10:36:08.337Z</time>
      </trkpt>
      <trkpt lat="43.68052" lon="5.83771">
        <ele>445</ele>
        <time>2016-03-12T10:36:13.369Z</time>
      </trkpt>
      <trkpt lat="43.68051" lon="5.83773">
        <ele>445</ele>
        <time>2016-03-12T10:36:14.371Z</time>
      </trkpt>
      <trkpt lat="43.68048" lon="5.83782">
        <ele>446</ele>
        <time>2016-03-12T10:36:19.367Z</time>
      </trkpt>
      <trkpt lat="43.68047" lon="5.83784">
        <ele>446</ele>
        <time>2016-03-12T10:36:20.341Z</time>
      </trkpt>
      <trkpt lat="43.6804" lon="5.8379">
        <ele>446</ele>
        <time>2016-03-12T10:36:25.367Z</time>
      </trkpt>
      <trkpt lat="43.68038" lon="5.83791">
        <ele>445</ele>
        <time>2016-03-12T10:36:26.353Z</time>
      </trkpt>
      <trkpt lat="43.68033" lon="5.83793">
        <ele>445</ele>
        <time>2016-03-12T10:36:28.367Z</time>
      </trkpt>
      <trkpt lat="43.68029" lon="5.83794">
        <ele>445</ele>
        <time>2016-03-12T10:36:29.341Z</time>
      </trkpt>
      <trkpt lat="43.68022" lon="5.83794">
        <ele>444</ele>
        <time>2016-03-12T10:36:31.367Z</time>
      </trkpt>
      <trkpt lat="43.68018" lon="5.83795">
        <ele>444</ele>
        <time>2016-03-12T10:36:32.341Z</time>
      </trkpt>
      <trkpt lat="43.68011" lon="5.83799">
        <ele>444</ele>
        <time>2016-03-12T10:36:34.377Z</time>
      </trkpt>
      <trkpt lat="43.68008" lon="5.83799">
        <ele>444</ele>
        <time>2016-03-12T10:36:35.335Z</time>
      </trkpt>
      <trkpt lat="43.68" lon="5.838">
        <ele>444</ele>
        <time>2016-03-12T10:36:37.368Z</time>
      </trkpt>
      <trkpt lat="43.67998" lon="5.83799">
        <ele>444</ele>
        <time>2016-03-12T10:36:38.342Z</time>
      </trkpt>
      <trkpt lat="43.67991" lon="5.83799">
        <ele>443</ele>
        <time>2016-03-12T10:36:41.367Z</time>
      </trkpt>
      <trkpt lat="43.67989" lon="5.83798">
        <ele>443</ele>
        <time>2016-03-12T10:36:42.337Z</time>
      </trkpt>
      <trkpt lat="43.67981" lon="5.83796">
        <ele>443</ele>
        <time>2016-03-12T10:36:46.395Z</time>
      </trkpt>
      <trkpt lat="43.67979" lon="5.83795">
        <ele>443</ele>
        <time>2016-03-12T10:36:47.338Z</time>
      </trkpt>
      <trkpt lat="43.67971" lon="5.83789">
        <ele>443</ele>
        <time>2016-03-12T10:36:51.368Z</time>
      </trkpt>
      <trkpt lat="43.6797" lon="5.83788">
        <ele>443</ele>
        <time>2016-03-12T10:36:52.342Z</time>
      </trkpt>
      <trkpt lat="43.67963" lon="5.83781">
        <ele>444</ele>
        <time>2016-03-12T10:36:56.374Z</time>
      </trkpt>
      <trkpt lat="43.67962" lon="5.83779">
        <ele>444</ele>
        <time>2016-03-12T10:36:57.370Z</time>
      </trkpt>
      <trkpt lat="43.67958" lon="5.8377">
        <ele>446</ele>
        <time>2016-03-12T10:37:02.375Z</time>
      </trkpt>
      <trkpt lat="43.67957" lon="5.83768">
        <ele>446</ele>
        <time>2016-03-12T10:37:03.337Z</time>
      </trkpt>
      <trkpt lat="43.67951" lon="5.83761">
        <ele>447</ele>
        <time>2016-03-12T10:37:08.360Z</time>
      </trkpt>
      <trkpt lat="43.67949" lon="5.8376">
        <ele>447</ele>
        <time>2016-03-12T10:37:09.337Z</time>
      </trkpt>
      <trkpt lat="43.67941" lon="5.8376">
        <ele>447</ele>
        <time>2016-03-12T10:37:13.368Z</time>
      </trkpt>
      <trkpt lat="43.67939" lon="5.8376">
        <ele>447</ele>
        <time>2016-03-12T10:37:14.341Z</time>
      </trkpt>
      <trkpt lat="43.67932" lon="5.83764">
        <ele>447</ele>
        <time>2016-03-12T10:37:17.364Z</time>
      </trkpt>
      <trkpt lat="43.6793" lon="5.83766">
        <ele>447</ele>
        <time>2016-03-12T10:37:18.369Z</time>
      </trkpt>
      <trkpt lat="43.67924" lon="5.83771">
        <ele>447</ele>
        <time>2016-03-12T10:37:21.372Z</time>
      </trkpt>
      <trkpt lat="43.67922" lon="5.83773">
        <ele>448</ele>
        <time>2016-03-12T10:37:22.340Z</time>
      </trkpt>
      <trkpt lat="43.67915" lon="5.83777">
        <ele>448</ele>
        <time>2016-03-12T10:37:25.371Z</time>
      </trkpt>
      <trkpt lat="43.67913" lon="5.83778">
        <ele>448</ele>
        <time>2016-03-12T10:37:26.341Z</time>
      </trkpt>
      <trkpt lat="43.67906" lon="5.83782">
        <ele>448</ele>
        <time>2016-03-12T10:37:29.357Z</time>
      </trkpt>
      <trkpt lat="43.67903" lon="5.83783">
        <ele>448</ele>
        <time>2016-03-12T10:37:30.341Z</time>
      </trkpt>
      <trkpt lat="43.67895" lon="5.83786">
        <ele>448</ele>
        <time>2016-03-12T10:37:33.599Z</time>
      </trkpt>
      <trkpt lat="43.67893" lon="5.83786">
        <ele>449</ele>
        <time>2016-03-12T10:37:34.369Z</time>
      </trkpt>
      <trkpt lat="43.67885" lon="5.83788">
        <ele>448</ele>
        <time>2016-03-12T10:37:37.371Z</time>
      </trkpt>
      <trkpt lat="43.67882" lon="5.83789">
        <ele>448</ele>
        <time>2016-03-12T10:37:38.352Z</time>
      </trkpt>
      <trkpt lat="43.67874" lon="5.8379">
        <ele>448</ele>
        <time>2016-03-12T10:37:41.370Z</time>
      </trkpt>
      <trkpt lat="43.67871" lon="5.83791">
        <ele>448</ele>
        <time>2016-03-12T10:37:42.352Z</time>
      </trkpt>
      <trkpt lat="43.67863" lon="5.83794">
        <ele>448</ele>
        <time>2016-03-12T10:37:45.397Z</time>
      </trkpt>
      <trkpt lat="43.6786" lon="5.83795">
        <ele>449</ele>
        <time>2016-03-12T10:37:46.569Z</time>
      </trkpt>
      <trkpt lat="43.67854" lon="5.83796">
        <ele>449</ele>
        <time>2016-03-12T10:37:48.368Z</time>
      </trkpt>
      <trkpt lat="43.67851" lon="5.83797">
        <ele>449</ele>
        <time>2016-03-12T10:37:49.342Z</time>
      </trkpt>
      <trkpt lat="43.67845" lon="5.83801">
        <ele>448</ele>
        <time>2016-03-12T10:37:51.367Z</time>
      </trkpt>
      <trkpt lat="43.67843" lon="5.83803">
        <ele>448</ele>
        <time>2016-03-12T10:37:52.342Z</time>
      </trkpt>
      <trkpt lat="43.67837" lon="5.8381">
        <ele>448</ele>
        <time>2016-03-12T10:37:54.369Z</time>
      </trkpt>
      <trkpt lat="43.67834" lon="5.83814">
        <ele>448</ele>
        <time>2016-03-12T10:37:55.340Z</time>
      </trkpt>
      <trkpt lat="43.6783" lon="5.83823">
        <ele>448</ele>
        <time>2016-03-12T10:37:57.430Z</time>
      </trkpt>
      <trkpt lat="43.67829" lon="5.83828">
        <ele>447</ele>
        <time>2016-03-12T10:37:58.337Z</time>
      </trkpt>
      <trkpt lat="43.67828" lon="5.83838">
        <ele>447</ele>
        <time>2016-03-12T10:38:00.362Z</time>
      </trkpt>
      <trkpt lat="43.67827" lon="5.83843">
        <ele>447</ele>
        <time>2016-03-12T10:38:01.369Z</time>
      </trkpt>
      <trkpt lat="43.67826" lon="5.83852">
        <ele>448</ele>
        <time>2016-03-12T10:38:03.364Z</time>
      </trkpt>
      <trkpt lat="43.67825" lon="5.83856">
        <ele>448</ele>
        <time>2016-03-12T10:38:04.342Z</time>
      </trkpt>
      <trkpt lat="43.67821" lon="5.83867">
        <ele>448</ele>
        <time>2016-03-12T10:38:07.363Z</time>
      </trkpt>
      <trkpt lat="43.6782" lon="5.83871">
        <ele>448</ele>
        <time>2016-03-12T10:38:08.341Z</time>
      </trkpt>
      <trkpt lat="43.67817" lon="5.83879">
        <ele>448</ele>
        <time>2016-03-12T10:38:10.361Z</time>
      </trkpt>
      <trkpt lat="43.67815" lon="5.83882">
        <ele>448</ele>
        <time>2016-03-12T10:38:11.340Z</time>
      </trkpt>
      <trkpt lat="43.67811" lon="5.83893">
        <ele>448</ele>
        <time>2016-03-12T10:38:14.368Z</time>
      </trkpt>
      <trkpt lat="43.6781" lon="5.83897">
        <ele>448</ele>
        <time>2016-03-12T10:38:15.342Z</time>
      </trkpt>
      <trkpt lat="43.67807" lon="5.83904">
        <ele>449</ele>
        <time>2016-03-12T10:38:17.399Z</time>
      </trkpt>
      <trkpt lat="43.67806" lon="5.83908">
        <ele>449</ele>
        <time>2016-03-12T10:38:18.341Z</time>
      </trkpt>
      <trkpt lat="43.67805" lon="5.8392">
        <ele>448</ele>
        <time>2016-03-12T10:38:21.362Z</time>
      </trkpt>
      <trkpt lat="43.67805" lon="5.83923">
        <ele>448</ele>
        <time>2016-03-12T10:38:22.341Z</time>
      </trkpt>
      <trkpt lat="43.67803" lon="5.83935">
        <ele>448</ele>
        <time>2016-03-12T10:38:25.368Z</time>
      </trkpt>
      <trkpt lat="43.67802" lon="5.83938">
        <ele>449</ele>
        <time>2016-03-12T10:38:26.340Z</time>
      </trkpt>
      <trkpt lat="43.67798" lon="5.83947">
        <ele>450</ele>
        <time>2016-03-12T10:38:29.367Z</time>
      </trkpt>
      <trkpt lat="43.67796" lon="5.83949">
        <ele>450</ele>
        <time>2016-03-12T10:38:30.342Z</time>
      </trkpt>
      <trkpt lat="43.67791" lon="5.83956">
        <ele>451</ele>
        <time>2016-03-12T10:38:33.399Z</time>
      </trkpt>
      <trkpt lat="43.67788" lon="5.83959">
        <ele>452</ele>
        <time>2016-03-12T10:38:34.338Z</time>
      </trkpt>
      <trkpt lat="43.67784" lon="5.83964">
        <ele>452</ele>
        <time>2016-03-12T10:38:36.369Z</time>
      </trkpt>
      <trkpt lat="43.67781" lon="5.83966">
        <ele>452</ele>
        <time>2016-03-12T10:38:37.340Z</time>
      </trkpt>
      <trkpt lat="43.67776" lon="5.83972">
        <ele>451</ele>
        <time>2016-03-12T10:38:39.373Z</time>
      </trkpt>
      <trkpt lat="43.67774" lon="5.83975">
        <ele>451</ele>
        <time>2016-03-12T10:38:40.342Z</time>
      </trkpt>
      <trkpt lat="43.67767" lon="5.83983">
        <ele>451</ele>
        <time>2016-03-12T10:38:43.373Z</time>
      </trkpt>
      <trkpt lat="43.67765" lon="5.83985">
        <ele>452</ele>
        <time>2016-03-12T10:38:44.338Z</time>
      </trkpt>
      <trkpt lat="43.67758" lon="5.83992">
        <ele>452</ele>
        <time>2016-03-12T10:38:47.364Z</time>
      </trkpt>
      <trkpt lat="43.67756" lon="5.83994">
        <ele>452</ele>
        <time>2016-03-12T10:38:48.337Z</time>
      </trkpt>
      <trkpt lat="43.67748" lon="5.84">
        <ele>453</ele>
        <time>2016-03-12T10:38:51.371Z</time>
      </trkpt>
      <trkpt lat="43.67746" lon="5.84001">
        <ele>453</ele>
        <time>2016-03-12T10:38:52.342Z</time>
      </trkpt>
      <trkpt lat="43.67738" lon="5.84002">
        <ele>453</ele>
        <time>2016-03-12T10:38:55.369Z</time>
      </trkpt>
      <trkpt lat="43.67735" lon="5.84002">
        <ele>453</ele>
        <time>2016-03-12T10:38:56.336Z</time>
      </trkpt>
      <trkpt lat="43.67727" lon="5.84001">
        <ele>455</ele>
        <time>2016-03-12T10:39:00.400Z</time>
      </trkpt>
      <trkpt lat="43.67724" lon="5.84">
        <ele>455</ele>
        <time>2016-03-12T10:39:01.340Z</time>
      </trkpt>
      <trkpt lat="43.67717" lon="5.84">
        <ele>455</ele>
        <time>2016-03-12T10:39:04.367Z</time>
      </trkpt>
      <trkpt lat="43.67715" lon="5.84">
        <ele>455</ele>
        <time>2016-03-12T10:39:05.341Z</time>
      </trkpt>
      <trkpt lat="43.67708" lon="5.84">
        <ele>456</ele>
        <time>2016-03-12T10:39:08.367Z</time>
      </trkpt>
      <trkpt lat="43.67705" lon="5.84">
        <ele>455</ele>
        <time>2016-03-12T10:39:09.341Z</time>
      </trkpt>
      <trkpt lat="43.67696" lon="5.84">
        <ele>457</ele>
        <time>2016-03-12T10:39:13.432Z</time>
      </trkpt>
      <trkpt lat="43.67694" lon="5.84001">
        <ele>456</ele>
        <time>2016-03-12T10:39:14.341Z</time>
      </trkpt>
      <trkpt lat="43.67687" lon="5.84003">
        <ele>456</ele>
        <time>2016-03-12T10:39:17.367Z</time>
      </trkpt>
      <trkpt lat="43.67685" lon="5.84005">
        <ele>456</ele>
        <time>2016-03-12T10:39:18.342Z</time>
      </trkpt>
      <trkpt lat="43.67679" lon="5.84012">
        <ele>456</ele>
        <time>2016-03-12T10:39:21.368Z</time>
      </trkpt>
      <trkpt lat="43.67677" lon="5.84015">
        <ele>456</ele>
        <time>2016-03-12T10:39:22.341Z</time>
      </trkpt>
      <trkpt lat="43.67671" lon="5.84022">
        <ele>456</ele>
        <time>2016-03-12T10:39:25.367Z</time>
      </trkpt>
      <trkpt lat="43.67669" lon="5.84025">
        <ele>456</ele>
        <time>2016-03-12T10:39:26.365Z</time>
      </trkpt>
      <trkpt lat="43.67665" lon="5.84031">
        <ele>457</ele>
        <time>2016-03-12T10:39:28.367Z</time>
      </trkpt>
      <trkpt lat="43.67663" lon="5.84034">
        <ele>457</ele>
        <time>2016-03-12T10:39:29.342Z</time>
      </trkpt>
      <trkpt lat="43.67657" lon="5.84043">
        <ele>457</ele>
        <time>2016-03-12T10:39:32.358Z</time>
      </trkpt>
      <trkpt lat="43.67655" lon="5.84045">
        <ele>457</ele>
        <time>2016-03-12T10:39:33.341Z</time>
      </trkpt>
      <trkpt lat="43.67648" lon="5.84052">
        <ele>458</ele>
        <time>2016-03-12T10:39:37.367Z</time>
      </trkpt>
      <trkpt lat="43.67646" lon="5.84053">
        <ele>459</ele>
        <time>2016-03-12T10:39:38.341Z</time>
      </trkpt>
      <trkpt lat="43.67638" lon="5.84059">
        <ele>459</ele>
        <time>2016-03-12T10:39:43.367Z</time>
      </trkpt>
      <trkpt lat="43.67636" lon="5.84061">
        <ele>459</ele>
        <time>2016-03-12T10:39:44.337Z</time>
      </trkpt>
      <trkpt lat="43.67629" lon="5.84066">
        <ele>459</ele>
        <time>2016-03-12T10:39:48.367Z</time>
      </trkpt>
      <trkpt lat="43.67627" lon="5.84067">
        <ele>459</ele>
        <time>2016-03-12T10:39:49.342Z</time>
      </trkpt>
      <trkpt lat="43.6762" lon="5.84071">
        <ele>459</ele>
        <time>2016-03-12T10:39:53.400Z</time>
      </trkpt>
      <trkpt lat="43.67618" lon="5.84072">
        <ele>460</ele>
        <time>2016-03-12T10:39:54.341Z</time>
      </trkpt>
      <trkpt lat="43.67611" lon="5.84074">
        <ele>460</ele>
        <time>2016-03-12T10:39:58.368Z</time>
      </trkpt>
      <trkpt lat="43.67609" lon="5.84075">
        <ele>460</ele>
        <time>2016-03-12T10:39:59.342Z</time>
      </trkpt>
      <trkpt lat="43.67601" lon="5.84078">
        <ele>461</ele>
        <time>2016-03-12T10:40:04.362Z</time>
      </trkpt>
      <trkpt lat="43.67599" lon="5.84078">
        <ele>460</ele>
        <time>2016-03-12T10:40:05.341Z</time>
      </trkpt>
      <trkpt lat="43.67591" lon="5.84081">
        <ele>461</ele>
        <time>2016-03-12T10:40:10.357Z</time>
      </trkpt>
      <trkpt lat="43.6759" lon="5.84082">
        <ele>461</ele>
        <time>2016-03-12T10:40:11.337Z</time>
      </trkpt>
      <trkpt lat="43.67583" lon="5.84088">
        <ele>463</ele>
        <time>2016-03-12T10:40:16.363Z</time>
      </trkpt>
      <trkpt lat="43.67582" lon="5.8409">
        <ele>463</ele>
        <time>2016-03-12T10:40:17.337Z</time>
      </trkpt>
      <trkpt lat="43.67586" lon="5.84099">
        <ele>464</ele>
        <time>2016-03-12T10:40:23.363Z</time>
      </trkpt>
      <trkpt lat="43.67587" lon="5.84101">
        <ele>464</ele>
        <time>2016-03-12T10:40:24.341Z</time>
      </trkpt>
      <trkpt lat="43.67591" lon="5.8411">
        <ele>464</ele>
        <time>2016-03-12T10:40:30.368Z</time>
      </trkpt>
      <trkpt lat="43.67592" lon="5.84112">
        <ele>464</ele>
        <time>2016-03-12T10:40:31.341Z</time>
      </trkpt>
      <trkpt lat="43.67592" lon="5.84124">
        <ele>464</ele>
        <time>2016-03-12T10:40:37.446Z</time>
      </trkpt>
      <trkpt lat="43.67592" lon="5.84126">
        <ele>464</ele>
        <time>2016-03-12T10:40:38.344Z</time>
      </trkpt>
      <trkpt lat="43.67586" lon="5.84135">
        <ele>468</ele>
        <time>2016-03-12T10:40:45.369Z</time>
      </trkpt>
      <trkpt lat="43.67585" lon="5.84136">
        <ele>468</ele>
        <time>2016-03-12T10:40:46.341Z</time>
      </trkpt>
      <trkpt lat="43.67579" lon="5.84143">
        <ele>469</ele>
        <time>2016-03-12T10:40:51.368Z</time>
      </trkpt>
      <trkpt lat="43.67578" lon="5.84145">
        <ele>469</ele>
        <time>2016-03-12T10:40:52.342Z</time>
      </trkpt>
      <trkpt lat="43.67573" lon="5.84153">
        <ele>468</ele>
        <time>2016-03-12T10:40:57.348Z</time>
      </trkpt>
      <trkpt lat="43.67572" lon="5.84155">
        <ele>469</ele>
        <time>2016-03-12T10:40:58.341Z</time>
      </trkpt>
      <trkpt lat="43.67567" lon="5.84162">
        <ele>470</ele>
        <time>2016-03-12T10:41:03.362Z</time>
      </trkpt>
      <trkpt lat="43.67566" lon="5.84164">
        <ele>470</ele>
        <time>2016-03-12T10:41:04.336Z</time>
      </trkpt>
      <trkpt lat="43.6756" lon="5.84172">
        <ele>471</ele>
        <time>2016-03-12T10:41:09.363Z</time>
      </trkpt>
      <trkpt lat="43.67559" lon="5.84174">
        <ele>471</ele>
        <time>2016-03-12T10:41:10.340Z</time>
      </trkpt>
      <trkpt lat="43.67554" lon="5.84183">
        <ele>472</ele>
        <time>2016-03-12T10:41:16.369Z</time>
      </trkpt>
      <trkpt lat="43.67552" lon="5.84184">
        <ele>472</ele>
        <time>2016-03-12T10:41:17.342Z</time>
      </trkpt>
      <trkpt lat="43.67546" lon="5.84192">
        <ele>474</ele>
        <time>2016-03-12T10:41:23.363Z</time>
      </trkpt>
      <trkpt lat="43.67545" lon="5.84193">
        <ele>475</ele>
        <time>2016-03-12T10:41:24.352Z</time>
      </trkpt>
      <trkpt lat="43.67538" lon="5.84201">
        <ele>475</ele>
        <time>2016-03-12T10:41:30.370Z</time>
      </trkpt>
      <trkpt lat="43.67537" lon="5.84202">
        <ele>476</ele>
        <time>2016-03-12T10:41:31.343Z</time>
      </trkpt>
      <trkpt lat="43.67532" lon="5.8421">
        <ele>478</ele>
        <time>2016-03-12T10:41:37.364Z</time>
      </trkpt>
      <trkpt lat="43.67531" lon="5.84211">
        <ele>478</ele>
        <time>2016-03-12T10:41:38.340Z</time>
      </trkpt>
      <trkpt lat="43.67525" lon="5.8422">
        <ele>477</ele>
        <time>2016-03-12T10:41:44.368Z</time>
      </trkpt>
      <trkpt lat="43.67524" lon="5.84221">
        <ele>477</ele>
        <time>2016-03-12T10:41:45.339Z</time>
      </trkpt>
      <trkpt lat="43.67518" lon="5.84228">
        <ele>476</ele>
        <time>2016-03-12T10:41:51.363Z</time>
      </trkpt>
      <trkpt lat="43.67517" lon="5.8423">
        <ele>476</ele>
        <time>2016-03-12T10:41:52.337Z</time>
      </trkpt>
      <trkpt lat="43.6751" lon="5.84237">
        <ele>477</ele>
        <time>2016-03-12T10:41:58.368Z</time>
      </trkpt>
      <trkpt lat="43.67509" lon="5.84239">
        <ele>477</ele>
        <time>2016-03-12T10:41:59.341Z</time>
      </trkpt>
      <trkpt lat="43.67502" lon="5.84247">
        <ele>476</ele>
        <time>2016-03-12T10:42:05.603Z</time>
      </trkpt>
      <trkpt lat="43.67501" lon="5.84248">
        <ele>477</ele>
        <time>2016-03-12T10:42:06.343Z</time>
      </trkpt>
      <trkpt lat="43.67495" lon="5.84256">
        <ele>477</ele>
        <time>2016-03-12T10:42:12.397Z</time>
      </trkpt>
      <trkpt lat="43.67494" lon="5.84257">
        <ele>477</ele>
        <time>2016-03-12T10:42:13.342Z</time>
      </trkpt>
      <trkpt lat="43.67488" lon="5.84263">
        <ele>477</ele>
        <time>2016-03-12T10:42:18.436Z</time>
      </trkpt>
      <trkpt lat="43.67486" lon="5.84264">
        <ele>477</ele>
        <time>2016-03-12T10:42:19.344Z</time>
      </trkpt>
      <trkpt lat="43.67479" lon="5.84269">
        <ele>476</ele>
        <time>2016-03-12T10:42:24.365Z</time>
      </trkpt>
      <trkpt lat="43.67477" lon="5.8427">
        <ele>476</ele>
        <time>2016-03-12T10:42:25.341Z</time>
      </trkpt>
      <trkpt lat="43.67471" lon="5.84277">
        <ele>477</ele>
        <time>2016-03-12T10:42:30.364Z</time>
      </trkpt>
      <trkpt lat="43.6747" lon="5.84279">
        <ele>477</ele>
        <time>2016-03-12T10:42:31.336Z</time>
      </trkpt>
      <trkpt lat="43.67465" lon="5.84288">
        <ele>481</ele>
        <time>2016-03-12T10:43:07.363Z</time>
      </trkpt>
      <trkpt lat="43.67464" lon="5.8429">
        <ele>481</ele>
        <time>2016-03-12T10:43:08.342Z</time>
      </trkpt>
      <trkpt lat="43.67459" lon="5.843">
        <ele>482</ele>
        <time>2016-03-12T10:43:13.369Z</time>
      </trkpt>
      <trkpt lat="43.67459" lon="5.84302">
        <ele>481</ele>
        <time>2016-03-12T10:43:14.341Z</time>
      </trkpt>
      <trkpt lat="43.67454" lon="5.84312">
        <ele>481</ele>
        <time>2016-03-12T10:43:19.363Z</time>
      </trkpt>
      <trkpt lat="43.67454" lon="5.84314">
        <ele>482</ele>
        <time>2016-03-12T10:43:20.343Z</time>
      </trkpt>
      <trkpt lat="43.6745" lon="5.84324">
        <ele>482</ele>
        <time>2016-03-12T10:43:25.368Z</time>
      </trkpt>
      <trkpt lat="43.67449" lon="5.84325">
        <ele>482</ele>
        <time>2016-03-12T10:43:26.343Z</time>
      </trkpt>
      <trkpt lat="43.67444" lon="5.84334">
        <ele>483</ele>
        <time>2016-03-12T10:43:31.368Z</time>
      </trkpt>
      <trkpt lat="43.67443" lon="5.84335">
        <ele>483</ele>
        <time>2016-03-12T10:43:32.370Z</time>
      </trkpt>
      <trkpt lat="43.67437" lon="5.84342">
        <ele>483</ele>
        <time>2016-03-12T10:43:37.368Z</time>
      </trkpt>
      <trkpt lat="43.67435" lon="5.84344">
        <ele>484</ele>
        <time>2016-03-12T10:43:38.353Z</time>
      </trkpt>
      <trkpt lat="43.67428" lon="5.84351">
        <ele>484</ele>
        <time>2016-03-12T10:43:43.368Z</time>
      </trkpt>
      <trkpt lat="43.67426" lon="5.84352">
        <ele>484</ele>
        <time>2016-03-12T10:43:44.342Z</time>
      </trkpt>
      <trkpt lat="43.6742" lon="5.84359">
        <ele>485</ele>
        <time>2016-03-12T10:43:49.368Z</time>
      </trkpt>
      <trkpt lat="43.67418" lon="5.84361">
        <ele>485</ele>
        <time>2016-03-12T10:43:50.343Z</time>
      </trkpt>
      <trkpt lat="43.67413" lon="5.84369">
        <ele>486</ele>
        <time>2016-03-12T10:43:55.368Z</time>
      </trkpt>
      <trkpt lat="43.67412" lon="5.8437">
        <ele>487</ele>
        <time>2016-03-12T10:43:56.342Z</time>
      </trkpt>
      <trkpt lat="43.67405" lon="5.84377">
        <ele>488</ele>
        <time>2016-03-12T10:44:01.370Z</time>
      </trkpt>
      <trkpt lat="43.67404" lon="5.84378">
        <ele>488</ele>
        <time>2016-03-12T10:44:02.343Z</time>
      </trkpt>
      <trkpt lat="43.67398" lon="5.84386">
        <ele>488</ele>
        <time>2016-03-12T10:44:07.369Z</time>
      </trkpt>
      <trkpt lat="43.67397" lon="5.84388">
        <ele>488</ele>
        <time>2016-03-12T10:44:08.343Z</time>
      </trkpt>
      <trkpt lat="43.67391" lon="5.84396">
        <ele>490</ele>
        <time>2016-03-12T10:44:13.363Z</time>
      </trkpt>
      <trkpt lat="43.6739" lon="5.84397">
        <ele>490</ele>
        <time>2016-03-12T10:44:14.342Z</time>
      </trkpt>
      <trkpt lat="43.67384" lon="5.84405">
        <ele>492</ele>
        <time>2016-03-12T10:44:19.366Z</time>
      </trkpt>
      <trkpt lat="43.67383" lon="5.84407">
        <ele>492</ele>
        <time>2016-03-12T10:44:20.343Z</time>
      </trkpt>
      <trkpt lat="43.67379" lon="5.84414">
        <ele>491</ele>
        <time>2016-03-12T10:44:24.369Z</time>
      </trkpt>
      <trkpt lat="43.67378" lon="5.84417">
        <ele>492</ele>
        <time>2016-03-12T10:44:25.343Z</time>
      </trkpt>
      <trkpt lat="43.67374" lon="5.84424">
        <ele>492</ele>
        <time>2016-03-12T10:44:28.369Z</time>
      </trkpt>
      <trkpt lat="43.67373" lon="5.84427">
        <ele>492</ele>
        <time>2016-03-12T10:44:29.350Z</time>
      </trkpt>
      <trkpt lat="43.67368" lon="5.84438">
        <ele>493</ele>
        <time>2016-03-12T10:44:33.369Z</time>
      </trkpt>
      <trkpt lat="43.67367" lon="5.84441">
        <ele>493</ele>
        <time>2016-03-12T10:44:34.341Z</time>
      </trkpt>
      <trkpt lat="43.67363" lon="5.84449">
        <ele>493</ele>
        <time>2016-03-12T10:44:38.368Z</time>
      </trkpt>
      <trkpt lat="43.67361" lon="5.84451">
        <ele>493</ele>
        <time>2016-03-12T10:44:39.342Z</time>
      </trkpt>
      <trkpt lat="43.67355" lon="5.84457">
        <ele>493</ele>
        <time>2016-03-12T10:45:06.362Z</time>
      </trkpt>
      <trkpt lat="43.67354" lon="5.84459">
        <ele>493</ele>
        <time>2016-03-12T10:45:07.342Z</time>
      </trkpt>
      <trkpt lat="43.67354" lon="5.84468">
        <ele>493</ele>
        <time>2016-03-12T10:45:11.368Z</time>
      </trkpt>
      <trkpt lat="43.67355" lon="5.84471">
        <ele>493</ele>
        <time>2016-03-12T10:45:12.342Z</time>
      </trkpt>
      <trkpt lat="43.67358" lon="5.8448">
        <ele>493</ele>
        <time>2016-03-12T10:45:14.368Z</time>
      </trkpt>
      <trkpt lat="43.67359" lon="5.84485">
        <ele>492</ele>
        <time>2016-03-12T10:45:15.342Z</time>
      </trkpt>
      <trkpt lat="43.6736" lon="5.84491">
        <ele>491</ele>
        <time>2016-03-12T10:45:16.369Z</time>
      </trkpt>
      <trkpt lat="43.6736" lon="5.84498">
        <ele>490</ele>
        <time>2016-03-12T10:45:17.342Z</time>
      </trkpt>
      <trkpt lat="43.67361" lon="5.84508">
        <ele>489</ele>
        <time>2016-03-12T10:45:18.371Z</time>
      </trkpt>
      <trkpt lat="43.67362" lon="5.84516">
        <ele>488</ele>
        <time>2016-03-12T10:45:19.342Z</time>
      </trkpt>
      <trkpt lat="43.67364" lon="5.84524">
        <ele>488</ele>
        <time>2016-03-12T10:45:20.373Z</time>
      </trkpt>
      <trkpt lat="43.67367" lon="5.8453">
        <ele>487</ele>
        <time>2016-03-12T10:45:21.342Z</time>
      </trkpt>
      <trkpt lat="43.6737" lon="5.84535">
        <ele>486</ele>
        <time>2016-03-12T10:45:22.371Z</time>
      </trkpt>
      <trkpt lat="43.67372" lon="5.84539">
        <ele>485</ele>
        <time>2016-03-12T10:45:23.343Z</time>
      </trkpt>
      <trkpt lat="43.67372" lon="5.84551">
        <ele>483</ele>
        <time>2016-03-12T10:45:26.369Z</time>
      </trkpt>
      <trkpt lat="43.67371" lon="5.84556">
        <ele>482</ele>
        <time>2016-03-12T10:45:27.354Z</time>
      </trkpt>
      <trkpt lat="43.67373" lon="5.84566">
        <ele>480</ele>
        <time>2016-03-12T10:45:29.368Z</time>
      </trkpt>
      <trkpt lat="43.67377" lon="5.84569">
        <ele>481</ele>
        <time>2016-03-12T10:45:30.355Z</time>
      </trkpt>
      <trkpt lat="43.67383" lon="5.8457">
        <ele>479</ele>
        <time>2016-03-12T10:45:31.369Z</time>
      </trkpt>
      <trkpt lat="43.67391" lon="5.84569">
        <ele>478</ele>
        <time>2016-03-12T10:45:32.347Z</time>
      </trkpt>
      <trkpt lat="43.674" lon="5.84568">
        <ele>477</ele>
        <time>2016-03-12T10:45:33.375Z</time>
      </trkpt>
      <trkpt lat="43.67408" lon="5.84568">
        <ele>475</ele>
        <time>2016-03-12T10:45:34.343Z</time>
      </trkpt>
      <trkpt lat="43.67408" lon="5.84568">
        <ele>475</ele>
        <time>2016-03-12T10:45:34.376Z</time>
      </trkpt>
      <trkpt lat="43.67418" lon="5.84567">
        <ele>474</ele>
        <time>2016-03-12T10:45:35.343Z</time>
      </trkpt>
      <trkpt lat="43.67418" lon="5.84567">
        <ele>474</ele>
        <time>2016-03-12T10:45:35.375Z</time>
      </trkpt>
      <trkpt lat="43.67428" lon="5.84565">
        <ele>474</ele>
        <time>2016-03-12T10:45:36.354Z</time>
      </trkpt>
      <trkpt lat="43.67435" lon="5.84564">
        <ele>473</ele>
        <time>2016-03-12T10:45:37.369Z</time>
      </trkpt>
      <trkpt lat="43.67442" lon="5.84562">
        <ele>474</ele>
        <time>2016-03-12T10:45:38.341Z</time>
      </trkpt>
      <trkpt lat="43.67446" lon="5.84561">
        <ele>474</ele>
        <time>2016-03-12T10:45:39.367Z</time>
      </trkpt>
      <trkpt lat="43.67452" lon="5.84564">
        <ele>473</ele>
        <time>2016-03-12T10:45:40.369Z</time>
      </trkpt>
      <trkpt lat="43.67457" lon="5.8457">
        <ele>472</ele>
        <time>2016-03-12T10:45:41.371Z</time>
      </trkpt>
      <trkpt lat="43.6746" lon="5.84578">
        <ele>470</ele>
        <time>2016-03-12T10:45:42.343Z</time>
      </trkpt>
      <trkpt lat="43.67462" lon="5.84589">
        <ele>470</ele>
        <time>2016-03-12T10:45:43.368Z</time>
      </trkpt>
      <trkpt lat="43.67465" lon="5.84602">
        <ele>469</ele>
        <time>2016-03-12T10:45:44.354Z</time>
      </trkpt>
      <trkpt lat="43.67468" lon="5.84613">
        <ele>468</ele>
        <time>2016-03-12T10:45:45.370Z</time>
      </trkpt>
      <trkpt lat="43.67471" lon="5.84626">
        <ele>467</ele>
        <time>2016-03-12T10:45:46.343Z</time>
      </trkpt>
      <trkpt lat="43.67471" lon="5.84626">
        <ele>467</ele>
        <time>2016-03-12T10:45:46.376Z</time>
      </trkpt>
      <trkpt lat="43.67474" lon="5.84638">
        <ele>467</ele>
        <time>2016-03-12T10:45:47.348Z</time>
      </trkpt>
      <trkpt lat="43.67475" lon="5.84649">
        <ele>466</ele>
        <time>2016-03-12T10:45:48.372Z</time>
      </trkpt>
      <trkpt lat="43.67475" lon="5.84662">
        <ele>466</ele>
        <time>2016-03-12T10:45:49.343Z</time>
      </trkpt>
      <trkpt lat="43.67472" lon="5.84672">
        <ele>465</ele>
        <time>2016-03-12T10:45:50.364Z</time>
      </trkpt>
      <trkpt lat="43.67467" lon="5.84681">
        <ele>465</ele>
        <time>2016-03-12T10:45:51.338Z</time>
      </trkpt>
      <trkpt lat="43.67467" lon="5.84681">
        <ele>465</ele>
        <time>2016-03-12T10:45:51.368Z</time>
      </trkpt>
      <trkpt lat="43.6746" lon="5.84689">
        <ele>465</ele>
        <time>2016-03-12T10:45:52.343Z</time>
      </trkpt>
      <trkpt lat="43.67454" lon="5.84695">
        <ele>464</ele>
        <time>2016-03-12T10:45:53.368Z</time>
      </trkpt>
      <trkpt lat="43.67445" lon="5.847">
        <ele>464</ele>
        <time>2016-03-12T10:45:54.341Z</time>
      </trkpt>
      <trkpt lat="43.67436" lon="5.84703">
        <ele>464</ele>
        <time>2016-03-12T10:45:55.369Z</time>
      </trkpt>
      <trkpt lat="43.67428" lon="5.84707">
        <ele>464</ele>
        <time>2016-03-12T10:45:56.370Z</time>
      </trkpt>
      <trkpt lat="43.67428" lon="5.84707">
        <ele>464</ele>
        <time>2016-03-12T10:45:56.403Z</time>
      </trkpt>
      <trkpt lat="43.67419" lon="5.84709">
        <ele>464</ele>
        <time>2016-03-12T10:45:57.343Z</time>
      </trkpt>
      <trkpt lat="43.67411" lon="5.84711">
        <ele>463</ele>
        <time>2016-03-12T10:45:58.368Z</time>
      </trkpt>
      <trkpt lat="43.67403" lon="5.84714">
        <ele>463</ele>
        <time>2016-03-12T10:45:59.342Z</time>
      </trkpt>
      <trkpt lat="43.67395" lon="5.84719">
        <ele>463</ele>
        <time>2016-03-12T10:46:00.364Z</time>
      </trkpt>
      <trkpt lat="43.67388" lon="5.84722">
        <ele>463</ele>
        <time>2016-03-12T10:46:01.354Z</time>
      </trkpt>
      <trkpt lat="43.6738" lon="5.84725">
        <ele>463</ele>
        <time>2016-03-12T10:46:02.362Z</time>
      </trkpt>
      <trkpt lat="43.67374" lon="5.84728">
        <ele>463</ele>
        <time>2016-03-12T10:46:03.343Z</time>
      </trkpt>
      <trkpt lat="43.67368" lon="5.84736">
        <ele>463</ele>
        <time>2016-03-12T10:46:05.369Z</time>
      </trkpt>
      <trkpt lat="43.67367" lon="5.84739">
        <ele>463</ele>
        <time>2016-03-12T10:46:06.344Z</time>
      </trkpt>
      <trkpt lat="43.67362" lon="5.84749">
        <ele>464</ele>
        <time>2016-03-12T10:46:10.363Z</time>
      </trkpt>
      <trkpt lat="43.6736" lon="5.84749">
        <ele>464</ele>
        <time>2016-03-12T10:46:11.342Z</time>
      </trkpt>
      <trkpt lat="43.67352" lon="5.84752">
        <ele>463</ele>
        <time>2016-03-12T10:46:14.368Z</time>
      </trkpt>
      <trkpt lat="43.6735" lon="5.84754">
        <ele>463</ele>
        <time>2016-03-12T10:46:15.343Z</time>
      </trkpt>
      <trkpt lat="43.67343" lon="5.84757">
        <ele>464</ele>
        <time>2016-03-12T10:46:18.369Z</time>
      </trkpt>
      <trkpt lat="43.67341" lon="5.84758">
        <ele>464</ele>
        <time>2016-03-12T10:46:19.344Z</time>
      </trkpt>
      <trkpt lat="43.67333" lon="5.8476">
        <ele>464</ele>
        <time>2016-03-12T10:46:22.365Z</time>
      </trkpt>
      <trkpt lat="43.67331" lon="5.84761">
        <ele>465</ele>
        <time>2016-03-12T10:46:23.339Z</time>
      </trkpt>
      <trkpt lat="43.67323" lon="5.84763">
        <ele>465</ele>
        <time>2016-03-12T10:46:25.370Z</time>
      </trkpt>
      <trkpt lat="43.67319" lon="5.84763">
        <ele>465</ele>
        <time>2016-03-12T10:46:26.341Z</time>
      </trkpt>
      <trkpt lat="43.67312" lon="5.84765">
        <ele>465</ele>
        <time>2016-03-12T10:46:28.375Z</time>
      </trkpt>
      <trkpt lat="43.6731" lon="5.84765">
        <ele>465</ele>
        <time>2016-03-12T10:46:29.343Z</time>
      </trkpt>
      <trkpt lat="43.67303" lon="5.84768">
        <ele>464</ele>
        <time>2016-03-12T10:46:33.397Z</time>
      </trkpt>
      <trkpt lat="43.67301" lon="5.84771">
        <ele>464</ele>
        <time>2016-03-12T10:46:34.344Z</time>
      </trkpt>
      <trkpt lat="43.67297" lon="5.84778">
        <ele>465</ele>
        <time>2016-03-12T10:46:36.367Z</time>
      </trkpt>
      <trkpt lat="43.67294" lon="5.84781">
        <ele>465</ele>
        <time>2016-03-12T10:46:37.342Z</time>
      </trkpt>
      <trkpt lat="43.6729" lon="5.84787">
        <ele>464</ele>
        <time>2016-03-12T10:46:39.364Z</time>
      </trkpt>
      <trkpt lat="43.67287" lon="5.84791">
        <ele>464</ele>
        <time>2016-03-12T10:46:40.343Z</time>
      </trkpt>
      <trkpt lat="43.67281" lon="5.84796">
        <ele>464</ele>
        <time>2016-03-12T10:46:42.369Z</time>
      </trkpt>
      <trkpt lat="43.67278" lon="5.84799">
        <ele>463</ele>
        <time>2016-03-12T10:46:43.343Z</time>
      </trkpt>
      <trkpt lat="43.67272" lon="5.84804">
        <ele>464</ele>
        <time>2016-03-12T10:46:45.381Z</time>
      </trkpt>
      <trkpt lat="43.67269" lon="5.84806">
        <ele>464</ele>
        <time>2016-03-12T10:46:46.338Z</time>
      </trkpt>
      <trkpt lat="43.67262" lon="5.8481">
        <ele>465</ele>
        <time>2016-03-12T10:46:49.391Z</time>
      </trkpt>
      <trkpt lat="43.6726" lon="5.84811">
        <ele>465</ele>
        <time>2016-03-12T10:46:50.342Z</time>
      </trkpt>
      <trkpt lat="43.67253" lon="5.84816">
        <ele>465</ele>
        <time>2016-03-12T10:46:55.369Z</time>
      </trkpt>
      <trkpt lat="43.67251" lon="5.84817">
        <ele>465</ele>
        <time>2016-03-12T10:46:56.338Z</time>
      </trkpt>
      <trkpt lat="43.67245" lon="5.84824">
        <ele>466</ele>
        <time>2016-03-12T10:47:00.369Z</time>
      </trkpt>
      <trkpt lat="43.67242" lon="5.84826">
        <ele>468</ele>
        <time>2016-03-12T10:47:01.349Z</time>
      </trkpt>
      <trkpt lat="43.67235" lon="5.8483">
        <ele>469</ele>
        <time>2016-03-12T10:47:04.364Z</time>
      </trkpt>
      <trkpt lat="43.67233" lon="5.84831">
        <ele>470</ele>
        <time>2016-03-12T10:47:05.342Z</time>
      </trkpt>
      <trkpt lat="43.67225" lon="5.84837">
        <ele>470</ele>
        <time>2016-03-12T10:47:08.369Z</time>
      </trkpt>
      <trkpt lat="43.67223" lon="5.84839">
        <ele>470</ele>
        <time>2016-03-12T10:47:09.343Z</time>
      </trkpt>
      <trkpt lat="43.6722" lon="5.84851">
        <ele>469</ele>
        <time>2016-03-12T10:47:13.365Z</time>
      </trkpt>
      <trkpt lat="43.67221" lon="5.84854">
        <ele>469</ele>
        <time>2016-03-12T10:47:14.341Z</time>
      </trkpt>
      <trkpt lat="43.67229" lon="5.84859">
        <ele>468</ele>
        <time>2016-03-12T10:47:17.374Z</time>
      </trkpt>
      <trkpt lat="43.67232" lon="5.84861">
        <ele>467</ele>
        <time>2016-03-12T10:47:18.339Z</time>
      </trkpt>
      <trkpt lat="43.67237" lon="5.84869">
        <ele>467</ele>
        <time>2016-03-12T10:47:20.375Z</time>
      </trkpt>
      <trkpt lat="43.6724" lon="5.84873">
        <ele>467</ele>
        <time>2016-03-12T10:47:21.339Z</time>
      </trkpt>
      <trkpt lat="43.67245" lon="5.84882">
        <ele>466</ele>
        <time>2016-03-12T10:47:23.370Z</time>
      </trkpt>
      <trkpt lat="43.67247" lon="5.84886">
        <ele>466</ele>
        <time>2016-03-12T10:47:24.343Z</time>
      </trkpt>
      <trkpt lat="43.67253" lon="5.84893">
        <ele>465</ele>
        <time>2016-03-12T10:47:26.399Z</time>
      </trkpt>
      <trkpt lat="43.67256" lon="5.84897">
        <ele>465</ele>
        <time>2016-03-12T10:47:27.344Z</time>
      </trkpt>
      <trkpt lat="43.67261" lon="5.84904">
        <ele>464</ele>
        <time>2016-03-12T10:47:29.370Z</time>
      </trkpt>
      <trkpt lat="43.67263" lon="5.84907">
        <ele>464</ele>
        <time>2016-03-12T10:47:30.343Z</time>
      </trkpt>
      <trkpt lat="43.67267" lon="5.84916">
        <ele>464</ele>
        <time>2016-03-12T10:47:33.370Z</time>
      </trkpt>
      <trkpt lat="43.67268" lon="5.84919">
        <ele>464</ele>
        <time>2016-03-12T10:47:34.343Z</time>
      </trkpt>
      <trkpt lat="43.67273" lon="5.84925">
        <ele>463</ele>
        <time>2016-03-12T10:47:37.365Z</time>
      </trkpt>
      <trkpt lat="43.67275" lon="5.84928">
        <ele>463</ele>
        <time>2016-03-12T10:47:38.343Z</time>
      </trkpt>
      <trkpt lat="43.67281" lon="5.84934">
        <ele>463</ele>
        <time>2016-03-12T10:47:41.369Z</time>
      </trkpt>
      <trkpt lat="43.67282" lon="5.84936">
        <ele>463</ele>
        <time>2016-03-12T10:47:42.371Z</time>
      </trkpt>
      <trkpt lat="43.67288" lon="5.84943">
        <ele>463</ele>
        <time>2016-03-12T10:47:45.368Z</time>
      </trkpt>
      <trkpt lat="43.6729" lon="5.84945">
        <ele>463</ele>
        <time>2016-03-12T10:47:46.349Z</time>
      </trkpt>
      <trkpt lat="43.67297" lon="5.84953">
        <ele>463</ele>
        <time>2016-03-12T10:47:50.370Z</time>
      </trkpt>
      <trkpt lat="43.67298" lon="5.84955">
        <ele>463</ele>
        <time>2016-03-12T10:47:51.344Z</time>
      </trkpt>
      <trkpt lat="43.67302" lon="5.84962">
        <ele>464</ele>
        <time>2016-03-12T10:47:54.368Z</time>
      </trkpt>
      <trkpt lat="43.67303" lon="5.84965">
        <ele>464</ele>
        <time>2016-03-12T10:47:55.343Z</time>
      </trkpt>
      <trkpt lat="43.67302" lon="5.84975">
        <ele>464</ele>
        <time>2016-03-12T10:47:58.391Z</time>
      </trkpt>
      <trkpt lat="43.67301" lon="5.84978">
        <ele>464</ele>
        <time>2016-03-12T10:47:59.351Z</time>
      </trkpt>
      <trkpt lat="43.67297" lon="5.84988">
        <ele>463</ele>
        <time>2016-03-12T10:48:02.369Z</time>
      </trkpt>
      <trkpt lat="43.67296" lon="5.84991">
        <ele>464</ele>
        <time>2016-03-12T10:48:03.343Z</time>
      </trkpt>
      <trkpt lat="43.67293" lon="5.85003">
        <ele>464</ele>
        <time>2016-03-12T10:48:07.369Z</time>
      </trkpt>
      <trkpt lat="43.67293" lon="5.85005">
        <ele>465</ele>
        <time>2016-03-12T10:48:08.330Z</time>
      </trkpt>
      <trkpt lat="43.67293" lon="5.85015">
        <ele>466</ele>
        <time>2016-03-12T10:48:12.364Z</time>
      </trkpt>
      <trkpt lat="43.67293" lon="5.85018">
        <ele>466</ele>
        <time>2016-03-12T10:48:13.342Z</time>
      </trkpt>
      <trkpt lat="43.67293" lon="5.85028">
        <ele>466</ele>
        <time>2016-03-12T10:48:17.365Z</time>
      </trkpt>
      <trkpt lat="43.67293" lon="5.85031">
        <ele>467</ele>
        <time>2016-03-12T10:48:18.337Z</time>
      </trkpt>
      <trkpt lat="43.6729" lon="5.85043">
        <ele>467</ele>
        <time>2016-03-12T10:48:21.358Z</time>
      </trkpt>
      <trkpt lat="43.6729" lon="5.85046">
        <ele>466</ele>
        <time>2016-03-12T10:48:22.337Z</time>
      </trkpt>
      <trkpt lat="43.67287" lon="5.85057">
        <ele>466</ele>
        <time>2016-03-12T10:48:25.365Z</time>
      </trkpt>
      <trkpt lat="43.67286" lon="5.85061">
        <ele>466</ele>
        <time>2016-03-12T10:48:26.342Z</time>
      </trkpt>
      <trkpt lat="43.67284" lon="5.85071">
        <ele>467</ele>
        <time>2016-03-12T10:48:29.369Z</time>
      </trkpt>
      <trkpt lat="43.67283" lon="5.85074">
        <ele>467</ele>
        <time>2016-03-12T10:48:30.338Z</time>
      </trkpt>
      <trkpt lat="43.67282" lon="5.85085">
        <ele>467</ele>
        <time>2016-03-12T10:48:35.369Z</time>
      </trkpt>
      <trkpt lat="43.67282" lon="5.85087">
        <ele>467</ele>
        <time>2016-03-12T10:48:36.344Z</time>
      </trkpt>
      <trkpt lat="43.67279" lon="5.85095">
        <ele>467</ele>
        <time>2016-03-12T10:48:39.370Z</time>
      </trkpt>
      <trkpt lat="43.67278" lon="5.85099">
        <ele>467</ele>
        <time>2016-03-12T10:48:40.370Z</time>
      </trkpt>
      <trkpt lat="43.67276" lon="5.85108">
        <ele>466</ele>
        <time>2016-03-12T10:48:42.448Z</time>
      </trkpt>
      <trkpt lat="43.67275" lon="5.85112">
        <ele>466</ele>
        <time>2016-03-12T10:48:43.344Z</time>
      </trkpt>
      <trkpt lat="43.67274" lon="5.8512">
        <ele>466</ele>
        <time>2016-03-12T10:48:45.365Z</time>
      </trkpt>
      <trkpt lat="43.67273" lon="5.85124">
        <ele>466</ele>
        <time>2016-03-12T10:48:46.345Z</time>
      </trkpt>
      <trkpt lat="43.67273" lon="5.85136">
        <ele>465</ele>
        <time>2016-03-12T10:48:49.366Z</time>
      </trkpt>
      <trkpt lat="43.67272" lon="5.8514">
        <ele>466</ele>
        <time>2016-03-12T10:48:50.353Z</time>
      </trkpt>
      <trkpt lat="43.67271" lon="5.8515">
        <ele>466</ele>
        <time>2016-03-12T10:48:53.364Z</time>
      </trkpt>
      <trkpt lat="43.67272" lon="5.85152">
        <ele>466</ele>
        <time>2016-03-12T10:48:54.343Z</time>
      </trkpt>
      <trkpt lat="43.67275" lon="5.85163">
        <ele>464</ele>
        <time>2016-03-12T10:50:27.365Z</time>
      </trkpt>
      <trkpt lat="43.67273" lon="5.85166">
        <ele>465</ele>
        <time>2016-03-12T10:50:28.343Z</time>
      </trkpt>
      <trkpt lat="43.67267" lon="5.85174">
        <ele>466</ele>
        <time>2016-03-12T10:50:31.369Z</time>
      </trkpt>
      <trkpt lat="43.67266" lon="5.85177">
        <ele>466</ele>
        <time>2016-03-12T10:50:32.344Z</time>
      </trkpt>
      <trkpt lat="43.67262" lon="5.85185">
        <ele>467</ele>
        <time>2016-03-12T10:50:36.369Z</time>
      </trkpt>
      <trkpt lat="43.6726" lon="5.85187">
        <ele>467</ele>
        <time>2016-03-12T10:50:37.343Z</time>
      </trkpt>
      <trkpt lat="43.67255" lon="5.85193">
        <ele>467</ele>
        <time>2016-03-12T10:50:39.369Z</time>
      </trkpt>
      <trkpt lat="43.67254" lon="5.85198">
        <ele>467</ele>
        <time>2016-03-12T10:50:40.344Z</time>
      </trkpt>
      <trkpt lat="43.67251" lon="5.85206">
        <ele>467</ele>
        <time>2016-03-12T10:50:42.369Z</time>
      </trkpt>
      <trkpt lat="43.6725" lon="5.8521">
        <ele>468</ele>
        <time>2016-03-12T10:50:43.344Z</time>
      </trkpt>
      <trkpt lat="43.67248" lon="5.85219">
        <ele>468</ele>
        <time>2016-03-12T10:50:45.370Z</time>
      </trkpt>
      <trkpt lat="43.67248" lon="5.85224">
        <ele>469</ele>
        <time>2016-03-12T10:50:46.343Z</time>
      </trkpt>
      <trkpt lat="43.67249" lon="5.85233">
        <ele>469</ele>
        <time>2016-03-12T10:50:48.373Z</time>
      </trkpt>
      <trkpt lat="43.67249" lon="5.85237">
        <ele>469</ele>
        <time>2016-03-12T10:50:49.365Z</time>
      </trkpt>
      <trkpt lat="43.67249" lon="5.85246">
        <ele>469</ele>
        <time>2016-03-12T10:50:51.373Z</time>
      </trkpt>
      <trkpt lat="43.67249" lon="5.8525">
        <ele>469</ele>
        <time>2016-03-12T10:50:52.344Z</time>
      </trkpt>
      <trkpt lat="43.6725" lon="5.85259">
        <ele>469</ele>
        <time>2016-03-12T10:50:54.627Z</time>
      </trkpt>
      <trkpt lat="43.6725" lon="5.85263">
        <ele>469</ele>
        <time>2016-03-12T10:50:55.339Z</time>
      </trkpt>
      <trkpt lat="43.6725" lon="5.85272">
        <ele>470</ele>
        <time>2016-03-12T10:50:57.358Z</time>
      </trkpt>
      <trkpt lat="43.6725" lon="5.85276">
        <ele>470</ele>
        <time>2016-03-12T10:50:58.343Z</time>
      </trkpt>
      <trkpt lat="43.6725" lon="5.85285">
        <ele>470</ele>
        <time>2016-03-12T10:51:00.374Z</time>
      </trkpt>
      <trkpt lat="43.6725" lon="5.85289">
        <ele>470</ele>
        <time>2016-03-12T10:51:01.344Z</time>
      </trkpt>
      <trkpt lat="43.6725" lon="5.85297">
        <ele>469</ele>
        <time>2016-03-12T10:51:03.371Z</time>
      </trkpt>
      <trkpt lat="43.67249" lon="5.85302">
        <ele>470</ele>
        <time>2016-03-12T10:51:04.334Z</time>
      </trkpt>
      <trkpt lat="43.67249" lon="5.85311">
        <ele>470</ele>
        <time>2016-03-12T10:51:06.381Z</time>
      </trkpt>
      <trkpt lat="43.67248" lon="5.85315">
        <ele>471</ele>
        <time>2016-03-12T10:51:07.343Z</time>
      </trkpt>
      <trkpt lat="43.67247" lon="5.85324">
        <ele>471</ele>
        <time>2016-03-12T10:51:09.370Z</time>
      </trkpt>
      <trkpt lat="43.67247" lon="5.85328">
        <ele>471</ele>
        <time>2016-03-12T10:51:10.370Z</time>
      </trkpt>
      <trkpt lat="43.67246" lon="5.85337">
        <ele>472</ele>
        <time>2016-03-12T10:51:12.370Z</time>
      </trkpt>
      <trkpt lat="43.67245" lon="5.85341">
        <ele>472</ele>
        <time>2016-03-12T10:51:13.345Z</time>
      </trkpt>
      <trkpt lat="43.67244" lon="5.8535">
        <ele>473</ele>
        <time>2016-03-12T10:51:15.628Z</time>
      </trkpt>
      <trkpt lat="43.67244" lon="5.85355">
        <ele>474</ele>
        <time>2016-03-12T10:51:16.340Z</time>
      </trkpt>
      <trkpt lat="43.67242" lon="5.85364">
        <ele>473</ele>
        <time>2016-03-12T10:51:18.369Z</time>
      </trkpt>
      <trkpt lat="43.67242" lon="5.85369">
        <ele>473</ele>
        <time>2016-03-12T10:51:19.344Z</time>
      </trkpt>
      <trkpt lat="43.6724" lon="5.85379">
        <ele>473</ele>
        <time>2016-03-12T10:51:21.370Z</time>
      </trkpt>
      <trkpt lat="43.67239" lon="5.85385">
        <ele>474</ele>
        <time>2016-03-12T10:51:22.345Z</time>
      </trkpt>
      <trkpt lat="43.67237" lon="5.85395">
        <ele>474</ele>
        <time>2016-03-12T10:51:24.369Z</time>
      </trkpt>
      <trkpt lat="43.67236" lon="5.854">
        <ele>474</ele>
        <time>2016-03-12T10:51:25.343Z</time>
      </trkpt>
      <trkpt lat="43.67235" lon="5.8541">
        <ele>474</ele>
        <time>2016-03-12T10:51:27.374Z</time>
      </trkpt>
      <trkpt lat="43.67235" lon="5.85415">
        <ele>474</ele>
        <time>2016-03-12T10:51:28.344Z</time>
      </trkpt>
      <trkpt lat="43.67234" lon="5.85424">
        <ele>474</ele>
        <time>2016-03-12T10:51:30.364Z</time>
      </trkpt>
      <trkpt lat="43.67234" lon="5.85429">
        <ele>474</ele>
        <time>2016-03-12T10:51:31.370Z</time>
      </trkpt>
      <trkpt lat="43.67234" lon="5.85438">
        <ele>475</ele>
        <time>2016-03-12T10:51:33.371Z</time>
      </trkpt>
      <trkpt lat="43.67234" lon="5.85443">
        <ele>475</ele>
        <time>2016-03-12T10:51:34.344Z</time>
      </trkpt>
      <trkpt lat="43.67233" lon="5.85453">
        <ele>476</ele>
        <time>2016-03-12T10:51:36.366Z</time>
      </trkpt>
      <trkpt lat="43.67233" lon="5.85457">
        <ele>476</ele>
        <time>2016-03-12T10:51:37.344Z</time>
      </trkpt>
      <trkpt lat="43.67233" lon="5.85467">
        <ele>476</ele>
        <time>2016-03-12T10:51:39.366Z</time>
      </trkpt>
      <trkpt lat="43.67233" lon="5.85472">
        <ele>476</ele>
        <time>2016-03-12T10:51:40.350Z</time>
      </trkpt>
      <trkpt lat="43.67232" lon="5.85482">
        <ele>476</ele>
        <time>2016-03-12T10:51:42.375Z</time>
      </trkpt>
      <trkpt lat="43.67232" lon="5.85487">
        <ele>476</ele>
        <time>2016-03-12T10:51:43.350Z</time>
      </trkpt>
      <trkpt lat="43.67232" lon="5.85496">
        <ele>477</ele>
        <time>2016-03-12T10:51:45.366Z</time>
      </trkpt>
      <trkpt lat="43.67231" lon="5.85501">
        <ele>477</ele>
        <time>2016-03-12T10:51:46.343Z</time>
      </trkpt>
      <trkpt lat="43.67231" lon="5.85511">
        <ele>477</ele>
        <time>2016-03-12T10:51:48.352Z</time>
      </trkpt>
      <trkpt lat="43.6723" lon="5.85516">
        <ele>477</ele>
        <time>2016-03-12T10:51:49.340Z</time>
      </trkpt>
      <trkpt lat="43.67229" lon="5.85525">
        <ele>477</ele>
        <time>2016-03-12T10:51:51.360Z</time>
      </trkpt>
      <trkpt lat="43.67229" lon="5.8553">
        <ele>478</ele>
        <time>2016-03-12T10:51:52.339Z</time>
      </trkpt>
      <trkpt lat="43.67229" lon="5.85539">
        <ele>478</ele>
        <time>2016-03-12T10:51:54.373Z</time>
      </trkpt>
      <trkpt lat="43.67228" lon="5.85544">
        <ele>478</ele>
        <time>2016-03-12T10:51:55.340Z</time>
      </trkpt>
      <trkpt lat="43.67229" lon="5.85553">
        <ele>478</ele>
        <time>2016-03-12T10:51:57.375Z</time>
      </trkpt>
      <trkpt lat="43.67229" lon="5.85558">
        <ele>478</ele>
        <time>2016-03-12T10:51:58.345Z</time>
      </trkpt>
      <trkpt lat="43.67229" lon="5.85568">
        <ele>479</ele>
        <time>2016-03-12T10:52:00.965Z</time>
      </trkpt>
      <trkpt lat="43.67229" lon="5.85572">
        <ele>479</ele>
        <time>2016-03-12T10:52:01.340Z</time>
      </trkpt>
      <trkpt lat="43.67231" lon="5.85581">
        <ele>479</ele>
        <time>2016-03-12T10:52:03.396Z</time>
      </trkpt>
      <trkpt lat="43.67232" lon="5.85585">
        <ele>479</ele>
        <time>2016-03-12T10:52:04.339Z</time>
      </trkpt>
      <trkpt lat="43.67233" lon="5.85594">
        <ele>479</ele>
        <time>2016-03-12T10:52:06.357Z</time>
      </trkpt>
      <trkpt lat="43.67234" lon="5.85598">
        <ele>479</ele>
        <time>2016-03-12T10:52:07.338Z</time>
      </trkpt>
      <trkpt lat="43.67236" lon="5.85607">
        <ele>479</ele>
        <time>2016-03-12T10:52:09.369Z</time>
      </trkpt>
      <trkpt lat="43.67238" lon="5.85612">
        <ele>479</ele>
        <time>2016-03-12T10:52:10.344Z</time>
      </trkpt>
      <trkpt lat="43.6724" lon="5.85622">
        <ele>479</ele>
        <time>2016-03-12T10:52:12.435Z</time>
      </trkpt>
      <trkpt lat="43.67241" lon="5.85627">
        <ele>479</ele>
        <time>2016-03-12T10:52:13.343Z</time>
      </trkpt>
      <trkpt lat="43.67244" lon="5.85636">
        <ele>479</ele>
        <time>2016-03-12T10:52:15.566Z</time>
      </trkpt>
      <trkpt lat="43.67245" lon="5.85641">
        <ele>479</ele>
        <time>2016-03-12T10:52:16.343Z</time>
      </trkpt>
      <trkpt lat="43.67247" lon="5.85651">
        <ele>479</ele>
        <time>2016-03-12T10:52:18.365Z</time>
      </trkpt>
      <trkpt lat="43.67248" lon="5.85656">
        <ele>479</ele>
        <time>2016-03-12T10:52:19.340Z</time>
      </trkpt>
      <trkpt lat="43.67251" lon="5.85666">
        <ele>479</ele>
        <time>2016-03-12T10:52:21.374Z</time>
      </trkpt>
      <trkpt lat="43.67252" lon="5.85673">
        <ele>479</ele>
        <time>2016-03-12T10:52:22.340Z</time>
      </trkpt>
      <trkpt lat="43.67255" lon="5.8568">
        <ele>479</ele>
        <time>2016-03-12T10:52:23.372Z</time>
      </trkpt>
      <trkpt lat="43.67257" lon="5.85688">
        <ele>479</ele>
        <time>2016-03-12T10:52:24.353Z</time>
      </trkpt>
      <trkpt lat="43.67259" lon="5.85694">
        <ele>479</ele>
        <time>2016-03-12T10:52:25.399Z</time>
      </trkpt>
      <trkpt lat="43.67261" lon="5.85702">
        <ele>479</ele>
        <time>2016-03-12T10:52:26.345Z</time>
      </trkpt>
      <trkpt lat="43.67263" lon="5.85709">
        <ele>480</ele>
        <time>2016-03-12T10:52:27.369Z</time>
      </trkpt>
      <trkpt lat="43.67264" lon="5.85717">
        <ele>480</ele>
        <time>2016-03-12T10:52:28.344Z</time>
      </trkpt>
      <trkpt lat="43.67267" lon="5.85724">
        <ele>480</ele>
        <time>2016-03-12T10:52:29.379Z</time>
      </trkpt>
      <trkpt lat="43.67269" lon="5.85731">
        <ele>480</ele>
        <time>2016-03-12T10:52:30.344Z</time>
      </trkpt>
      <trkpt lat="43.67273" lon="5.85739">
        <ele>479</ele>
        <time>2016-03-12T10:52:31.375Z</time>
      </trkpt>
      <trkpt lat="43.67275" lon="5.85746">
        <ele>479</ele>
        <time>2016-03-12T10:52:32.343Z</time>
      </trkpt>
      <trkpt lat="43.67278" lon="5.85753">
        <ele>479</ele>
        <time>2016-03-12T10:52:33.369Z</time>
      </trkpt>
      <trkpt lat="43.67281" lon="5.85762">
        <ele>479</ele>
        <time>2016-03-12T10:52:34.344Z</time>
      </trkpt>
      <trkpt lat="43.67283" lon="5.85769">
        <ele>478</ele>
        <time>2016-03-12T10:52:35.374Z</time>
      </trkpt>
      <trkpt lat="43.67287" lon="5.85777">
        <ele>479</ele>
        <time>2016-03-12T10:52:36.344Z</time>
      </trkpt>
      <trkpt lat="43.6729" lon="5.85785">
        <ele>478</ele>
        <time>2016-03-12T10:52:37.363Z</time>
      </trkpt>
      <trkpt lat="43.67292" lon="5.85793">
        <ele>478</ele>
        <time>2016-03-12T10:52:38.344Z</time>
      </trkpt>
      <trkpt lat="43.67295" lon="5.85801">
        <ele>478</ele>
        <time>2016-03-12T10:52:39.369Z</time>
      </trkpt>
      <trkpt lat="43.67299" lon="5.8581">
        <ele>478</ele>
        <time>2016-03-12T10:52:40.335Z</time>
      </trkpt>
      <trkpt lat="43.67301" lon="5.85818">
        <ele>478</ele>
        <time>2016-03-12T10:52:41.397Z</time>
      </trkpt>
      <trkpt lat="43.67303" lon="5.85829">
        <ele>477</ele>
        <time>2016-03-12T10:52:42.339Z</time>
      </trkpt>
      <trkpt lat="43.67305" lon="5.85838">
        <ele>477</ele>
        <time>2016-03-12T10:52:43.369Z</time>
      </trkpt>
      <trkpt lat="43.67307" lon="5.85846">
        <ele>477</ele>
        <time>2016-03-12T10:52:44.343Z</time>
      </trkpt>
      <trkpt lat="43.67309" lon="5.85856">
        <ele>476</ele>
        <time>2016-03-12T10:52:45.369Z</time>
      </trkpt>
      <trkpt lat="43.67312" lon="5.85866">
        <ele>476</ele>
        <time>2016-03-12T10:52:46.344Z</time>
      </trkpt>
      <trkpt lat="43.67315" lon="5.85875">
        <ele>476</ele>
        <time>2016-03-12T10:52:47.374Z</time>
      </trkpt>
      <trkpt lat="43.67317" lon="5.85885">
        <ele>475</ele>
        <time>2016-03-12T10:52:48.587Z</time>
      </trkpt>
      <trkpt lat="43.67319" lon="5.85895">
        <ele>474</ele>
        <time>2016-03-12T10:52:49.449Z</time>
      </trkpt>
      <trkpt lat="43.67321" lon="5.85905">
        <ele>474</ele>
        <time>2016-03-12T10:52:50.344Z</time>
      </trkpt>
      <trkpt lat="43.67323" lon="5.85914">
        <ele>473</ele>
        <time>2016-03-12T10:52:51.374Z</time>
      </trkpt>
      <trkpt lat="43.67325" lon="5.85924">
        <ele>472</ele>
        <time>2016-03-12T10:52:52.344Z</time>
      </trkpt>
      <trkpt lat="43.67327" lon="5.85934">
        <ele>472</ele>
        <time>2016-03-12T10:52:53.370Z</time>
      </trkpt>
      <trkpt lat="43.6733" lon="5.85944">
        <ele>472</ele>
        <time>2016-03-12T10:52:54.355Z</time>
      </trkpt>
      <trkpt lat="43.67333" lon="5.85955">
        <ele>473</ele>
        <time>2016-03-12T10:52:55.374Z</time>
      </trkpt>
      <trkpt lat="43.67334" lon="5.85965">
        <ele>472</ele>
        <time>2016-03-12T10:52:56.344Z</time>
      </trkpt>
      <trkpt lat="43.67336" lon="5.85974">
        <ele>471</ele>
        <time>2016-03-12T10:52:57.397Z</time>
      </trkpt>
      <trkpt lat="43.67337" lon="5.85985">
        <ele>471</ele>
        <time>2016-03-12T10:52:58.345Z</time>
      </trkpt>
      <trkpt lat="43.67338" lon="5.85995">
        <ele>471</ele>
        <time>2016-03-12T10:52:59.371Z</time>
      </trkpt>
      <trkpt lat="43.67339" lon="5.86003">
        <ele>471</ele>
        <time>2016-03-12T10:53:00.343Z</time>
      </trkpt>
      <trkpt lat="43.67339" lon="5.86013">
        <ele>470</ele>
        <time>2016-03-12T10:53:01.373Z</time>
      </trkpt>
      <trkpt lat="43.67339" lon="5.86021">
        <ele>470</ele>
        <time>2016-03-12T10:53:02.344Z</time>
      </trkpt>
      <trkpt lat="43.67339" lon="5.86031">
        <ele>469</ele>
        <time>2016-03-12T10:53:03.371Z</time>
      </trkpt>
      <trkpt lat="43.67338" lon="5.8604">
        <ele>469</ele>
        <time>2016-03-12T10:53:04.341Z</time>
      </trkpt>
      <trkpt lat="43.67337" lon="5.86049">
        <ele>468</ele>
        <time>2016-03-12T10:53:05.370Z</time>
      </trkpt>
      <trkpt lat="43.67335" lon="5.86059">
        <ele>468</ele>
        <time>2016-03-12T10:53:06.345Z</time>
      </trkpt>
      <trkpt lat="43.67332" lon="5.86068">
        <ele>468</ele>
        <time>2016-03-12T10:53:07.381Z</time>
      </trkpt>
      <trkpt lat="43.67328" lon="5.86077">
        <ele>467</ele>
        <time>2016-03-12T10:53:08.345Z</time>
      </trkpt>
      <trkpt lat="43.67324" lon="5.86087">
        <ele>466</ele>
        <time>2016-03-12T10:53:09.371Z</time>
      </trkpt>
      <trkpt lat="43.67321" lon="5.86096">
        <ele>466</ele>
        <time>2016-03-12T10:53:10.344Z</time>
      </trkpt>
      <trkpt lat="43.67317" lon="5.86104">
        <ele>465</ele>
        <time>2016-03-12T10:53:11.374Z</time>
      </trkpt>
      <trkpt lat="43.67313" lon="5.86114">
        <ele>465</ele>
        <time>2016-03-12T10:53:12.344Z</time>
      </trkpt>
      <trkpt lat="43.67309" lon="5.86123">
        <ele>464</ele>
        <time>2016-03-12T10:53:13.397Z</time>
      </trkpt>
      <trkpt lat="43.67305" lon="5.86131">
        <ele>464</ele>
        <time>2016-03-12T10:53:14.340Z</time>
      </trkpt>
      <trkpt lat="43.67301" lon="5.8614">
        <ele>463</ele>
        <time>2016-03-12T10:53:15.385Z</time>
      </trkpt>
      <trkpt lat="43.67297" lon="5.86148">
        <ele>463</ele>
        <time>2016-03-12T10:53:16.344Z</time>
      </trkpt>
      <trkpt lat="43.67293" lon="5.86158">
        <ele>463</ele>
        <time>2016-03-12T10:53:17.366Z</time>
      </trkpt>
      <trkpt lat="43.67289" lon="5.86167">
        <ele>463</ele>
        <time>2016-03-12T10:53:18.355Z</time>
      </trkpt>
      <trkpt lat="43.67286" lon="5.86177">
        <ele>463</ele>
        <time>2016-03-12T10:53:19.373Z</time>
      </trkpt>
      <trkpt lat="43.67284" lon="5.86186">
        <ele>464</ele>
        <time>2016-03-12T10:53:20.344Z</time>
      </trkpt>
      <trkpt lat="43.67282" lon="5.86194">
        <ele>464</ele>
        <time>2016-03-12T10:53:21.607Z</time>
      </trkpt>
      <trkpt lat="43.67281" lon="5.86203">
        <ele>464</ele>
        <time>2016-03-12T10:53:22.339Z</time>
      </trkpt>
      <trkpt lat="43.67279" lon="5.86211">
        <ele>464</ele>
        <time>2016-03-12T10:53:23.367Z</time>
      </trkpt>
      <trkpt lat="43.67278" lon="5.8622">
        <ele>464</ele>
        <time>2016-03-12T10:53:24.344Z</time>
      </trkpt>
      <trkpt lat="43.67277" lon="5.86228">
        <ele>464</ele>
        <time>2016-03-12T10:53:25.374Z</time>
      </trkpt>
      <trkpt lat="43.67275" lon="5.86235">
        <ele>464</ele>
        <time>2016-03-12T10:53:26.345Z</time>
      </trkpt>
      <trkpt lat="43.67273" lon="5.86242">
        <ele>464</ele>
        <time>2016-03-12T10:53:27.447Z</time>
      </trkpt>
      <trkpt lat="43.67271" lon="5.86249">
        <ele>464</ele>
        <time>2016-03-12T10:53:28.344Z</time>
      </trkpt>
      <trkpt lat="43.6727" lon="5.86255">
        <ele>465</ele>
        <time>2016-03-12T10:53:29.373Z</time>
      </trkpt>
      <trkpt lat="43.67268" lon="5.86262">
        <ele>465</ele>
        <time>2016-03-12T10:53:30.345Z</time>
      </trkpt>
      <trkpt lat="43.67266" lon="5.86269">
        <ele>465</ele>
        <time>2016-03-12T10:53:31.363Z</time>
      </trkpt>
      <trkpt lat="43.67264" lon="5.86274">
        <ele>465</ele>
        <time>2016-03-12T10:53:32.345Z</time>
      </trkpt>
      <trkpt lat="43.67261" lon="5.86284">
        <ele>466</ele>
        <time>2016-03-12T10:53:34.371Z</time>
      </trkpt>
      <trkpt lat="43.6726" lon="5.86288">
        <ele>466</ele>
        <time>2016-03-12T10:53:35.345Z</time>
      </trkpt>
      <trkpt lat="43.67254" lon="5.86296">
        <ele>467</ele>
        <time>2016-03-12T10:53:47.394Z</time>
      </trkpt>
      <trkpt lat="43.67253" lon="5.86297">
        <ele>467</ele>
        <time>2016-03-12T10:53:48.340Z</time>
      </trkpt>
      <trkpt lat="43.67246" lon="5.86302">
        <ele>467</ele>
        <time>2016-03-12T10:53:51.366Z</time>
      </trkpt>
      <trkpt lat="43.67243" lon="5.86303">
        <ele>467</ele>
        <time>2016-03-12T10:53:52.355Z</time>
      </trkpt>
      <trkpt lat="43.67235" lon="5.86298">
        <ele>467</ele>
        <time>2016-03-12T10:53:54.370Z</time>
      </trkpt>
      <trkpt lat="43.67233" lon="5.86292">
        <ele>466</ele>
        <time>2016-03-12T10:53:55.369Z</time>
      </trkpt>
      <trkpt lat="43.67236" lon="5.8628">
        <ele>466</ele>
        <time>2016-03-12T10:53:56.361Z</time>
      </trkpt>
      <trkpt lat="43.67237" lon="5.86272">
        <ele>466</ele>
        <time>2016-03-12T10:53:57.347Z</time>
      </trkpt>
      <trkpt lat="43.67234" lon="5.86265">
        <ele>466</ele>
        <time>2016-03-12T10:53:58.370Z</time>
      </trkpt>
      <trkpt lat="43.67231" lon="5.86258">
        <ele>466</ele>
        <time>2016-03-12T10:53:59.340Z</time>
      </trkpt>
      <trkpt lat="43.67228" lon="5.86253">
        <ele>466</ele>
        <time>2016-03-12T10:54:00.455Z</time>
      </trkpt>
      <trkpt lat="43.67223" lon="5.86248">
        <ele>466</ele>
        <time>2016-03-12T10:54:01.344Z</time>
      </trkpt>
      <trkpt lat="43.67219" lon="5.86243">
        <ele>466</ele>
        <time>2016-03-12T10:54:02.377Z</time>
      </trkpt>
      <trkpt lat="43.67214" lon="5.86239">
        <ele>466</ele>
        <time>2016-03-12T10:54:03.340Z</time>
      </trkpt>
      <trkpt lat="43.67211" lon="5.86234">
        <ele>467</ele>
        <time>2016-03-12T10:54:04.366Z</time>
      </trkpt>
      <trkpt lat="43.67208" lon="5.8623">
        <ele>467</ele>
        <time>2016-03-12T10:54:05.345Z</time>
      </trkpt>
      <trkpt lat="43.67204" lon="5.86223">
        <ele>467</ele>
        <time>2016-03-12T10:54:07.377Z</time>
      </trkpt>
      <trkpt lat="43.67204" lon="5.86218">
        <ele>466</ele>
        <time>2016-03-12T10:54:08.345Z</time>
      </trkpt>
      <trkpt lat="43.67208" lon="5.8621">
        <ele>466</ele>
        <time>2016-03-12T10:54:10.370Z</time>
      </trkpt>
      <trkpt lat="43.6721" lon="5.86208">
        <ele>467</ele>
        <time>2016-03-12T10:54:11.372Z</time>
      </trkpt>
      <trkpt lat="43.67217" lon="5.86203">
        <ele>467</ele>
        <time>2016-03-12T10:54:13.360Z</time>
      </trkpt>
      <trkpt lat="43.6722" lon="5.86202">
        <ele>467</ele>
        <time>2016-03-12T10:54:14.341Z</time>
      </trkpt>
      <trkpt lat="43.67228" lon="5.86196">
        <ele>467</ele>
        <time>2016-03-12T10:54:16.349Z</time>
      </trkpt>
      <trkpt lat="43.67231" lon="5.86194">
        <ele>467</ele>
        <time>2016-03-12T10:54:17.343Z</time>
      </trkpt>
      <trkpt lat="43.67237" lon="5.86188">
        <ele>468</ele>
        <time>2016-03-12T10:54:19.369Z</time>
      </trkpt>
      <trkpt lat="43.67238" lon="5.86185">
        <ele>468</ele>
        <time>2016-03-12T10:54:20.335Z</time>
      </trkpt>
      <trkpt lat="43.67236" lon="5.86174">
        <ele>467</ele>
        <time>2016-03-12T10:54:23.360Z</time>
      </trkpt>
      <trkpt lat="43.67233" lon="5.86171">
        <ele>467</ele>
        <time>2016-03-12T10:54:24.343Z</time>
      </trkpt>
      <trkpt lat="43.67224" lon="5.86171">
        <ele>468</ele>
        <time>2016-03-12T10:54:27.370Z</time>
      </trkpt>
      <trkpt lat="43.67221" lon="5.86171">
        <ele>468</ele>
        <time>2016-03-12T10:54:28.344Z</time>
      </trkpt>
      <trkpt lat="43.67213" lon="5.86172">
        <ele>469</ele>
        <time>2016-03-12T10:54:31.379Z</time>
      </trkpt>
      <trkpt lat="43.6721" lon="5.86171">
        <ele>469</ele>
        <time>2016-03-12T10:54:32.336Z</time>
      </trkpt>
      <trkpt lat="43.67202" lon="5.86169">
        <ele>469</ele>
        <time>2016-03-12T10:54:35.370Z</time>
      </trkpt>
      <trkpt lat="43.672" lon="5.86169">
        <ele>470</ele>
        <time>2016-03-12T10:54:36.344Z</time>
      </trkpt>
      <trkpt lat="43.67193" lon="5.86168">
        <ele>469</ele>
        <time>2016-03-12T10:54:39.371Z</time>
      </trkpt>
      <trkpt lat="43.6719" lon="5.86166">
        <ele>469</ele>
        <time>2016-03-12T10:54:40.344Z</time>
      </trkpt>
      <trkpt lat="43.67187" lon="5.86155">
        <ele>471</ele>
        <time>2016-03-12T10:54:44.371Z</time>
      </trkpt>
      <trkpt lat="43.67189" lon="5.86153">
        <ele>471</ele>
        <time>2016-03-12T10:54:45.349Z</time>
      </trkpt>
      <trkpt lat="43.67195" lon="5.86148">
        <ele>472</ele>
        <time>2016-03-12T10:54:48.367Z</time>
      </trkpt>
      <trkpt lat="43.67196" lon="5.86146">
        <ele>473</ele>
        <time>2016-03-12T10:54:49.375Z</time>
      </trkpt>
      <trkpt lat="43.67201" lon="5.86136">
        <ele>474</ele>
        <time>2016-03-12T10:54:53.370Z</time>
      </trkpt>
      <trkpt lat="43.67202" lon="5.86134">
        <ele>474</ele>
        <time>2016-03-12T10:54:54.341Z</time>
      </trkpt>
      <trkpt lat="43.67195" lon="5.86127">
        <ele>476</ele>
        <time>2016-03-12T10:55:31.397Z</time>
      </trkpt>
      <trkpt lat="43.67195" lon="5.86127">
        <ele>476</ele>
        <time>2016-03-12T10:55:32.347Z</time>
      </trkpt>
      <trkpt lat="43.67194" lon="5.86128">
        <ele>476</ele>
        <time>2016-03-12T10:56:00.162Z</time>
      </trkpt>
    </trkseg>
  </trk>
</gpx>